
Distance (Route):
Temperature : 2.6°C
Humidity : 88.4%
Pressure : 806.8hPa| Receiver | Frames | First received | Last received |
|---|---|---|---|
| KRY50SP-1 | 840 | 2026-09-05 05:01:43 | 2026-09-05 07:19:21 |
| DB0DAN | 279 | 2026-09-05 04:51:10 | 2026-09-05 06:24:10 |
| AA1-15 | 225 | 2026-09-05 05:05:15 | 2026-09-05 06:13:25 |
| SP6BVK | 159 | 2026-09-05 05:03:34 | 2026-09-05 06:49:05 |
| SP3WXH-11 | 143 | 2026-09-05 05:12:58 | 2026-09-05 07:13:57 |
| SONDE2-11 | 138 | 2026-09-05 04:45:18 | 2026-09-05 06:45:25 |
| EDDB2-12 | 136 | 2026-09-05 04:45:25 | 2026-09-05 06:45:26 |
| SP3BTT-10 | 135 | 2026-09-05 04:50:44 | 2026-09-05 07:13:05 |
| 13BRC | 105 | 2026-09-05 04:51:07 | 2026-09-05 06:17:59 |
| EDDB2-11 | 104 | 2026-09-05 04:45:35 | 2026-09-05 06:32:36 |
| 3Z3Z-3 | 103 | 2026-09-05 05:26:58 | 2026-09-05 06:22:27 |
| DM0DOS-11 | 87 | 2026-09-05 05:26:14 | 2026-09-05 05:49:02 |
| DL2RXE-15 | 80 | 2026-09-05 04:51:05 | 2026-09-05 06:05:49 |
| DAC517 | 48 | 2026-09-05 04:53:09 | 2026-09-05 05:55:20 |
| S3001 | 40 | 2026-09-05 05:00:50 | 2026-09-05 06:10:10 |
| SONCRA | 30 | 2026-09-05 05:10:45 | 2026-09-05 05:58:22 |
| DB0NH | 28 | 2026-09-05 05:12:02 | 2026-09-05 06:01:04 |
| OE3JTB-15 | 11 | 2026-09-05 05:19:44 | 2026-09-05 06:26:15 |
| POL2MAQ | 6 | 2026-09-05 05:36:37 | 2026-09-05 05:50:15 |
| DL1XH1-15 | 4 | 2026-09-05 05:38:46 | 2026-09-05 05:46:45 |
| MECKS9 | 3 | 2026-09-05 05:11:20 | 2026-09-05 05:34:52 |
| DO3MHA-11 | 3 | 2026-09-05 05:42:16 | 2026-09-05 05:43:39 |
| POL1PZ | 1 | 2026-09-05 05:35:38 | 2026-09-05 05:35:38 |
| Receiver | Date | Latitude | Longitude | Direction | Speed | Altitude | Climb | Temperature | Humidity | Pressure | Voltage | Killtimer | Uptime | BKT | XDATA |
|---|---|---|---|---|---|---|---|---|---|---|---|---|---|---|---|
| KRY50SP-1 | 2026-09-05 07:19:21 | 52.12452 | 18.36320 | 101° | 60km/h | 1913m | -1.6m/s | 2.6°C | 88.4% | 806.8hPa | 2.7V | 00:00:00 | 00:00:00 | 00:00:00 | |
| KRY50SP-1 | 2026-09-05 07:19:16 | 52.12467 | 18.36193 | 103° | 68km/h | 1922m | -2.2m/s | 2.5°C | 88.9% | 805.8hPa | 2.7V | 06:55:00 | 00:00:00 | 00:00:00 | |
| KRY50SP-1 | 2026-09-05 07:19:07 | 52.12499 | 18.35942 | 104° | 73km/h | 1940m | -2.0m/s | 2.4°C | 89.8% | 803.9hPa | 2.7V | 06:55:00 | 00:00:00 | 00:00:00 | |
| KRY50SP-1 | 2026-09-05 07:18:58 | 52.12542 | 18.35690 | 110° | 68km/h | 1956m | -1.8m/s | 2.2°C | 90.6% | 802.5hPa | 2.7V | 06:55:00 | 00:00:00 | 00:00:00 | |
| KRY50SP-1 | 2026-09-05 07:18:51 | 52.12572 | 18.35516 | 101° | 62km/h | 1969m | -1.6m/s | 2.1°C | 91.4% | 801.1hPa | 2.7V | 06:55:00 | 00:00:00 | 00:00:00 | |
| KRY50SP-1 | 2026-09-05 07:18:45 | 52.12591 | 18.35357 | 103° | 68km/h | 1978m | -2.1m/s | 2.0°C | 92.1% | 800.1hPa | 2.7V | 06:55:00 | 00:00:00 | 00:00:00 | |
| KRY50SP-1 | 2026-09-05 07:18:39 | 52.12614 | 18.35186 | 107° | 73km/h | 1989m | -2.0m/s | 1.9°C | 92.8% | 799.0hPa | 2.7V | 06:55:00 | 00:00:00 | 00:00:00 | |
| KRY50SP-1 | 2026-09-05 07:18:28 | 52.12676 | 18.34892 | 108° | 62km/h | 2009m | -1.9m/s | 2.1°C | 94.4% | 797.1hPa | 2.7V | 06:55:00 | 00:00:00 | 00:00:00 | |
| KRY50SP-1 | 2026-09-05 07:18:22 | 52.12701 | 18.34744 | 102° | 64km/h | 2018m | -1.4m/s | 2.0°C | 95.0% | 796.1hPa | 2.7V | 06:56:00 | 00:00:00 | 00:00:00 | |
| KRY50SP-1 | 2026-09-05 07:18:14 | 52.12729 | 18.34519 | 107° | 73km/h | 2032m | -2.0m/s | 2.0°C | 94.3% | 794.8hPa | 2.7V | 06:56:00 | 00:00:00 | 00:00:00 | |
| KRY50SP-1 | 2026-09-05 07:18:07 | 52.12767 | 18.34327 | 114° | 66km/h | 2045m | -1.9m/s | 2.0°C | 93.4% | 793.6hPa | 2.7V | 06:56:00 | 00:00:00 | 00:00:00 | |
| KRY50SP-1 | 2026-09-05 07:18:00 | 52.12802 | 18.34156 | 105° | 62km/h | 2058m | -1.8m/s | 1.9°C | 93.7% | 792.3hPa | 2.7V | 06:56:00 | 00:00:00 | 00:00:00 | |
| KRY50SP-1 | 2026-09-05 07:17:55 | 52.12818 | 18.34026 | 102° | 68km/h | 2067m | -1.4m/s | 1.8°C | 93.8% | 791.6hPa | 2.7V | 06:56:00 | 00:00:00 | 00:00:00 | |
| KRY50SP-1 | 2026-09-05 07:17:49 | 52.12842 | 18.33853 | 107° | 73km/h | 2077m | -1.8m/s | 1.8°C | 93.8% | 790.6hPa | 2.7V | 06:56:00 | 00:00:00 | 00:00:00 | |
| KRY50SP-1 | 2026-09-05 07:17:43 | 52.12876 | 18.33683 | 110° | 69km/h | 2087m | -1.7m/s | 1.7°C | 94.1% | 789.6hPa | 2.7V | 06:56:00 | 00:00:00 | 00:00:00 | |
| KRY50SP-1 | 2026-09-05 07:17:38 | 52.12902 | 18.33554 | 106° | 64km/h | 2096m | -1.8m/s | 1.6°C | 94.5% | 788.6hPa | 2.7V | 06:56:00 | 00:00:00 | 00:00:00 | |
| KRY50SP-1 | 2026-09-05 07:17:32 | 52.12921 | 18.33390 | 101° | 71km/h | 2106m | -1.6m/s | 1.6°C | 94.6% | 787.6hPa | 2.7V | 06:57:00 | 00:00:00 | 00:00:00 | |
| KRY50SP-1 | 2026-09-05 07:17:25 | 52.12942 | 18.33187 | 102° | 75km/h | 2118m | -1.8m/s | 1.5°C | 95.5% | 786.5hPa | 2.7V | 06:57:00 | 00:00:00 | 00:00:00 | |
| KRY50SP-1 | 2026-09-05 07:17:19 | 52.12967 | 18.33006 | 107° | 75km/h | 2128m | -1.6m/s | 1.4°C | 96.0% | 785.4hPa | 2.7V | 06:57:00 | 00:00:00 | 00:00:00 | |
| KRY50SP-1 | 2026-09-05 07:17:08 | 52.13014 | 18.32710 | 101° | 66km/h | 2145m | -1.8m/s | 1.5°C | 93.5% | 783.8hPa | 2.7V | 06:57:00 | 00:00:00 | 00:00:00 | |
| KRY50SP-1 | 2026-09-05 07:17:03 | 52.13026 | 18.32572 | 100° | 71km/h | 2153m | -1.6m/s | 1.5°C | 93.2% | 783.0hPa | 2.7V | 06:57:00 | 00:00:00 | 00:00:00 | |
| KRY50SP-1 | 2026-09-05 07:16:57 | 52.13046 | 18.32390 | 103° | 75km/h | 2162m | -1.5m/s | 1.6°C | 90.7% | 782.1hPa | 2.7V | 06:57:00 | 00:00:00 | 00:00:00 | |
| KRY50SP-1 | 2026-09-05 07:16:53 | 52.13071 | 18.32242 | 109° | 71km/h | 2170m | -1.7m/s | 1.6°C | 90.0% | 781.4hPa | 2.7V | 06:57:00 | 00:00:00 | 00:00:00 | |
| KRY50SP-1 | 2026-09-05 07:16:46 | 52.13099 | 18.32084 | 104° | 66km/h | 2178m | -1.2m/s | 1.7°C | 85.9% | 780.5hPa | 2.7V | 06:57:00 | 00:00:00 | 00:00:00 | |
| KRY50SP-1 | 2026-09-05 07:16:41 | 52.13114 | 18.31951 | 98° | 68km/h | 2185m | -1.3m/s | 1.8°C | 83.7% | 780.0hPa | 2.7V | 06:57:00 | 00:00:00 | 00:00:00 | |
| KRY50SP-1 | 2026-09-05 07:16:35 | 52.13128 | 18.31775 | 101° | 77km/h | 2193m | -1.4m/s | 1.7°C | 83.4% | 779.1hPa | 2.7V | 06:57:00 | 00:00:00 | 00:00:00 | |
| KRY50SP-1 | 2026-09-05 07:16:30 | 52.13148 | 18.31624 | 106° | 73km/h | 2200m | -1.2m/s | 1.7°C | 83.2% | 778.6hPa | 2.7V | 06:57:00 | 00:00:00 | 00:00:00 | |
| KRY50SP-1 | 2026-09-05 07:16:24 | 52.13179 | 18.31458 | 106° | 66km/h | 2207m | -0.9m/s | 1.7°C | 83.3% | 777.8hPa | 2.7V | 06:57:00 | 00:00:00 | 00:00:00 | |
| KRY50SP-1 | 2026-09-05 07:16:19 | 52.13197 | 18.31328 | 101° | 66km/h | 2214m | -0.9m/s | 1.6°C | 83.1% | 777.2hPa | 2.7V | 06:57:00 | 00:00:00 | 00:00:00 | |
| KRY50SP-1 | 2026-09-05 07:16:14 | 52.13209 | 18.31190 | 100° | 71km/h | 2220m | -1.1m/s | 1.6°C | 83.3% | 776.6hPa | 2.7V | 06:57:00 | 00:00:00 | 00:00:00 | |
| KRY50SP-1 | 2026-09-05 07:16:09 | 52.13227 | 18.31040 | 106° | 77km/h | 2225m | -1.3m/s | 1.5°C | 83.7% | 776.0hPa | 2.7V | 06:57:00 | 00:00:00 | 00:00:00 | |
| KRY50SP-1 | 2026-09-05 07:16:03 | 52.13257 | 18.30861 | 109° | 73km/h | 2233m | -1.4m/s | 1.5°C | 82.9% | 775.3hPa | 2.7V | 06:57:00 | 00:00:00 | 00:00:00 | |
| KRY50SP-1 | 2026-09-05 07:15:57 | 52.13288 | 18.30697 | 106° | 66km/h | 2239m | -1.1m/s | 1.5°C | 82.7% | 774.6hPa | 2.7V | 06:57:00 | 00:00:00 | 00:00:00 | |
| KRY50SP-1 | 2026-09-05 07:15:52 | 52.13305 | 18.30565 | 99° | 68km/h | 2245m | -1.3m/s | 1.5°C | 82.2% | 773.9hPa | 2.7V | 06:58:00 | 00:00:00 | 00:00:00 | |
| KRY50SP-1 | 2026-09-05 07:15:47 | 52.13317 | 18.30419 | 100° | 75km/h | 2252m | -1.2m/s | 1.4°C | 82.4% | 773.3hPa | 2.7V | 06:58:00 | 00:00:00 | 00:00:00 | |
| KRY50SP-1 | 2026-09-05 07:15:41 | 52.13342 | 18.30237 | 107° | 73km/h | 2260m | -1.1m/s | 1.5°C | 82.2% | 772.6hPa | 2.7V | 06:58:00 | 00:00:00 | 00:00:00 | |
| KRY50SP-1 | 2026-09-05 07:15:36 | 52.13367 | 18.30103 | 107° | 64km/h | 2266m | -1.4m/s | 1.5°C | 80.2% | 771.9hPa | 2.7V | 06:58:00 | 00:00:00 | 00:00:00 | |
| KRY50SP-1 | 2026-09-05 07:15:31 | 52.13384 | 18.29974 | 100° | 66km/h | 2274m | -1.2m/s | 1.5°C | 80.5% | 771.4hPa | 2.7V | 06:58:00 | 00:00:00 | 00:00:00 | |
| KRY50SP-1 | 2026-09-05 07:15:26 | 52.13396 | 18.29836 | 99° | 71km/h | 2281m | -1.7m/s | 1.4°C | 80.5% | 770.8hPa | 2.7V | 06:58:00 | 00:00:00 | 00:00:00 | |
| KRY50SP-1 | 2026-09-05 07:15:20 | 52.13417 | 18.29657 | 105° | 73km/h | 2288m | -1.2m/s | 1.4°C | 80.1% | 770.0hPa | 2.7V | 06:58:00 | 00:00:00 | 00:00:00 | |
| KRY50SP-1 | 2026-09-05 07:15:14 | 52.13446 | 18.29490 | 106° | 66km/h | 2295m | -1.0m/s | 1.4°C | 78.7% | 769.3hPa | 2.7V | 06:58:00 | 00:00:00 | 00:00:00 | |
| KRY50SP-1 | 2026-09-05 07:15:08 | 52.13470 | 18.29339 | 105° | 62km/h | 2303m | -1.4m/s | 1.3°C | 77.8% | 768.4hPa | 2.7V | 06:58:00 | 00:00:00 | 00:00:00 | |
| KRY50SP-1 | 2026-09-05 07:15:02 | 52.13486 | 18.29179 | 102° | 71km/h | 2312m | -1.4m/s | 1.3°C | 78.0% | 767.7hPa | 2.7V | 06:59:00 | 00:00:00 | 00:00:00 | |
| KRY50SP-1 | 2026-09-05 07:14:56 | 52.13512 | 18.29002 | 106° | 75km/h | 2320m | -1.5m/s | 1.2°C | 78.0% | 766.9hPa | 2.7V | 06:59:00 | 00:00:00 | 00:00:00 | |
| KRY50SP-1 | 2026-09-05 07:14:50 | 52.13543 | 18.28834 | 111° | 69km/h | 2331m | -1.9m/s | 1.1°C | 78.4% | 765.9hPa | 2.7V | 06:59:00 | 00:00:00 | 00:00:00 | |
| KRY50SP-1 | 2026-09-05 07:14:44 | 52.13571 | 18.28678 | 104° | 62km/h | 2340m | -1.6m/s | 1.0°C | 77.7% | 764.9hPa | 2.7V | 06:59:00 | 00:00:00 | 00:00:00 | |
| KRY50SP-1 | 2026-09-05 07:14:39 | 52.13585 | 18.28549 | 100° | 68km/h | 2349m | -1.7m/s | 1.0°C | 77.3% | 764.3hPa | 2.7V | 06:59:00 | 00:00:00 | 00:00:00 | |
| KRY50SP-1 | 2026-09-05 07:14:34 | 52.13598 | 18.28405 | 102° | 73km/h | 2356m | -1.7m/s | 1.0°C | 77.9% | 763.5hPa | 2.7V | 06:59:00 | 00:00:00 | 00:00:00 | |
| KRY50SP-1 | 2026-09-05 07:14:29 | 52.13623 | 18.28227 | 108° | 73km/h | 2366m | -2.0m/s | 0.8°C | 78.3% | 762.7hPa | 2.7V | 06:59:00 | 00:00:00 | 00:00:00 | |
| KRY50SP-1 | 2026-09-05 07:14:23 | 52.13651 | 18.28088 | 110° | 66km/h | 2375m | -1.6m/s | 0.8°C | 78.7% | 761.8hPa | 2.7V | 06:59:00 | 00:00:00 | 00:00:00 | |
| KRY50SP-1 | 2026-09-05 07:14:18 | 52.13672 | 18.27962 | 104° | 62km/h | 2383m | -1.7m/s | 0.7°C | 78.4% | 760.9hPa | 2.7V | 06:59:00 | 00:00:00 | 00:00:00 | |
| KRY50SP-1 | 2026-09-05 07:14:12 | 52.13689 | 18.27800 | 100° | 71km/h | 2392m | -1.4m/s | 0.6°C | 79.1% | 760.2hPa | 2.7V | 06:59:00 | 00:00:00 | 00:00:00 | |
| KRY50SP-1 | 2026-09-05 07:14:07 | 52.13709 | 18.27654 | 106° | 73km/h | 2400m | -1.8m/s | 0.5°C | 79.6% | 759.4hPa | 2.7V | 00:00:00 | 00:00:00 | 00:00:00 | |
| SP3WXH-11 | 2026-09-05 07:13:57 | 52.13769 | 18.27359 | 107° | 62km/h | 2421m | -1.3m/s | 0.5°C | 77.3% | 757.6hPa | 2.7V | 00:00:00 | 00:00:00 | 00:00:00 | |
| KRY50SP-1 | 2026-09-05 07:13:55 | 52.13774 | 18.27334 | 108° | 62km/h | 2423m | -1.7m/s | 0.5°C | 77.4% | 757.4hPa | 2.7V | 00:00:00 | 00:00:00 | 00:00:00 | |
| KRY50SP-1 | 2026-09-05 07:13:50 | 52.13797 | 18.27187 | 99° | 64km/h | 2431m | -1.4m/s | 0.5°C | 75.6% | 756.5hPa | 2.7V | 00:00:00 | 00:00:00 | 00:00:00 | |
| KRY50SP-1 | 2026-09-05 07:13:43 | 52.13818 | 18.27017 | 106° | 73km/h | 2439m | -1.5m/s | 0.5°C | 76.1% | 755.9hPa | 2.7V | 00:00:00 | 00:00:00 | 00:00:00 | |
| KRY50SP-1 | 2026-09-05 07:13:37 | 52.13848 | 18.26845 | 110° | 71km/h | 2447m | -1.4m/s | 0.3°C | 76.8% | 755.0hPa | 2.7V | 00:00:00 | 00:00:00 | 00:00:00 | |
| KRY50SP-1 | 2026-09-05 07:13:31 | 52.13880 | 18.26692 | 106° | 64km/h | 2455m | -1.0m/s | 0.3°C | 78.1% | 754.1hPa | 2.7V | 00:00:00 | 00:00:00 | 00:00:00 | |
| KRY50SP-1 | 2026-09-05 07:13:25 | 52.13899 | 18.26538 | 100° | 66km/h | 2464m | -1.7m/s | 0.1°C | 78.3% | 753.4hPa | 2.7V | 00:00:00 | 00:00:00 | 00:00:00 | |
| KRY50SP-1 | 2026-09-05 07:13:20 | 52.13912 | 18.26403 | 99° | 66km/h | 2473m | -1.7m/s | 0.1°C | 78.5% | 752.4hPa | 2.7V | 07:01:00 | 00:00:00 | 00:00:00 | |
| KRY50SP-1 | 2026-09-05 07:13:12 | 52.13939 | 18.26177 | 105° | 71km/h | 2487m | -1.7m/s | -0.0°C | 78.7% | 751.3hPa | 2.7V | 07:01:00 | 00:00:00 | 00:00:00 | |
| KRY50SP-1 | 2026-09-05 07:13:06 | 52.13966 | 18.26021 | 104° | 62km/h | 2498m | -1.5m/s | -0.2°C | 79.7% | 750.3hPa | 2.7V | 07:01:00 | 00:00:00 | 00:00:00 | |
| SP3BTT-10 | 2026-09-05 07:13:05 | 52.13973 | 18.25970 | 103° | 69km/h | 2501m | -2.0m/s | -0.2°C | 81.4% | 749.9hPa | 2.7V | 00:00:00 | 00:00:00 | 00:00:00 | |
| KRY50SP-1 | 2026-09-05 07:13:01 | 52.13982 | 18.25895 | 103° | 60km/h | 2507m | -2.3m/s | -0.3°C | 79.9% | 749.3hPa | 2.7V | 07:01:00 | 00:00:00 | 00:00:00 | |
| KRY50SP-1 | 2026-09-05 07:12:56 | 52.13996 | 18.25769 | 100° | 66km/h | 2518m | -1.7m/s | -0.3°C | 79.9% | 748.6hPa | 2.7V | 07:01:00 | 00:00:00 | 00:00:00 | |
| KRY50SP-1 | 2026-09-05 07:12:51 | 52.14009 | 18.25631 | 100° | 71km/h | 2526m | -1.7m/s | -0.4°C | 79.6% | 747.6hPa | 2.7V | 07:01:00 | 00:00:00 | 00:00:00 | |
| KRY50SP-1 | 2026-09-05 07:12:45 | 52.14032 | 18.25455 | 107° | 73km/h | 2536m | -2.1m/s | -0.2°C | 76.1% | 746.6hPa | 2.7V | 07:01:00 | 00:00:00 | 00:00:00 | |
| SP3BTT-10 | 2026-09-05 07:12:43 | 52.14047 | 18.25368 | 108° | 68km/h | 2542m | -2.3m/s | -0.2°C | 78.1% | 746.0hPa | 2.7V | 00:00:00 | 00:00:00 | 00:00:00 | |
| KRY50SP-1 | 2026-09-05 07:12:39 | 52.14062 | 18.25282 | 109° | 73km/h | 2549m | -2.4m/s | -0.3°C | 76.1% | 745.4hPa | 2.7V | 07:01:00 | 00:00:00 | 00:00:00 | |
| KRY50SP-1 | 2026-09-05 07:12:33 | 52.14095 | 18.25113 | 110° | 69km/h | 2561m | -2.3m/s | -0.4°C | 76.2% | 744.4hPa | 2.7V | 07:01:00 | 00:00:00 | 00:00:00 | |
| KRY50SP-1 | 2026-09-05 07:12:27 | 52.14121 | 18.24960 | 101° | 62km/h | 2572m | -1.9m/s | -0.6°C | 78.5% | 743.4hPa | 2.7V | 00:00:00 | 00:00:00 | 00:00:00 | |
| SP3BTT-10 | 2026-09-05 07:12:23 | 52.14134 | 18.24825 | 101° | 69km/h | 2581m | -1.6m/s | -0.6°C | 80.2% | 742.5hPa | 2.7V | 07:01:00 | 00:00:00 | 00:00:00 | |
| KRY50SP-1 | 2026-09-05 07:12:22 | 52.14134 | 18.24826 | 101° | 69km/h | 2581m | -1.7m/s | -0.7°C | 78.2% | 742.6hPa | 2.7V | 00:00:00 | 00:00:00 | 00:00:00 | |
| KRY50SP-1 | 2026-09-05 07:12:16 | 52.14156 | 18.24649 | 104° | 73km/h | 2590m | -1.7m/s | -0.8°C | 77.9% | 741.5hPa | 2.7V | 00:00:00 | 00:00:00 | 00:00:00 | |
| KRY50SP-1 | 2026-09-05 07:12:11 | 52.14183 | 18.24505 | 111° | 69km/h | 2600m | -2.0m/s | -0.8°C | 78.1% | 740.7hPa | 2.7V | 00:00:00 | 00:00:00 | 00:00:00 | |
| KRY50SP-1 | 2026-09-05 07:12:06 | 52.14210 | 18.24376 | 108° | 64km/h | 2608m | -1.3m/s | -0.8°C | 78.2% | 740.1hPa | 2.7V | 00:00:00 | 00:00:00 | 00:00:00 | |
| SP3BTT-10 | 2026-09-05 07:12:00 | 52.14236 | 18.24197 | 100° | 71km/h | 2620m | -1.4m/s | -1.0°C | 81.4% | 738.8hPa | 2.7V | 00:00:00 | 00:00:00 | 00:00:00 | |
| KRY50SP-1 | 2026-09-05 07:11:54 | 52.14253 | 18.24054 | 103° | 73km/h | 2630m | -2.2m/s | -1.2°C | 80.2% | 738.0hPa | 2.7V | 00:00:00 | 00:00:00 | 00:00:00 | |
| KRY50SP-1 | 2026-09-05 07:11:48 | 52.14279 | 18.23875 | 108° | 75km/h | 2643m | -2.1m/s | -1.2°C | 79.8% | 736.7hPa | 2.7V | 00:00:00 | 00:00:00 | 00:00:00 | |
| KRY50SP-1 | 2026-09-05 07:11:42 | 52.14313 | 18.23706 | 110° | 68km/h | 2655m | -1.9m/s | -1.3°C | 80.7% | 735.7hPa | 2.7V | 00:00:00 | 00:00:00 | 00:00:00 | |
| KRY50SP-1 | 2026-09-05 07:11:37 | 52.14336 | 18.23577 | 104° | 64km/h | 2664m | -1.7m/s | -1.5°C | 81.8% | 734.9hPa | 2.7V | 07:03:00 | 00:00:00 | 00:00:00 | |
| KRY50SP-1 | 2026-09-05 07:11:31 | 52.14356 | 18.23414 | 103° | 71km/h | 2676m | -2.0m/s | -1.5°C | 80.7% | 733.8hPa | 2.7V | 07:03:00 | 00:00:00 | 00:00:00 | |
| SP3BTT-10 | 2026-09-05 07:11:29 | 52.14367 | 18.23325 | 103° | 73km/h | 2682m | -1.8m/s | -1.5°C | 83.0% | 733.2hPa | 2.7V | 00:00:00 | 00:00:00 | 00:00:00 | |
| KRY50SP-1 | 2026-09-05 07:11:25 | 52.14380 | 18.23234 | 104° | 77km/h | 2688m | -2.1m/s | -1.6°C | 80.8% | 732.6hPa | 2.7V | 07:03:00 | 00:00:00 | 00:00:00 | |
| SP3WXH-11 | 2026-09-05 07:11:22 | 52.14399 | 18.23110 | 104° | 77km/h | 2697m | -1.8m/s | -1.7°C | 80.3% | 731.9hPa | 2.7V | 00:00:00 | 00:00:00 | 00:00:00 | |
| KRY50SP-1 | 2026-09-05 07:11:19 | 52.14409 | 18.23049 | 107° | 77km/h | 2701m | -1.8m/s | -1.6°C | 80.5% | 731.6hPa | 2.7V | 07:03:00 | 00:00:00 | 00:00:00 | |
| KRY50SP-1 | 2026-09-05 07:11:14 | 52.14438 | 18.22906 | 109° | 71km/h | 2712m | -2.2m/s | -1.8°C | 81.1% | 730.6hPa | 2.7V | 07:03:00 | 00:00:00 | 00:00:00 | |
| KRY50SP-1 | 2026-09-05 07:11:09 | 52.14461 | 18.22770 | 103° | 68km/h | 2722m | -2.2m/s | -1.9°C | 81.8% | 729.6hPa | 2.7V | 07:03:00 | 00:00:00 | 00:00:00 | |
| KRY50SP-1 | 2026-09-05 07:11:03 | 52.14480 | 18.22601 | 100° | 71km/h | 2735m | -1.7m/s | -2.0°C | 81.1% | 728.4hPa | 2.7V | 07:03:00 | 00:00:00 | 00:00:00 | |
| SP3WXH-11 | 2026-09-05 07:10:51 | 52.14530 | 18.22208 | 103° | 69km/h | 2759m | -1.9m/s | -2.1°C | 82.3% | 726.1hPa | 2.7V | 00:00:00 | 00:00:00 | 00:00:00 | |
| KRY50SP-1 | 2026-09-05 07:10:46 | 52.14544 | 18.22096 | 102° | 69km/h | 2767m | -2.0m/s | -2.1°C | 81.9% | 725.3hPa | 2.7V | 07:03:00 | 00:00:00 | 00:00:00 | |
| KRY50SP-1 | 2026-09-05 07:10:41 | 52.14558 | 18.21956 | 101° | 71km/h | 2776m | -2.0m/s | -2.3°C | 83.6% | 724.5hPa | 2.7V | 07:03:00 | 00:00:00 | 00:00:00 | |
| KRY50SP-1 | 2026-09-05 07:10:36 | 52.14573 | 18.21808 | 100° | 77km/h | 2787m | -2.1m/s | -2.3°C | 81.2% | 723.4hPa | 2.7V | 07:03:00 | 00:00:00 | 00:00:00 | |
| SP3BTT-10 | 2026-09-05 07:10:35 | 52.14579 | 18.21744 | 100° | 78km/h | 2791m | -1.7m/s | -2.3°C | 84.5% | 723.1hPa | 2.7V | 00:00:00 | 00:00:00 | 00:00:00 | |
| KRY50SP-1 | 2026-09-05 07:10:30 | 52.14593 | 18.21616 | 103° | 80km/h | 2799m | -2.2m/s | -2.1°C | 78.1% | 722.5hPa | 2.7V | 07:03:00 | 00:00:00 | 00:00:00 | |
| KRY50SP-1 | 2026-09-05 07:10:25 | 52.14617 | 18.21460 | 106° | 75km/h | 2810m | -2.1m/s | -2.0°C | 72.0% | 721.5hPa | 2.7V | 07:03:00 | 00:00:00 | 00:00:00 | |
| SP3WXH-11 | 2026-09-05 07:10:20 | 52.14645 | 18.21290 | 101° | 68km/h | 2823m | -2.0m/s | -2.0°C | 70.3% | 720.3hPa | 2.7V | 00:00:00 | 00:00:00 | 00:00:00 | |
| KRY50SP-1 | 2026-09-05 07:10:14 | 52.14659 | 18.21145 | 100° | 77km/h | 2833m | -2.0m/s | -2.1°C | 70.0% | 719.4hPa | 2.7V | 07:03:00 | 00:00:00 | 00:00:00 | |
| KRY50SP-1 | 2026-09-05 07:10:09 | 52.14677 | 18.20986 | 102° | 80km/h | 2843m | -1.8m/s | -2.2°C | 70.5% | 718.6hPa | 2.7V | 07:03:00 | 00:00:00 | 00:00:00 | |
| KRY50SP-1 | 2026-09-05 07:10:04 | 52.14701 | 18.20826 | 107° | 80km/h | 2852m | -1.9m/s | -2.3°C | 71.1% | 717.5hPa | 2.7V | 07:03:00 | 00:00:00 | 00:00:00 | |
| SP3WXH-11 | 2026-09-05 07:09:49 | 52.14770 | 18.20342 | 101° | 82km/h | 2886m | -2.1m/s | -2.5°C | 69.9% | 714.6hPa | 2.7V | 00:00:00 | 00:00:00 | 00:00:00 | |
| KRY50SP-1 | 2026-09-05 07:09:47 | 52.14774 | 18.20309 | 103° | 82km/h | 2888m | -2.2m/s | -2.5°C | 69.4% | 714.4hPa | 2.7V | 07:04:00 | 00:00:00 | 00:00:00 | |
| KRY50SP-1 | 2026-09-05 07:09:42 | 52.14798 | 18.20143 | 106° | 82km/h | 2898m | -1.8m/s | -2.6°C | 69.3% | 713.6hPa | 2.7V | 07:04:00 | 00:00:00 | 00:00:00 | |
| KRY50SP-1 | 2026-09-05 07:09:37 | 52.14828 | 18.19986 | 109° | 77km/h | 2907m | -2.2m/s | -2.7°C | 69.9% | 712.7hPa | 2.7V | 07:04:00 | 00:00:00 | 00:00:00 | |
| KRY50SP-1 | 2026-09-05 07:09:31 | 52.14856 | 18.19803 | 102° | 78km/h | 2919m | -2.1m/s | -2.8°C | 70.2% | 711.6hPa | 2.7V | 07:04:00 | 00:00:00 | 00:00:00 | |
| KRY50SP-1 | 2026-09-05 07:09:20 | 52.14903 | 18.19430 | 105° | 86km/h | 2943m | -2.0m/s | -2.9°C | 70.1% | 709.5hPa | 2.7V | 07:04:00 | 00:00:00 | 00:00:00 | |
| SP3WXH-11 | 2026-09-05 07:09:18 | 52.14920 | 18.19327 | 106° | 86km/h | 2949m | -2.0m/s | -3.0°C | 69.6% | 708.8hPa | 2.7V | 00:00:00 | 00:00:00 | 00:00:00 | |
| KRY50SP-1 | 2026-09-05 07:09:15 | 52.14933 | 18.19260 | 109° | 84km/h | 2953m | -2.0m/s | -3.1°C | 70.8% | 708.5hPa | 2.7V | 07:04:00 | 00:00:00 | 00:00:00 | |
| KRY50SP-1 | 2026-09-05 07:09:10 | 52.14965 | 18.19101 | 107° | 78km/h | 2963m | -2.1m/s | -3.0°C | 66.5% | 707.5hPa | 2.7V | 07:04:00 | 00:00:00 | 00:00:00 | |
| SP3BTT-10 | 2026-09-05 07:09:08 | 52.14980 | 18.19008 | 103° | 86km/h | 2969m | -1.8m/s | -3.1°C | 69.4% | 707.0hPa | 2.7V | 00:00:00 | 00:00:00 | 00:00:00 | |
| KRY50SP-1 | 2026-09-05 07:09:04 | 52.14992 | 18.18909 | 102° | 84km/h | 2975m | -1.9m/s | -3.2°C | 67.7% | 706.5hPa | 2.7V | 07:05:00 | 00:00:00 | 00:00:00 | |
| KRY50SP-1 | 2026-09-05 07:08:59 | 52.15015 | 18.18735 | 104° | 89km/h | 2985m | -2.0m/s | -3.1°C | 62.8% | 705.6hPa | 2.7V | 07:05:00 | 00:00:00 | 00:00:00 | |
| KRY50SP-1 | 2026-09-05 07:08:54 | 52.15045 | 18.18557 | 109° | 89km/h | 2995m | -2.2m/s | -3.1°C | 60.8% | 704.6hPa | 2.7V | 07:05:00 | 00:00:00 | 00:00:00 | |
| KRY50SP-1 | 2026-09-05 07:08:49 | 52.15080 | 18.18390 | 109° | 82km/h | 3005m | -2.1m/s | -3.0°C | 56.6% | 703.9hPa | 2.7V | 07:05:00 | 00:00:00 | 00:00:00 | |
| SP3BTT-10 | 2026-09-05 07:08:47 | 52.15097 | 18.18295 | 105° | 88km/h | 3011m | -1.8m/s | -2.9°C | 55.7% | 703.2hPa | 2.7V | 00:00:00 | 00:00:00 | 00:00:00 | |
| KRY50SP-1 | 2026-09-05 07:08:43 | 52.15110 | 18.18196 | 103° | 84km/h | 3017m | -1.8m/s | -3.0°C | 53.6% | 702.7hPa | 2.7V | 07:05:00 | 00:00:00 | 00:00:00 | |
| KRY50SP-1 | 2026-09-05 07:08:38 | 52.15135 | 18.18019 | 105° | 91km/h | 3027m | -2.0m/s | -3.0°C | 51.6% | 701.9hPa | 2.7V | 07:05:00 | 00:00:00 | 00:00:00 | |
| KRY50SP-1 | 2026-09-05 07:08:33 | 52.15167 | 18.17839 | 108° | 91km/h | 3037m | -1.7m/s | -3.0°C | 50.2% | 701.0hPa | 2.7V | 07:05:00 | 00:00:00 | 00:00:00 | |
| SP3BTT-10 | 2026-09-05 07:08:27 | 52.15221 | 18.17596 | 112° | 86km/h | 3050m | -1.9m/s | -3.0°C | 50.0% | 699.8hPa | 2.7V | 07:05:00 | 00:00:00 | 00:00:00 | |
| KRY50SP-1 | 2026-09-05 07:08:21 | 52.15255 | 18.17437 | 107° | 80km/h | 3059m | -1.7m/s | -3.1°C | 46.0% | 699.2hPa | 2.7V | 07:05:00 | 00:00:00 | 00:00:00 | |
| SP3WXH-11 | 2026-09-05 07:08:16 | 52.15287 | 18.17234 | 105° | 89km/h | 3069m | -1.9m/s | -3.1°C | 0% | 698.1hPa | 2.7V | 00:00:00 | 00:00:00 | 00:00:00 | |
| KRY50SP-1 | 2026-09-05 07:08:10 | 52.15322 | 18.17054 | 109° | 89km/h | 3078m | -1.3m/s | -3.0°C | 39.9% | 697.3hPa | 2.7V | 07:06:00 | 00:00:00 | 00:00:00 | |
| SP3BTT-10 | 2026-09-05 07:08:07 | 52.15353 | 18.16917 | 112° | 86km/h | 3085m | -1.5m/s | -2.8°C | 37.6% | 696.6hPa | 2.7V | 00:00:00 | 00:00:00 | 00:00:00 | |
| KRY50SP-1 | 2026-09-05 07:08:05 | 52.15362 | 18.16884 | 113° | 86km/h | 3086m | -1.7m/s | -2.7°C | 35.6% | 696.6hPa | 2.7V | 07:06:00 | 00:00:00 | 00:00:00 | |
| SP3WXH-11 | 2026-09-05 07:07:45 | 52.15517 | 18.16184 | 112° | 91km/h | 3123m | -1.7m/s | -2.4°C | 30.4% | 693.5hPa | 2.7V | 00:00:00 | 00:00:00 | 00:00:00 | |
| KRY50SP-1 | 2026-09-05 07:07:43 | 52.15526 | 18.16150 | 114° | 91km/h | 3125m | -1.6m/s | -2.4°C | 30.3% | 693.2hPa | 2.7V | 07:06:00 | 00:00:00 | 00:00:00 | |
| KRY50SP-1 | 2026-09-05 07:07:38 | 52.15570 | 18.15983 | 114° | 84km/h | 3132m | -1.4m/s | -2.5°C | 29.7% | 692.5hPa | 2.7V | 07:06:00 | 00:00:00 | 00:00:00 | |
| KRY50SP-1 | 2026-09-05 07:07:33 | 52.15606 | 18.15823 | 109° | 82km/h | 3140m | -1.4m/s | -2.5°C | 29.5% | 691.8hPa | 2.7V | 07:06:00 | 00:00:00 | 00:00:00 | |
| SP3BTT-10 | 2026-09-05 07:07:27 | 52.15653 | 18.15581 | 110° | 89km/h | 3151m | -1.5m/s | -2.3°C | 29.3% | 690.9hPa | 2.7V | 00:00:00 | 00:00:00 | 00:00:00 | |
| KRY50SP-1 | 2026-09-05 07:07:22 | 52.15686 | 18.15439 | 113° | 91km/h | 3157m | -1.2m/s | -2.3°C | 27.3% | 690.4hPa | 2.7V | 07:07:00 | 00:00:00 | 00:00:00 | |
| KRY50SP-1 | 2026-09-05 07:07:17 | 52.15730 | 18.15272 | 114° | 84km/h | 3164m | -1.5m/s | -2.2°C | 25.2% | 689.8hPa | 2.7V | 07:07:00 | 00:00:00 | 00:00:00 | |
| SP3WXH-11 | 2026-09-05 07:07:14 | 52.15759 | 18.15146 | 107° | 80km/h | 3170m | -1.3m/s | -2.2°C | 23.2% | 689.3hPa | 2.7V | 00:00:00 | 00:00:00 | 00:00:00 | |
| KRY50SP-1 | 2026-09-05 07:07:12 | 52.15765 | 18.15113 | 109° | 82km/h | 3171m | -1.6m/s | -2.2°C | 23.5% | 689.1hPa | 2.7V | 07:07:00 | 00:00:00 | 00:00:00 | |
| KRY50SP-1 | 2026-09-05 07:07:06 | 52.15804 | 18.14909 | 108° | 91km/h | 3180m | -1.4m/s | -1.9°C | 14.7% | 688.3hPa | 2.7V | 07:07:00 | 00:00:00 | 00:00:00 | |
| KRY50SP-1 | 2026-09-05 07:07:01 | 52.15843 | 18.14729 | 112° | 93km/h | 3188m | -1.5m/s | -2.0°C | 16.9% | 687.7hPa | 2.7V | 07:07:00 | 00:00:00 | 00:00:00 | |
| SP3BTT-10 | 2026-09-05 07:06:57 | 52.15890 | 18.14559 | 115° | 86km/h | 3196m | -1.5m/s | -2.0°C | 18.6% | 687.0hPa | 2.7V | 00:00:00 | 00:00:00 | 00:00:00 | |
| KRY50SP-1 | 2026-09-05 07:06:56 | 52.15890 | 18.14559 | 116° | 88km/h | 3196m | -1.5m/s | -2.0°C | 18.1% | 687.0hPa | 2.7V | 07:07:00 | 00:00:00 | 00:00:00 | |
| KRY50SP-1 | 2026-09-05 07:06:50 | 52.15942 | 18.14372 | 113° | 80km/h | 3205m | -1.5m/s | -2.0°C | 21.3% | 686.4hPa | 2.7V | 07:07:00 | 00:00:00 | 00:00:00 | |
| KRY50SP-1 | 2026-09-05 07:06:44 | 52.15984 | 18.14175 | 110° | 89km/h | 3214m | -1.5m/s | -1.6°C | 17.2% | 685.6hPa | 2.7V | 07:07:00 | 00:00:00 | 00:00:00 | |
| SP3WXH-11 | 2026-09-05 07:06:43 | 52.16000 | 18.14104 | 110° | 91km/h | 3217m | -1.7m/s | -1.4°C | 17.2% | 685.2hPa | 2.7V | 00:00:00 | 00:00:00 | 00:00:00 | |
| KRY50SP-1 | 2026-09-05 07:06:39 | 52.16035 | 18.13964 | 116° | 91km/h | 3224m | -1.7m/s | -1.3°C | 15.5% | 684.7hPa | 2.7V | 07:07:00 | 00:00:00 | 00:00:00 | |
| KRY50SP-1 | 2026-09-05 07:06:34 | 52.16084 | 18.13795 | 116° | 88km/h | 3232m | -1.5m/s | -1.2°C | 13.7% | 684.0hPa | 2.7V | 07:07:00 | 00:00:00 | 00:00:00 | |
| KRY50SP-1 | 2026-09-05 07:06:28 | 52.16129 | 18.13640 | 114° | 80km/h | 3239m | -1.3m/s | -1.1°C | 12.5% | 683.4hPa | 2.7V | 07:08:00 | 00:00:00 | 00:00:00 | |
| SP3BTT-10 | 2026-09-05 07:06:27 | 52.16144 | 18.13578 | 112° | 88km/h | 3242m | -1.5m/s | -1.1°C | 12.6% | 683.0hPa | 2.7V | 00:00:00 | 00:00:00 | 00:00:00 | |
| KRY50SP-1 | 2026-09-05 07:06:22 | 52.16173 | 18.13445 | 111° | 91km/h | 3249m | -1.5m/s | -1.1°C | 12.3% | 682.4hPa | 2.7V | 07:08:00 | 00:00:00 | 00:00:00 | |
| KRY50SP-1 | 2026-09-05 07:06:16 | 52.16226 | 18.13233 | 114° | 93km/h | 3260m | -1.6m/s | -1.2°C | 12.4% | 681.6hPa | 2.7V | 07:08:00 | 00:00:00 | 00:00:00 | |
| SP3WXH-11 | 2026-09-05 07:06:12 | 52.16276 | 18.13064 | 118° | 88km/h | 3269m | -1.9m/s | -1.1°C | 12.7% | 680.7hPa | 2.7V | 00:00:00 | 00:00:00 | 00:00:00 | |
| KRY50SP-1 | 2026-09-05 07:06:11 | 52.16276 | 18.13064 | 119° | 88km/h | 3269m | -1.9m/s | -1.1°C | 12.7% | 680.7hPa | 2.7V | 07:08:00 | 00:00:00 | 00:00:00 | |
| KRY50SP-1 | 2026-09-05 07:06:06 | 52.16322 | 18.12908 | 115° | 82km/h | 3278m | -1.8m/s | -1.2°C | 13.1% | 679.9hPa | 2.7V | 07:08:00 | 00:00:00 | 00:00:00 | |
| KRY50SP-1 | 2026-09-05 07:06:00 | 52.16367 | 18.12712 | 111° | 89km/h | 3288m | -2.0m/s | -1.3°C | 13.4% | 679.0hPa | 2.7V | 07:08:00 | 00:00:00 | 00:00:00 | |
| SP3BTT-10 | 2026-09-05 07:05:57 | 52.16401 | 18.12570 | 114° | 89km/h | 3296m | -1.9m/s | -1.3°C | 13.7% | 678.5hPa | 2.7V | 00:00:00 | 00:00:00 | 00:00:00 | |
| KRY50SP-1 | 2026-09-05 07:05:54 | 52.16421 | 18.12500 | 116° | 93km/h | 3300m | -1.7m/s | -1.3°C | 13.4% | 678.1hPa | 2.7V | 07:08:00 | 00:00:00 | 00:00:00 | |
| KRY50SP-1 | 2026-09-05 07:05:49 | 52.16471 | 18.12336 | 117° | 84km/h | 3309m | -1.6m/s | -1.4°C | 13.4% | 677.4hPa | 2.7V | 07:08:00 | 00:00:00 | 00:00:00 | |
| KRY50SP-1 | 2026-09-05 07:05:44 | 52.16513 | 18.12179 | 112° | 84km/h | 3317m | -1.5m/s | -1.4°C | 13.4% | 676.6hPa | 2.7V | 07:08:00 | 00:00:00 | 00:00:00 | |
| SP3WXH-11 | 2026-09-05 07:05:41 | 52.16542 | 18.12047 | 108° | 86km/h | 3325m | -2.1m/s | -1.4°C | 13.4% | 676.0hPa | 2.7V | 00:00:00 | 00:00:00 | 00:00:00 | |
| KRY50SP-1 | 2026-09-05 07:05:38 | 52.16556 | 18.11978 | 110° | 89km/h | 3329m | -1.8m/s | -1.5°C | 13.4% | 675.7hPa | 2.7V | 07:09:00 | 00:00:00 | 00:00:00 | |
| KRY50SP-1 | 2026-09-05 07:05:33 | 52.16595 | 18.11799 | 112° | 95km/h | 3339m | -1.8m/s | -1.5°C | 13.3% | 674.7hPa | 2.7V | 07:09:00 | 00:00:00 | 00:00:00 | |
| KRY50SP-1 | 2026-09-05 07:05:28 | 52.16642 | 18.11623 | 116° | 91km/h | 3349m | -2.1m/s | -1.6°C | 13.3% | 674.0hPa | 2.7V | 07:09:00 | 00:00:00 | 00:00:00 | |
| SP3BTT-10 | 2026-09-05 07:05:27 | 52.16661 | 18.11557 | 114° | 89km/h | 3352m | -1.7m/s | -1.6°C | 13.7% | 673.7hPa | 2.7V | 00:00:00 | 00:00:00 | 00:00:00 | |
| KRY50SP-1 | 2026-09-05 07:05:22 | 52.16693 | 18.11427 | 112° | 84km/h | 3360m | -1.9m/s | -1.8°C | 13.4% | 673.1hPa | 2.7V | 07:09:00 | 00:00:00 | 00:00:00 | |
| KRY50SP-1 | 2026-09-05 07:05:17 | 52.16728 | 18.11259 | 108° | 88km/h | 3369m | -1.9m/s | -1.8°C | 13.1% | 672.2hPa | 2.7V | 07:09:00 | 00:00:00 | 00:00:00 | |
| KRY50SP-1 | 2026-09-05 07:05:12 | 52.16762 | 18.11083 | 108° | 91km/h | 3379m | -2.1m/s | -1.9°C | 13.1% | 671.3hPa | 2.7V | 07:09:00 | 00:00:00 | 00:00:00 | |
| SP3WXH-11 | 2026-09-05 07:05:10 | 52.16784 | 18.10973 | 109° | 95km/h | 3385m | -1.9m/s | -1.9°C | 13.0% | 670.8hPa | 2.7V | 00:00:00 | 00:00:00 | 00:00:00 | |
| KRY50SP-1 | 2026-09-05 07:05:07 | 52.16801 | 18.10899 | 113° | 95km/h | 3389m | -1.7m/s | -1.9°C | 12.9% | 670.4hPa | 2.7V | 07:09:00 | 00:00:00 | 00:00:00 | |
| KRY50SP-1 | 2026-09-05 07:05:01 | 52.16856 | 18.10692 | 114° | 86km/h | 3401m | -2.0m/s | -1.9°C | 12.9% | 669.6hPa | 2.7V | 07:09:00 | 00:00:00 | 00:00:00 | |
| SP3BTT-10 | 2026-09-05 07:04:57 | 52.16895 | 18.10529 | 109° | 91km/h | 3411m | -1.9m/s | -1.9°C | 13.3% | 668.6hPa | 2.7V | 07:08:00 | 00:00:00 | 00:00:00 | |
| KRY50SP-1 | 2026-09-05 07:04:56 | 52.16895 | 18.10529 | 110° | 86km/h | 3411m | -2.0m/s | -2.0°C | 13.0% | 668.6hPa | 2.7V | 07:09:00 | 00:00:00 | 00:00:00 | |
| KRY50SP-1 | 2026-09-05 07:04:45 | 52.16972 | 18.10135 | 111° | 97km/h | 3433m | -2.1m/s | -2.2°C | 13.2% | 666.8hPa | 2.7V | 07:09:00 | 00:00:00 | 00:00:00 | |
| SP3WXH-11 | 2026-09-05 07:04:39 | 52.17037 | 18.09885 | 113° | 88km/h | 3448m | -2.1m/s | -2.3°C | 13.4% | 665.7hPa | 2.7V | 00:00:00 | 00:00:00 | 00:00:00 | |
| KRY50SP-1 | 2026-09-05 07:04:33 | 52.17075 | 18.09720 | 109° | 86km/h | 3459m | -2.3m/s | -2.4°C | 13.6% | 664.7hPa | 2.7V | 07:09:00 | 00:00:00 | 00:00:00 | |
| KRY50SP-1 | 2026-09-05 07:04:27 | 52.17115 | 18.09508 | 109° | 95km/h | 3473m | -2.2m/s | -2.5°C | 13.7% | 663.6hPa | 2.7V | 07:09:00 | 00:00:00 | 00:00:00 | |
| KRY50SP-1 | 2026-09-05 07:04:21 | 52.17165 | 18.09286 | 114° | 95km/h | 3486m | -2.1m/s | -2.7°C | 13.8% | 662.4hPa | 2.7V | 07:09:00 | 00:00:00 | 00:00:00 | |
| KRY50SP-1 | 2026-09-05 07:04:16 | 52.17212 | 18.09112 | 113° | 88km/h | 3497m | -1.9m/s | -2.8°C | 13.9% | 661.6hPa | 2.7V | 07:09:00 | 00:00:00 | 00:00:00 | |
| KRY50SP-1 | 2026-09-05 07:04:10 | 52.17255 | 18.08914 | 108° | 86km/h | 3510m | -2.2m/s | -2.9°C | 13.9% | 660.4hPa | 2.7V | 07:09:00 | 00:00:00 | 00:00:00 | |
| SP3WXH-11 | 2026-09-05 07:04:08 | 52.17274 | 18.08810 | 105° | 89km/h | 3516m | -2.1m/s | -2.9°C | 13.9% | 660.0hPa | 2.7V | 00:00:00 | 00:00:00 | 00:00:00 | |
| KRY50SP-1 | 2026-09-05 07:04:04 | 52.17293 | 18.08699 | 107° | 95km/h | 3523m | -2.2m/s | -2.9°C | 13.9% | 659.4hPa | 2.7V | 07:09:00 | 00:00:00 | 00:00:00 | |
| KRY50SP-1 | 2026-09-05 07:03:59 | 52.17333 | 18.08513 | 113° | 95km/h | 3534m | -2.1m/s | -3.0°C | 13.8% | 658.4hPa | 2.7V | 07:10:00 | 00:00:00 | 00:00:00 | |
| SP3BTT-10 | 2026-09-05 07:03:57 | 52.17361 | 18.08407 | 114° | 89km/h | 3541m | -2.0m/s | -3.0°C | 13.7% | 657.9hPa | 2.7V | 00:00:00 | 00:00:00 | 00:00:00 | |
| KRY50SP-1 | 2026-09-05 07:03:53 | 52.17386 | 18.08306 | 113° | 86km/h | 3547m | -1.8m/s | -3.0°C | 12.8% | 657.4hPa | 2.7V | 07:10:00 | 00:00:00 | 00:00:00 | |
| KRY50SP-1 | 2026-09-05 07:03:48 | 52.17421 | 18.08142 | 107° | 86km/h | 3557m | -2.2m/s | -3.0°C | 12.4% | 656.4hPa | 2.7V | 07:10:00 | 00:00:00 | 00:00:00 | |
| KRY50SP-1 | 2026-09-05 07:03:42 | 52.17458 | 18.07929 | 108° | 95km/h | 3570m | -2.2m/s | -3.1°C | 11.9% | 655.4hPa | 2.7V | 07:10:00 | 00:00:00 | 00:00:00 | |
| SP3WXH-11 | 2026-09-05 07:03:37 | 52.17507 | 18.07705 | 111° | 93km/h | 3583m | -2.0m/s | -3.2°C | 11.5% | 654.3hPa | 2.7V | 00:00:00 | 00:00:00 | 00:00:00 | |
| KRY50SP-1 | 2026-09-05 07:03:32 | 52.17543 | 18.07565 | 114° | 88km/h | 3591m | -2.3m/s | -3.2°C | 11.6% | 653.6hPa | 2.7V | 07:10:00 | 00:00:00 | 00:00:00 | |
| KRY50SP-1 | 2026-09-05 07:03:27 | 52.17585 | 18.07363 | 107° | 88km/h | 3604m | -2.3m/s | -3.4°C | 11.5% | 652.5hPa | 2.7V | 07:10:00 | 00:00:00 | 00:00:00 | |
| KRY50SP-1 | 2026-09-05 07:03:20 | 52.17622 | 18.07145 | 108° | 95km/h | 3618m | -2.4m/s | -3.5°C | 11.5% | 651.4hPa | 2.7V | 07:10:00 | 00:00:00 | 00:00:00 | |
| KRY50SP-1 | 2026-09-05 07:03:14 | 52.17670 | 18.06920 | 113° | 93km/h | 3632m | -2.3m/s | -3.4°C | 10.1% | 650.3hPa | 2.7V | 07:10:00 | 00:00:00 | 00:00:00 | |
| KRY50SP-1 | 2026-09-05 07:03:08 | 52.17722 | 18.06716 | 112° | 86km/h | 3645m | -2.4m/s | -3.4°C | 9.6% | 649.3hPa | 2.7V | 07:11:00 | 00:00:00 | 00:00:00 | |
| SP3WXH-11 | 2026-09-05 07:03:06 | 52.17743 | 18.06617 | 107° | 84km/h | 3651m | -2.3m/s | -3.5°C | 9.5% | 648.6hPa | 2.7V | 00:00:00 | 00:00:00 | 00:00:00 | |
| KRY50SP-1 | 2026-09-05 07:03:03 | 52.17755 | 18.06549 | 107° | 88km/h | 3656m | -2.2m/s | -3.5°C | 9.4% | 648.3hPa | 2.7V | 07:11:00 | 00:00:00 | 00:00:00 | |
| KRY50SP-1 | 2026-09-05 07:02:58 | 52.17788 | 18.06367 | 110° | 95km/h | 3667m | -2.2m/s | -3.5°C | 8.8% | 647.4hPa | 2.7V | 07:11:00 | 00:00:00 | 00:00:00 | |
| SP3BTT-10 | 2026-09-05 07:02:57 | 52.17803 | 18.06292 | 110° | 91km/h | 3671m | -2.1m/s | -3.5°C | 9.1% | 646.9hPa | 2.7V | 00:00:00 | 00:00:00 | 00:00:00 | |
| KRY50SP-1 | 2026-09-05 07:02:53 | 52.17830 | 18.06180 | 112° | 95km/h | 3678m | -2.2m/s | -3.5°C | 8.2% | 646.5hPa | 2.7V | 07:11:00 | 00:00:00 | 00:00:00 | |
| KRY50SP-1 | 2026-09-05 07:02:41 | 52.17923 | 18.05770 | 107° | 88km/h | 3704m | -2.2m/s | -3.6°C | 7.6% | 644.4hPa | 2.7V | 07:11:00 | 00:00:00 | 00:00:00 | |
| KRY50SP-1 | 2026-09-05 07:02:36 | 52.17953 | 18.05587 | 107° | 95km/h | 3716m | -2.2m/s | -3.6°C | 7.5% | 643.5hPa | 2.7V | 07:11:00 | 00:00:00 | 00:00:00 | |
| SP3WXH-11 | 2026-09-05 07:02:35 | 52.17967 | 18.05511 | 107° | 97km/h | 3720m | -2.1m/s | -3.7°C | 7.5% | 643.1hPa | 2.7V | 00:00:00 | 00:00:00 | 00:00:00 | |
| KRY50SP-1 | 2026-09-05 07:02:31 | 52.17992 | 18.05397 | 112° | 97km/h | 3727m | -2.3m/s | -3.7°C | 7.5% | 642.6hPa | 2.7V | 07:11:00 | 00:00:00 | 00:00:00 | |
| KRY50SP-1 | 2026-09-05 07:02:25 | 52.18043 | 18.05188 | 112° | 86km/h | 3740m | -2.2m/s | -3.8°C | 7.4% | 641.5hPa | 2.7V | 07:11:00 | 00:00:00 | 00:00:00 | |
| KRY50SP-1 | 2026-09-05 07:02:20 | 52.18078 | 18.05020 | 107° | 89km/h | 3751m | -2.2m/s | -3.8°C | 7.4% | 640.5hPa | 2.7V | 07:11:00 | 00:00:00 | 00:00:00 | |
| KRY50SP-1 | 2026-09-05 07:02:14 | 52.18119 | 18.04797 | 109° | 99km/h | 3765m | -2.4m/s | -3.8°C | 7.0% | 639.5hPa | 2.7V | 07:12:00 | 00:00:00 | 00:00:00 | |
| KRY50SP-1 | 2026-09-05 07:02:08 | 52.18171 | 18.04572 | 112° | 93km/h | 3778m | -2.0m/s | -3.8°C | 6.7% | 638.3hPa | 2.7V | 07:12:00 | 00:00:00 | 00:00:00 | |
| SP3WXH-11 | 2026-09-05 07:02:04 | 52.18214 | 18.04401 | 111° | 86km/h | 3790m | -2.4m/s | -3.8°C | 6.5% | 637.5hPa | 2.7V | 00:00:00 | 00:00:00 | 00:00:00 | |
| KRY50SP-1 | 2026-09-05 07:02:02 | 52.18221 | 18.04368 | 109° | 86km/h | 3792m | -2.3m/s | -3.8°C | 6.5% | 637.3hPa | 2.7V | 07:12:00 | 00:00:00 | 00:00:00 | |
| SP3BTT-10 | 2026-09-05 07:01:57 | 52.18259 | 18.04158 | 106° | 91km/h | 3806m | -1.9m/s | -3.8°C | 6.7% | 636.1hPa | 2.7V | 00:00:00 | 00:00:00 | 00:00:00 | |
| KRY50SP-1 | 2026-09-05 07:01:51 | 52.18294 | 18.03967 | 110° | 99km/h | 3816m | -2.1m/s | -3.9°C | 6.5% | 635.3hPa | 2.7V | 07:12:00 | 00:00:00 | 00:00:00 | |
| KRY50SP-1 | 2026-09-05 07:01:45 | 52.18345 | 18.03751 | 113° | 89km/h | 3829m | -2.2m/s | -4.0°C | 6.9% | 634.1hPa | 2.7V | 07:12:00 | 00:00:00 | 00:00:00 | |
| KRY50SP-1 | 2026-09-05 07:01:40 | 52.18385 | 18.03584 | 110° | 84km/h | 3840m | -2.1m/s | -4.1°C | 8.1% | 633.2hPa | 2.7V | 07:12:00 | 00:00:00 | 00:00:00 | |
| KRY50SP-1 | 2026-09-05 07:01:35 | 52.18417 | 18.03416 | 107° | 88km/h | 3852m | -2.5m/s | -4.1°C | 9.6% | 632.4hPa | 2.7V | 07:12:00 | 00:00:00 | 00:00:00 | |
| SP3WXH-11 | 2026-09-05 07:01:33 | 52.18441 | 18.03272 | 105° | 93km/h | 3861m | -1.9m/s | -4.2°C | 9.8% | 631.5hPa | 2.7V | 00:00:00 | 00:00:00 | 00:00:00 | |
| KRY50SP-1 | 2026-09-05 07:01:30 | 52.18448 | 18.03234 | 107° | 97km/h | 3863m | -2.0m/s | -4.2°C | 9.8% | 631.5hPa | 2.7V | 07:12:00 | 00:00:00 | 00:00:00 | |
| SP3BTT-10 | 2026-09-05 07:01:27 | 52.18480 | 18.03082 | 112° | 91km/h | 3872m | -2.5m/s | -4.3°C | 10.2% | 630.6hPa | 2.7V | 00:00:00 | 00:00:00 | 00:00:00 | |
| KRY50SP-1 | 2026-09-05 07:01:24 | 52.18498 | 18.03010 | 113° | 93km/h | 3876m | -2.0m/s | -4.4°C | 10.8% | 630.4hPa | 2.7V | 07:13:00 | 00:00:00 | 00:00:00 | |
| KRY50SP-1 | 2026-09-05 07:01:18 | 52.18547 | 18.02808 | 110° | 86km/h | 3890m | -2.3m/s | -4.5°C | 11.9% | 629.2hPa | 2.7V | 07:13:00 | 00:00:00 | 00:00:00 | |
| KRY50SP-1 | 2026-09-05 07:01:13 | 52.18578 | 18.02633 | 106° | 93km/h | 3902m | -2.4m/s | -4.6°C | 11.5% | 628.3hPa | 2.7V | 07:13:00 | 00:00:00 | 00:00:00 | |
| KRY50SP-1 | 2026-09-05 07:01:08 | 52.18612 | 18.02444 | 109° | 99km/h | 3914m | -2.3m/s | -4.6°C | 11.4% | 627.5hPa | 2.7V | 07:13:00 | 00:00:00 | 00:00:00 | |
| KRY50SP-1 | 2026-09-05 07:01:03 | 52.18653 | 18.02255 | 113° | 95km/h | 3926m | -2.4m/s | -4.7°C | 11.2% | 626.5hPa | 2.7V | 07:13:00 | 00:00:00 | 00:00:00 | |
| SP3WXH-11 | 2026-09-05 07:01:02 | 52.18680 | 18.02150 | 112° | 88km/h | 3932m | -2.3m/s | -4.8°C | 12.2% | 625.9hPa | 2.7V | 00:00:00 | 00:00:00 | 00:00:00 | |
| KRY50SP-1 | 2026-09-05 07:00:58 | 52.18695 | 18.02082 | 110° | 88km/h | 3937m | -2.4m/s | -4.8°C | 13.0% | 625.6hPa | 2.7V | 07:13:00 | 00:00:00 | 00:00:00 | |
| SP3BTT-10 | 2026-09-05 07:00:57 | 52.18709 | 18.02013 | 108° | 93km/h | 3942m | -2.1m/s | -4.8°C | 13.9% | 625.2hPa | 2.7V | 07:12:00 | 00:00:00 | 00:00:00 | |
| KRY50SP-1 | 2026-09-05 07:00:53 | 52.18728 | 18.01908 | 105° | 89km/h | 3948m | -2.2m/s | -4.9°C | 13.9% | 624.7hPa | 2.7V | 07:13:00 | 00:00:00 | 00:00:00 | |
| KRY50SP-1 | 2026-09-05 07:00:47 | 52.18764 | 18.01685 | 107° | 97km/h | 3962m | -2.2m/s | -5.0°C | 14.0% | 623.5hPa | 2.7V | 07:13:00 | 00:00:00 | 00:00:00 | |
| KRY50SP-1 | 2026-09-05 07:00:42 | 52.18803 | 18.01491 | 111° | 99km/h | 3973m | -2.1m/s | -5.1°C | 14.2% | 622.6hPa | 2.7V | 07:13:00 | 00:00:00 | 00:00:00 | |
| KRY50SP-1 | 2026-09-05 07:00:36 | 52.18855 | 18.01277 | 109° | 88km/h | 3986m | -2.0m/s | -5.2°C | 14.7% | 621.6hPa | 2.7V | 07:13:00 | 00:00:00 | 00:00:00 | |
| SP3WXH-11 | 2026-09-05 07:00:31 | 52.18898 | 18.01031 | 104° | 93km/h | 4001m | -2.2m/s | -5.4°C | 15.3% | 620.4hPa | 2.7V | 00:00:00 | 00:00:00 | 00:00:00 | |
| SP3BTT-10 | 2026-09-05 07:00:27 | 52.18916 | 18.00917 | 106° | 95km/h | 4008m | -1.9m/s | -5.4°C | 16.0% | 619.8hPa | 2.7V | 00:00:00 | 00:00:00 | 00:00:00 | |
| KRY50SP-1 | 2026-09-05 07:00:26 | 52.18923 | 18.00877 | 107° | 100km/h | 4010m | -2.4m/s | -5.4°C | 15.5% | 619.7hPa | 2.7V | 07:14:00 | 00:00:00 | 00:00:00 | |
| KRY50SP-1 | 2026-09-05 07:00:20 | 52.18964 | 18.00682 | 111° | 97km/h | 4019m | -1.9m/s | -5.5°C | 15.7% | 618.8hPa | 2.7V | 07:14:00 | 00:00:00 | 00:00:00 | |
| KRY50SP-1 | 2026-09-05 07:00:09 | 52.19042 | 18.00292 | 105° | 95km/h | 4043m | -2.1m/s | -5.7°C | 16.1% | 617.0hPa | 2.7V | 07:14:00 | 00:00:00 | 00:00:00 | |
| KRY50SP-1 | 2026-09-05 07:00:04 | 52.19072 | 18.00097 | 107° | 100km/h | 4053m | -1.8m/s | -5.8°C | 16.2% | 616.3hPa | 2.7V | 07:14:00 | 00:00:00 | 00:00:00 | |
| SP3WXH-11 | 2026-09-05 07:00:00 | 52.19121 | 17.99867 | 109° | 91km/h | 4065m | -1.8m/s | -5.9°C | 16.5% | 615.4hPa | 2.7V | 00:00:00 | 00:00:00 | 00:00:00 | |
| KRY50SP-1 | 2026-09-05 06:59:59 | 52.19113 | 17.99903 | 112° | 95km/h | 4063m | -2.0m/s | -5.9°C | 16.5% | 615.5hPa | 2.7V | 07:14:00 | 00:00:00 | 00:00:00 | |
| SP3BTT-10 | 2026-09-05 06:59:57 | 52.19136 | 17.99796 | 109° | 93km/h | 4069m | -1.8m/s | -5.9°C | 17.3% | 614.9hPa | 2.7V | 00:00:00 | 00:00:00 | 00:00:00 | |
| KRY50SP-1 | 2026-09-05 06:59:53 | 52.19155 | 17.99691 | 108° | 89km/h | 4074m | -2.1m/s | -6.0°C | 16.6% | 614.5hPa | 2.7V | 07:14:00 | 00:00:00 | 00:00:00 | |
| KRY50SP-1 | 2026-09-05 06:59:47 | 52.19190 | 17.99472 | 104° | 95km/h | 4087m | -1.8m/s | -6.1°C | 16.9% | 613.7hPa | 2.7V | 07:14:00 | 00:00:00 | 00:00:00 | |
| KRY50SP-1 | 2026-09-05 06:59:42 | 52.19219 | 17.99275 | 107° | 100km/h | 4097m | -1.7m/s | -6.2°C | 17.1% | 612.8hPa | 2.7V | 07:14:00 | 00:00:00 | 00:00:00 | |
| KRY50SP-1 | 2026-09-05 06:59:37 | 52.19260 | 17.99081 | 111° | 95km/h | 4106m | -2.0m/s | -6.3°C | 17.4% | 612.0hPa | 2.7V | 07:14:00 | 00:00:00 | 00:00:00 | |
| KRY50SP-1 | 2026-09-05 06:59:31 | 52.19304 | 17.98871 | 107° | 89km/h | 4118m | -1.9m/s | -6.4°C | 18.1% | 611.2hPa | 2.7V | 07:14:00 | 00:00:00 | 00:00:00 | |
| SP3WXH-11 | 2026-09-05 06:59:29 | 52.19326 | 17.98726 | 102° | 93km/h | 4126m | -1.6m/s | -6.4°C | 18.7% | 610.7hPa | 2.7V | 00:00:00 | 00:00:00 | 00:00:00 | |
| SP3BTT-10 | 2026-09-05 06:59:27 | 52.19331 | 17.98688 | 104° | 97km/h | 4128m | -1.7m/s | -6.4°C | 19.4% | 610.4hPa | 2.7V | 00:00:00 | 00:00:00 | 00:00:00 | |
| KRY50SP-1 | 2026-09-05 06:59:26 | 52.19331 | 17.98688 | 104° | 97km/h | 4128m | -1.8m/s | -6.5°C | 18.7% | 610.4hPa | 2.7V | 07:14:00 | 00:00:00 | 00:00:00 | |
| KRY50SP-1 | 2026-09-05 06:59:21 | 52.19364 | 17.98489 | 108° | 100km/h | 4136m | -1.4m/s | -6.5°C | 18.9% | 609.8hPa | 2.7V | 07:14:00 | 00:00:00 | 00:00:00 | |
| KRY50SP-1 | 2026-09-05 06:59:16 | 52.19406 | 17.98300 | 111° | 93km/h | 4145m | -1.9m/s | -6.6°C | 19.2% | 609.1hPa | 2.7V | 07:14:00 | 00:00:00 | 00:00:00 | |
| KRY50SP-1 | 2026-09-05 06:59:10 | 52.19445 | 17.98091 | 104° | 88km/h | 4156m | -1.6m/s | -6.7°C | 19.3% | 608.3hPa | 2.7V | 07:14:00 | 00:00:00 | 00:00:00 | |
| KRY50SP-1 | 2026-09-05 06:59:05 | 52.19476 | 17.97866 | 106° | 99km/h | 4167m | -1.5m/s | -6.8°C | 19.5% | 607.4hPa | 2.7V | 07:14:00 | 00:00:00 | 00:00:00 | |
| SP3WXH-11 | 2026-09-05 06:58:58 | 52.19540 | 17.97564 | 110° | 91km/h | 4181m | -2.0m/s | -6.9°C | 19.6% | 606.4hPa | 2.7V | 00:00:00 | 00:00:00 | 00:00:00 | |
| KRY50SP-1 | 2026-09-05 06:58:54 | 52.19556 | 17.97495 | 110° | 88km/h | 4185m | -1.6m/s | -7.0°C | 19.6% | 606.0hPa | 2.7V | 07:14:00 | 00:00:00 | 00:00:00 | |
| KRY50SP-1 | 2026-09-05 06:58:49 | 52.19584 | 17.97321 | 102° | 91km/h | 4194m | -1.7m/s | -7.0°C | 19.8% | 605.4hPa | 2.7V | 07:15:00 | 00:00:00 | 00:00:00 | |
| KRY50SP-1 | 2026-09-05 06:58:43 | 52.19621 | 17.97090 | 109° | 99km/h | 4203m | -1.3m/s | -7.1°C | 19.9% | 604.7hPa | 2.7V | 07:15:00 | 00:00:00 | 00:00:00 | |
| SP3BTT-10 | 2026-09-05 06:58:42 | 52.19638 | 17.97013 | 111° | 95km/h | 4206m | -1.7m/s | -7.1°C | 20.8% | 604.4hPa | 2.7V | 00:00:00 | 00:00:00 | 00:00:00 | |
| KRY50SP-1 | 2026-09-05 06:58:37 | 52.19672 | 17.96869 | 110° | 89km/h | 4213m | -1.5m/s | -7.2°C | 20.2% | 603.8hPa | 2.7V | 07:15:00 | 00:00:00 | 00:00:00 | |
| KRY50SP-1 | 2026-09-05 06:58:31 | 52.19708 | 17.96663 | 105° | 88km/h | 4222m | -1.9m/s | -7.3°C | 20.5% | 603.2hPa | 2.7V | 07:15:00 | 00:00:00 | 00:00:00 | |
| KRY50SP-1 | 2026-09-05 06:58:26 | 52.19736 | 17.96475 | 106° | 99km/h | 4230m | -1.7m/s | -7.4°C | 20.9% | 602.5hPa | 2.7V | 07:15:00 | 00:00:00 | 00:00:00 | |
| KRY50SP-1 | 2026-09-05 06:58:21 | 52.19773 | 17.96283 | 111° | 95km/h | 4239m | -1.2m/s | -7.5°C | 21.1% | 601.8hPa | 2.7V | 07:15:00 | 00:00:00 | 00:00:00 | |
| KRY50SP-1 | 2026-09-05 06:58:16 | 52.19812 | 17.96110 | 110° | 86km/h | 4246m | -1.8m/s | -7.5°C | 22.4% | 601.2hPa | 2.7V | 07:15:00 | 00:00:00 | 00:00:00 | |
| KRY50SP-1 | 2026-09-05 06:58:11 | 52.19846 | 17.95901 | 104° | 91km/h | 4255m | -1.6m/s | -7.6°C | 23.1% | 600.5hPa | 2.7V | 07:15:00 | 00:00:00 | 00:00:00 | |
| KRY50SP-1 | 2026-09-05 06:58:05 | 52.19877 | 17.95708 | 107° | 99km/h | 4263m | -1.8m/s | -7.7°C | 22.8% | 599.9hPa | 2.7V | 07:15:00 | 00:00:00 | 00:00:00 | |
| SP3WXH-11 | 2026-09-05 06:57:56 | 52.19960 | 17.95312 | 105° | 88km/h | 4279m | -1.6m/s | -7.8°C | 23.2% | 598.6hPa | 2.7V | 00:00:00 | 00:00:00 | 00:00:00 | |
| KRY50SP-1 | 2026-09-05 06:57:54 | 52.19960 | 17.95312 | 107° | 88km/h | 4280m | -1.6m/s | -7.8°C | 23.2% | 598.7hPa | 2.7V | 07:16:00 | 00:00:00 | 00:00:00 | |
| KRY50SP-1 | 2026-09-05 06:57:48 | 52.19992 | 17.95093 | 105° | 97km/h | 4289m | -1.7m/s | -7.9°C | 23.5% | 597.7hPa | 2.7V | 07:16:00 | 00:00:00 | 00:00:00 | |
| KRY50SP-1 | 2026-09-05 06:57:43 | 52.20026 | 17.94899 | 110° | 99km/h | 4297m | -1.8m/s | -8.0°C | 23.8% | 597.2hPa | 2.7V | 07:16:00 | 00:00:00 | 00:00:00 | |
| KRY50SP-1 | 2026-09-05 06:57:38 | 52.20069 | 17.94716 | 112° | 91km/h | 4306m | -1.9m/s | -8.0°C | 24.2% | 596.6hPa | 2.7V | 07:16:00 | 00:00:00 | 00:00:00 | |
| KRY50SP-1 | 2026-09-05 06:57:32 | 52.20110 | 17.94511 | 106° | 88km/h | 4317m | -1.7m/s | -8.1°C | 24.4% | 595.8hPa | 2.7V | 07:16:00 | 00:00:00 | 00:00:00 | |
| KRY50SP-1 | 2026-09-05 06:57:26 | 52.20143 | 17.94287 | 105° | 97km/h | 4328m | -1.6m/s | -8.2°C | 24.6% | 595.1hPa | 2.7V | 07:16:00 | 00:00:00 | 00:00:00 | |
| SP3WXH-11 | 2026-09-05 06:57:25 | 52.20164 | 17.94173 | 108° | 95km/h | 4332m | -1.2m/s | -8.3°C | 24.6% | 594.7hPa | 2.7V | 00:00:00 | 00:00:00 | 00:00:00 | |
| KRY50SP-1 | 2026-09-05 06:57:21 | 52.20180 | 17.94099 | 111° | 93km/h | 4335m | -1.7m/s | -8.3°C | 24.7% | 594.5hPa | 2.7V | 07:16:00 | 00:00:00 | 00:00:00 | |
| KRY50SP-1 | 2026-09-05 06:57:15 | 52.20227 | 17.93895 | 107° | 84km/h | 4345m | -1.3m/s | -8.4°C | 25.1% | 593.7hPa | 2.7V | 07:16:00 | 00:00:00 | 00:00:00 | |
| SP3BTT-10 | 2026-09-05 06:57:13 | 52.20244 | 17.93794 | 104° | 86km/h | 4350m | -1.7m/s | -8.4°C | 26.1% | 593.3hPa | 2.7V | 00:00:00 | 00:00:00 | 00:00:00 | |
| KRY50SP-1 | 2026-09-05 06:57:10 | 52.20254 | 17.93723 | 104° | 91km/h | 4353m | -1.7m/s | -8.4°C | 25.0% | 593.1hPa | 2.7V | 07:17:00 | 00:00:00 | 00:00:00 | |
| KRY50SP-1 | 2026-09-05 06:57:05 | 52.20283 | 17.93534 | 107° | 97km/h | 4363m | -1.3m/s | -8.5°C | 24.7% | 592.4hPa | 2.7V | 07:17:00 | 00:00:00 | 00:00:00 | |
| SP3WXH-11 | 2026-09-05 06:56:54 | 52.20376 | 17.93086 | 104° | 84km/h | 4384m | -1.9m/s | -8.7°C | 24.4% | 590.8hPa | 2.7V | 00:00:00 | 00:00:00 | 00:00:00 | |
| KRY50SP-1 | 2026-09-05 06:56:53 | 52.20370 | 17.93119 | 106° | 82km/h | 4382m | -1.7m/s | -8.7°C | 24.5% | 590.9hPa | 2.7V | 07:17:00 | 00:00:00 | 00:00:00 | |
| KRY50SP-1 | 2026-09-05 06:56:48 | 52.20395 | 17.92945 | 104° | 91km/h | 4391m | -2.0m/s | -8.7°C | 24.5% | 590.2hPa | 2.7V | 07:17:00 | 00:00:00 | 00:00:00 | |
| KRY50SP-1 | 2026-09-05 06:56:42 | 52.20435 | 17.92719 | 110° | 93km/h | 4401m | -1.6m/s | -8.8°C | 24.6% | 589.5hPa | 2.7V | 07:17:00 | 00:00:00 | 00:00:00 | |
| KRY50SP-1 | 2026-09-05 06:56:37 | 52.20475 | 17.92547 | 110° | 84km/h | 4409m | -1.8m/s | -8.9°C | 24.7% | 588.8hPa | 2.7V | 07:17:00 | 00:00:00 | 00:00:00 | |
| KRY50SP-1 | 2026-09-05 06:56:32 | 52.20506 | 17.92384 | 104° | 82km/h | 4419m | -1.8m/s | -9.0°C | 24.4% | 588.0hPa | 2.7V | 07:17:00 | 00:00:00 | 00:00:00 | |
| SP3BTT-10 | 2026-09-05 06:56:27 | 52.20536 | 17.92170 | 106° | 89km/h | 4430m | -1.3m/s | -9.0°C | 25.3% | 587.2hPa | 2.7V | 00:00:00 | 00:00:00 | 00:00:00 | |
| KRY50SP-1 | 2026-09-05 06:56:26 | 52.20536 | 17.92170 | 106° | 93km/h | 4430m | -1.4m/s | -9.0°C | 24.3% | 587.2hPa | 2.7V | 07:17:00 | 00:00:00 | 00:00:00 | |
| SP3WXH-11 | 2026-09-05 06:56:23 | 52.20573 | 17.91990 | 111° | 88km/h | 4438m | -1.6m/s | -9.1°C | 24.3% | 586.6hPa | 2.7V | 00:00:00 | 00:00:00 | 00:00:00 | |
| KRY50SP-1 | 2026-09-05 06:56:21 | 52.20573 | 17.91990 | 112° | 88km/h | 4438m | -1.6m/s | -9.1°C | 24.3% | 586.6hPa | 2.7V | 07:17:00 | 00:00:00 | 00:00:00 | |
| KRY50SP-1 | 2026-09-05 06:56:15 | 52.20615 | 17.91795 | 106° | 78km/h | 4449m | -1.8m/s | -9.2°C | 24.1% | 585.8hPa | 2.7V | 07:18:00 | 00:00:00 | 00:00:00 | |
| KRY50SP-1 | 2026-09-05 06:56:10 | 52.20638 | 17.91629 | 102° | 88km/h | 4459m | -1.9m/s | -9.3°C | 24.2% | 585.0hPa | 2.7V | 07:18:00 | 00:00:00 | 00:00:00 | |
| KRY50SP-1 | 2026-09-05 06:56:05 | 52.20666 | 17.91445 | 109° | 93km/h | 4468m | -1.9m/s | -9.3°C | 24.4% | 584.3hPa | 2.7V | 07:18:00 | 00:00:00 | 00:00:00 | |
| SP3WXH-11 | 2026-09-05 06:55:51 | 52.20755 | 17.90960 | 100° | 84km/h | 4497m | -1.9m/s | -9.6°C | 24.5% | 582.0hPa | 2.7V | 00:00:00 | 00:00:00 | 00:00:00 | |
| KRY50SP-1 | 2026-09-05 06:55:48 | 52.20763 | 17.90889 | 103° | 89km/h | 4501m | -2.2m/s | -9.6°C | 24.5% | 581.8hPa | 2.7V | 07:18:00 | 00:00:00 | 00:00:00 | |
| KRY50SP-1 | 2026-09-05 06:55:43 | 52.20801 | 17.90673 | 110° | 88km/h | 4513m | -1.9m/s | -9.7°C | 24.4% | 580.9hPa | 2.7V | 07:18:00 | 00:00:00 | 00:00:00 | |
| SP3BTT-10 | 2026-09-05 06:55:42 | 52.20808 | 17.90640 | 111° | 84km/h | 4515m | -2.0m/s | -9.6°C | 25.5% | 580.8hPa | 2.7V | 07:18:00 | 00:00:00 | 00:00:00 | |
| KRY50SP-1 | 2026-09-05 06:55:36 | 52.20841 | 17.90484 | 107° | 77km/h | 4525m | -2.3m/s | -9.8°C | 24.2% | 579.8hPa | 2.7V | 07:18:00 | 00:00:00 | 00:00:00 | |
| KRY50SP-1 | 2026-09-05 06:55:31 | 52.20863 | 17.90325 | 101° | 84km/h | 4535m | -1.8m/s | -9.8°C | 24.0% | 579.2hPa | 2.7V | 07:18:00 | 00:00:00 | 00:00:00 | |
| KRY50SP-1 | 2026-09-05 06:55:26 | 52.20887 | 17.90147 | 106° | 91km/h | 4545m | -1.8m/s | -9.9°C | 23.9% | 578.5hPa | 2.7V | 07:19:00 | 00:00:00 | 00:00:00 | |
| KRY50SP-1 | 2026-09-05 06:55:21 | 52.20922 | 17.89972 | 111° | 88km/h | 4555m | -2.3m/s | -10.0°C | 23.8% | 577.6hPa | 2.7V | 07:19:00 | 00:00:00 | 00:00:00 | |
| SP3WXH-11 | 2026-09-05 06:55:20 | 52.20938 | 17.89907 | 111° | 80km/h | 4560m | -2.2m/s | -10.0°C | 23.7% | 577.4hPa | 2.7V | 00:00:00 | 00:00:00 | 00:00:00 | |
| KRY50SP-1 | 2026-09-05 06:55:16 | 52.20959 | 17.89816 | 109° | 77km/h | 4566m | -2.1m/s | -10.0°C | 23.5% | 576.9hPa | 2.7V | 07:19:00 | 00:00:00 | 00:00:00 | |
| KRY50SP-1 | 2026-09-05 06:55:10 | 52.20986 | 17.89628 | 102° | 84km/h | 4578m | -2.2m/s | -10.1°C | 23.2% | 575.9hPa | 2.7V | 07:19:00 | 00:00:00 | 00:00:00 | |
| KRY50SP-1 | 2026-09-05 06:55:04 | 52.21018 | 17.89414 | 109° | 91km/h | 4590m | -2.0m/s | -10.3°C | 23.2% | 575.1hPa | 2.7V | 07:19:00 | 00:00:00 | 00:00:00 | |
| SP3WXH-11 | 2026-09-05 06:54:49 | 52.21111 | 17.88906 | 101° | 84km/h | 4624m | -2.0m/s | -10.5°C | 22.6% | 572.3hPa | 2.7V | 00:00:00 | 00:00:00 | 00:00:00 | |
| KRY50SP-1 | 2026-09-05 06:54:48 | 52.21111 | 17.88906 | 102° | 86km/h | 4624m | -2.0m/s | -10.5°C | 22.6% | 572.3hPa | 2.7V | 07:19:00 | 00:00:00 | 00:00:00 | |
| KRY50SP-1 | 2026-09-05 06:54:42 | 52.21146 | 17.88695 | 110° | 88km/h | 4637m | -2.2m/s | -10.6°C | 22.8% | 571.4hPa | 2.7V | 07:19:00 | 00:00:00 | 00:00:00 | |
| KRY50SP-1 | 2026-09-05 06:54:37 | 52.21189 | 17.88505 | 111° | 77km/h | 4650m | -2.2m/s | -10.7°C | 22.9% | 570.4hPa | 2.7V | 07:20:00 | 00:00:00 | 00:00:00 | |
| KRY50SP-1 | 2026-09-05 06:54:30 | 52.21219 | 17.88323 | 101° | 80km/h | 4663m | -2.2m/s | -10.8°C | 22.9% | 569.5hPa | 2.7V | 07:20:00 | 00:00:00 | 00:00:00 | |
| KRY50SP-1 | 2026-09-05 06:54:25 | 52.21240 | 17.88152 | 105° | 89km/h | 4673m | -2.4m/s | -10.9°C | 23.3% | 568.7hPa | 2.7V | 07:20:00 | 00:00:00 | 00:00:00 | |
| KRY50SP-1 | 2026-09-05 06:54:20 | 52.21275 | 17.87976 | 112° | 88km/h | 4684m | -2.3m/s | -11.0°C | 23.5% | 567.8hPa | 2.7V | 07:20:00 | 00:00:00 | 00:00:00 | |
| SP3WXH-11 | 2026-09-05 06:54:18 | 52.21299 | 17.87880 | 110° | 78km/h | 4691m | -2.1m/s | -11.0°C | 23.7% | 567.3hPa | 2.7V | 00:00:00 | 00:00:00 | 00:00:00 | |
| KRY50SP-1 | 2026-09-05 06:54:16 | 52.21312 | 17.87819 | 108° | 75km/h | 4696m | -1.9m/s | -11.1°C | 24.0% | 567.0hPa | 2.7V | 07:20:00 | 00:00:00 | 00:00:00 | |
| SP3BTT-10 | 2026-09-05 06:54:12 | 52.21331 | 17.87698 | 102° | 82km/h | 4705m | -1.8m/s | -11.1°C | 25.3% | 566.4hPa | 2.7V | 00:00:00 | 00:00:00 | 00:00:00 | |
| KRY50SP-1 | 2026-09-05 06:54:11 | 52.21335 | 17.87666 | 101° | 80km/h | 4707m | -1.9m/s | -11.2°C | 24.0% | 566.3hPa | 2.7V | 07:20:00 | 00:00:00 | 00:00:00 | |
| KRY50SP-1 | 2026-09-05 06:54:04 | 52.21361 | 17.87457 | 105° | 91km/h | 4720m | -2.3m/s | -11.3°C | 24.0% | 565.2hPa | 2.7V | 07:20:00 | 00:00:00 | 00:00:00 | |
| SP3WXH-11 | 2026-09-05 06:53:47 | 52.21468 | 17.86851 | 102° | 89km/h | 4759m | -2.5m/s | -11.6°C | 24.2% | 562.2hPa | 2.7V | 00:00:00 | 00:00:00 | 00:00:00 | |
| KRY50SP-1 | 2026-09-05 06:53:43 | 52.21484 | 17.86740 | 106° | 93km/h | 4766m | -2.4m/s | -11.7°C | 24.1% | 561.7hPa | 2.7V | 07:20:00 | 00:00:00 | 00:00:00 | |
| KRY50SP-1 | 2026-09-05 06:53:37 | 52.21527 | 17.86524 | 112° | 88km/h | 4780m | -2.4m/s | -11.8°C | 24.0% | 560.7hPa | 2.7V | 07:20:00 | 00:00:00 | 00:00:00 | |
| KRY50SP-1 | 2026-09-05 06:53:32 | 52.21561 | 17.86363 | 107° | 78km/h | 4791m | -2.3m/s | -11.9°C | 24.4% | 559.9hPa | 2.7V | 07:20:00 | 00:00:00 | 00:00:00 | |
| SP3BTT-10 | 2026-09-05 06:53:27 | 52.21587 | 17.86162 | 102° | 91km/h | 4805m | -2.5m/s | -11.9°C | 26.0% | 558.9hPa | 2.7V | 00:00:00 | 00:00:00 | 00:00:00 | |
| KRY50SP-1 | 2026-09-05 06:53:26 | 52.21587 | 17.86162 | 102° | 91km/h | 4805m | -2.5m/s | -12.0°C | 24.8% | 558.9hPa | 2.7V | 07:20:00 | 00:00:00 | 00:00:00 | |
| KRY50SP-1 | 2026-09-05 06:53:21 | 52.21615 | 17.85973 | 108° | 97km/h | 4816m | -2.7m/s | -12.1°C | 25.0% | 558.0hPa | 2.7V | 07:20:00 | 00:00:00 | 00:00:00 | |
| KRY50SP-1 | 2026-09-05 06:53:16 | 52.21652 | 17.85795 | 112° | 86km/h | 4827m | -2.4m/s | -12.1°C | 25.2% | 557.2hPa | 2.7V | 07:20:00 | 00:00:00 | 00:00:00 | |
| KRY50SP-1 | 2026-09-05 06:53:11 | 52.21683 | 17.85633 | 105° | 82km/h | 4838m | -2.2m/s | -12.3°C | 25.4% | 556.4hPa | 2.7V | 07:20:00 | 00:00:00 | 00:00:00 | |
| KRY50SP-1 | 2026-09-05 06:53:05 | 52.21710 | 17.85422 | 104° | 93km/h | 4852m | -2.6m/s | -12.4°C | 25.7% | 555.4hPa | 2.7V | 07:20:00 | 00:00:00 | 00:00:00 | |
| SP3WXH-11 | 2026-09-05 06:52:45 | 52.21842 | 17.84667 | 103° | 97km/h | 4899m | -2.3m/s | -12.8°C | 26.1% | 552.0hPa | 2.7V | 00:00:00 | 00:00:00 | 00:00:00 | |
| KRY50SP-1 | 2026-09-05 06:52:44 | 52.21842 | 17.84667 | 104° | 97km/h | 4899m | -2.3m/s | -12.8°C | 26.1% | 551.9hPa | 2.7V | 07:21:00 | 00:00:00 | 00:00:00 | |
| SP3BTT-10 | 2026-09-05 06:52:42 | 52.21861 | 17.84551 | 108° | 97km/h | 4907m | -2.6m/s | -12.8°C | 27.4% | 551.4hPa | 2.7V | 00:00:00 | 00:00:00 | 00:00:00 | |
| KRY50SP-1 | 2026-09-05 06:52:38 | 52.21885 | 17.84438 | 112° | 93km/h | 4914m | -2.1m/s | -12.9°C | 26.1% | 550.9hPa | 2.7V | 07:21:00 | 00:00:00 | 00:00:00 | |
| KRY50SP-1 | 2026-09-05 06:52:32 | 52.21931 | 17.84236 | 109° | 82km/h | 4927m | -2.3m/s | -13.0°C | 26.2% | 550.0hPa | 2.7V | 07:21:00 | 00:00:00 | 00:00:00 | |
| KRY50SP-1 | 2026-09-05 06:52:26 | 52.21960 | 17.84028 | 102° | 91km/h | 4941m | -2.2m/s | -13.1°C | 26.5% | 549.1hPa | 2.7V | 07:21:00 | 00:00:00 | 00:00:00 | |
| KRY50SP-1 | 2026-09-05 06:52:20 | 52.21997 | 17.83795 | 110° | 99km/h | 4954m | -2.3m/s | -13.2°C | 26.7% | 548.1hPa | 2.7V | 07:21:00 | 00:00:00 | 00:00:00 | |
| SP3WXH-11 | 2026-09-05 06:52:14 | 52.22052 | 17.83543 | 109° | 84km/h | 4968m | -2.1m/s | -13.3°C | 27.2% | 547.0hPa | 2.7V | 00:00:00 | 00:00:00 | 00:00:00 | |
| KRY50SP-1 | 2026-09-05 06:52:09 | 52.22073 | 17.83408 | 102° | 86km/h | 4976m | -1.9m/s | -13.4°C | 27.2% | 546.4hPa | 2.7V | 07:21:00 | 00:00:00 | 00:00:00 | |
| KRY50SP-1 | 2026-09-05 06:52:04 | 52.22096 | 17.83223 | 102° | 97km/h | 4987m | -2.6m/s | -13.5°C | 26.8% | 545.5hPa | 2.7V | 07:22:00 | 00:00:00 | 00:00:00 | |
| KRY50SP-1 | 2026-09-05 06:51:58 | 52.22132 | 17.82987 | 110° | 100km/h | 5001m | -2.0m/s | -13.6°C | 26.6% | 544.6hPa | 2.7V | 07:22:00 | 00:00:00 | 00:00:00 | |
| SP3BTT-10 | 2026-09-05 06:51:56 | 52.22155 | 17.82875 | 110° | 93km/h | 5007m | -1.8m/s | -13.5°C | 27.7% | 544.2hPa | 2.7V | 00:00:00 | 00:00:00 | 00:00:00 | |
| KRY50SP-1 | 2026-09-05 06:51:52 | 52.22177 | 17.82772 | 109° | 86km/h | 5012m | -2.2m/s | -13.6°C | 26.4% | 543.8hPa | 2.6V | 07:22:00 | 00:00:00 | 00:00:00 | |
| KRY50SP-1 | 2026-09-05 06:51:46 | 52.22207 | 17.82560 | 100° | 93km/h | 5025m | -1.8m/s | -13.7°C | 26.0% | 542.9hPa | 2.6V | 07:22:00 | 00:00:00 | 00:00:00 | |
| SP3WXH-11 | 2026-09-05 06:51:43 | 52.22226 | 17.82402 | 102° | 100km/h | 5033m | -2.4m/s | -13.8°C | 25.9% | 542.3hPa | 2.6V | 00:00:00 | 00:00:00 | 00:00:00 | |
| KRY50SP-1 | 2026-09-05 06:51:41 | 52.22231 | 17.82361 | 104° | 102km/h | 5035m | -2.3m/s | -13.8°C | 26.0% | 542.2hPa | 2.6V | 07:22:00 | 00:00:00 | 00:00:00 | |
| KRY50SP-1 | 2026-09-05 06:51:36 | 52.22267 | 17.82163 | 109° | 95km/h | 5045m | -2.1m/s | -13.8°C | 25.6% | 541.5hPa | 2.6V | 07:22:00 | 00:00:00 | 00:00:00 | |
| KRY50SP-1 | 2026-09-05 06:51:31 | 52.22302 | 17.81986 | 107° | 86km/h | 5055m | -2.2m/s | -13.9°C | 25.7% | 540.8hPa | 2.6V | 07:22:00 | 00:00:00 | 00:00:00 | |
| KRY50SP-1 | 2026-09-05 06:51:25 | 52.22330 | 17.81770 | 101° | 95km/h | 5067m | -1.9m/s | -14.0°C | 25.9% | 539.9hPa | 2.6V | 07:22:00 | 00:00:00 | 00:00:00 | |
| KRY50SP-1 | 2026-09-05 06:51:19 | 52.22362 | 17.81528 | 107° | 100km/h | 5079m | -2.2m/s | -14.1°C | 25.9% | 539.1hPa | 2.6V | 07:22:00 | 00:00:00 | 00:00:00 | |
| KRY50SP-1 | 2026-09-05 06:51:13 | 52.22408 | 17.81302 | 109° | 89km/h | 5090m | -2.1m/s | -14.2°C | 26.0% | 538.2hPa | 2.6V | 07:23:00 | 00:00:00 | 00:00:00 | |
| SP3WXH-11 | 2026-09-05 06:51:12 | 52.22422 | 17.81233 | 107° | 88km/h | 5094m | -2.0m/s | -14.2°C | 26.2% | 538.0hPa | 2.6V | 00:00:00 | 00:00:00 | 00:00:00 | |
| SP3BTT-10 | 2026-09-05 06:51:11 | 52.22428 | 17.81198 | 105° | 89km/h | 5097m | -2.1m/s | -14.1°C | 27.4% | 537.8hPa | 2.6V | 00:00:00 | 00:00:00 | 00:00:00 | |
| KRY50SP-1 | 2026-09-05 06:51:08 | 52.22438 | 17.81129 | 104° | 88km/h | 5101m | -2.1m/s | -14.2°C | 26.3% | 537.5hPa | 2.6V | 07:23:00 | 00:00:00 | 00:00:00 | |
| KRY50SP-1 | 2026-09-05 06:51:03 | 52.22460 | 17.80942 | 102° | 99km/h | 5110m | -2.1m/s | -14.3°C | 26.3% | 536.9hPa | 2.6V | 07:23:00 | 00:00:00 | 00:00:00 | |
| KRY50SP-1 | 2026-09-05 06:50:58 | 52.22490 | 17.80739 | 108° | 102km/h | 5120m | -2.0m/s | -14.3°C | 26.4% | 536.2hPa | 2.6V | 07:23:00 | 00:00:00 | 00:00:00 | |
| KRY50SP-1 | 2026-09-05 06:50:52 | 52.22536 | 17.80513 | 109° | 91km/h | 5131m | -1.9m/s | -14.4°C | 26.4% | 535.4hPa | 2.6V | 07:23:00 | 00:00:00 | 00:00:00 | |
| KRY50SP-1 | 2026-09-05 06:50:48 | 52.22565 | 17.80339 | 103° | 89km/h | 5140m | -2.0m/s | -14.5°C | 26.6% | 534.7hPa | 2.6V | 07:23:00 | 00:00:00 | 00:00:00 | |
| SP3WXH-11 | 2026-09-05 06:50:41 | 52.22598 | 17.80066 | 103° | 100km/h | 5153m | -2.2m/s | -14.6°C | 26.8% | 533.9hPa | 2.6V | 00:00:00 | 00:00:00 | 00:00:00 | |
| KRY50SP-1 | 2026-09-05 06:50:36 | 52.22626 | 17.79907 | 109° | 99km/h | 5160m | -2.1m/s | -14.7°C | 26.8% | 533.4hPa | 2.6V | 07:23:00 | 00:00:00 | 00:00:00 | |
| KRY50SP-1 | 2026-09-05 06:50:30 | 52.22671 | 17.79691 | 109° | 88km/h | 5171m | -2.0m/s | -14.7°C | 26.3% | 532.6hPa | 2.6V | 07:23:00 | 00:00:00 | 00:00:00 | |
| SP3BTT-10 | 2026-09-05 06:50:26 | 52.22697 | 17.79516 | 100° | 89km/h | 5180m | -1.7m/s | -14.7°C | 27.0% | 531.8hPa | 2.6V | 00:00:00 | 00:00:00 | 00:00:00 | |
| KRY50SP-1 | 2026-09-05 06:50:24 | 52.22701 | 17.79479 | 101° | 91km/h | 5182m | -2.2m/s | -14.8°C | 25.5% | 531.8hPa | 2.6V | 07:23:00 | 00:00:00 | 00:00:00 | |
| KRY50SP-1 | 2026-09-05 06:50:18 | 52.22732 | 17.79242 | 106° | 102km/h | 5193m | -2.3m/s | -14.9°C | 25.7% | 531.1hPa | 2.6V | 07:24:00 | 00:00:00 | 00:00:00 | |
| KRY50SP-1 | 2026-09-05 06:50:13 | 52.22770 | 17.79044 | 111° | 97km/h | 5203m | -1.6m/s | -14.9°C | 25.8% | 530.5hPa | 2.6V | 07:24:00 | 00:00:00 | 00:00:00 | |
| SP3WXH-11 | 2026-09-05 06:50:10 | 52.22802 | 17.78900 | 107° | 86km/h | 5210m | -1.9m/s | -15.0°C | 25.9% | 529.9hPa | 2.6V | 00:00:00 | 00:00:00 | 00:00:00 | |
| KRY50SP-1 | 2026-09-05 06:50:07 | 52.22815 | 17.78831 | 106° | 86km/h | 5214m | -1.7m/s | -15.0°C | 26.0% | 529.6hPa | 2.6V | 07:24:00 | 00:00:00 | 00:00:00 | |
| KRY50SP-1 | 2026-09-05 06:50:02 | 52.22839 | 17.78653 | 102° | 93km/h | 5223m | -2.1m/s | -15.1°C | 26.2% | 529.1hPa | 2.6V | 07:24:00 | 00:00:00 | 00:00:00 | |
| KRY50SP-1 | 2026-09-05 06:49:56 | 52.22874 | 17.78416 | 107° | 100km/h | 5234m | -1.5m/s | -15.2°C | 25.9% | 528.4hPa | 2.6V | 07:24:00 | 00:00:00 | 00:00:00 | |
| KRY50SP-1 | 2026-09-05 06:49:51 | 52.22914 | 17.78225 | 112° | 93km/h | 5241m | -1.6m/s | -15.2°C | 25.7% | 527.6hPa | 2.6V | 07:24:00 | 00:00:00 | 00:00:00 | |
| KRY50SP-1 | 2026-09-05 06:49:47 | 52.22951 | 17.78051 | 107° | 84km/h | 5250m | -1.8m/s | -15.3°C | 25.8% | 527.1hPa | 2.6V | 07:24:00 | 00:00:00 | 00:00:00 | |
| KRY50SP-1 | 2026-09-05 06:49:41 | 52.22975 | 17.77875 | 102° | 95km/h | 5259m | -1.9m/s | -15.4°C | 25.7% | 526.3hPa | 2.6V | 07:24:00 | 00:00:00 | 00:00:00 | |
| SP3BTT-10 | 2026-09-05 06:49:40 | 52.22985 | 17.77797 | 103° | 93km/h | 5264m | -1.7m/s | -15.3°C | 27.0% | 526.1hPa | 2.6V | 07:24:00 | 00:00:00 | 00:00:00 | |
| SP3WXH-11 | 2026-09-05 06:49:39 | 52.22991 | 17.77757 | 102° | 99km/h | 5265m | -1.5m/s | -15.4°C | 25.6% | 526.0hPa | 2.7V | 00:00:00 | 00:00:00 | 00:00:00 | |
| KRY50SP-1 | 2026-09-05 06:49:36 | 52.23002 | 17.77677 | 105° | 100km/h | 5268m | -1.7m/s | -15.4°C | 25.5% | 525.8hPa | 2.7V | 07:24:00 | 00:00:00 | 00:00:00 | |
| KRY50SP-1 | 2026-09-05 06:49:31 | 52.23048 | 17.77447 | 113° | 93km/h | 5277m | -1.5m/s | -15.5°C | 24.6% | 525.1hPa | 2.7V | 07:25:00 | 00:00:00 | 00:00:00 | |
| KRY50SP-1 | 2026-09-05 06:49:24 | 52.23090 | 17.77241 | 104° | 86km/h | 5287m | -1.4m/s | -15.5°C | 24.6% | 524.3hPa | 2.7V | 07:25:00 | 00:00:00 | 00:00:00 | |
| KRY50SP-1 | 2026-09-05 06:49:19 | 52.23113 | 17.77060 | 103° | 97km/h | 5296m | -2.0m/s | -15.6°C | 24.6% | 523.7hPa | 2.7V | 07:25:00 | 00:00:00 | 00:00:00 | |
| KRY50SP-1 | 2026-09-05 06:49:14 | 52.23145 | 17.76861 | 109° | 100km/h | 5306m | -2.2m/s | -15.6°C | 24.4% | 523.2hPa | 2.7V | 07:25:00 | 00:00:00 | 00:00:00 | |
| SP3WXH-11 | 2026-09-05 06:49:08 | 52.23201 | 17.76606 | 109° | 84km/h | 5318m | -1.8m/s | -15.7°C | 24.5% | 522.3hPa | 2.7V | 00:00:00 | 00:00:00 | 00:00:00 | |
| SP6BVK | 2026-09-05 06:49:05 | 52.23214 | 17.76539 | 107° | 84km/h | 5322m | -1.9m/s | -15.8°C | 24.7% | 522.0hPa | 2.7V | 07:25:00 | 00:00:00 | 00:00:00 | |
| KRY50SP-1 | 2026-09-05 06:49:02 | 52.23229 | 17.76438 | 102° | 86km/h | 5328m | -1.5m/s | -15.8°C | 24.8% | 521.6hPa | 2.7V | 07:25:00 | 00:00:00 | 00:00:00 | |
| KRY50SP-1 | 2026-09-05 06:48:56 | 52.23259 | 17.76210 | 105° | 100km/h | 5338m | -2.0m/s | -15.9°C | 24.8% | 520.9hPa | 2.7V | 07:25:00 | 00:00:00 | 00:00:00 | |
| SP3BTT-10 | 2026-09-05 06:48:55 | 52.23273 | 17.76130 | 108° | 99km/h | 5342m | -1.4m/s | -15.9°C | 26.3% | 520.7hPa | 2.7V | 00:00:00 | 00:00:00 | 00:00:00 | |
| KRY50SP-1 | 2026-09-05 06:48:50 | 52.23305 | 17.75977 | 112° | 93km/h | 5349m | -1.7m/s | -16.0°C | 25.0% | 520.2hPa | 2.7V | 07:25:00 | 00:00:00 | 00:00:00 | |
| KRY50SP-1 | 2026-09-05 06:48:44 | 52.23351 | 17.75772 | 106° | 86km/h | 5358m | -2.0m/s | -16.1°C | 25.1% | 519.5hPa | 2.7V | 07:25:00 | 00:00:00 | 00:00:00 | |
| SP6BVK | 2026-09-05 06:48:41 | 52.23366 | 17.75666 | 103° | 91km/h | 5364m | -2.0m/s | -16.1°C | 25.2% | 519.1hPa | 2.7V | 00:00:00 | 00:00:00 | 00:00:00 | |
| KRY50SP-1 | 2026-09-05 06:48:38 | 52.23381 | 17.75552 | 103° | 99km/h | 5370m | -2.1m/s | -16.1°C | 25.1% | 518.7hPa | 2.7V | 07:26:00 | 00:00:00 | 00:00:00 | |
| SP3WXH-11 | 2026-09-05 06:48:37 | 52.23393 | 17.75473 | 103° | 100km/h | 5373m | -2.0m/s | -16.2°C | 25.0% | 518.5hPa | 2.7V | 00:00:00 | 00:00:00 | 00:00:00 | |
| KRY50SP-1 | 2026-09-05 06:48:33 | 52.23414 | 17.75352 | 109° | 102km/h | 5379m | -2.3m/s | -16.2°C | 24.7% | 518.1hPa | 2.7V | 07:26:00 | 00:00:00 | 00:00:00 | |
| KRY50SP-1 | 2026-09-05 06:48:23 | 52.23487 | 17.74997 | 105° | 86km/h | 5396m | -2.0m/s | -16.4°C | 24.6% | 516.9hPa | 2.7V | 07:26:00 | 00:00:00 | 00:00:00 | |
| SP6BVK | 2026-09-05 06:48:20 | 52.23502 | 17.74890 | 102° | 91km/h | 5403m | -2.1m/s | -16.4°C | 24.8% | 516.5hPa | 2.7V | 00:00:00 | 00:00:00 | 00:00:00 | |
| KRY50SP-1 | 2026-09-05 06:48:18 | 52.23512 | 17.74814 | 104° | 97km/h | 5407m | -1.9m/s | -16.5°C | 24.8% | 516.3hPa | 2.7V | 07:26:00 | 00:00:00 | 00:00:00 | |
| KRY50SP-1 | 2026-09-05 06:48:13 | 52.23550 | 17.74576 | 110° | 99km/h | 5417m | -1.5m/s | -16.6°C | 25.0% | 515.5hPa | 2.7V | 07:26:00 | 00:00:00 | 00:00:00 | |
| SP3BTT-10 | 2026-09-05 06:48:10 | 52.23575 | 17.74464 | 111° | 93km/h | 5421m | -1.7m/s | -16.5°C | 26.7% | 515.2hPa | 2.7V | 00:00:00 | 00:00:00 | 00:00:00 | |
| KRY50SP-1 | 2026-09-05 06:48:07 | 52.23590 | 17.74395 | 111° | 88km/h | 5424m | -1.6m/s | -16.6°C | 25.4% | 514.9hPa | 2.7V | 07:26:00 | 00:00:00 | 00:00:00 | |
| SP3WXH-11 | 2026-09-05 06:48:06 | 52.23603 | 17.74328 | 105° | 84km/h | 5427m | -2.2m/s | -16.7°C | 25.1% | 514.7hPa | 2.7V | 00:00:00 | 00:00:00 | 00:00:00 | |
| KRY50SP-1 | 2026-09-05 06:48:01 | 52.23624 | 17.74190 | 103° | 89km/h | 5434m | -1.8m/s | -16.7°C | 23.7% | 514.2hPa | 2.7V | 07:26:00 | 00:00:00 | 00:00:00 | |
| SP6BVK | 2026-09-05 06:47:59 | 52.23633 | 17.74117 | 101° | 91km/h | 5437m | -1.8m/s | -16.7°C | 22.4% | 513.9hPa | 2.7V | 00:00:00 | 00:00:00 | 00:00:00 | |
| KRY50SP-1 | 2026-09-05 06:47:56 | 52.23648 | 17.74000 | 104° | 102km/h | 5444m | -2.2m/s | -16.7°C | 21.9% | 513.6hPa | 2.7V | 07:26:00 | 00:00:00 | 00:00:00 | |
| KRY50SP-1 | 2026-09-05 06:47:51 | 52.23683 | 17.73800 | 110° | 99km/h | 5454m | -2.5m/s | -16.8°C | 21.9% | 513.0hPa | 2.7V | 07:26:00 | 00:00:00 | 00:00:00 | |
| KRY50SP-1 | 2026-09-05 06:47:46 | 52.23722 | 17.73621 | 110° | 88km/h | 5464m | -1.9m/s | -16.9°C | 21.8% | 512.3hPa | 2.7V | 07:26:00 | 00:00:00 | 00:00:00 | |
| KRY50SP-1 | 2026-09-05 06:47:40 | 52.23753 | 17.73414 | 100° | 89km/h | 5477m | -1.7m/s | -17.0°C | 21.5% | 511.6hPa | 2.7V | 07:26:00 | 00:00:00 | 00:00:00 | |
| SP6BVK | 2026-09-05 06:47:38 | 52.23762 | 17.73339 | 103° | 95km/h | 5481m | -2.1m/s | -17.0°C | 21.1% | 511.3hPa | 2.7V | 07:26:00 | 00:00:00 | 00:00:00 | |
| SP3WXH-11 | 2026-09-05 06:47:35 | 52.23783 | 17.73181 | 105° | 100km/h | 5489m | -1.8m/s | -17.0°C | 20.5% | 510.8hPa | 2.7V | 00:00:00 | 00:00:00 | 00:00:00 | |
| KRY50SP-1 | 2026-09-05 06:47:34 | 52.23783 | 17.73181 | 107° | 100km/h | 5490m | -1.8m/s | -17.0°C | 20.5% | 510.8hPa | 2.7V | 07:26:00 | 00:00:00 | 00:00:00 | |
| KRY50SP-1 | 2026-09-05 06:47:28 | 52.23829 | 17.72951 | 112° | 93km/h | 5501m | -1.8m/s | -17.1°C | 20.4% | 510.0hPa | 2.7V | 07:26:00 | 00:00:00 | 00:00:00 | |
| SP3BTT-10 | 2026-09-05 06:47:25 | 52.23857 | 17.72812 | 105° | 89km/h | 5508m | -1.8m/s | -17.1°C | 21.3% | 509.4hPa | 2.7V | 00:00:00 | 00:00:00 | 00:00:00 | |
| KRY50SP-1 | 2026-09-05 06:47:22 | 52.23867 | 17.72743 | 104° | 88km/h | 5512m | -2.0m/s | -17.2°C | 19.9% | 509.3hPa | 2.7V | 07:26:00 | 00:00:00 | 00:00:00 | |
| KRY50SP-1 | 2026-09-05 06:47:17 | 52.23890 | 17.72558 | 101° | 97km/h | 5522m | -2.1m/s | -17.2°C | 19.6% | 508.5hPa | 2.7V | 07:26:00 | 00:00:00 | 00:00:00 | |
| SP6BVK | 2026-09-05 06:47:16 | 52.23895 | 17.72519 | 103° | 99km/h | 5524m | -1.6m/s | -17.2°C | 19.6% | 508.4hPa | 2.7V | 07:26:00 | 00:00:00 | 00:00:00 | |
| KRY50SP-1 | 2026-09-05 06:47:12 | 52.23917 | 17.72356 | 106° | 100km/h | 5531m | -1.8m/s | -17.3°C | 19.5% | 507.9hPa | 2.7V | 07:26:00 | 00:00:00 | 00:00:00 | |
| KRY50SP-1 | 2026-09-05 06:47:06 | 52.23963 | 17.72128 | 110° | 91km/h | 5542m | -2.0m/s | -17.4°C | 19.4% | 507.2hPa | 2.7V | 07:26:00 | 00:00:00 | 00:00:00 | |
| SP3WXH-11 | 2026-09-05 06:47:04 | 52.23982 | 17.72025 | 104° | 84km/h | 5548m | -2.1m/s | -17.4°C | 19.3% | 506.7hPa | 2.7V | 00:00:00 | 00:00:00 | 00:00:00 | |
| KRY50SP-1 | 2026-09-05 06:47:01 | 52.23992 | 17.71956 | 102° | 86km/h | 5552m | -1.7m/s | -17.4°C | 19.1% | 506.5hPa | 2.7V | 07:26:00 | 00:00:00 | 00:00:00 | |
| SP6BVK | 2026-09-05 06:46:55 | 52.24017 | 17.71733 | 103° | 99km/h | 5562m | -2.0m/s | -17.5°C | 18.7% | 505.7hPa | 2.7V | 00:00:00 | 00:00:00 | 00:00:00 | |
| KRY50SP-1 | 2026-09-05 06:46:50 | 52.24047 | 17.71532 | 108° | 99km/h | 5573m | -2.0m/s | -17.6°C | 18.2% | 505.0hPa | 2.7V | 07:27:00 | 00:00:00 | 00:00:00 | |
| KRY50SP-1 | 2026-09-05 06:46:44 | 52.24090 | 17.71315 | 106° | 84km/h | 5585m | -2.1m/s | -17.7°C | 18.2% | 504.3hPa | 2.7V | 07:27:00 | 00:00:00 | 00:00:00 | |
| SP3BTT-10 | 2026-09-05 06:46:40 | 52.24114 | 17.71140 | 100° | 89km/h | 5595m | -2.2m/s | -17.7°C | 19.5% | 503.5hPa | 2.7V | 00:00:00 | 00:00:00 | 00:00:00 | |
| KRY50SP-1 | 2026-09-05 06:46:39 | 52.24114 | 17.71140 | 101° | 91km/h | 5595m | -2.3m/s | -17.8°C | 18.3% | 503.6hPa | 2.7V | 07:27:00 | 00:00:00 | 00:00:00 | |
| SP6BVK | 2026-09-05 06:46:34 | 52.24134 | 17.70947 | 102° | 99km/h | 5605m | -2.0m/s | -17.9°C | 18.6% | 502.9hPa | 2.7V | 00:00:00 | 00:00:00 | 00:00:00 | |
| SP3WXH-11 | 2026-09-05 06:46:33 | 52.24145 | 17.70867 | 105° | 100km/h | 5608m | -2.1m/s | -17.9°C | 18.7% | 502.7hPa | 2.7V | 00:00:00 | 00:00:00 | 00:00:00 | |
| KRY50SP-1 | 2026-09-05 06:46:28 | 52.24174 | 17.70712 | 112° | 95km/h | 5617m | -2.5m/s | -18.0°C | 18.8% | 502.1hPa | 2.7V | 07:27:00 | 00:00:00 | 00:00:00 | |
| KRY50SP-1 | 2026-09-05 06:46:23 | 52.24208 | 17.70538 | 105° | 84km/h | 5628m | -2.2m/s | -18.1°C | 19.2% | 501.4hPa | 2.7V | 07:27:00 | 00:00:00 | 00:00:00 | |
| KRY50SP-1 | 2026-09-05 06:46:17 | 52.24234 | 17.70325 | 100° | 97km/h | 5640m | -2.2m/s | -18.2°C | 20.1% | 500.6hPa | 2.7V | 07:27:00 | 00:00:00 | 00:00:00 | |
| SP6BVK | 2026-09-05 06:46:13 | 52.24253 | 17.70166 | 104° | 100km/h | 5649m | -2.7m/s | -18.3°C | 20.5% | 500.0hPa | 2.7V | 00:00:00 | 00:00:00 | 00:00:00 | |
| KRY50SP-1 | 2026-09-05 06:46:11 | 52.24265 | 17.70086 | 106° | 99km/h | 5654m | -1.9m/s | -18.3°C | 20.7% | 499.7hPa | 2.7V | 07:27:00 | 00:00:00 | 00:00:00 | |
| KRY50SP-1 | 2026-09-05 06:46:06 | 52.24301 | 17.69903 | 110° | 89km/h | 5664m | -1.9m/s | -18.4°C | 21.0% | 499.0hPa | 2.7V | 07:28:00 | 00:00:00 | 00:00:00 | |
| SP3WXH-11 | 2026-09-05 06:46:02 | 52.24328 | 17.69732 | 101° | 86km/h | 5674m | -2.2m/s | -18.5°C | 21.2% | 498.3hPa | 2.7V | 00:00:00 | 00:00:00 | 00:00:00 | |
| KRY50SP-1 | 2026-09-05 06:46:00 | 52.24332 | 17.69697 | 100° | 86km/h | 5676m | -2.1m/s | -18.5°C | 21.3% | 498.1hPa | 2.7V | 07:28:00 | 00:00:00 | 00:00:00 | |
| SP3BTT-10 | 2026-09-05 06:45:56 | 52.24351 | 17.69507 | 100° | 97km/h | 5687m | -2.1m/s | -18.6°C | 23.1% | 497.4hPa | 2.7V | 00:00:00 | 00:00:00 | 00:00:00 | |
| KRY50SP-1 | 2026-09-05 06:45:55 | 52.24351 | 17.69507 | 101° | 97km/h | 5687m | -2.1m/s | -18.6°C | 21.6% | 497.4hPa | 2.7V | 07:28:00 | 00:00:00 | 00:00:00 | |
| SP6BVK | 2026-09-05 06:45:52 | 52.24368 | 17.69387 | 105° | 100km/h | 5693m | -1.7m/s | -18.7°C | 21.9% | 497.0hPa | 2.7V | 07:28:00 | 00:00:00 | 00:00:00 | |
| KRY50SP-1 | 2026-09-05 06:45:49 | 52.24387 | 17.69267 | 108° | 99km/h | 5700m | -2.5m/s | -18.8°C | 22.3% | 496.6hPa | 2.7V | 07:28:00 | 00:00:00 | 00:00:00 | |
| KRY50SP-1 | 2026-09-05 06:45:44 | 52.24423 | 17.69084 | 107° | 86km/h | 5710m | -2.5m/s | -18.8°C | 22.4% | 495.8hPa | 2.7V | 07:28:00 | 00:00:00 | 00:00:00 | |
| KRY50SP-1 | 2026-09-05 06:45:38 | 52.24451 | 17.68875 | 100° | 91km/h | 5722m | -2.5m/s | -18.9°C | 22.1% | 495.0hPa | 2.7V | 07:28:00 | 00:00:00 | 00:00:00 | |
| KRY50SP-1 | 2026-09-05 06:45:33 | 52.24475 | 17.68640 | 103° | 100km/h | 5737m | -2.3m/s | -19.0°C | 21.5% | 494.0hPa | 2.7V | 07:28:00 | 00:00:00 | 00:00:00 | |
| SP6BVK | 2026-09-05 06:45:32 | 52.24475 | 17.68640 | 103° | 100km/h | 5737m | -2.3m/s | -19.0°C | 21.5% | 494.0hPa | 2.7V | 07:28:00 | 00:00:00 | 00:00:00 | |
| SP3WXH-11 | 2026-09-05 06:45:31 | 52.24487 | 17.68558 | 105° | 100km/h | 5742m | -2.5m/s | -19.0°C | 21.6% | 493.7hPa | 2.7V | 00:00:00 | 00:00:00 | 00:00:00 | |
| KRY50SP-1 | 2026-09-05 06:45:27 | 52.24508 | 17.68439 | 108° | 97km/h | 5748m | -2.6m/s | -19.1°C | 21.5% | 493.3hPa | 2.7V | 07:28:00 | 00:00:00 | 00:00:00 | |
| EDDB2-12 | 2026-09-05 06:45:26 | 52.24547 | 17.68225 | 102° | 84km/h | 5760m | -2.6m/s | -19.2°C | 21.7% | 492.4hPa | 2.7V | 00:00:00 | 00:00:00 | 00:00:00 | |
| SONDE2-11 | 2026-09-05 06:45:25 | 52.24547 | 17.68225 | 102° | 84km/h | 5760m | -2.6m/s | -19.2°C | 21.7% | 492.4hPa | 2.7V | 00:00:00 | 00:00:00 | 00:00:00 | |
| KRY50SP-1 | 2026-09-05 06:45:21 | 52.24547 | 17.68225 | 104° | 86km/h | 5760m | -2.6m/s | -19.2°C | 21.7% | 492.4hPa | 2.7V | 07:28:00 | 00:00:00 | 00:00:00 | |
| KRY50SP-1 | 2026-09-05 06:45:16 | 52.24570 | 17.68005 | 100° | 97km/h | 5774m | -2.9m/s | -19.3°C | 21.4% | 491.5hPa | 2.7V | 07:29:00 | 00:00:00 | 00:00:00 | |
| SP3BTT-10 | 2026-09-05 06:45:10 | 52.24597 | 17.67761 | 105° | 100km/h | 5789m | -2.3m/s | -19.4°C | 22.0% | 490.5hPa | 2.7V | 00:00:00 | 00:00:00 | 00:00:00 | |
| SP6BVK | 2026-09-05 06:45:07 | 52.24611 | 17.67681 | 109° | 100km/h | 5793m | -2.4m/s | -19.5°C | 20.6% | 490.3hPa | 2.7V | 07:29:00 | 00:00:00 | 00:00:00 | |
| KRY50SP-1 | 2026-09-05 06:45:05 | 52.24626 | 17.67604 | 108° | 95km/h | 5797m | -2.4m/s | -19.5°C | 20.7% | 490.0hPa | 2.7V | 07:29:00 | 00:00:00 | 00:00:00 | |
| SP3WXH-11 | 2026-09-05 06:45:00 | 52.24662 | 17.67352 | 98° | 91km/h | 5812m | -2.1m/s | -19.7°C | 20.5% | 488.9hPa | 2.7V | 00:00:00 | 00:00:00 | 00:00:00 | |
| EDDB2-12 | 2026-09-05 06:44:55 | 52.24676 | 17.67195 | 98° | 100km/h | 5821m | -3.0m/s | -19.7°C | 20.1% | 488.3hPa | 2.7V | 00:00:00 | 00:00:00 | 00:00:00 | |
| SONDE2-11 | 2026-09-05 06:44:54 | 52.24680 | 17.67154 | 100° | 100km/h | 5824m | -2.7m/s | -19.8°C | 20.0% | 488.2hPa | 2.7V | 00:00:00 | 00:00:00 | 00:00:00 | |
| KRY50SP-1 | 2026-09-05 06:44:50 | 52.24701 | 17.66988 | 105° | 104km/h | 5834m | -2.7m/s | -19.8°C | 18.9% | 487.5hPa | 2.7V | 07:29:00 | 00:00:00 | 00:00:00 | |
| SP6BVK | 2026-09-05 06:44:47 | 52.24714 | 17.66906 | 107° | 102km/h | 5840m | -2.8m/s | -19.8°C | 18.5% | 487.1hPa | 2.7V | 07:29:00 | 00:00:00 | 00:00:00 | |
| KRY50SP-1 | 2026-09-05 06:44:43 | 52.24743 | 17.66751 | 108° | 93km/h | 5849m | -2.8m/s | -19.9°C | 18.2% | 486.6hPa | 2.7V | 07:29:00 | 00:00:00 | 00:00:00 | |
| KRY50SP-1 | 2026-09-05 06:44:38 | 52.24768 | 17.66573 | 100° | 88km/h | 5862m | -2.3m/s | -20.0°C | 18.0% | 485.7hPa | 2.7V | 07:29:00 | 00:00:00 | 00:00:00 | |
| KRY50SP-1 | 2026-09-05 06:44:32 | 52.24789 | 17.66340 | 102° | 102km/h | 5878m | -2.7m/s | -20.1°C | 17.6% | 484.8hPa | 2.7V | 07:29:00 | 00:00:00 | 00:00:00 | |
| SP3WXH-11 | 2026-09-05 06:44:29 | 52.24817 | 17.66131 | 104° | 102km/h | 5891m | -2.3m/s | -20.1°C | 16.3% | 484.1hPa | 2.7V | 00:00:00 | 00:00:00 | 00:00:00 | |
| KRY50SP-1 | 2026-09-05 06:44:26 | 52.24824 | 17.66090 | 106° | 102km/h | 5894m | -2.4m/s | -20.1°C | 16.3% | 483.9hPa | 2.7V | 07:30:00 | 00:00:00 | 00:00:00 | |
| SP3BTT-10 | 2026-09-05 06:44:25 | 52.24837 | 17.66010 | 107° | 99km/h | 5899m | -2.3m/s | -20.1°C | 17.7% | 483.5hPa | 2.7V | 00:00:00 | 00:00:00 | 00:00:00 | |
| KRY50SP-1 | 2026-09-05 06:44:21 | 52.24856 | 17.65899 | 105° | 91km/h | 5906m | -2.4m/s | -20.2°C | 16.6% | 483.1hPa | 2.7V | 07:30:00 | 00:00:00 | 00:00:00 | |
| KRY50SP-1 | 2026-09-05 06:44:15 | 52.24879 | 17.65675 | 98° | 95km/h | 5921m | -2.5m/s | -20.4°C | 16.7% | 482.2hPa | 2.7V | 07:30:00 | 00:00:00 | 00:00:00 | |
| SP6BVK | 2026-09-05 06:44:13 | 52.24886 | 17.65595 | 98° | 100km/h | 5926m | -2.4m/s | -20.4°C | 16.7% | 481.9hPa | 2.7V | 00:00:00 | 00:00:00 | 00:00:00 | |
| KRY50SP-1 | 2026-09-05 06:44:10 | 52.24897 | 17.65469 | 101° | 104km/h | 5933m | -2.4m/s | -20.5°C | 16.7% | 481.4hPa | 2.7V | 07:30:00 | 00:00:00 | 00:00:00 | |
| KRY50SP-1 | 2026-09-05 06:44:05 | 52.24926 | 17.65261 | 106° | 100km/h | 5945m | -2.5m/s | -20.5°C | 16.7% | 480.6hPa | 2.7V | 07:30:00 | 00:00:00 | 00:00:00 | |
| SP3WXH-11 | 2026-09-05 06:43:58 | 52.24974 | 17.64924 | 97° | 93km/h | 5968m | -2.4m/s | -20.7°C | 16.5% | 479.1hPa | 2.7V | 00:00:00 | 00:00:00 | 00:00:00 | |
| KRY50SP-1 | 2026-09-05 06:43:54 | 52.24980 | 17.64844 | 99° | 100km/h | 5973m | -2.6m/s | -20.8°C | 16.5% | 478.8hPa | 2.7V | 07:30:00 | 00:00:00 | 00:00:00 | |
| SP6BVK | 2026-09-05 06:43:53 | 52.24988 | 17.64761 | 100° | 104km/h | 5978m | -2.7m/s | -20.8°C | 16.5% | 478.4hPa | 2.7V | 00:00:00 | 00:00:00 | 00:00:00 | |
| KRY50SP-1 | 2026-09-05 06:43:49 | 52.25003 | 17.64632 | 103° | 106km/h | 5985m | -2.7m/s | -20.9°C | 16.5% | 478.0hPa | 2.7V | 07:30:00 | 00:00:00 | 00:00:00 | |
| KRY50SP-1 | 2026-09-05 06:43:44 | 52.25035 | 17.64428 | 107° | 97km/h | 5998m | -2.3m/s | -21.0°C | 16.2% | 477.2hPa | 2.7V | 07:30:00 | 00:00:00 | 00:00:00 | |
| SP3BTT-10 | 2026-09-05 06:43:40 | 52.25061 | 17.64240 | 99° | 99km/h | 6010m | -2.4m/s | -21.0°C | 17.5% | 476.4hPa | 2.7V | 07:30:00 | 00:00:00 | 00:00:00 | |
| KRY50SP-1 | 2026-09-05 06:43:38 | 52.25064 | 17.64201 | 99° | 95km/h | 6013m | -2.7m/s | -21.1°C | 16.2% | 476.2hPa | 2.7V | 07:30:00 | 00:00:00 | 00:00:00 | |
| KRY50SP-1 | 2026-09-05 06:43:33 | 52.25081 | 17.63996 | 99° | 106km/h | 6026m | -2.8m/s | -21.2°C | 16.2% | 475.4hPa | 2.7V | 07:31:00 | 00:00:00 | 00:00:00 | |
| SP3WXH-11 | 2026-09-05 06:43:27 | 52.25120 | 17.63696 | 104° | 100km/h | 6044m | -2.6m/s | -21.4°C | 16.3% | 474.2hPa | 2.7V | 00:00:00 | 00:00:00 | 00:00:00 | |
| KRY50SP-1 | 2026-09-05 06:43:21 | 52.25145 | 17.63499 | 99° | 95km/h | 6057m | -2.2m/s | -21.4°C | 16.1% | 473.5hPa | 2.7V | 07:31:00 | 00:00:00 | 00:00:00 | |
| SP6BVK | 2026-09-05 06:43:18 | 52.25154 | 17.63381 | 97° | 99km/h | 6064m | -2.7m/s | -21.4°C | 15.9% | 473.0hPa | 2.7V | 07:31:00 | 00:00:00 | 00:00:00 | |
| KRY50SP-1 | 2026-09-05 06:43:15 | 52.25161 | 17.63258 | 97° | 102km/h | 6072m | -2.4m/s | -21.5°C | 15.6% | 472.5hPa | 2.7V | 07:31:00 | 00:00:00 | 00:00:00 | |
| KRY50SP-1 | 2026-09-05 06:43:10 | 52.25178 | 17.63039 | 101° | 110km/h | 6085m | -2.6m/s | -21.5°C | 15.0% | 471.6hPa | 2.7V | 07:31:00 | 00:00:00 | 00:00:00 | |
| KRY50SP-1 | 2026-09-05 06:43:05 | 52.25207 | 17.62825 | 104° | 100km/h | 6097m | -2.7m/s | -21.6°C | 15.0% | 470.9hPa | 2.7V | 07:31:00 | 00:00:00 | 00:00:00 | |
| SP3WXH-11 | 2026-09-05 06:42:56 | 52.25242 | 17.62372 | 96° | 108km/h | 6125m | -2.9m/s | -21.8°C | 14.8% | 469.1hPa | 2.7V | 00:00:00 | 00:00:00 | 00:00:00 | |
| SP3BTT-10 | 2026-09-05 06:42:55 | 52.25242 | 17.62372 | 97° | 110km/h | 6125m | -2.8m/s | -21.7°C | 16.1% | 469.0hPa | 2.7V | 00:00:00 | 00:00:00 | 00:00:00 | |
| KRY50SP-1 | 2026-09-05 06:42:53 | 52.25245 | 17.62327 | 99° | 110km/h | 6128m | -2.8m/s | -21.8°C | 14.9% | 468.9hPa | 2.5V | 07:31:00 | 00:00:00 | 00:00:00 | |
| KRY50SP-1 | 2026-09-05 06:42:48 | 52.25271 | 17.62106 | 104° | 106km/h | 6141m | -2.4m/s | -21.9°C | 15.2% | 468.0hPa | 2.5V | 07:31:00 | 00:00:00 | 00:00:00 | |
| KRY50SP-1 | 2026-09-05 06:42:42 | 52.25303 | 17.61865 | 99° | 95km/h | 6157m | -2.6m/s | -22.0°C | 15.4% | 467.1hPa | 2.5V | 07:31:00 | 00:00:00 | 00:00:00 | |
| SP6BVK | 2026-09-05 06:42:36 | 52.25318 | 17.61615 | 97° | 110km/h | 6172m | -2.5m/s | -22.2°C | 15.5% | 466.1hPa | 2.5V | 00:00:00 | 00:00:00 | 00:00:00 | |
| KRY50SP-1 | 2026-09-05 06:42:30 | 52.25345 | 17.61345 | 103° | 110km/h | 6187m | -2.7m/s | -22.3°C | 15.6% | 465.1hPa | 2.5V | 07:31:00 | 00:00:00 | 00:00:00 | |
| KRY50SP-1 | 2026-09-05 06:42:24 | 52.25379 | 17.61098 | 100° | 97km/h | 6203m | -2.8m/s | -22.4°C | 15.7% | 464.0hPa | 2.5V | 07:31:00 | 00:00:00 | 00:00:00 | |
| KRY50SP-1 | 2026-09-05 06:42:19 | 52.25394 | 17.60893 | 95° | 106km/h | 6216m | -2.5m/s | -22.5°C | 15.9% | 463.3hPa | 2.5V | 07:31:00 | 00:00:00 | 00:00:00 | |
| SP6BVK | 2026-09-05 06:42:16 | 52.25402 | 17.60760 | 98° | 111km/h | 6223m | -2.6m/s | -22.6°C | 15.9% | 462.8hPa | 2.5V | 00:00:00 | 00:00:00 | 00:00:00 | |
| KRY50SP-1 | 2026-09-05 06:42:13 | 52.25414 | 17.60623 | 101° | 111km/h | 6231m | -2.7m/s | -22.6°C | 15.9% | 462.3hPa | 2.5V | 07:31:00 | 00:00:00 | 00:00:00 | |
| SP3BTT-10 | 2026-09-05 06:42:10 | 52.25437 | 17.60447 | 104° | 102km/h | 6242m | -2.5m/s | -22.7°C | 17.4% | 461.5hPa | 2.5V | 00:00:00 | 00:00:00 | 00:00:00 | |
| KRY50SP-1 | 2026-09-05 06:42:08 | 52.25443 | 17.60405 | 105° | 104km/h | 6244m | -2.7m/s | -22.7°C | 16.0% | 461.5hPa | 2.5V | 07:31:00 | 00:00:00 | 00:00:00 | |
| KRY50SP-1 | 2026-09-05 06:42:02 | 52.25470 | 17.60167 | 98° | 97km/h | 6260m | -3.0m/s | -22.9°C | 16.1% | 460.5hPa | 2.5V | 07:31:00 | 00:00:00 | 00:00:00 | |
| SP3WXH-11 | 2026-09-05 06:41:54 | 52.25505 | 17.59728 | 102° | 108km/h | 6285m | -2.3m/s | -23.1°C | 16.2% | 458.9hPa | 2.5V | 00:00:00 | 00:00:00 | 00:00:00 | |
| KRY50SP-1 | 2026-09-05 06:41:51 | 52.25511 | 17.59684 | 104° | 108km/h | 6288m | -2.5m/s | -23.1°C | 16.2% | 458.7hPa | 2.5V | 07:32:00 | 00:00:00 | 00:00:00 | |
| KRY50SP-1 | 2026-09-05 06:41:46 | 52.25537 | 17.59482 | 100° | 97km/h | 6301m | -2.7m/s | -23.2°C | 16.1% | 457.9hPa | 2.5V | 07:32:00 | 00:00:00 | 00:00:00 | |
| KRY50SP-1 | 2026-09-05 06:41:40 | 52.25553 | 17.59238 | 95° | 104km/h | 6316m | -2.5m/s | -23.3°C | 16.1% | 456.9hPa | 2.5V | 07:32:00 | 00:00:00 | 00:00:00 | |
| SP6BVK | 2026-09-05 06:41:35 | 52.25569 | 17.59015 | 100° | 111km/h | 6329m | -2.5m/s | -23.5°C | 16.2% | 456.1hPa | 2.5V | 07:32:00 | 00:00:00 | 00:00:00 | |
| KRY50SP-1 | 2026-09-05 06:41:34 | 52.25573 | 17.58969 | 101° | 110km/h | 6332m | -2.6m/s | -23.5°C | 16.3% | 455.9hPa | 2.5V | 07:32:00 | 00:00:00 | 00:00:00 | |
| KRY50SP-1 | 2026-09-05 06:41:28 | 52.25605 | 17.58717 | 101° | 99km/h | 6347m | -2.6m/s | -23.6°C | 16.7% | 455.1hPa | 2.5V | 07:32:00 | 00:00:00 | 00:00:00 | |
| SP3BTT-10 | 2026-09-05 06:41:25 | 52.25618 | 17.58559 | 96° | 102km/h | 6357m | -2.7m/s | -23.7°C | 18.1% | 454.4hPa | 2.5V | 00:00:00 | 00:00:00 | 00:00:00 | |
| SP3WXH-11 | 2026-09-05 06:41:23 | 52.25624 | 17.58434 | 93° | 104km/h | 6365m | -2.6m/s | -23.8°C | 16.5% | 453.9hPa | 2.5V | 00:00:00 | 00:00:00 | 00:00:00 | |
| EDDB2-12 | 2026-09-05 06:41:18 | 52.25641 | 17.58165 | 100° | 110km/h | 6381m | -2.8m/s | -23.9°C | 16.8% | 453.0hPa | 2.5V | 00:00:00 | 00:00:00 | 00:00:00 | |
| SONDE2-11 | 2026-09-05 06:41:17 | 52.25641 | 17.58165 | 100° | 110km/h | 6381m | -2.8m/s | -23.9°C | 16.8% | 453.0hPa | 2.5V | 00:00:00 | 00:00:00 | 00:00:00 | |
| SP6BVK | 2026-09-05 06:41:13 | 52.25652 | 17.58078 | 103° | 104km/h | 6386m | -2.5m/s | -24.0°C | 16.8% | 452.7hPa | 2.5V | 07:32:00 | 00:00:00 | 00:00:00 | |
| KRY50SP-1 | 2026-09-05 06:41:11 | 52.25662 | 17.57996 | 102° | 99km/h | 6391m | -2.5m/s | -24.0°C | 16.9% | 452.4hPa | 2.5V | 07:32:00 | 00:00:00 | 00:00:00 | |
| KRY50SP-1 | 2026-09-05 06:41:06 | 52.25679 | 17.57797 | 95° | 99km/h | 6404m | -2.2m/s | -24.1°C | 16.9% | 451.6hPa | 2.5V | 07:32:00 | 00:00:00 | 00:00:00 | |
| SP3WXH-11 | 2026-09-05 06:40:52 | 52.25734 | 17.57103 | 99° | 97km/h | 6443m | -2.5m/s | -24.5°C | 17.0% | 449.1hPa | 2.5V | 00:00:00 | 00:00:00 | 00:00:00 | |
| EDDB2-12 | 2026-09-05 06:40:47 | 52.25748 | 17.56903 | 93° | 102km/h | 6456m | -2.3m/s | -24.6°C | 17.2% | 448.2hPa | 2.5V | 00:00:00 | 00:00:00 | 00:00:00 | |
| SONDE2-11 | 2026-09-05 06:40:46 | 52.25748 | 17.56903 | 93° | 102km/h | 6456m | -2.3m/s | -24.6°C | 17.2% | 448.2hPa | 2.5V | 00:00:00 | 00:00:00 | 00:00:00 | |
| KRY50SP-1 | 2026-09-05 06:40:44 | 52.25749 | 17.56860 | 95° | 106km/h | 6458m | -2.5m/s | -24.7°C | 17.2% | 448.1hPa | 2.5V | 07:33:00 | 00:00:00 | 00:00:00 | |
| SP3BTT-10 | 2026-09-05 06:40:40 | 52.25762 | 17.56635 | 99° | 110km/h | 6472m | -2.4m/s | -24.7°C | 18.8% | 447.4hPa | 2.5V | 00:00:00 | 00:00:00 | 00:00:00 | |
| KRY50SP-1 | 2026-09-05 06:40:39 | 52.25762 | 17.56635 | 99° | 113km/h | 6472m | -2.5m/s | -24.8°C | 17.2% | 447.5hPa | 2.5V | 07:33:00 | 00:00:00 | 00:00:00 | |
| KRY50SP-1 | 2026-09-05 06:40:34 | 52.25788 | 17.56414 | 104° | 104km/h | 6483m | -2.4m/s | -24.9°C | 17.3% | 446.6hPa | 2.5V | 07:33:00 | 00:00:00 | 00:00:00 | |
| SP6BVK | 2026-09-05 06:40:30 | 52.25808 | 17.56253 | 100° | 97km/h | 6493m | -2.6m/s | -25.0°C | 17.2% | 446.0hPa | 2.5V | 07:33:00 | 00:00:00 | 00:00:00 | |
| KRY50SP-1 | 2026-09-05 06:40:29 | 52.25812 | 17.56214 | 98° | 95km/h | 6496m | -2.5m/s | -25.0°C | 17.2% | 445.9hPa | 2.5V | 07:33:00 | 00:00:00 | 00:00:00 | |
| KRY50SP-1 | 2026-09-05 06:40:23 | 52.25825 | 17.55965 | 96° | 108km/h | 6510m | -2.6m/s | -25.1°C | 17.5% | 444.9hPa | 2.5V | 07:33:00 | 00:00:00 | 00:00:00 | |
| SP3WXH-11 | 2026-09-05 06:40:21 | 52.25839 | 17.55783 | 99° | 111km/h | 6521m | -2.4m/s | -25.2°C | 17.6% | 444.4hPa | 2.5V | 00:00:00 | 00:00:00 | 00:00:00 | |
| KRY50SP-1 | 2026-09-05 06:40:18 | 52.25844 | 17.55738 | 102° | 111km/h | 6523m | -2.4m/s | -25.2°C | 17.5% | 444.2hPa | 2.5V | 07:33:00 | 00:00:00 | 00:00:00 | |
| EDDB2-12 | 2026-09-05 06:40:16 | 52.25866 | 17.55566 | 101° | 100km/h | 6534m | -2.7m/s | -25.3°C | 17.5% | 443.6hPa | 2.5V | 00:00:00 | 00:00:00 | 00:00:00 | |
| SONDE2-11 | 2026-09-05 06:40:15 | 52.25866 | 17.55566 | 101° | 100km/h | 6534m | -2.7m/s | -25.3°C | 17.5% | 443.6hPa | 2.5V | 00:00:00 | 00:00:00 | 00:00:00 | |
| KRY50SP-1 | 2026-09-05 06:40:12 | 52.25877 | 17.55485 | 104° | 99km/h | 6540m | -2.3m/s | -25.4°C | 17.6% | 443.2hPa | 2.5V | 07:33:00 | 00:00:00 | 00:00:00 | |
| SP6BVK | 2026-09-05 06:40:10 | 52.25886 | 17.55406 | 100° | 97km/h | 6544m | -2.6m/s | -25.4°C | 17.6% | 442.9hPa | 2.5V | 00:00:00 | 00:00:00 | 00:00:00 | |
| KRY50SP-1 | 2026-09-05 06:40:06 | 52.25898 | 17.55242 | 96° | 106km/h | 6554m | -2.5m/s | -25.5°C | 17.9% | 442.3hPa | 2.5V | 07:34:00 | 00:00:00 | 00:00:00 | |
| SP3WXH-11 | 2026-09-05 06:39:50 | 52.25981 | 17.54468 | 96° | 97km/h | 6598m | -2.1m/s | -25.8°C | 17.4% | 439.7hPa | 2.5V | 00:00:00 | 00:00:00 | 00:00:00 | |
| KRY50SP-1 | 2026-09-05 06:39:49 | 52.25978 | 17.54508 | 98° | 97km/h | 6596m | -2.3m/s | -25.8°C | 17.5% | 439.8hPa | 2.5V | 07:34:00 | 00:00:00 | 00:00:00 | |
| EDDB2-12 | 2026-09-05 06:39:45 | 52.25994 | 17.54254 | 96° | 110km/h | 6610m | -2.8m/s | -25.9°C | 17.6% | 438.9hPa | 2.5V | 00:00:00 | 00:00:00 | 00:00:00 | |
| SONDE2-11 | 2026-09-05 06:39:44 | 52.25994 | 17.54254 | 96° | 110km/h | 6610m | -2.8m/s | -25.9°C | 17.6% | 438.9hPa | 2.5V | 00:00:00 | 00:00:00 | 00:00:00 | |
| KRY50SP-1 | 2026-09-05 06:39:43 | 52.25994 | 17.54254 | 97° | 111km/h | 6610m | -2.8m/s | -25.9°C | 17.6% | 438.9hPa | 2.5V | 07:34:00 | 00:00:00 | 00:00:00 | |
| KRY50SP-1 | 2026-09-05 06:39:37 | 52.26025 | 17.53979 | 104° | 111km/h | 6626m | -2.4m/s | -26.0°C | 17.6% | 438.0hPa | 2.5V | 07:34:00 | 00:00:00 | 00:00:00 | |
| KRY50SP-1 | 2026-09-05 06:39:31 | 52.26056 | 17.53729 | 98° | 99km/h | 6640m | -2.2m/s | -26.1°C | 17.9% | 437.1hPa | 2.5V | 07:34:00 | 00:00:00 | 00:00:00 | |
| SP6BVK | 2026-09-05 06:39:30 | 52.26059 | 17.53688 | 98° | 100km/h | 6643m | -2.8m/s | -26.1°C | 18.0% | 437.0hPa | 2.5V | 00:00:00 | 00:00:00 | 00:00:00 | |
| KRY50SP-1 | 2026-09-05 06:39:21 | 52.26091 | 17.53239 | 102° | 115km/h | 6667m | -2.3m/s | -26.3°C | 17.4% | 435.5hPa | 2.5V | 07:35:00 | 00:00:00 | 00:00:00 | |
| SP3WXH-11 | 2026-09-05 06:39:19 | 52.26108 | 17.53103 | 101° | 106km/h | 6674m | -2.3m/s | -26.4°C | 17.7% | 435.1hPa | 2.5V | 00:00:00 | 00:00:00 | 00:00:00 | |
| EDDB2-12 | 2026-09-05 06:39:14 | 52.26131 | 17.52895 | 97° | 102km/h | 6687m | -2.3m/s | -26.5°C | 17.8% | 434.4hPa | 2.5V | 00:00:00 | 00:00:00 | 00:00:00 | |
| SONDE2-11 | 2026-09-05 06:39:13 | 52.26131 | 17.52895 | 97° | 102km/h | 6687m | -2.3m/s | -26.5°C | 17.8% | 434.4hPa | 2.5V | 00:00:00 | 00:00:00 | 00:00:00 | |
| SP3BTT-10 | 2026-09-05 06:39:09 | 52.26139 | 17.52723 | 95° | 115km/h | 6696m | -2.5m/s | -26.5°C | 19.3% | 433.7hPa | 2.5V | 00:00:00 | 00:00:00 | 00:00:00 | |
| KRY50SP-1 | 2026-09-05 06:39:03 | 52.26151 | 17.52490 | 97° | 119km/h | 6708m | -2.5m/s | -26.6°C | 16.8% | 433.0hPa | 2.5V | 07:35:00 | 00:00:00 | 00:00:00 | |
| KRY50SP-1 | 2026-09-05 06:38:58 | 52.26176 | 17.52254 | 103° | 111km/h | 6721m | -2.9m/s | -26.6°C | 17.0% | 432.3hPa | 2.5V | 07:35:00 | 00:00:00 | 00:00:00 | |
| KRY50SP-1 | 2026-09-05 06:38:52 | 52.26198 | 17.51995 | 95° | 108km/h | 6735m | -1.9m/s | -26.8°C | 17.0% | 431.5hPa | 2.5V | 07:35:00 | 00:00:00 | 00:00:00 | |
| KRY50SP-1 | 2026-09-05 06:38:47 | 52.26207 | 17.51761 | 95° | 119km/h | 6746m | -1.8m/s | -26.8°C | 16.4% | 430.7hPa | 2.5V | 07:35:00 | 00:00:00 | 00:00:00 | |
| EDDB2-12 | 2026-09-05 06:38:43 | 52.26228 | 17.51466 | 100° | 119km/h | 6760m | -2.0m/s | -26.9°C | 15.8% | 429.9hPa | 2.5V | 00:00:00 | 00:00:00 | 00:00:00 | |
| KRY50SP-1 | 2026-09-05 06:38:41 | 52.26228 | 17.51466 | 101° | 119km/h | 6760m | -2.0m/s | -26.9°C | 15.8% | 429.9hPa | 2.5V | 07:35:00 | 00:00:00 | 00:00:00 | |
| KRY50SP-1 | 2026-09-05 06:38:35 | 52.26254 | 17.51195 | 96° | 108km/h | 6775m | -2.0m/s | -27.0°C | 16.1% | 429.0hPa | 2.5V | 07:35:00 | 00:00:00 | 00:00:00 | |
| KRY50SP-1 | 2026-09-05 06:38:29 | 52.26263 | 17.50920 | 94° | 119km/h | 6790m | -2.6m/s | -27.1°C | 15.4% | 428.2hPa | 2.5V | 07:36:00 | 00:00:00 | 00:00:00 | |
| SP6BVK | 2026-09-05 06:38:26 | 52.26269 | 17.50772 | 95° | 122km/h | 6799m | -2.2m/s | -27.2°C | 15.3% | 427.8hPa | 2.5V | 07:36:00 | 00:00:00 | 00:00:00 | |
| SP3BTT-10 | 2026-09-05 06:38:24 | 52.26280 | 17.50623 | 99° | 119km/h | 6806m | -2.2m/s | -27.1°C | 16.7% | 427.3hPa | 2.5V | 00:00:00 | 00:00:00 | 00:00:00 | |
| KRY50SP-1 | 2026-09-05 06:38:23 | 52.26280 | 17.50623 | 99° | 120km/h | 6806m | -2.2m/s | -27.2°C | 15.1% | 427.3hPa | 2.5V | 07:36:00 | 00:00:00 | 00:00:00 | |
| KRY50SP-1 | 2026-09-05 06:38:18 | 52.26304 | 17.50394 | 99° | 106km/h | 6817m | -2.5m/s | -27.3°C | 14.9% | 426.6hPa | 2.5V | 07:36:00 | 00:00:00 | 00:00:00 | |
| SP3WXH-11 | 2026-09-05 06:38:16 | 52.26314 | 17.50264 | 95° | 106km/h | 6825m | -2.3m/s | -27.3°C | 14.6% | 426.2hPa | 2.5V | 00:00:00 | 00:00:00 | 00:00:00 | |
| KRY50SP-1 | 2026-09-05 06:38:13 | 52.26317 | 17.50175 | 94° | 110km/h | 6829m | -2.3m/s | -27.3°C | 14.4% | 425.9hPa | 2.5V | 07:36:00 | 00:00:00 | 00:00:00 | |
| SONDE2-11 | 2026-09-05 06:38:11 | 52.26323 | 17.49984 | 94° | 120km/h | 6838m | -2.1m/s | -27.4°C | 14.5% | 425.4hPa | 2.5V | 00:00:00 | 00:00:00 | 00:00:00 | |
| KRY50SP-1 | 2026-09-05 06:38:07 | 52.26327 | 17.49884 | 96° | 124km/h | 6842m | -2.3m/s | -27.4°C | 14.5% | 425.2hPa | 2.5V | 07:36:00 | 00:00:00 | 00:00:00 | |
| SP6BVK | 2026-09-05 06:38:05 | 52.26335 | 17.49783 | 99° | 122km/h | 6847m | -2.4m/s | -27.4°C | 14.5% | 424.9hPa | 2.5V | 07:36:00 | 00:00:00 | 00:00:00 | |
| SP3WXH-11 | 2026-09-05 06:37:46 | 52.26401 | 17.48772 | 97° | 122km/h | 6896m | -2.3m/s | -27.9°C | 14.4% | 421.9hPa | 2.5V | 00:00:00 | 00:00:00 | 00:00:00 | |
| SP6BVK | 2026-09-05 06:37:45 | 52.26397 | 17.48823 | 99° | 126km/h | 6894m | -2.1m/s | -27.8°C | 14.4% | 422.1hPa | 2.5V | 07:36:00 | 00:00:00 | 00:00:00 | |
| EDDB2-12 | 2026-09-05 06:37:41 | 52.26426 | 17.48533 | 97° | 110km/h | 6908m | -1.9m/s | -27.9°C | 14.6% | 421.3hPa | 2.5V | 00:00:00 | 00:00:00 | 00:00:00 | |
| SONDE2-11 | 2026-09-05 06:37:40 | 52.26429 | 17.48487 | 94° | 110km/h | 6910m | -2.5m/s | -27.9°C | 14.6% | 421.1hPa | 2.5V | 00:00:00 | 00:00:00 | 00:00:00 | |
| SP3BTT-10 | 2026-09-05 06:37:39 | 52.26429 | 17.48487 | 95° | 115km/h | 6910m | -2.5m/s | -27.9°C | 16.3% | 421.1hPa | 2.5V | 07:36:00 | 00:00:00 | 00:00:00 | |
| KRY50SP-1 | 2026-09-05 06:37:35 | 52.26434 | 17.48348 | 92° | 115km/h | 6918m | -2.6m/s | -28.0°C | 14.6% | 420.8hPa | 2.5V | 07:37:00 | 00:00:00 | 00:00:00 | |
| KRY50SP-1 | 2026-09-05 06:37:30 | 52.26439 | 17.48101 | 95° | 126km/h | 6929m | -2.2m/s | -28.1°C | 14.2% | 420.0hPa | 2.5V | 07:37:00 | 00:00:00 | 00:00:00 | |
| SP6BVK | 2026-09-05 06:37:24 | 52.26461 | 17.47794 | 100° | 119km/h | 6944m | -1.9m/s | -28.1°C | 14.3% | 419.3hPa | 2.5V | 07:37:00 | 00:00:00 | 00:00:00 | |
| KRY50SP-1 | 2026-09-05 06:37:18 | 52.26479 | 17.47515 | 92° | 113km/h | 6956m | -2.2m/s | -28.2°C | 14.0% | 418.5hPa | 2.5V | 07:37:00 | 00:00:00 | 00:00:00 | |
| SP3WXH-11 | 2026-09-05 06:37:14 | 52.26481 | 17.47273 | 91° | 122km/h | 6967m | -1.9m/s | -28.2°C | 13.5% | 417.7hPa | 2.5V | 00:00:00 | 00:00:00 | 00:00:00 | |
| KRY50SP-1 | 2026-09-05 06:37:12 | 52.26482 | 17.47222 | 93° | 128km/h | 6970m | -2.0m/s | -28.2°C | 13.5% | 417.7hPa | 2.5V | 07:37:00 | 00:00:00 | 00:00:00 | |
| SONDE2-11 | 2026-09-05 06:37:09 | 52.26495 | 17.46961 | 97° | 124km/h | 6980m | -2.5m/s | -28.2°C | 13.7% | 416.9hPa | 2.5V | 00:00:00 | 00:00:00 | 00:00:00 | |
| KRY50SP-1 | 2026-09-05 06:37:07 | 52.26495 | 17.46960 | 98° | 124km/h | 6980m | -2.5m/s | -28.2°C | 13.7% | 416.9hPa | 2.5V | 07:37:00 | 00:00:00 | 00:00:00 | |
| SP6BVK | 2026-09-05 06:37:04 | 52.26508 | 17.46812 | 98° | 117km/h | 6988m | -2.2m/s | -28.3°C | 13.9% | 416.6hPa | 2.5V | 07:37:00 | 00:00:00 | 00:00:00 | |
| KRY50SP-1 | 2026-09-05 06:37:02 | 52.26516 | 17.46719 | 97° | 113km/h | 6992m | -2.0m/s | -28.3°C | 14.0% | 416.4hPa | 2.5V | 07:37:00 | 00:00:00 | 00:00:00 | |
| KRY50SP-1 | 2026-09-05 06:36:57 | 52.26522 | 17.46488 | 92° | 115km/h | 7004m | -1.9m/s | -28.4°C | 14.3% | 415.8hPa | 2.5V | 07:37:00 | 00:00:00 | 00:00:00 | |
| SP3BTT-10 | 2026-09-05 06:36:54 | 52.26524 | 17.46288 | 92° | 128km/h | 7013m | -1.4m/s | -28.4°C | 17.8% | 415.1hPa | 2.5V | 00:00:00 | 00:00:00 | 00:00:00 | |
| KRY50SP-1 | 2026-09-05 06:36:51 | 52.26527 | 17.46182 | 94° | 128km/h | 7017m | -1.6m/s | -28.4°C | 19.0% | 415.0hPa | 2.5V | 07:37:00 | 00:00:00 | 00:00:00 | |
| KRY50SP-1 | 2026-09-05 06:36:46 | 52.26542 | 17.45923 | 99° | 120km/h | 7027m | -2.0m/s | -28.5°C | 25.4% | 414.4hPa | 2.5V | 07:37:00 | 00:00:00 | 00:00:00 | |
| SP6BVK | 2026-09-05 06:36:44 | 52.26553 | 17.45780 | 96° | 113km/h | 7034m | -2.5m/s | -28.6°C | 24.8% | 414.0hPa | 2.5V | 07:37:00 | 00:00:00 | 00:00:00 | |
| SP3WXH-11 | 2026-09-05 06:36:43 | 52.26555 | 17.45734 | 93° | 111km/h | 7036m | -2.0m/s | -28.6°C | 24.4% | 413.9hPa | 2.5V | 00:00:00 | 00:00:00 | 00:00:00 | |
| KRY50SP-1 | 2026-09-05 06:36:40 | 52.26557 | 17.45641 | 93° | 113km/h | 7040m | -1.8m/s | -28.7°C | 23.1% | 413.6hPa | 2.5V | 07:37:00 | 00:00:00 | 00:00:00 | |
| SONDE2-11 | 2026-09-05 06:36:38 | 52.26558 | 17.45449 | 90° | 120km/h | 7049m | -1.7m/s | -28.7°C | 23.7% | 413.1hPa | 2.5V | 00:00:00 | 00:00:00 | 00:00:00 | |
| KRY50SP-1 | 2026-09-05 06:36:35 | 52.26559 | 17.45398 | 91° | 126km/h | 7051m | -1.9m/s | -28.7°C | 23.6% | 413.0hPa | 2.5V | 07:37:00 | 00:00:00 | 00:00:00 | |
| KRY50SP-1 | 2026-09-05 06:36:30 | 52.26565 | 17.45134 | 96° | 128km/h | 7061m | -1.4m/s | -28.8°C | 23.5% | 412.3hPa | 2.5V | 07:37:00 | 00:00:00 | 00:00:00 | |
| KRY50SP-1 | 2026-09-05 06:36:25 | 52.26582 | 17.44884 | 96° | 117km/h | 7071m | -1.6m/s | -28.9°C | 24.3% | 411.8hPa | 2.5V | 07:37:00 | 00:00:00 | 00:00:00 | |
| SP6BVK | 2026-09-05 06:36:23 | 52.26585 | 17.44790 | 93° | 115km/h | 7075m | -1.7m/s | -29.0°C | 24.6% | 411.6hPa | 2.5V | 07:37:00 | 00:00:00 | 00:00:00 | |
| KRY50SP-1 | 2026-09-05 06:36:20 | 52.26586 | 17.44647 | 90° | 115km/h | 7080m | -1.9m/s | -29.0°C | 25.3% | 411.2hPa | 2.5V | 07:37:00 | 00:00:00 | 00:00:00 | |
| KRY50SP-1 | 2026-09-05 06:36:15 | 52.26582 | 17.44396 | 91° | 128km/h | 7091m | -1.6m/s | -29.1°C | 25.9% | 410.5hPa | 2.5V | 07:37:00 | 00:00:00 | 00:00:00 | |
| SP3BTT-10 | 2026-09-05 06:36:12 | 52.26588 | 17.44182 | 96° | 120km/h | 7098m | -2.2m/s | -29.1°C | 29.0% | 410.1hPa | 2.5V | 00:00:00 | 00:00:00 | 00:00:00 | |
| KRY50SP-1 | 2026-09-05 06:36:09 | 52.26595 | 17.44080 | 97° | 120km/h | 7103m | -1.6m/s | -29.2°C | 26.6% | 409.9hPa | 2.6V | 07:37:00 | 00:00:00 | 00:00:00 | |
| SONDE2-11 | 2026-09-05 06:36:07 | 52.26604 | 17.43890 | 91° | 111km/h | 7110m | -2.1m/s | -29.3°C | 27.0% | 409.4hPa | 2.6V | 00:00:00 | 00:00:00 | 00:00:00 | |
| KRY50SP-1 | 2026-09-05 06:36:04 | 52.26605 | 17.43843 | 91° | 111km/h | 7113m | -2.3m/s | -29.3°C | 27.0% | 409.4hPa | 2.6V | 07:37:00 | 00:00:00 | 00:00:00 | |
| SP6BVK | 2026-09-05 06:36:03 | 52.26605 | 17.43797 | 90° | 113km/h | 7115m | -2.2m/s | -29.3°C | 27.1% | 409.3hPa | 2.6V | 07:37:00 | 00:00:00 | 00:00:00 | |
| KRY50SP-1 | 2026-09-05 06:35:59 | 52.26602 | 17.43601 | 89° | 124km/h | 7124m | -1.8m/s | -29.4°C | 27.2% | 408.8hPa | 2.6V | 07:37:00 | 00:00:00 | 00:00:00 | |
| KRY50SP-1 | 2026-09-05 06:35:53 | 52.26606 | 17.43284 | 95° | 128km/h | 7137m | -1.8m/s | -29.5°C | 27.0% | 408.1hPa | 2.6V | 07:38:00 | 00:00:00 | 00:00:00 | |
| KRY50SP-1 | 2026-09-05 06:35:47 | 52.26622 | 17.42988 | 93° | 113km/h | 7149m | -1.4m/s | -29.6°C | 26.9% | 407.4hPa | 2.6V | 07:38:00 | 00:00:00 | 00:00:00 | |
| SP6BVK | 2026-09-05 06:35:42 | 52.26621 | 17.42747 | 89° | 122km/h | 7158m | -1.7m/s | -29.7°C | 27.0% | 406.8hPa | 2.6V | 07:38:00 | 00:00:00 | 00:00:00 | |
| SP3WXH-11 | 2026-09-05 06:35:41 | 52.26620 | 17.42644 | 88° | 128km/h | 7162m | -1.6m/s | -29.7°C | 27.0% | 406.6hPa | 2.6V | 00:00:00 | 00:00:00 | 00:00:00 | |
| EDDB2-12 | 2026-09-05 06:35:36 | 52.26623 | 17.42376 | 93° | 128km/h | 7172m | -1.5m/s | -29.8°C | 27.2% | 406.0hPa | 2.6V | 00:00:00 | 00:00:00 | 00:00:00 | |
| KRY50SP-1 | 2026-09-05 06:35:35 | 52.26623 | 17.42376 | 95° | 128km/h | 7172m | -1.5m/s | -29.8°C | 27.2% | 406.0hPa | 2.6V | 07:38:00 | 00:00:00 | 00:00:00 | |
| KRY50SP-1 | 2026-09-05 06:35:29 | 52.26640 | 17.42075 | 95° | 117km/h | 7184m | -2.0m/s | -29.9°C | 27.7% | 405.4hPa | 2.6V | 07:38:00 | 00:00:00 | 00:00:00 | |
| SP3BTT-10 | 2026-09-05 06:35:24 | 52.26640 | 17.41780 | 89° | 130km/h | 7194m | -1.5m/s | -29.9°C | 30.3% | 404.7hPa | 2.6V | 00:00:00 | 00:00:00 | 00:00:00 | |
| KRY50SP-1 | 2026-09-05 06:35:23 | 52.26640 | 17.41780 | 90° | 126km/h | 7194m | -1.6m/s | -30.0°C | 27.6% | 404.7hPa | 2.6V | 07:38:00 | 00:00:00 | 00:00:00 | |
| SP6BVK | 2026-09-05 06:35:22 | 52.26640 | 17.41728 | 90° | 126km/h | 7196m | -1.4m/s | -30.0°C | 27.5% | 404.6hPa | 2.6V | 07:38:00 | 00:00:00 | 00:00:00 | |
| KRY50SP-1 | 2026-09-05 06:35:18 | 52.26638 | 17.41514 | 92° | 135km/h | 7204m | -1.7m/s | -30.1°C | 26.8% | 404.2hPa | 2.6V | 07:38:00 | 00:00:00 | 00:00:00 | |
| KRY50SP-1 | 2026-09-05 06:35:13 | 52.26649 | 17.41245 | 98° | 126km/h | 7213m | -1.9m/s | -30.1°C | 26.0% | 403.6hPa | 2.6V | 07:38:00 | 00:00:00 | 00:00:00 | |
| SP3WXH-11 | 2026-09-05 06:35:10 | 52.26660 | 17.41043 | 91° | 120km/h | 7221m | -1.3m/s | -30.2°C | 27.0% | 403.2hPa | 2.6V | 00:00:00 | 00:00:00 | 00:00:00 | |
| KRY50SP-1 | 2026-09-05 06:35:08 | 52.26660 | 17.40993 | 91° | 122km/h | 7223m | -1.2m/s | -30.2°C | 27.1% | 403.2hPa | 2.6V | 07:38:00 | 00:00:00 | 00:00:00 | |
| SONDE2-11 | 2026-09-05 06:35:05 | 52.26656 | 17.40734 | 87° | 128km/h | 7231m | -2.2m/s | -30.3°C | 27.1% | 402.6hPa | 2.6V | 00:00:00 | 00:00:00 | 00:00:00 | |
| KRY50SP-1 | 2026-09-05 06:35:02 | 52.26654 | 17.40681 | 88° | 128km/h | 7234m | -1.8m/s | -30.3°C | 26.9% | 402.5hPa | 2.6V | 07:39:00 | 00:00:00 | 00:00:00 | |
| SP6BVK | 2026-09-05 06:35:01 | 52.26653 | 17.40628 | 89° | 131km/h | 7236m | -1.4m/s | -30.4°C | 26.8% | 402.4hPa | 2.6V | 07:39:00 | 00:00:00 | 00:00:00 | |
| KRY50SP-1 | 2026-09-05 06:34:57 | 52.26651 | 17.40407 | 90° | 137km/h | 7244m | -2.0m/s | -30.4°C | 25.9% | 402.0hPa | 2.6V | 07:39:00 | 00:00:00 | 00:00:00 | |
| KRY50SP-1 | 2026-09-05 06:34:52 | 52.26657 | 17.40125 | 95° | 131km/h | 7253m | -1.4m/s | -30.4°C | 25.2% | 401.5hPa | 2.6V | 07:39:00 | 00:00:00 | 00:00:00 | |
| KRY50SP-1 | 2026-09-05 06:34:46 | 52.26658 | 17.39816 | 88° | 126km/h | 7265m | -1.1m/s | -30.4°C | 21.9% | 400.9hPa | 2.6V | 07:39:00 | 00:00:00 | 00:00:00 | |
| SP6BVK | 2026-09-05 06:34:41 | 52.26647 | 17.39547 | 89° | 135km/h | 7273m | -1.3m/s | -30.3°C | 16.1% | 400.4hPa | 2.6V | 07:39:00 | 00:00:00 | 00:00:00 | |
| SP3BTT-10 | 2026-09-05 06:34:39 | 52.26646 | 17.39377 | 92° | 130km/h | 7277m | -1.4m/s | -30.1°C | 14.6% | 400.1hPa | 2.6V | 00:00:00 | 00:00:00 | 00:00:00 | |
| KRY50SP-1 | 2026-09-05 06:34:36 | 52.26649 | 17.39264 | 93° | 133km/h | 7281m | -1.2m/s | -30.1°C | 11.2% | 399.9hPa | 2.6V | 07:39:00 | 00:00:00 | 00:00:00 | |
| EDDB2-12 | 2026-09-05 06:34:34 | 52.26654 | 17.39106 | 92° | 122km/h | 7285m | -1.1m/s | -30.0°C | 9.6% | 399.6hPa | 2.6V | 00:00:00 | 00:00:00 | 00:00:00 | |
| SONDE2-11 | 2026-09-05 06:34:33 | 52.26655 | 17.39055 | 90° | 120km/h | 7287m | -1.5m/s | -30.0°C | 8.9% | 399.5hPa | 2.6V | 00:00:00 | 00:00:00 | 00:00:00 | |
| KRY50SP-1 | 2026-09-05 06:34:30 | 52.26656 | 17.38955 | 90° | 122km/h | 7291m | -1.7m/s | -29.9°C | 7.8% | 399.3hPa | 2.6V | 07:39:00 | 00:00:00 | 00:00:00 | |
| KRY50SP-1 | 2026-09-05 06:34:24 | 52.26644 | 17.38643 | 86° | 135km/h | 7302m | -1.5m/s | -29.6°C | 6.0% | 398.7hPa | 2.6V | 07:39:00 | 00:00:00 | 00:00:00 | |
| SP6BVK | 2026-09-05 06:34:20 | 52.26638 | 17.38420 | 92° | 133km/h | 7309m | -1.4m/s | -29.7°C | 6.2% | 398.4hPa | 2.6V | 07:39:00 | 00:00:00 | 00:00:00 | |
| KRY50SP-1 | 2026-09-05 06:34:19 | 52.26639 | 17.38365 | 93° | 133km/h | 7311m | -1.5m/s | -29.7°C | 6.3% | 398.3hPa | 2.6V | 07:39:00 | 00:00:00 | 00:00:00 | |
| KRY50SP-1 | 2026-09-05 06:34:14 | 52.26645 | 17.38105 | 93° | 122km/h | 7319m | -1.0m/s | -29.7°C | 6.1% | 397.8hPa | 2.6V | 07:40:00 | 00:00:00 | 00:00:00 | |
| SP3WXH-11 | 2026-09-05 06:34:08 | 52.26637 | 17.37759 | 85° | 124km/h | 7329m | -1.3m/s | -29.8°C | 5.9% | 397.1hPa | 2.6V | 00:00:00 | 00:00:00 | 00:00:00 | |
| EDDB2-12 | 2026-09-05 06:34:03 | 52.26625 | 17.37487 | 88° | 135km/h | 7337m | -1.5m/s | -29.7°C | 5.9% | 396.6hPa | 2.6V | 00:00:00 | 00:00:00 | 00:00:00 | |
| SONDE2-11 | 2026-09-05 06:34:02 | 52.26625 | 17.37431 | 90° | 133km/h | 7339m | -1.8m/s | -29.7°C | 5.9% | 396.5hPa | 2.6V | 00:00:00 | 00:00:00 | 00:00:00 | |
| SP6BVK | 2026-09-05 06:34:00 | 52.26625 | 17.37376 | 92° | 133km/h | 7341m | -1.9m/s | -29.7°C | 6.0% | 396.4hPa | 2.6V | 07:40:00 | 00:00:00 | 00:00:00 | |
| KRY50SP-1 | 2026-09-05 06:33:58 | 52.26627 | 17.37268 | 93° | 130km/h | 7345m | -1.8m/s | -29.7°C | 6.0% | 396.3hPa | 2.6V | 07:40:00 | 00:00:00 | 00:00:00 | |
| SP3BTT-10 | 2026-09-05 06:33:53 | 52.26628 | 17.36969 | 86° | 126km/h | 7355m | -1.5m/s | -29.7°C | 7.1% | 395.6hPa | 2.6V | 00:00:00 | 00:00:00 | 00:00:00 | |
| KRY50SP-1 | 2026-09-05 06:33:52 | 52.26628 | 17.36969 | 86° | 120km/h | 7355m | -1.6m/s | -29.7°C | 6.0% | 395.7hPa | 2.6V | 07:40:00 | 00:00:00 | 00:00:00 | |
| KRY50SP-1 | 2026-09-05 06:33:46 | 52.26613 | 17.36655 | 88° | 135km/h | 7366m | -1.4m/s | -29.7°C | 6.0% | 395.1hPa | 2.6V | 07:40:00 | 00:00:00 | 00:00:00 | |
| KRY50SP-1 | 2026-09-05 06:33:41 | 52.26611 | 17.36375 | 93° | 135km/h | 7374m | -1.5m/s | -29.7°C | 6.0% | 394.6hPa | 2.6V | 07:40:00 | 00:00:00 | 00:00:00 | |
| SP6BVK | 2026-09-05 06:33:40 | 52.26612 | 17.36321 | 94° | 130km/h | 7376m | -1.9m/s | -29.7°C | 6.0% | 394.5hPa | 2.6V | 07:40:00 | 00:00:00 | 00:00:00 | |
| SP3WXH-11 | 2026-09-05 06:33:37 | 52.26616 | 17.36115 | 90° | 120km/h | 7384m | -1.1m/s | -29.8°C | 6.0% | 394.2hPa | 2.6V | 00:00:00 | 00:00:00 | 00:00:00 | |
| KRY50SP-1 | 2026-09-05 06:33:35 | 52.26616 | 17.36065 | 89° | 119km/h | 7385m | -1.5m/s | -29.8°C | 5.9% | 394.1hPa | 2.6V | 07:40:00 | 00:00:00 | 00:00:00 | |
| EDDB2-12 | 2026-09-05 06:33:32 | 52.26606 | 17.35864 | 84° | 128km/h | 7392m | -1.4m/s | -29.8°C | 5.9% | 393.7hPa | 2.6V | 00:00:00 | 00:00:00 | 00:00:00 | |
| SONDE2-11 | 2026-09-05 06:33:31 | 52.26603 | 17.35812 | 84° | 126km/h | 7393m | -1.8m/s | -29.8°C | 5.8% | 393.6hPa | 2.6V | 00:00:00 | 00:00:00 | 00:00:00 | |
| KRY50SP-1 | 2026-09-05 06:33:29 | 52.26600 | 17.35758 | 86° | 133km/h | 7395m | -2.0m/s | -29.8°C | 5.8% | 393.5hPa | 2.6V | 07:40:00 | 00:00:00 | 00:00:00 | |
| KRY50SP-1 | 2026-09-05 06:33:24 | 52.26593 | 17.35480 | 92° | 133km/h | 7405m | -1.2m/s | -29.9°C | 5.9% | 393.1hPa | 2.6V | 07:40:00 | 00:00:00 | 00:00:00 | |
| KRY50SP-1 | 2026-09-05 06:33:19 | 52.26597 | 17.35220 | 91° | 120km/h | 7413m | -1.8m/s | -29.9°C | 5.8% | 392.6hPa | 2.6V | 07:41:00 | 00:00:00 | 00:00:00 | |
| KRY50SP-1 | 2026-09-05 06:33:14 | 52.26591 | 17.34972 | 86° | 124km/h | 7422m | -0.9m/s | -29.9°C | 5.8% | 392.1hPa | 2.6V | 07:41:00 | 00:00:00 | 00:00:00 | |
| SP3BTT-10 | 2026-09-05 06:33:08 | 52.26575 | 17.34588 | 88° | 131km/h | 7433m | -1.7m/s | -29.9°C | 6.7% | 391.3hPa | 2.6V | 00:00:00 | 00:00:00 | 00:00:00 | |
| SP3WXH-11 | 2026-09-05 06:33:06 | 52.26575 | 17.34475 | 89° | 137km/h | 7437m | -1.7m/s | -29.9°C | 5.6% | 391.2hPa | 2.6V | 00:00:00 | 00:00:00 | 00:00:00 | |
| KRY50SP-1 | 2026-09-05 06:33:03 | 52.26576 | 17.34363 | 93° | 135km/h | 7440m | -1.8m/s | -30.0°C | 5.6% | 391.0hPa | 2.6V | 07:41:00 | 00:00:00 | 00:00:00 | |
| EDDB2-12 | 2026-09-05 06:33:01 | 52.26581 | 17.34203 | 92° | 126km/h | 7445m | -1.7m/s | -30.0°C | 5.6% | 390.7hPa | 2.6V | 00:00:00 | 00:00:00 | 00:00:00 | |
| SONDE2-11 | 2026-09-05 06:33:00 | 52.26582 | 17.34152 | 92° | 122km/h | 7447m | -1.6m/s | -30.0°C | 5.6% | 390.6hPa | 2.6V | 00:00:00 | 00:00:00 | 00:00:00 | |
| SP6BVK | 2026-09-05 06:32:59 | 52.26582 | 17.34151 | 94° | 124km/h | 7447m | -1.6m/s | -30.0°C | 5.6% | 390.6hPa | 2.6V | 07:41:00 | 00:00:00 | 00:00:00 | |
| KRY50SP-1 | 2026-09-05 06:32:57 | 52.26583 | 17.34052 | 90° | 120km/h | 7451m | -1.5m/s | -30.0°C | 5.6% | 390.4hPa | 2.6V | 07:41:00 | 00:00:00 | 00:00:00 | |
| KRY50SP-1 | 2026-09-05 06:32:51 | 52.26569 | 17.33740 | 87° | 133km/h | 7460m | -1.4m/s | -30.0°C | 5.6% | 389.9hPa | 2.6V | 07:41:00 | 00:00:00 | 00:00:00 | |
| KRY50SP-1 | 2026-09-05 06:32:45 | 52.26564 | 17.33405 | 93° | 130km/h | 7471m | -1.7m/s | -30.0°C | 5.5% | 389.3hPa | 2.6V | 07:41:00 | 00:00:00 | 00:00:00 | |
| KRY50SP-1 | 2026-09-05 06:32:40 | 52.26568 | 17.33148 | 89° | 120km/h | 7480m | -2.0m/s | -30.0°C | 5.3% | 388.8hPa | 2.6V | 07:41:00 | 00:00:00 | 00:00:00 | |
| SP6BVK | 2026-09-05 06:32:39 | 52.26567 | 17.33099 | 89° | 119km/h | 7483m | -1.9m/s | -30.0°C | 5.3% | 388.7hPa | 2.6V | 07:41:00 | 00:00:00 | 00:00:00 | |
| EDDB2-11 | 2026-09-05 06:32:36 | 52.26559 | 17.32900 | 83° | 124km/h | 7490m | -1.8m/s | -30.0°C | 5.3% | 388.3hPa | 2.6V | 00:00:00 | 00:00:00 | 00:00:00 | |
| SP3WXH-11 | 2026-09-05 06:32:35 | 52.26556 | 17.32849 | 85° | 126km/h | 7491m | -1.6m/s | -30.0°C | 5.3% | 388.2hPa | 2.6V | 00:00:00 | 00:00:00 | 00:00:00 | |
| EDDB2-12 | 2026-09-05 06:32:30 | 52.26546 | 17.32576 | 90° | 135km/h | 7501m | -1.8m/s | -30.0°C | 5.3% | 387.8hPa | 2.6V | 00:00:00 | 00:00:00 | 00:00:00 | |
| SONDE2-11 | 2026-09-05 06:32:29 | 52.26547 | 17.32521 | 91° | 130km/h | 7502m | -1.1m/s | -30.0°C | 5.2% | 387.7hPa | 2.6V | 00:00:00 | 00:00:00 | 00:00:00 | |
| KRY50SP-1 | 2026-09-05 06:32:24 | 52.26552 | 17.32311 | 94° | 122km/h | 7509m | -1.7m/s | -29.9°C | 5.0% | 387.3hPa | 2.6V | 07:42:00 | 00:00:00 | 00:00:00 | |
| SP3BTT-10 | 2026-09-05 06:32:23 | 52.26555 | 17.32212 | 91° | 122km/h | 7512m | -1.9m/s | -29.8°C | 6.0% | 386.9hPa | 2.6V | 00:00:00 | 00:00:00 | 00:00:00 | |
| KRY50SP-1 | 2026-09-05 06:32:19 | 52.26552 | 17.32068 | 88° | 119km/h | 7519m | -2.4m/s | -29.8°C | 5.0% | 386.7hPa | 2.6V | 07:42:00 | 00:00:00 | 00:00:00 | |
| SP6BVK | 2026-09-05 06:32:18 | 52.26550 | 17.32019 | 87° | 122km/h | 7521m | -1.5m/s | -29.8°C | 5.1% | 386.6hPa | 2.6V | 07:42:00 | 00:00:00 | 00:00:00 | |
| KRY50SP-1 | 2026-09-05 06:32:13 | 52.26541 | 17.31753 | 90° | 133km/h | 7530m | -1.4m/s | -29.8°C | 5.2% | 386.2hPa | 2.6V | 07:42:00 | 00:00:00 | 00:00:00 | |
| KRY50SP-1 | 2026-09-05 06:32:07 | 52.26548 | 17.31429 | 94° | 122km/h | 7540m | -1.8m/s | -29.9°C | 5.4% | 385.5hPa | 2.6V | 07:42:00 | 00:00:00 | 00:00:00 | |
| EDDB2-11 | 2026-09-05 06:32:05 | 52.26551 | 17.31281 | 89° | 115km/h | 7545m | -1.9m/s | -29.9°C | 5.6% | 385.2hPa | 2.6V | 00:00:00 | 00:00:00 | 00:00:00 | |
| SP3WXH-11 | 2026-09-05 06:32:04 | 52.26551 | 17.31233 | 89° | 117km/h | 7547m | -1.6m/s | -29.9°C | 5.6% | 385.1hPa | 2.6V | 00:00:00 | 00:00:00 | 00:00:00 | |
| EDDB2-12 | 2026-09-05 06:31:59 | 52.26543 | 17.30980 | 87° | 128km/h | 7557m | -1.7m/s | -30.0°C | 5.9% | 384.6hPa | 2.6V | 00:00:00 | 00:00:00 | 00:00:00 | |
| SONDE2-11 | 2026-09-05 06:31:58 | 52.26541 | 17.30926 | 86° | 131km/h | 7559m | -2.3m/s | -30.0°C | 5.9% | 384.5hPa | 2.6V | 00:00:00 | 00:00:00 | 00:00:00 | |
| KRY50SP-1 | 2026-09-05 06:31:55 | 52.26540 | 17.30816 | 92° | 135km/h | 7562m | -1.6m/s | -30.1°C | 6.0% | 384.3hPa | 2.6V | 07:42:00 | 00:00:00 | 00:00:00 | |
| KRY50SP-1 | 2026-09-05 06:31:50 | 52.26547 | 17.30547 | 96° | 124km/h | 7572m | -1.9m/s | -30.1°C | 6.2% | 383.8hPa | 2.6V | 07:42:00 | 00:00:00 | 00:00:00 | |
| KRY50SP-1 | 2026-09-05 06:31:45 | 52.26558 | 17.30300 | 92° | 119km/h | 7583m | -1.5m/s | -30.2°C | 6.4% | 383.1hPa | 2.6V | 07:42:00 | 00:00:00 | 00:00:00 | |
| KRY50SP-1 | 2026-09-05 06:31:40 | 52.26554 | 17.30048 | 89° | 128km/h | 7592m | -1.9m/s | -30.3°C | 6.6% | 382.7hPa | 2.6V | 07:43:00 | 00:00:00 | 00:00:00 | |
| SP3BTT-10 | 2026-09-05 06:31:38 | 52.26553 | 17.29883 | 90° | 135km/h | 7596m | -2.4m/s | -30.3°C | 8.0% | 382.3hPa | 2.6V | 07:42:00 | 00:00:00 | 00:00:00 | |
| SP6BVK | 2026-09-05 06:31:37 | 52.26553 | 17.29883 | 91° | 135km/h | 7596m | -2.4m/s | -30.4°C | 6.8% | 382.3hPa | 2.6V | 07:43:00 | 00:00:00 | 00:00:00 | |
| KRY50SP-1 | 2026-09-05 06:31:34 | 52.26554 | 17.29716 | 93° | 133km/h | 7602m | -2.4m/s | -30.4°C | 6.8% | 382.0hPa | 2.6V | 07:43:00 | 00:00:00 | 00:00:00 | |
| SP3WXH-11 | 2026-09-05 06:31:33 | 52.26559 | 17.29607 | 94° | 130km/h | 7607m | -2.2m/s | -30.4°C | 6.9% | 381.8hPa | 2.6V | 00:00:00 | 00:00:00 | 00:00:00 | |
| KRY50SP-1 | 2026-09-05 06:31:29 | 52.26567 | 17.29450 | 97° | 122km/h | 7612m | -2.0m/s | -30.5°C | 7.2% | 381.5hPa | 2.6V | 07:43:00 | 00:00:00 | 00:00:00 | |
| EDDB2-12 | 2026-09-05 06:31:28 | 52.26572 | 17.29350 | 92° | 119km/h | 7616m | -2.1m/s | -30.5°C | 7.4% | 381.3hPa | 2.6V | 00:00:00 | 00:00:00 | 00:00:00 | |
| SONDE2-11 | 2026-09-05 06:31:27 | 52.26574 | 17.29300 | 92° | 120km/h | 7618m | -1.6m/s | -30.5°C | 7.5% | 381.2hPa | 2.6V | 00:00:00 | 00:00:00 | 00:00:00 | |
| KRY50SP-1 | 2026-09-05 06:31:23 | 52.26573 | 17.29147 | 89° | 128km/h | 7622m | -2.3m/s | -30.6°C | 7.7% | 380.9hPa | 2.6V | 07:43:00 | 00:00:00 | 00:00:00 | |
| KRY50SP-1 | 2026-09-05 06:31:17 | 52.26568 | 17.28817 | 92° | 141km/h | 7634m | -1.8m/s | -30.7°C | 8.1% | 380.2hPa | 2.6V | 07:43:00 | 00:00:00 | 00:00:00 | |
| SP6BVK | 2026-09-05 06:31:16 | 52.26569 | 17.28759 | 94° | 137km/h | 7635m | -1.5m/s | -30.7°C | 8.2% | 380.1hPa | 2.6V | 07:43:00 | 00:00:00 | 00:00:00 | |
| KRY50SP-1 | 2026-09-05 06:31:12 | 52.26579 | 17.28537 | 96° | 130km/h | 7641m | -2.1m/s | -30.7°C | 8.7% | 379.7hPa | 2.6V | 07:43:00 | 00:00:00 | 00:00:00 | |
| KRY50SP-1 | 2026-09-05 06:31:07 | 52.26585 | 17.28281 | 90° | 122km/h | 7650m | -2.0m/s | -30.8°C | 9.5% | 379.2hPa | 2.6V | 07:43:00 | 00:00:00 | 00:00:00 | |
| SP3WXH-11 | 2026-09-05 06:31:02 | 52.26574 | 17.27965 | 86° | 135km/h | 7661m | -2.4m/s | -30.9°C | 9.8% | 378.6hPa | 2.6V | 00:00:00 | 00:00:00 | 00:00:00 | |
| EDDB2-12 | 2026-09-05 06:30:57 | 52.26573 | 17.27677 | 92° | 139km/h | 7672m | -2.0m/s | -30.9°C | 10.5% | 378.0hPa | 2.6V | 00:00:00 | 00:00:00 | 00:00:00 | |
| SONDE2-11 | 2026-09-05 06:30:56 | 52.26574 | 17.27620 | 93° | 135km/h | 7673m | -2.1m/s | -30.9°C | 10.7% | 377.9hPa | 2.6V | 00:00:00 | 00:00:00 | 00:00:00 | |
| SP3BTT-10 | 2026-09-05 06:30:53 | 52.26580 | 17.27457 | 93° | 128km/h | 7679m | -1.9m/s | -30.8°C | 12.7% | 377.5hPa | 2.6V | 00:00:00 | 00:00:00 | 00:00:00 | |
| KRY50SP-1 | 2026-09-05 06:30:50 | 52.26582 | 17.27354 | 92° | 124km/h | 7683m | -2.4m/s | -30.9°C | 11.1% | 377.3hPa | 2.6V | 07:43:00 | 00:00:00 | 00:00:00 | |
| KRY50SP-1 | 2026-09-05 06:30:44 | 52.26571 | 17.27038 | 86° | 133km/h | 7695m | -2.2m/s | -30.9°C | 11.2% | 376.6hPa | 2.6V | 07:43:00 | 00:00:00 | 00:00:00 | |
| KRY50SP-1 | 2026-09-05 06:30:38 | 52.26562 | 17.26692 | 92° | 142km/h | 7709m | -2.5m/s | -30.9°C | 11.6% | 376.0hPa | 2.6V | 07:43:00 | 00:00:00 | 00:00:00 | |
| SP6BVK | 2026-09-05 06:30:35 | 52.26567 | 17.26520 | 95° | 135km/h | 7716m | -2.4m/s | -30.9°C | 11.6% | 375.6hPa | 2.6V | 07:43:00 | 00:00:00 | 00:00:00 | |
| EDDB2-11 | 2026-09-05 06:30:32 | 52.26571 | 17.26309 | 90° | 122km/h | 7724m | -2.2m/s | -30.9°C | 11.7% | 375.2hPa | 2.6V | 00:00:00 | 00:00:00 | 00:00:00 | |
| SP3WXH-11 | 2026-09-05 06:30:31 | 52.26571 | 17.26258 | 89° | 122km/h | 7726m | -2.7m/s | -30.9°C | 11.8% | 375.0hPa | 2.6V | 00:00:00 | 00:00:00 | 00:00:00 | |
| KRY50SP-1 | 2026-09-05 06:30:27 | 52.26567 | 17.26102 | 87° | 130km/h | 7733m | -2.8m/s | -30.9°C | 12.2% | 374.7hPa | 2.6V | 07:43:00 | 00:00:00 | 00:00:00 | |
| EDDB2-12 | 2026-09-05 06:30:26 | 52.26561 | 17.25993 | 85° | 135km/h | 7738m | -2.8m/s | -31.0°C | 12.6% | 374.5hPa | 2.6V | 00:00:00 | 00:00:00 | 00:00:00 | |
| SONDE2-11 | 2026-09-05 06:30:25 | 52.26559 | 17.25936 | 86° | 139km/h | 7741m | -2.6m/s | -31.0°C | 12.8% | 374.4hPa | 2.6V | 00:00:00 | 00:00:00 | 00:00:00 | |
| KRY50SP-1 | 2026-09-05 06:30:22 | 52.26555 | 17.25820 | 90° | 142km/h | 7746m | -2.2m/s | -31.0°C | 13.2% | 374.1hPa | 2.6V | 07:43:00 | 00:00:00 | 00:00:00 | |
| KRY50SP-1 | 2026-09-05 06:30:16 | 52.26560 | 17.25475 | 95° | 131km/h | 7758m | -2.2m/s | -31.1°C | 15.0% | 373.4hPa | 2.6V | 07:43:00 | 00:00:00 | 00:00:00 | |
| SP6BVK | 2026-09-05 06:30:15 | 52.26562 | 17.25421 | 94° | 128km/h | 7760m | -2.2m/s | -31.1°C | 15.4% | 373.3hPa | 2.6V | 07:43:00 | 00:00:00 | 00:00:00 | |
| KRY50SP-1 | 2026-09-05 06:30:11 | 52.26563 | 17.25216 | 89° | 124km/h | 7768m | -2.6m/s | -31.2°C | 15.7% | 372.9hPa | 2.6V | 07:43:00 | 00:00:00 | 00:00:00 | |
| SP3BTT-10 | 2026-09-05 06:30:07 | 52.26552 | 17.24948 | 87° | 139km/h | 7779m | -2.5m/s | -31.3°C | 17.4% | 372.3hPa | 2.6V | 00:00:00 | 00:00:00 | 00:00:00 | |
| KRY50SP-1 | 2026-09-05 06:30:05 | 52.26550 | 17.24891 | 88° | 141km/h | 7781m | -2.3m/s | -31.3°C | 15.3% | 372.1hPa | 2.6V | 07:43:00 | 00:00:00 | 00:00:00 | |
| EDDB2-11 | 2026-09-05 06:30:01 | 52.26550 | 17.24599 | 92° | 139km/h | 7792m | -2.1m/s | -31.5°C | 15.7% | 371.6hPa | 2.6V | 00:00:00 | 00:00:00 | 00:00:00 | |
| SP3WXH-11 | 2026-09-05 06:30:00 | 52.26552 | 17.24543 | 93° | 133km/h | 7794m | -2.5m/s | -31.5°C | 15.7% | 371.5hPa | 2.6V | 00:00:00 | 00:00:00 | 00:00:00 | |
| EDDB2-12 | 2026-09-05 06:29:55 | 52.26560 | 17.24228 | 88° | 120km/h | 7808m | -2.8m/s | -31.6°C | 16.4% | 370.7hPa | 2.6V | 00:00:00 | 00:00:00 | 00:00:00 | |
| SONDE2-11 | 2026-09-05 06:29:54 | 52.26560 | 17.24228 | 88° | 120km/h | 7808m | -2.8m/s | -31.6°C | 16.4% | 370.7hPa | 2.6V | 00:00:00 | 00:00:00 | 00:00:00 | |
| KRY50SP-1 | 2026-09-05 06:29:53 | 52.26560 | 17.24228 | 90° | 122km/h | 7808m | -2.8m/s | -31.6°C | 16.4% | 370.7hPa | 2.6V | 07:44:00 | 00:00:00 | 00:00:00 | |
| KRY50SP-1 | 2026-09-05 06:29:47 | 52.26545 | 17.23910 | 88° | 139km/h | 7822m | -2.5m/s | -31.7°C | 16.9% | 370.1hPa | 2.6V | 07:44:00 | 00:00:00 | 00:00:00 | |
| KRY50SP-1 | 2026-09-05 06:29:41 | 52.26542 | 17.23557 | 93° | 141km/h | 7836m | -2.5m/s | -31.9°C | 17.3% | 369.4hPa | 2.6V | 07:44:00 | 00:00:00 | 00:00:00 | |
| KRY50SP-1 | 2026-09-05 06:29:36 | 52.26548 | 17.23284 | 91° | 124km/h | 7847m | -2.8m/s | -31.9°C | 16.6% | 368.7hPa | 2.6V | 07:44:00 | 00:00:00 | 00:00:00 | |
| SP6BVK | 2026-09-05 06:29:34 | 52.26547 | 17.23182 | 88° | 122km/h | 7852m | -2.6m/s | -32.0°C | 16.4% | 368.5hPa | 2.6V | 07:44:00 | 00:00:00 | 00:00:00 | |
| EDDB2-11 | 2026-09-05 06:29:30 | 52.26530 | 17.22858 | 84° | 139km/h | 7867m | -2.7m/s | -32.1°C | 15.8% | 367.8hPa | 2.6V | 00:00:00 | 00:00:00 | 00:00:00 | |
| SP3WXH-11 | 2026-09-05 06:29:29 | 52.26530 | 17.22858 | 84° | 139km/h | 7867m | -2.7m/s | -32.1°C | 15.8% | 367.8hPa | 2.6V | 00:00:00 | 00:00:00 | 00:00:00 | |
| EDDB2-12 | 2026-09-05 06:29:24 | 52.26523 | 17.22565 | 90° | 141km/h | 7878m | -2.3m/s | -32.2°C | 16.5% | 367.2hPa | 2.6V | 00:00:00 | 00:00:00 | 00:00:00 | |
| SONDE2-11 | 2026-09-05 06:29:23 | 52.26523 | 17.22507 | 90° | 139km/h | 7879m | -2.2m/s | -32.2°C | 16.6% | 367.0hPa | 2.6V | 00:00:00 | 00:00:00 | 00:00:00 | |
| SP3BTT-10 | 2026-09-05 06:29:22 | 52.26524 | 17.22449 | 93° | 135km/h | 7882m | -2.9m/s | -32.2°C | 19.0% | 366.9hPa | 2.6V | 00:00:00 | 00:00:00 | 00:00:00 | |
| KRY50SP-1 | 2026-09-05 06:29:19 | 52.26526 | 17.22340 | 92° | 128km/h | 7887m | -2.5m/s | -32.3°C | 17.0% | 366.7hPa | 2.5V | 07:44:00 | 00:00:00 | 00:00:00 | |
| KRY50SP-1 | 2026-09-05 06:29:15 | 52.26520 | 17.22081 | 87° | 128km/h | 7900m | -3.0m/s | -32.4°C | 17.1% | 366.1hPa | 2.5V | 07:44:00 | 00:00:00 | 00:00:00 | |
| SP6BVK | 2026-09-05 06:29:14 | 52.26520 | 17.22081 | 87° | 128km/h | 7900m | -3.0m/s | -32.4°C | 17.1% | 366.1hPa | 2.5V | 07:44:00 | 00:00:00 | 00:00:00 | |
| KRY50SP-1 | 2026-09-05 06:29:03 | 52.26488 | 17.21447 | 92° | 142km/h | 7925m | -2.1m/s | -32.6°C | 16.6% | 364.6hPa | 2.5V | 07:45:00 | 00:00:00 | 00:00:00 | |
| EDDB2-11 | 2026-09-05 06:28:59 | 52.26490 | 17.21116 | 86° | 126km/h | 7939m | -2.9m/s | -32.7°C | 17.2% | 363.9hPa | 2.5V | 00:00:00 | 00:00:00 | 00:00:00 | |
| SP3WXH-11 | 2026-09-05 06:28:58 | 52.26490 | 17.21116 | 86° | 126km/h | 7939m | -2.9m/s | -32.7°C | 17.2% | 363.9hPa | 2.5V | 00:00:00 | 00:00:00 | 00:00:00 | |
| EDDB2-12 | 2026-09-05 06:28:53 | 52.26468 | 17.20791 | 82° | 139km/h | 7954m | -3.1m/s | -32.9°C | 16.8% | 363.1hPa | 2.5V | 00:00:00 | 00:00:00 | 00:00:00 | |
| SONDE2-11 | 2026-09-05 06:28:52 | 52.26468 | 17.20791 | 82° | 139km/h | 7954m | -3.1m/s | -32.9°C | 16.8% | 363.1hPa | 2.5V | 00:00:00 | 00:00:00 | 00:00:00 | |
| KRY50SP-1 | 2026-09-05 06:28:47 | 52.26454 | 17.20555 | 89° | 146km/h | 7966m | -2.7m/s | -32.9°C | 16.7% | 362.6hPa | 2.5V | 07:45:00 | 00:00:00 | 00:00:00 | |
| KRY50SP-1 | 2026-09-05 06:28:42 | 52.26453 | 17.20265 | 91° | 131km/h | 7978m | -2.6m/s | -33.0°C | 16.7% | 362.0hPa | 2.5V | 07:45:00 | 00:00:00 | 00:00:00 | |
| SP3BTT-10 | 2026-09-05 06:28:38 | 52.26446 | 17.19999 | 85° | 137km/h | 7990m | -2.4m/s | -33.1°C | 18.8% | 361.3hPa | 2.5V | 00:00:00 | 00:00:00 | 00:00:00 | |
| KRY50SP-1 | 2026-09-05 06:28:37 | 52.26446 | 17.19999 | 86° | 130km/h | 7990m | -2.4m/s | -33.1°C | 16.5% | 361.4hPa | 2.5V | 07:45:00 | 00:00:00 | 00:00:00 | |
| SP6BVK | 2026-09-05 06:28:33 | 52.26428 | 17.19780 | 83° | 141km/h | 8000m | -2.6m/s | -33.2°C | 16.5% | 360.9hPa | 2.5V | 07:45:00 | 00:00:00 | 00:00:00 | |
| KRY50SP-1 | 2026-09-05 06:28:31 | 52.26419 | 17.19663 | 85° | 144km/h | 8005m | -3.2m/s | -33.2°C | 16.6% | 360.6hPa | 2.5V | 07:45:00 | 00:00:00 | 00:00:00 | |
| EDDB2-11 | 2026-09-05 06:28:28 | 52.26410 | 17.19364 | 89° | 141km/h | 8018m | -2.4m/s | -33.3°C | 16.8% | 359.9hPa | 2.5V | 00:00:00 | 00:00:00 | 00:00:00 | |
| SP3WXH-11 | 2026-09-05 06:28:27 | 52.26410 | 17.19364 | 89° | 141km/h | 8018m | -2.4m/s | -33.3°C | 16.8% | 359.9hPa | 2.5V | 00:00:00 | 00:00:00 | 00:00:00 | |
| KRY50SP-1 | 2026-09-05 06:28:25 | 52.26410 | 17.19306 | 92° | 139km/h | 8020m | -3.0m/s | -33.4°C | 16.7% | 359.7hPa | 2.5V | 07:45:00 | 00:00:00 | 00:00:00 | |
| EDDB2-12 | 2026-09-05 06:28:22 | 52.26405 | 17.19037 | 85° | 126km/h | 8031m | -2.6m/s | -33.5°C | 16.9% | 359.2hPa | 2.5V | 00:00:00 | 00:00:00 | 00:00:00 | |
| SONDE2-11 | 2026-09-05 06:28:21 | 52.26405 | 17.19037 | 85° | 126km/h | 8031m | -2.6m/s | -33.5°C | 16.9% | 359.2hPa | 2.5V | 00:00:00 | 00:00:00 | 00:00:00 | |
| KRY50SP-1 | 2026-09-05 06:28:19 | 52.26402 | 17.18984 | 86° | 130km/h | 8034m | -3.2m/s | -33.5°C | 16.9% | 359.0hPa | 2.5V | 07:45:00 | 00:00:00 | 00:00:00 | |
| SP6BVK | 2026-09-05 06:28:13 | 52.26378 | 17.18647 | 86° | 146km/h | 8050m | -2.7m/s | -33.6°C | 17.1% | 358.2hPa | 2.5V | 07:46:00 | 00:00:00 | 00:00:00 | |
| KRY50SP-1 | 2026-09-05 06:28:08 | 52.26368 | 17.18346 | 90° | 142km/h | 8063m | -2.8m/s | -33.7°C | 17.2% | 357.5hPa | 2.5V | 07:46:00 | 00:00:00 | 00:00:00 | |
| KRY50SP-1 | 2026-09-05 06:28:03 | 52.26366 | 17.18068 | 89° | 130km/h | 8077m | -2.6m/s | -33.8°C | 17.2% | 356.9hPa | 2.5V | 07:46:00 | 00:00:00 | 00:00:00 | |
| EDDB2-11 | 2026-09-05 06:27:57 | 52.26333 | 17.17628 | 83° | 142km/h | 8096m | -2.9m/s | -34.0°C | 15.5% | 355.8hPa | 2.5V | 00:00:00 | 00:00:00 | 00:00:00 | |
| SP3WXH-11 | 2026-09-05 06:27:56 | 52.26333 | 17.17628 | 83° | 142km/h | 8096m | -2.9m/s | -34.0°C | 15.5% | 355.8hPa | 2.5V | 00:00:00 | 00:00:00 | 00:00:00 | |
| EDDB2-12 | 2026-09-05 06:27:51 | 52.26322 | 17.17267 | 89° | 141km/h | 8113m | -2.5m/s | -34.1°C | 14.8% | 355.0hPa | 2.5V | 00:00:00 | 00:00:00 | 00:00:00 | |
| SONDE2-11 | 2026-09-05 06:27:50 | 52.26322 | 17.17267 | 89° | 141km/h | 8113m | -2.5m/s | -34.1°C | 14.8% | 355.0hPa | 2.5V | 00:00:00 | 00:00:00 | 00:00:00 | |
| KRY50SP-1 | 2026-09-05 06:27:47 | 52.26321 | 17.17153 | 91° | 133km/h | 8117m | -2.7m/s | -34.1°C | 14.7% | 354.8hPa | 2.5V | 07:46:00 | 00:00:00 | 00:00:00 | |
| KRY50SP-1 | 2026-09-05 06:27:42 | 52.26311 | 17.16889 | 84° | 128km/h | 8131m | -3.4m/s | -34.2°C | 14.1% | 354.1hPa | 2.5V | 07:46:00 | 00:00:00 | 00:00:00 | |
| KRY50SP-1 | 2026-09-05 06:27:37 | 52.26288 | 17.16608 | 84° | 146km/h | 8144m | -2.7m/s | -34.4°C | 14.0% | 353.4hPa | 2.5V | 07:46:00 | 00:00:00 | 00:00:00 | |
| SP6BVK | 2026-09-05 06:27:32 | 52.26276 | 17.16307 | 91° | 144km/h | 8158m | -3.3m/s | -34.5°C | 13.5% | 352.7hPa | 2.5V | 07:46:00 | 00:00:00 | 00:00:00 | |
| KRY50SP-1 | 2026-09-05 06:27:31 | 52.26275 | 17.16249 | 90° | 142km/h | 8161m | -2.8m/s | -34.5°C | 13.3% | 352.6hPa | 2.5V | 07:46:00 | 00:00:00 | 00:00:00 | |
| EDDB2-11 | 2026-09-05 06:27:26 | 52.26266 | 17.15871 | 83° | 128km/h | 8179m | -2.9m/s | -34.6°C | 11.9% | 351.6hPa | 2.5V | 00:00:00 | 00:00:00 | 00:00:00 | |
| SP3WXH-11 | 2026-09-05 06:27:25 | 52.26266 | 17.15871 | 83° | 128km/h | 8179m | -2.9m/s | -34.6°C | 11.9% | 351.6hPa | 2.5V | 00:00:00 | 00:00:00 | 00:00:00 | |
| EDDB2-12 | 2026-09-05 06:27:20 | 52.26236 | 17.15534 | 82° | 146km/h | 8194m | -3.1m/s | -34.7°C | 0% | 350.8hPa | 2.5V | 00:00:00 | 00:00:00 | 00:00:00 | |
| SONDE2-11 | 2026-09-05 06:27:19 | 52.26231 | 17.15474 | 84° | 146km/h | 8197m | -3.2m/s | -34.7°C | 11.0% | 350.7hPa | 2.5V | 00:00:00 | 00:00:00 | 00:00:00 | |
| KRY50SP-1 | 2026-09-05 06:27:14 | 52.26223 | 17.15290 | 89° | 148km/h | 8205m | -3.3m/s | -34.7°C | 10.7% | 350.3hPa | 2.5V | 07:47:00 | 00:00:00 | 00:00:00 | |
| SP6BVK | 2026-09-05 06:27:12 | 52.26222 | 17.15171 | 92° | 142km/h | 8211m | -2.7m/s | -34.8°C | 10.7% | 350.0hPa | 2.5V | 07:47:00 | 00:00:00 | 00:00:00 | |
| KRY50SP-1 | 2026-09-05 06:27:08 | 52.26220 | 17.14949 | 88° | 128km/h | 8220m | -2.8m/s | -34.8°C | 10.7% | 349.5hPa | 2.5V | 07:47:00 | 00:00:00 | 00:00:00 | |
| SP3BTT-10 | 2026-09-05 06:27:07 | 52.26214 | 17.14843 | 84° | 139km/h | 8225m | -3.2m/s | -34.8°C | 12.4% | 349.2hPa | 2.5V | 00:00:00 | 00:00:00 | 00:00:00 | |
| KRY50SP-1 | 2026-09-05 06:27:03 | 52.26200 | 17.14680 | 83° | 141km/h | 8233m | -3.7m/s | -34.9°C | 10.4% | 348.8hPa | 2.5V | 07:47:00 | 00:00:00 | 00:00:00 | |
| EDDB2-11 | 2026-09-05 06:26:55 | 52.26171 | 17.14082 | 90° | 137km/h | 8261m | -3.4m/s | -35.1°C | 10.4% | 347.5hPa | 2.5V | 00:00:00 | 00:00:00 | 00:00:00 | |
| SP3WXH-11 | 2026-09-05 06:26:54 | 52.26171 | 17.14082 | 90° | 137km/h | 8261m | -3.4m/s | -35.1°C | 10.4% | 347.5hPa | 2.5V | 00:00:00 | 00:00:00 | 00:00:00 | |
| EDDB2-12 | 2026-09-05 06:26:49 | 52.26158 | 17.13755 | 82° | 133km/h | 8277m | -3.1m/s | -35.2°C | 10.3% | 346.7hPa | 2.5V | 00:00:00 | 00:00:00 | 00:00:00 | |
| SONDE2-11 | 2026-09-05 06:26:48 | 52.26153 | 17.13701 | 81° | 133km/h | 8279m | -3.5m/s | -35.2°C | 10.2% | 346.6hPa | 2.5V | 00:00:00 | 00:00:00 | 00:00:00 | |
| KRY50SP-1 | 2026-09-05 06:26:47 | 52.26158 | 17.13755 | 84° | 133km/h | 8277m | -3.1m/s | -35.2°C | 10.3% | 346.7hPa | 2.5V | 07:47:00 | 00:00:00 | 00:00:00 | |
| KRY50SP-1 | 2026-09-05 06:26:41 | 52.26126 | 17.13408 | 84° | 151km/h | 8293m | -2.8m/s | -35.3°C | 10.1% | 345.9hPa | 2.5V | 07:47:00 | 00:00:00 | 00:00:00 | |
| KRY50SP-1 | 2026-09-05 06:26:35 | 52.26114 | 17.13042 | 89° | 142km/h | 8309m | -2.4m/s | -35.5°C | 10.4% | 345.1hPa | 2.5V | 07:48:00 | 00:00:00 | 00:00:00 | |
| SP6BVK | 2026-09-05 06:26:30 | 52.26103 | 17.12767 | 85° | 131km/h | 8321m | -2.6m/s | -35.6°C | 10.5% | 344.5hPa | 2.5V | 07:48:00 | 00:00:00 | 00:00:00 | |
| KRY50SP-1 | 2026-09-05 06:26:29 | 52.26099 | 17.12713 | 82° | 133km/h | 8323m | -3.3m/s | -35.6°C | 10.5% | 344.4hPa | 2.5V | 07:48:00 | 00:00:00 | 00:00:00 | |
| EDDB2-11 | 2026-09-05 06:26:24 | 52.26059 | 17.12302 | 83° | 150km/h | 8342m | -3.5m/s | -35.8°C | 10.3% | 343.5hPa | 2.5V | 00:00:00 | 00:00:00 | 00:00:00 | |
| SP3WXH-11 | 2026-09-05 06:26:23 | 52.26059 | 17.12302 | 83° | 150km/h | 8342m | -3.5m/s | -35.8°C | 10.3% | 343.5hPa | 2.5V | 00:00:00 | 00:00:00 | 00:00:00 | |
| SP3BTT-10 | 2026-09-05 06:26:22 | 52.26055 | 17.12240 | 86° | 146km/h | 8345m | -2.7m/s | -35.8°C | 12.3% | 343.2hPa | 2.5V | 00:00:00 | 00:00:00 | 00:00:00 | |
| KRY50SP-1 | 2026-09-05 06:26:19 | 52.26051 | 17.12115 | 89° | 150km/h | 8351m | -3.3m/s | -35.8°C | 10.4% | 343.0hPa | 2.5V | 07:48:00 | 00:00:00 | 00:00:00 | |
| EDDB2-12 | 2026-09-05 06:26:18 | 52.26047 | 17.11937 | 88° | 137km/h | 8359m | -2.6m/s | -35.9°C | 10.6% | 342.7hPa | 2.5V | 00:00:00 | 00:00:00 | 00:00:00 | |
| SONDE2-11 | 2026-09-05 06:26:17 | 52.26046 | 17.11881 | 87° | 133km/h | 8361m | -2.7m/s | -35.9°C | 10.5% | 342.6hPa | 2.5V | 00:00:00 | 00:00:00 | 00:00:00 | |
| OE3JTB-15 | 2026-09-05 06:26:15 | 52.26044 | 17.11826 | 87° | 141km/h | 8363m | -2.4m/s | -35.9°C | 12.4% | 342.3hPa | 2.5V | 00:00:00 | 00:00:00 | 00:00:00 | |
| SP6BVK | 2026-09-05 06:26:10 | 52.26028 | 17.11607 | 83° | 139km/h | 8373m | -3.3m/s | -36.0°C | 10.4% | 341.9hPa | 2.6V | 07:48:00 | 00:00:00 | 00:00:00 | |
| KRY50SP-1 | 2026-09-05 06:26:08 | 52.26016 | 17.11493 | 83° | 142km/h | 8378m | -3.1m/s | -36.1°C | 10.2% | 341.6hPa | 2.6V | 07:48:00 | 00:00:00 | 00:00:00 | |
| KRY50SP-1 | 2026-09-05 06:26:03 | 52.25993 | 17.11187 | 87° | 151km/h | 8393m | -3.1m/s | -36.2°C | 10.2% | 341.0hPa | 2.6V | 07:48:00 | 00:00:00 | 00:00:00 | |
| EDDB2-11 | 2026-09-05 06:25:53 | 52.25959 | 17.10500 | 79° | 137km/h | 8423m | -3.0m/s | -36.4°C | 9.8% | 339.4hPa | 2.6V | 00:00:00 | 00:00:00 | 00:00:00 | |
| SP3WXH-11 | 2026-09-05 06:25:52 | 52.25959 | 17.10500 | 79° | 137km/h | 8423m | -3.0m/s | -36.4°C | 9.8% | 339.4hPa | 2.6V | 00:00:00 | 00:00:00 | 00:00:00 | |
| SONDE2-11 | 2026-09-05 06:25:46 | 52.25924 | 17.10074 | 86° | 150km/h | 8441m | -3.0m/s | -36.5°C | 9.3% | 338.6hPa | 2.6V | 00:00:00 | 00:00:00 | 00:00:00 | |
| KRY50SP-1 | 2026-09-05 06:25:41 | 52.25920 | 17.09891 | 91° | 144km/h | 8450m | -3.1m/s | -36.6°C | 9.2% | 338.2hPa | 2.6V | 07:48:00 | 00:00:00 | 00:00:00 | |
| SP3BTT-10 | 2026-09-05 06:25:37 | 52.25911 | 17.09612 | 84° | 139km/h | 8462m | -2.6m/s | -36.6°C | 10.9% | 337.5hPa | 2.6V | 07:48:00 | 00:00:00 | 00:00:00 | |
| KRY50SP-1 | 2026-09-05 06:25:36 | 52.25910 | 17.09612 | 85° | 133km/h | 8462m | -2.7m/s | -36.6°C | 9.0% | 337.5hPa | 2.6V | 07:48:00 | 00:00:00 | 00:00:00 | |
| KRY50SP-1 | 2026-09-05 06:25:30 | 52.25879 | 17.09269 | 84° | 148km/h | 8479m | -2.4m/s | -36.7°C | 8.9% | 336.9hPa | 2.6V | 07:48:00 | 00:00:00 | 00:00:00 | |
| SP6BVK | 2026-09-05 06:25:29 | 52.25873 | 17.09208 | 84° | 153km/h | 8481m | -2.8m/s | -36.7°C | 9.0% | 336.7hPa | 2.6V | 07:48:00 | 00:00:00 | 00:00:00 | |
| KRY50SP-1 | 2026-09-05 06:25:24 | 52.25862 | 17.08902 | 90° | 141km/h | 8494m | -2.8m/s | -36.8°C | 9.2% | 336.1hPa | 2.6V | 07:48:00 | 00:00:00 | 00:00:00 | |
| SP3WXH-11 | 2026-09-05 06:25:21 | 52.25853 | 17.08626 | 84° | 128km/h | 8506m | -3.0m/s | -36.9°C | 9.1% | 335.4hPa | 2.6V | 00:00:00 | 00:00:00 | 00:00:00 | |
| KRY50SP-1 | 2026-09-05 06:25:18 | 52.25849 | 17.08574 | 84° | 128km/h | 8509m | -3.3m/s | -36.9°C | 9.1% | 335.2hPa | 2.6V | 07:48:00 | 00:00:00 | 00:00:00 | |
| SONDE2-11 | 2026-09-05 06:25:15 | 52.25822 | 17.08296 | 80° | 144km/h | 8522m | -3.1m/s | -37.0°C | 9.2% | 334.7hPa | 2.6V | 00:00:00 | 00:00:00 | 00:00:00 | |
| KRY50SP-1 | 2026-09-05 06:25:13 | 52.25822 | 17.08296 | 81° | 146km/h | 8522m | -3.1m/s | -37.0°C | 9.2% | 334.7hPa | 2.6V | 07:48:00 | 00:00:00 | 00:00:00 | |
| SP6BVK | 2026-09-05 06:25:08 | 52.25798 | 17.07989 | 88° | 150km/h | 8534m | -2.3m/s | -37.1°C | 9.1% | 334.0hPa | 2.6V | 07:48:00 | 00:00:00 | 00:00:00 | |
| KRY50SP-1 | 2026-09-05 06:25:07 | 52.25796 | 17.07927 | 88° | 151km/h | 8536m | -2.7m/s | -37.1°C | 9.0% | 334.0hPa | 2.6V | 07:48:00 | 00:00:00 | 00:00:00 | |
| EDDB2-11 | 2026-09-05 06:24:51 | 52.25734 | 17.06885 | 86° | 150km/h | 8581m | -2.9m/s | -37.4°C | 8.5% | 331.8hPa | 2.6V | 00:00:00 | 00:00:00 | 00:00:00 | |
| SP3WXH-11 | 2026-09-05 06:24:50 | 52.25732 | 17.06823 | 87° | 148km/h | 8584m | -2.9m/s | -37.4°C | 8.4% | 331.6hPa | 2.6V | 00:00:00 | 00:00:00 | 00:00:00 | |
| SP6BVK | 2026-09-05 06:24:48 | 52.25732 | 17.06823 | 89° | 150km/h | 8584m | -2.9m/s | -37.4°C | 8.4% | 331.6hPa | 2.6V | 07:49:00 | 00:00:00 | 00:00:00 | |
| KRY50SP-1 | 2026-09-05 06:24:45 | 52.25730 | 17.06645 | 90° | 139km/h | 8592m | -2.7m/s | -37.5°C | 8.6% | 331.3hPa | 2.6V | 07:49:00 | 00:00:00 | 00:00:00 | |
| EDDB2-12 | 2026-09-05 06:24:44 | 52.25728 | 17.06534 | 86° | 133km/h | 8596m | -2.7m/s | -37.5°C | 8.7% | 331.0hPa | 2.6V | 00:00:00 | 00:00:00 | 00:00:00 | |
| SONDE2-11 | 2026-09-05 06:24:43 | 52.25725 | 17.06479 | 84° | 130km/h | 8599m | -2.7m/s | -37.5°C | 8.7% | 331.0hPa | 2.6V | 00:00:00 | 00:00:00 | 00:00:00 | |
| KRY50SP-1 | 2026-09-05 06:24:40 | 52.25718 | 17.06369 | 83° | 137km/h | 8603m | -2.4m/s | -37.5°C | 8.8% | 330.8hPa | 2.6V | 07:49:00 | 00:00:00 | 00:00:00 | |
| KRY50SP-1 | 2026-09-05 06:24:34 | 52.25687 | 17.06013 | 84° | 153km/h | 8618m | -3.0m/s | -37.6°C | 8.7% | 330.0hPa | 2.6V | 07:49:00 | 00:00:00 | 00:00:00 | |
| KRY50SP-1 | 2026-09-05 06:24:28 | 52.25675 | 17.05643 | 92° | 141km/h | 8635m | -2.9m/s | -37.7°C | 8.8% | 329.4hPa | 2.6V | 07:49:00 | 00:00:00 | 00:00:00 | |
| SP6BVK | 2026-09-05 06:24:27 | 52.25675 | 17.05586 | 90° | 137km/h | 8637m | -2.5m/s | -37.7°C | 8.8% | 329.2hPa | 2.6V | 07:49:00 | 00:00:00 | 00:00:00 | |
| KRY50SP-1 | 2026-09-05 06:24:23 | 52.25664 | 17.05308 | 85° | 137km/h | 8648m | -2.4m/s | -37.8°C | 8.9% | 328.6hPa | 2.6V | 07:49:00 | 00:00:00 | 00:00:00 | |
| EDDB2-11 | 2026-09-05 06:24:20 | 52.25644 | 17.05074 | 82° | 150km/h | 8657m | -3.0m/s | -37.9°C | 8.8% | 328.1hPa | 2.6V | 00:00:00 | 00:00:00 | 00:00:00 | |
| SP3WXH-11 | 2026-09-05 06:24:19 | 52.25639 | 17.05012 | 84° | 150km/h | 8660m | -2.9m/s | -37.9°C | 8.9% | 328.0hPa | 2.6V | 00:00:00 | 00:00:00 | 00:00:00 | |
| KRY50SP-1 | 2026-09-05 06:24:17 | 52.25639 | 17.05012 | 86° | 151km/h | 8660m | -2.9m/s | -37.9°C | 8.9% | 328.0hPa | 2.6V | 07:49:00 | 00:00:00 | 00:00:00 | |
| EDDB2-12 | 2026-09-05 06:24:13 | 52.25626 | 17.04696 | 89° | 150km/h | 8674m | -2.8m/s | -38.0°C | 8.9% | 327.5hPa | 2.6V | 00:00:00 | 00:00:00 | 00:00:00 | |
| DB0DAN | 2026-09-05 06:24:10 | 52.25625 | 17.04516 | 90° | 133km/h | 8681m | -2.7m/s | -38°C | 8.9% | 327.03hPa | 2.6V | 00:00:00 | 00:00:00 | 00:00:00 | |
| SP3BTT-10 | 2026-09-05 06:24:07 | 52.25621 | 17.04347 | 87° | 139km/h | 8687m | -2.6m/s | -38.0°C | 10.9% | 326.6hPa | 2.5V | 00:00:00 | 00:00:00 | 00:00:00 | |
| KRY50SP-1 | 2026-09-05 06:24:06 | 52.25621 | 17.04347 | 87° | 133km/h | 8687m | -2.7m/s | -38.1°C | 8.9% | 326.7hPa | 2.5V | 07:49:00 | 00:00:00 | 00:00:00 | |
| KRY50SP-1 | 2026-09-05 06:24:01 | 52.25599 | 17.04068 | 82° | 142km/h | 8701m | -2.8m/s | -38.2°C | 8.7% | 326.1hPa | 2.5V | 07:50:00 | 00:00:00 | 00:00:00 | |
| DB0DAN | 2026-09-05 06:23:55 | 52.25569 | 17.03634 | 88° | 146km/h | 8717m | -2.8m/s | -38.2°C | 9% | 325.32hPa | 2.5V | 00:00:00 | 00:00:00 | 00:00:00 | |
| SP3WXH-11 | 2026-09-05 06:23:48 | 52.25553 | 17.03177 | 81° | 137km/h | 8737m | -2.8m/s | -38.3°C | 8.9% | 324.4hPa | 2.5V | 00:00:00 | 00:00:00 | 00:00:00 | |
| SP6BVK | 2026-09-05 06:23:47 | 52.25553 | 17.03177 | 83° | 139km/h | 8737m | -2.8m/s | -38.3°C | 8.9% | 324.4hPa | 2.5V | 07:50:00 | 00:00:00 | 00:00:00 | |
| KRY50SP-1 | 2026-09-05 06:23:45 | 52.25547 | 17.03120 | 82° | 142km/h | 8740m | -2.9m/s | -38.4°C | 8.9% | 324.2hPa | 2.5V | 07:50:00 | 00:00:00 | 00:00:00 | |
| DB0DAN | 2026-09-05 06:23:40 | 52.25514 | 17.02752 | 85° | 148km/h | 8755m | -2.3m/s | -38.5°C | 9% | 323.59hPa | 2.5V | 00:00:00 | 00:00:00 | 00:00:00 | |
| KRY50SP-1 | 2026-09-05 06:23:40 | 52.25514 | 17.02751 | 86° | 155km/h | 8755m | -2.3m/s | -38.5°C | 9.0% | 323.6hPa | 2.5V | 07:50:00 | 00:00:00 | 00:00:00 | |
| KRY50SP-1 | 2026-09-05 06:23:34 | 52.25504 | 17.02438 | 90° | 148km/h | 8767m | -3.2m/s | -38.5°C | 9.1% | 323.0hPa | 2.5V | 07:50:00 | 00:00:00 | 00:00:00 | |
| KRY50SP-1 | 2026-09-05 06:23:29 | 52.25497 | 17.02151 | 86° | 135km/h | 8779m | -2.5m/s | -38.6°C | 9.2% | 322.4hPa | 2.5V | 07:50:00 | 00:00:00 | 00:00:00 | |
| DB0DAN | 2026-09-05 06:23:25 | 52.25472 | 17.01862 | 82° | 141km/h | 8790m | -3.4m/s | -38.7°C | 9.1% | 321.85hPa | 2.5V | 00:00:00 | 00:00:00 | 00:00:00 | |
| KRY50SP-1 | 2026-09-05 06:23:24 | 52.25472 | 17.01862 | 83° | 148km/h | 8790m | -3.4m/s | -38.7°C | 9.1% | 321.8hPa | 2.5V | 07:50:00 | 00:00:00 | 00:00:00 | |
| SP3BTT-10 | 2026-09-05 06:23:23 | 52.25462 | 17.01738 | 83° | 151km/h | 8796m | -2.8m/s | -38.7°C | 11.2% | 321.6hPa | 2.5V | 00:00:00 | 00:00:00 | 00:00:00 | |
| KRY50SP-1 | 2026-09-05 06:23:18 | 52.25448 | 17.01484 | 88° | 155km/h | 8806m | -2.6m/s | -38.8°C | 9.3% | 321.1hPa | 2.5V | 07:50:00 | 00:00:00 | 00:00:00 | |
| SP3WXH-11 | 2026-09-05 06:23:17 | 52.25444 | 17.01298 | 89° | 142km/h | 8813m | -2.4m/s | -38.9°C | 9.4% | 320.7hPa | 2.5V | 00:00:00 | 00:00:00 | 00:00:00 | |
| KRY50SP-1 | 2026-09-05 06:23:12 | 52.25439 | 17.01126 | 86° | 135km/h | 8818m | -2.7m/s | -38.9°C | 9.3% | 320.5hPa | 2.5V | 07:50:00 | 00:00:00 | 00:00:00 | |
| DB0DAN | 2026-09-05 06:23:10 | 52.25426 | 17.00958 | 83° | 135km/h | 8825m | -3.6m/s | -39°C | 9.3% | 320.14hPa | 2.5V | 00:00:00 | 00:00:00 | 00:00:00 | |
| KRY50SP-1 | 2026-09-05 06:23:06 | 52.25410 | 17.00780 | 82° | 151km/h | 8834m | -3.4m/s | -39.1°C | 9.3% | 319.8hPa | 2.6V | 07:51:00 | 00:00:00 | 00:00:00 | |
| SP6BVK | 2026-09-05 06:23:05 | 52.25403 | 17.00717 | 83° | 155km/h | 8837m | -3.1m/s | -39.1°C | 9.3% | 319.6hPa | 2.6V | 07:51:00 | 00:00:00 | 00:00:00 | |
| KRY50SP-1 | 2026-09-05 06:23:00 | 52.25384 | 17.00395 | 90° | 151km/h | 8850m | -2.7m/s | -39.1°C | 9.7% | 319.0hPa | 2.6V | 07:51:00 | 00:00:00 | 00:00:00 | |
| DB0DAN | 2026-09-05 06:22:55 | 52.25377 | 17.00040 | 85° | 130km/h | 8865m | -2.8m/s | -39.2°C | 9.6% | 318.36hPa | 2.6V | 00:00:00 | 00:00:00 | 00:00:00 | |
| EDDB2-11 | 2026-09-05 06:22:46 | 52.25329 | 16.99502 | 84° | 155km/h | 8889m | -3.1m/s | -39.4°C | 9.4% | 317.4hPa | 2.5V | 00:00:00 | 00:00:00 | 00:00:00 | |
| KRY50SP-1 | 2026-09-05 06:22:43 | 52.25321 | 16.99373 | 87° | 159km/h | 8894m | -2.9m/s | -39.4°C | 9.5% | 317.1hPa | 2.5V | 07:51:00 | 00:00:00 | 00:00:00 | |
| DB0DAN | 2026-09-05 06:22:40 | 52.25315 | 16.99124 | 88° | 137km/h | 8904m | -2.6m/s | -39.5°C | 9.8% | 316.64hPa | 2.5V | 00:00:00 | 00:00:00 | 00:00:00 | |
| SONDE2-11 | 2026-09-05 06:22:39 | 52.25313 | 16.99066 | 86° | 139km/h | 8906m | -2.6m/s | -39.5°C | 9.8% | 316.5hPa | 2.6V | 00:00:00 | 00:00:00 | 00:00:00 | |
| KRY50SP-1 | 2026-09-05 06:22:38 | 52.25313 | 16.99066 | 88° | 141km/h | 8907m | -2.6m/s | -39.5°C | 9.8% | 316.5hPa | 2.6V | 07:51:00 | 00:00:00 | 00:00:00 | |
| SP3BTT-10 | 2026-09-05 06:22:37 | 52.25308 | 16.98951 | 86° | 144km/h | 8911m | -2.4m/s | -39.5°C | 12.1% | 316.3hPa | 2.6V | 00:00:00 | 00:00:00 | 00:00:00 | |
| KRY50SP-1 | 2026-09-05 06:22:32 | 52.25288 | 16.98721 | 83° | 146km/h | 8919m | -3.1m/s | -39.6°C | 9.7% | 315.8hPa | 2.5V | 07:51:00 | 00:00:00 | 00:00:00 | |
| 3Z3Z-3 | 2026-09-05 06:22:27 | 52.25257 | 16.98410 | 84° | 157km/h | 8933m | -3.3m/s | -39.7°C | 9.5% | 315.3hPa | 2.5V | 00:00:00 | 00:00:00 | 00:00:00 | |
| DB0DAN | 2026-09-05 06:22:25 | 52.25246 | 16.98216 | 87° | 150km/h | 8941m | -2.9m/s | -39.8°C | 9.6% | 314.89hPa | 2.5V | 00:00:00 | 00:00:00 | 00:00:00 | |
| SP6BVK | 2026-09-05 06:22:23 | 52.25244 | 16.98151 | 89° | 155km/h | 8944m | -2.7m/s | -39.8°C | 9.7% | 314.8hPa | 2.5V | 07:51:00 | 00:00:00 | 00:00:00 | |
| KRY50SP-1 | 2026-09-05 06:22:20 | 52.25239 | 16.97964 | 89° | 146km/h | 8952m | -2.6m/s | -39.8°C | 9.8% | 314.4hPa | 2.5V | 07:52:00 | 00:00:00 | 00:00:00 | |
| SP3WXH-11 | 2026-09-05 06:22:15 | 52.25211 | 16.97556 | 81° | 150km/h | 8968m | -3.3m/s | -40.0°C | 9.6% | 313.6hPa | 2.5V | 00:00:00 | 00:00:00 | 00:00:00 | |
| DB0DAN | 2026-09-05 06:22:10 | 52.25186 | 16.97301 | 82° | 153km/h | 8980m | -3.2m/s | -40.1°C | 9.3% | 313.14hPa | 2.5V | 00:00:00 | 00:00:00 | 00:00:00 | |
| EDDB2-12 | 2026-09-05 06:22:09 | 52.25181 | 16.97236 | 83° | 159km/h | 8983m | -3.2m/s | -40.1°C | 9.2% | 313.0hPa | 2.5V | 00:00:00 | 00:00:00 | 00:00:00 | |
| SONDE2-11 | 2026-09-05 06:22:08 | 52.25177 | 16.97170 | 85° | 159km/h | 8986m | -2.8m/s | -40.1°C | 9.2% | 312.9hPa | 2.5V | 00:00:00 | 00:00:00 | 00:00:00 | |
| KRY50SP-1 | 2026-09-05 06:22:05 | 52.25171 | 16.97038 | 87° | 161km/h | 8992m | -3.2m/s | -40.1°C | 9.0% | 312.7hPa | 2.5V | 07:52:00 | 00:00:00 | 00:00:00 | |
| SP6BVK | 2026-09-05 06:22:03 | 52.25167 | 16.96908 | 89° | 153km/h | 8997m | -2.5m/s | -40.1°C | 8.8% | 312.4hPa | 2.5V | 07:52:00 | 00:00:00 | 00:00:00 | |
| KRY50SP-1 | 2026-09-05 06:22:00 | 52.25161 | 16.96667 | 87° | 142km/h | 9007m | -2.6m/s | -40.2°C | 8.6% | 311.9hPa | 2.5V | 07:52:00 | 00:00:00 | 00:00:00 | |
| DB0DAN | 2026-09-05 06:21:55 | 52.25135 | 16.96371 | 82° | 146km/h | 9020m | -2.9m/s | -40.3°C | 8.2% | 311.38hPa | 2.5V | 00:00:00 | 00:00:00 | 00:00:00 | |
| SP3BTT-10 | 2026-09-05 06:21:53 | 52.25123 | 16.96244 | 83° | 161km/h | 9025m | -2.7m/s | -40.3°C | 10.3% | 311.1hPa | 2.5V | 00:00:00 | 00:00:00 | 00:00:00 | |
| KRY50SP-1 | 2026-09-05 06:21:48 | 52.25108 | 16.95979 | 88° | 161km/h | 9035m | -3.1m/s | -40.4°C | 8.2% | 310.7hPa | 2.5V | 07:52:00 | 00:00:00 | 00:00:00 | |
| SP3WXH-11 | 2026-09-05 06:21:44 | 52.25099 | 16.95604 | 85° | 142km/h | 9052m | -2.6m/s | -40.5°C | 8.4% | 310.0hPa | 2.5V | 00:00:00 | 00:00:00 | 00:00:00 | |
| SP6BVK | 2026-09-05 06:21:42 | 52.25099 | 16.95604 | 87° | 144km/h | 9052m | -2.6m/s | -40.5°C | 8.4% | 310.0hPa | 2.5V | 07:52:00 | 00:00:00 | 00:00:00 | |
| DB0DAN | 2026-09-05 06:21:40 | 52.25087 | 16.95427 | 82° | 141km/h | 9059m | -3m/s | -40.6°C | 8.3% | 309.59hPa | 2.5V | 00:00:00 | 00:00:00 | 00:00:00 | |
| EDDB2-12 | 2026-09-05 06:21:38 | 52.25076 | 16.95305 | 80° | 151km/h | 9065m | -3.3m/s | -40.7°C | 8.3% | 309.4hPa | 2.6V | 00:00:00 | 00:00:00 | 00:00:00 | |
| SONDE2-11 | 2026-09-05 06:21:37 | 52.25069 | 16.95242 | 80° | 155km/h | 9068m | -3.5m/s | -40.7°C | 8.2% | 309.3hPa | 2.6V | 00:00:00 | 00:00:00 | 00:00:00 | |
| KRY50SP-1 | 2026-09-05 06:21:31 | 52.25042 | 16.94915 | 86° | 166km/h | 9085m | -3.1m/s | -40.7°C | 8.0% | 308.6hPa | 2.6V | 07:52:00 | 00:00:00 | 00:00:00 | |
| DB0DAN | 2026-09-05 06:21:25 | 52.25029 | 16.94467 | 86° | 139km/h | 9105m | -2.7m/s | -40.8°C | 8.2% | 307.92hPa | 2.6V | 00:00:00 | 00:00:00 | 00:00:00 | |
| SP6BVK | 2026-09-05 06:21:23 | 52.25021 | 16.94348 | 83° | 148km/h | 9110m | -2.7m/s | -40.8°C | 8.1% | 307.6hPa | 2.6V | 07:53:00 | 00:00:00 | 00:00:00 | |
| KRY50SP-1 | 2026-09-05 06:21:20 | 52.25010 | 16.94226 | 82° | 153km/h | 9116m | -2.7m/s | -40.9°C | 8.0% | 307.4hPa | 2.6V | 07:53:00 | 00:00:00 | 00:00:00 | |
| 3Z3Z-3 | 2026-09-05 06:21:19 | 52.25003 | 16.94163 | 82° | 155km/h | 9119m | -2.7m/s | -40.9°C | 7.8% | 307.2hPa | 2.6V | 00:00:00 | 00:00:00 | 00:00:00 | |
| KRY50SP-1 | 2026-09-05 06:21:14 | 52.24973 | 16.93832 | 85° | 166km/h | 9132m | -2.6m/s | -41.0°C | 7.5% | 306.7hPa | 2.6V | 07:53:00 | 00:00:00 | 00:00:00 | |
| SP3WXH-11 | 2026-09-05 06:21:13 | 52.24964 | 16.93628 | 87° | 162km/h | 9140m | -2.5m/s | -41.0°C | 7.5% | 306.3hPa | 2.6V | 00:00:00 | 00:00:00 | 00:00:00 | |
| KRY50SP-1 | 2026-09-05 06:21:10 | 52.24960 | 16.93497 | 89° | 155km/h | 9146m | -2.7m/s | -41.0°C | 7.6% | 306.1hPa | 2.6V | 07:53:00 | 00:00:00 | 00:00:00 | |
| SP3BTT-10 | 2026-09-05 06:21:07 | 52.24954 | 16.93310 | 85° | 161km/h | 9153m | -2.6m/s | -41.0°C | 9.7% | 305.7hPa | 2.6V | 00:00:00 | 00:00:00 | 00:00:00 | |
| SONDE2-11 | 2026-09-05 06:21:06 | 52.24950 | 16.93250 | 82° | 148km/h | 9156m | -2.7m/s | -41.1°C | 7.6% | 305.7hPa | 2.6V | 00:00:00 | 00:00:00 | 00:00:00 | |
| KRY50SP-1 | 2026-09-05 06:21:03 | 52.24939 | 16.93127 | 82° | 151km/h | 9161m | -2.5m/s | -41.1°C | 7.6% | 305.4hPa | 2.6V | 07:53:00 | 00:00:00 | 00:00:00 | |
| SP6BVK | 2026-09-05 06:21:01 | 52.24927 | 16.92999 | 81° | 161km/h | 9166m | -2.7m/s | -41.1°C | 7.5% | 305.2hPa | 2.6V | 07:53:00 | 00:00:00 | 00:00:00 | |
| KRY50SP-1 | 2026-09-05 06:20:58 | 52.24910 | 16.92798 | 84° | 168km/h | 9174m | -2.7m/s | -41.2°C | 7.4% | 304.8hPa | 2.6V | 07:53:00 | 00:00:00 | 00:00:00 | |
| 3Z3Z-3 | 2026-09-05 06:20:53 | 52.24895 | 16.92457 | 89° | 161km/h | 9187m | -2.6m/s | -41.3°C | 7.4% | 304.2hPa | 2.6V | 00:00:00 | 00:00:00 | 00:00:00 | |
| KRY50SP-1 | 2026-09-05 06:20:52 | 52.24893 | 16.92391 | 89° | 157km/h | 9189m | -2.7m/s | -41.3°C | 7.5% | 304.1hPa | 2.6V | 07:53:00 | 00:00:00 | 00:00:00 | |
| KRY50SP-1 | 2026-09-05 06:20:47 | 52.24879 | 16.92080 | 83° | 151km/h | 9202m | -2.8m/s | -41.4°C | 7.8% | 303.6hPa | 2.6V | 07:53:00 | 00:00:00 | 00:00:00 | |
| EDDB2-11 | 2026-09-05 06:20:42 | 52.24844 | 16.91685 | 83° | 168km/h | 9217m | -2.7m/s | -41.5°C | 7.5% | 302.9hPa | 2.6V | 00:00:00 | 00:00:00 | 00:00:00 | |
| SP6BVK | 2026-09-05 06:20:41 | 52.24844 | 16.91685 | 84° | 168km/h | 9218m | -2.7m/s | -41.5°C | 7.5% | 302.9hPa | 2.6V | 07:53:00 | 00:00:00 | 00:00:00 | |
| EDDB2-12 | 2026-09-05 06:20:36 | 52.24829 | 16.91269 | 88° | 162km/h | 9235m | -2.6m/s | -41.6°C | 7.5% | 302.2hPa | 2.6V | 00:00:00 | 00:00:00 | 00:00:00 | |
| SONDE2-11 | 2026-09-05 06:20:35 | 52.24828 | 16.91203 | 88° | 157km/h | 9238m | -2.6m/s | -41.6°C | 7.6% | 302.1hPa | 2.6V | 00:00:00 | 00:00:00 | 00:00:00 | |
| KRY50SP-1 | 2026-09-05 06:20:30 | 52.24819 | 16.90953 | 85° | 153km/h | 9248m | -2.7m/s | -41.7°C | 7.8% | 301.6hPa | 2.6V | 07:54:00 | 00:00:00 | 00:00:00 | |
| SP3BTT-10 | 2026-09-05 06:20:21 | 52.24777 | 16.90273 | 88° | 159km/h | 9275m | -2.7m/s | -41.8°C | 9.9% | 300.4hPa | 2.6V | 00:00:00 | 00:00:00 | 00:00:00 | |
| SP6BVK | 2026-09-05 06:20:20 | 52.24777 | 16.90273 | 89° | 168km/h | 9275m | -2.7m/s | -41.8°C | 7.7% | 300.4hPa | 2.6V | 07:54:00 | 00:00:00 | 00:00:00 | |
| KRY50SP-1 | 2026-09-05 06:20:19 | 52.24776 | 16.90204 | 90° | 166km/h | 9278m | -2.8m/s | -41.8°C | 7.8% | 300.3hPa | 2.6V | 07:54:00 | 00:00:00 | 00:00:00 | |
| KRY50SP-1 | 2026-09-05 06:20:13 | 52.24766 | 16.89819 | 85° | 151km/h | 9294m | -2.4m/s | -42.0°C | 7.9% | 299.6hPa | 2.6V | 07:54:00 | 00:00:00 | 00:00:00 | |
| DB0DAN | 2026-09-05 06:20:10 | 52.24744 | 16.89560 | 82° | 159km/h | 9304m | -2.9m/s | -42.1°C | 8% | 299.13hPa | 2.6V | 00:00:00 | 00:00:00 | 00:00:00 | |
| KRY50SP-1 | 2026-09-05 06:20:08 | 52.24739 | 16.89492 | 84° | 170km/h | 9307m | -2.5m/s | -42.1°C | 8.0% | 299.0hPa | 2.5V | 07:54:00 | 00:00:00 | 00:00:00 | |
| EDDB2-12 | 2026-09-05 06:20:05 | 52.24725 | 16.89210 | 87° | 168km/h | 9317m | -2.9m/s | -42.2°C | 8.3% | 298.6hPa | 2.5V | 00:00:00 | 00:00:00 | 00:00:00 | |
| SONDE2-11 | 2026-09-05 06:20:04 | 52.24723 | 16.89141 | 88° | 168km/h | 9319m | -2.7m/s | -42.2°C | 8.4% | 298.5hPa | 2.5V | 00:00:00 | 00:00:00 | 00:00:00 | |
| KRY50SP-1 | 2026-09-05 06:20:02 | 52.24723 | 16.89073 | 91° | 162km/h | 9322m | -2.5m/s | -42.2°C | 8.4% | 298.3hPa | 2.5V | 07:54:00 | 00:00:00 | 00:00:00 | |
| SP6BVK | 2026-09-05 06:19:59 | 52.24719 | 16.88878 | 88° | 153km/h | 9330m | -2.9m/s | -42.3°C | 8.5% | 298.0hPa | 2.5V | 07:54:00 | 00:00:00 | 00:00:00 | |
| 3Z3Z-3 | 2026-09-05 06:19:57 | 52.24714 | 16.88753 | 85° | 153km/h | 9335m | -2.6m/s | -42.3°C | 8.4% | 297.7hPa | 2.5V | 00:00:00 | 00:00:00 | 00:00:00 | |
| DB0DAN | 2026-09-05 06:19:55 | 52.24699 | 16.88561 | 81° | 153km/h | 9343m | -3m/s | -42.3°C | 8.5% | 297.36hPa | 2.5V | 00:00:00 | 00:00:00 | 00:00:00 | |
| KRY50SP-1 | 2026-09-05 06:19:50 | 52.24677 | 16.88288 | 85° | 173km/h | 9355m | -3.1m/s | -42.4°C | 8.6% | 296.9hPa | 2.6V | 07:54:00 | 00:00:00 | 00:00:00 | |
| 3Z3Z-3 | 2026-09-05 06:19:46 | 52.24667 | 16.87939 | 90° | 164km/h | 9369m | -2.4m/s | -42.5°C | 9.0% | 296.3hPa | 2.6V | 07:54:00 | 00:00:00 | 00:00:00 | |
| KRY50SP-1 | 2026-09-05 06:19:45 | 52.24667 | 16.87939 | 90° | 164km/h | 9369m | -2.4m/s | -42.5°C | 9.0% | 296.3hPa | 2.6V | 07:54:00 | 00:00:00 | 00:00:00 | |
| DB0DAN | 2026-09-05 06:19:40 | 52.24654 | 16.87558 | 83° | 148km/h | 9385m | -2.6m/s | -42.6°C | 9.8% | 295.59hPa | 2.6V | 00:00:00 | 00:00:00 | 00:00:00 | |
| SP3WXH-11 | 2026-09-05 06:19:39 | 52.24648 | 16.87493 | 81° | 159km/h | 9388m | -2.8m/s | -42.6°C | 10.0% | 295.5hPa | 2.6V | 00:00:00 | 00:00:00 | 00:00:00 | |
| SP6BVK | 2026-09-05 06:19:38 | 52.24648 | 16.87493 | 83° | 159km/h | 9388m | -2.8m/s | -42.6°C | 10.0% | 295.5hPa | 2.6V | 07:54:00 | 00:00:00 | 00:00:00 | |
| SP3BTT-10 | 2026-09-05 06:19:36 | 52.24631 | 16.87290 | 84° | 162km/h | 9395m | -2.4m/s | -42.6°C | 13.2% | 295.1hPa | 2.6V | 07:54:00 | 00:00:00 | 00:00:00 | |
| EDDB2-12 | 2026-09-05 06:19:34 | 52.24623 | 16.87149 | 86° | 172km/h | 9401m | -2.8m/s | -42.7°C | 10.9% | 294.9hPa | 2.6V | 00:00:00 | 00:00:00 | 00:00:00 | |
| SONDE2-11 | 2026-09-05 06:19:33 | 52.24619 | 16.87008 | 89° | 166km/h | 9406m | -2.7m/s | -42.8°C | 11.2% | 294.7hPa | 2.6V | 00:00:00 | 00:00:00 | 00:00:00 | |
| KRY50SP-1 | 2026-09-05 06:19:28 | 52.24618 | 16.86806 | 90° | 157km/h | 9415m | -2.6m/s | -42.9°C | 11.7% | 294.3hPa | 2.6V | 07:54:00 | 00:00:00 | 00:00:00 | |
| DB0DAN | 2026-09-05 06:19:25 | 52.24611 | 16.86555 | 85° | 144km/h | 9426m | -2.9m/s | -42.9°C | 12.7% | 293.85hPa | 2.6V | 00:00:00 | 00:00:00 | 00:00:00 | |
| KRY50SP-1 | 2026-09-05 06:19:22 | 52.24602 | 16.86429 | 83° | 157km/h | 9432m | -2.6m/s | -43.0°C | 13.1% | 293.6hPa | 2.5V | 07:54:00 | 00:00:00 | 00:00:00 | |
| KRY50SP-1 | 2026-09-05 06:19:17 | 52.24577 | 16.86088 | 87° | 170km/h | 9444m | -2.4m/s | -43.1°C | 13.5% | 293.0hPa | 2.5V | 07:54:00 | 00:00:00 | 00:00:00 | |
| DB0DAN | 2026-09-05 06:19:10 | 52.24564 | 16.85558 | 86° | 144km/h | 9466m | -2.6m/s | -43.3°C | 13% | 292.02hPa | 2.5V | 00:00:00 | 00:00:00 | 00:00:00 | |
| EDDB2-11 | 2026-09-05 06:19:09 | 52.24561 | 16.85496 | 84° | 151km/h | 9470m | -2.8m/s | -43.3°C | 12.9% | 291.9hPa | 2.6V | 00:00:00 | 00:00:00 | 00:00:00 | |
| SP3WXH-11 | 2026-09-05 06:19:08 | 52.24557 | 16.85434 | 82° | 150km/h | 9472m | -2.9m/s | -43.3°C | 12.9% | 291.8hPa | 2.6V | 00:00:00 | 00:00:00 | 00:00:00 | |
| KRY50SP-1 | 2026-09-05 06:19:06 | 52.24552 | 16.85372 | 83° | 153km/h | 9476m | -2.3m/s | -43.4°C | 12.9% | 291.7hPa | 2.6V | 07:54:00 | 00:00:00 | 00:00:00 | |
| EDDB2-12 | 2026-09-05 06:19:03 | 52.24529 | 16.85110 | 82° | 166km/h | 9486m | -2.5m/s | -43.4°C | 13.4% | 291.2hPa | 2.6V | 00:00:00 | 00:00:00 | 00:00:00 | |
| SONDE2-11 | 2026-09-05 06:19:02 | 52.24524 | 16.85041 | 83° | 168km/h | 9489m | -2.5m/s | -43.4°C | 13.6% | 291.1hPa | 2.6V | 00:00:00 | 00:00:00 | 00:00:00 | |
| KRY50SP-1 | 2026-09-05 06:19:00 | 52.24519 | 16.84971 | 86° | 172km/h | 9492m | -2.9m/s | -43.4°C | 13.7% | 291.0hPa | 2.6V | 07:54:00 | 00:00:00 | 00:00:00 | |
| 3Z3Z-3 | 2026-09-05 06:18:58 | 52.24514 | 16.84831 | 89° | 166km/h | 9497m | -2.4m/s | -43.5°C | 13.9% | 290.7hPa | 2.6V | 07:54:00 | 00:00:00 | 00:00:00 | |
| SP6BVK | 2026-09-05 06:18:57 | 52.24513 | 16.84763 | 89° | 164km/h | 9500m | -3.0m/s | -43.5°C | 14.0% | 290.7hPa | 2.6V | 07:54:00 | 00:00:00 | 00:00:00 | |
| DB0DAN | 2026-09-05 06:18:55 | 52.24510 | 16.84568 | 87° | 146km/h | 9509m | -3.1m/s | -43.6°C | 13.9% | 290.26hPa | 2.6V | 00:00:00 | 00:00:00 | 00:00:00 | |
| SP3BTT-10 | 2026-09-05 06:18:51 | 52.24497 | 16.84323 | 83° | 162km/h | 9521m | -2.6m/s | -43.6°C | 17.0% | 289.7hPa | 2.5V | 00:00:00 | 00:00:00 | 00:00:00 | |
| KRY50SP-1 | 2026-09-05 06:18:50 | 52.24497 | 16.84323 | 84° | 151km/h | 9521m | -2.7m/s | -43.7°C | 14.0% | 289.8hPa | 2.5V | 07:55:00 | 00:00:00 | 00:00:00 | |
| 3Z3Z-3 | 2026-09-05 06:18:48 | 52.24486 | 16.84198 | 82° | 159km/h | 9526m | -2.7m/s | -43.7°C | 13.8% | 289.5hPa | 2.5V | 00:00:00 | 00:00:00 | 00:00:00 | |
| KRY50SP-1 | 2026-09-05 06:18:45 | 52.24467 | 16.83999 | 83° | 170km/h | 9535m | -2.3m/s | -43.7°C | 13.9% | 289.2hPa | 2.5V | 07:55:00 | 00:00:00 | 00:00:00 | |
| DB0DAN | 2026-09-05 06:18:40 | 52.24446 | 16.83588 | 88° | 151km/h | 9549m | -2.7m/s | -43.9°C | 15.1% | 288.48hPa | 2.5V | 00:00:00 | 00:00:00 | 00:00:00 | |
| EDDB2-11 | 2026-09-05 06:18:38 | 52.24443 | 16.83460 | 86° | 151km/h | 9554m | -2.8m/s | -43.9°C | 15.1% | 288.2hPa | 2.6V | 00:00:00 | 00:00:00 | 00:00:00 | |
| SP6BVK | 2026-09-05 06:18:37 | 52.24443 | 16.83460 | 87° | 151km/h | 9554m | -2.8m/s | -43.9°C | 15.1% | 288.2hPa | 2.6V | 07:55:00 | 00:00:00 | 00:00:00 | |
| KRY50SP-1 | 2026-09-05 06:18:34 | 52.24426 | 16.83215 | 82° | 151km/h | 9566m | -3.0m/s | -44.0°C | 15.3% | 287.7hPa | 2.6V | 07:55:00 | 00:00:00 | 00:00:00 | |
| EDDB2-12 | 2026-09-05 06:18:32 | 52.24413 | 16.83089 | 79° | 157km/h | 9572m | -3.1m/s | -44.1°C | 15.7% | 287.5hPa | 2.6V | 00:00:00 | 00:00:00 | 00:00:00 | |
| SONDE2-11 | 2026-09-05 06:18:31 | 52.24406 | 16.83025 | 80° | 161km/h | 9575m | -2.5m/s | -44.1°C | 15.8% | 287.3hPa | 2.6V | 00:00:00 | 00:00:00 | 00:00:00 | |
| KRY50SP-1 | 2026-09-05 06:18:27 | 52.24388 | 16.82820 | 85° | 170km/h | 9583m | -2.7m/s | -44.2°C | 16.3% | 287.0hPa | 2.6V | 07:55:00 | 00:00:00 | 00:00:00 | |
| DB0DAN | 2026-09-05 06:18:25 | 52.24378 | 16.82615 | 87° | 157km/h | 9591m | -2.8m/s | -44.2°C | 16.6% | 286.67hPa | 2.6V | 00:00:00 | 00:00:00 | 00:00:00 | |
| KRY50SP-1 | 2026-09-05 06:18:22 | 52.24374 | 16.82484 | 88° | 155km/h | 9597m | -2.9m/s | -44.3°C | 16.7% | 286.4hPa | 2.5V | 07:55:00 | 00:00:00 | 00:00:00 | |
| KRY50SP-1 | 2026-09-05 06:18:16 | 52.24350 | 16.82114 | 81° | 153km/h | 9615m | -2.8m/s | -44.4°C | 16.9% | 285.6hPa | 2.5V | 07:55:00 | 00:00:00 | 00:00:00 | |
| DB0DAN | 2026-09-05 06:18:10 | 52.24305 | 16.81647 | 84° | 161km/h | 9635m | -3m/s | -44.5°C | 18.2% | 284.8hPa | 2.5V | 00:00:00 | 00:00:00 | 00:00:00 | |
| EDDB2-11 | 2026-09-05 06:18:07 | 52.24296 | 16.81445 | 86° | 157km/h | 9644m | -2.7m/s | -44.6°C | 18.5% | 284.5hPa | 2.6V | 00:00:00 | 00:00:00 | 00:00:00 | |
| SP3BTT-10 | 2026-09-05 06:18:06 | 52.24293 | 16.81381 | 87° | 157km/h | 9647m | -2.8m/s | -44.6°C | 22.2% | 284.3hPa | 2.6V | 00:00:00 | 00:00:00 | 00:00:00 | |
| 3Z3Z-3 | 2026-09-05 06:18:05 | 52.24293 | 16.81381 | 87° | 155km/h | 9647m | -2.8m/s | -44.6°C | 18.4% | 284.3hPa | 2.6V | 07:56:00 | 00:00:00 | 00:00:00 | |
| EDDB2-12 | 2026-09-05 06:18:01 | 52.24263 | 16.81009 | 78° | 157km/h | 9664m | -3.2m/s | -44.7°C | 18.0% | 283.6hPa | 2.6V | 00:00:00 | 00:00:00 | 00:00:00 | |
| SONDE2-11 | 2026-09-05 06:18:00 | 52.24255 | 16.80944 | 78° | 161km/h | 9667m | -2.6m/s | -44.7°C | 18.0% | 283.5hPa | 2.6V | 00:00:00 | 00:00:00 | 00:00:00 | |
| 13BRC | 2026-09-05 06:17:59 | 52.24263 | 16.81009 | 80° | 157km/h | 9664m | -3.2m/s | -44.7°C | 18.0% | 283.6hPa | 2.6V | 00:00:00 | 00:00:00 | 00:00:00 | |
| DB0DAN | 2026-09-05 06:17:55 | 52.24226 | 16.80671 | 82° | 164km/h | 9678m | -2.5m/s | -44.8°C | 18.4% | 283hPa | 2.6V | 00:00:00 | 00:00:00 | 00:00:00 | |
| 3Z3Z-3 | 2026-09-05 06:17:53 | 52.24221 | 16.80601 | 84° | 170km/h | 9681m | -3.2m/s | -44.8°C | 18.6% | 282.9hPa | 2.5V | 07:56:00 | 00:00:00 | 00:00:00 | |
| KRY50SP-1 | 2026-09-05 06:17:48 | 52.24205 | 16.80266 | 86° | 155km/h | 9695m | -2.6m/s | -44.7°C | 18.9% | 282.3hPa | 2.5V | 07:56:00 | 00:00:00 | 00:00:00 | |
| KRY50SP-1 | 2026-09-05 06:17:43 | 52.24176 | 16.79956 | 79° | 157km/h | 9710m | -3.2m/s | -44.9°C | 18.7% | 281.7hPa | 2.5V | 07:56:00 | 00:00:00 | 00:00:00 | |
| DB0DAN | 2026-09-05 06:17:40 | 52.24144 | 16.79690 | 81° | 161km/h | 9721m | -2.6m/s | -45°C | 18.7% | 281.18hPa | 2.5V | 00:00:00 | 00:00:00 | 00:00:00 | |
| KRY50SP-1 | 2026-09-05 06:17:38 | 52.24137 | 16.79621 | 82° | 170km/h | 9724m | -2.6m/s | -45.0°C | 18.7% | 281.1hPa | 2.6V | 07:56:00 | 00:00:00 | 00:00:00 | |
| EDDB2-11 | 2026-09-05 06:17:36 | 52.24122 | 16.79411 | 85° | 168km/h | 9733m | -2.6m/s | -45.1°C | 18.9% | 280.7hPa | 2.6V | 00:00:00 | 00:00:00 | 00:00:00 | |
| SP3WXH-11 | 2026-09-05 06:17:35 | 52.24119 | 16.79343 | 86° | 164km/h | 9736m | -2.8m/s | -45.1°C | 19.0% | 280.6hPa | 2.6V | 00:00:00 | 00:00:00 | 00:00:00 | |
| KRY50SP-1 | 2026-09-05 06:17:33 | 52.24117 | 16.79276 | 88° | 161km/h | 9739m | -2.7m/s | -45.1°C | 19.0% | 280.4hPa | 2.6V | 07:56:00 | 00:00:00 | 00:00:00 | |
| OE3JTB-15 | 2026-09-05 06:17:32 | 52.24111 | 16.79147 | 86° | 162km/h | 9744m | -2.7m/s | -45.1°C | 23.0% | 280.2hPa | 2.6V | 00:00:00 | 00:00:00 | 00:00:00 | |
| EDDB2-12 | 2026-09-05 06:17:30 | 52.24097 | 16.78961 | 80° | 151km/h | 9753m | -2.5m/s | -45.2°C | 19.1% | 279.9hPa | 2.6V | 00:00:00 | 00:00:00 | 00:00:00 | |
| SONDE2-11 | 2026-09-05 06:17:29 | 52.24097 | 16.78961 | 80° | 151km/h | 9753m | -2.5m/s | -45.2°C | 19.1% | 279.9hPa | 2.6V | 00:00:00 | 00:00:00 | 00:00:00 | |
| KRY50SP-1 | 2026-09-05 06:17:28 | 52.24097 | 16.78961 | 82° | 153km/h | 9753m | -2.5m/s | -45.2°C | 19.2% | 279.9hPa | 2.6V | 07:56:00 | 00:00:00 | 00:00:00 | |
| DB0DAN | 2026-09-05 06:17:25 | 52.24067 | 16.78704 | 79° | 159km/h | 9762m | -2.6m/s | -45.3°C | 19.2% | 279.39hPa | 2.6V | 00:00:00 | 00:00:00 | 00:00:00 | |
| SP3BTT-10 | 2026-09-05 06:17:23 | 52.24052 | 16.78583 | 81° | 164km/h | 9768m | -3.0m/s | -45.3°C | 23.2% | 279.2hPa | 2.5V | 00:00:00 | 00:00:00 | 00:00:00 | |
| 3Z3Z-3 | 2026-09-05 06:17:20 | 52.24040 | 16.78425 | 85° | 173km/h | 9774m | -2.8m/s | -45.4°C | 19.5% | 278.9hPa | 2.5V | 07:56:00 | 00:00:00 | 00:00:00 | |
| KRY50SP-1 | 2026-09-05 06:17:17 | 52.24030 | 16.78218 | 87° | 164km/h | 9783m | -2.9m/s | -45.5°C | 19.6% | 278.6hPa | 2.5V | 07:56:00 | 00:00:00 | 00:00:00 | |
| SP6BVK | 2026-09-05 06:17:15 | 52.24024 | 16.78086 | 86° | 155km/h | 9789m | -2.8m/s | -45.6°C | 19.6% | 278.4hPa | 2.5V | 07:56:00 | 00:00:00 | 00:00:00 | |
| KRY50SP-1 | 2026-09-05 06:17:12 | 52.24010 | 16.77899 | 82° | 153km/h | 9798m | -2.9m/s | -45.6°C | 19.8% | 277.9hPa | 2.5V | 07:57:00 | 00:00:00 | 00:00:00 | |
| DB0DAN | 2026-09-05 06:17:10 | 52.23988 | 16.77706 | 79° | 157km/h | 9806m | -2.8m/s | -45.7°C | 19.8% | 277.63hPa | 2.5V | 00:00:00 | 00:00:00 | 00:00:00 | |
| 3Z3Z-3 | 2026-09-05 06:17:08 | 52.23980 | 16.77638 | 81° | 166km/h | 9809m | -2.8m/s | -45.8°C | 19.8% | 277.5hPa | 2.5V | 07:57:00 | 00:00:00 | 00:00:00 | |
| KRY50SP-1 | 2026-09-05 06:17:06 | 52.23965 | 16.77501 | 81° | 173km/h | 9815m | -2.9m/s | -45.8°C | 19.9% | 277.3hPa | 2.5V | 07:57:00 | 00:00:00 | 00:00:00 | |
| EDDB2-11 | 2026-09-05 06:17:05 | 52.23953 | 16.77359 | 84° | 173km/h | 9821m | -2.8m/s | -45.9°C | 20.0% | 277.0hPa | 2.5V | 00:00:00 | 00:00:00 | 00:00:00 | |
| EDDB2-12 | 2026-09-05 06:16:59 | 52.23930 | 16.76890 | 82° | 151km/h | 9842m | -2.7m/s | -46.1°C | 20.2% | 276.2hPa | 2.5V | 00:00:00 | 00:00:00 | 00:00:00 | |
| SONDE2-11 | 2026-09-05 06:16:58 | 52.23925 | 16.76827 | 81° | 153km/h | 9845m | -2.7m/s | -46.1°C | 20.3% | 276.1hPa | 2.5V | 00:00:00 | 00:00:00 | 00:00:00 | |
| 3Z3Z-3 | 2026-09-05 06:16:57 | 52.23930 | 16.76890 | 84° | 153km/h | 9842m | -2.7m/s | -46.1°C | 20.2% | 276.2hPa | 2.5V | 07:57:00 | 00:00:00 | 00:00:00 | |
| SP6BVK | 2026-09-05 06:16:55 | 52.23912 | 16.76700 | 80° | 159km/h | 9850m | -2.5m/s | -46.1°C | 20.3% | 275.8hPa | 2.5V | 07:57:00 | 00:00:00 | 00:00:00 | |
| KRY50SP-1 | 2026-09-05 06:16:49 | 52.23873 | 16.76357 | 82° | 177km/h | 9864m | -3.2m/s | -46.3°C | 20.2% | 275.3hPa | 2.5V | 07:57:00 | 00:00:00 | 00:00:00 | |
| 3Z3Z-3 | 2026-09-05 06:16:44 | 52.23851 | 16.75937 | 87° | 159km/h | 9882m | -2.6m/s | -46.4°C | 21.2% | 274.5hPa | 2.5V | 07:57:00 | 00:00:00 | 00:00:00 | |
| KRY50SP-1 | 2026-09-05 06:16:43 | 52.23851 | 16.75937 | 87° | 159km/h | 9882m | -2.6m/s | -46.4°C | 21.2% | 274.5hPa | 2.5V | 07:57:00 | 00:00:00 | 00:00:00 | |
| KRY50SP-1 | 2026-09-05 06:16:38 | 52.23823 | 16.75618 | 80° | 161km/h | 9896m | -3.1m/s | -46.6°C | 20.4% | 274.0hPa | 2.5V | 07:57:00 | 00:00:00 | 00:00:00 | |
| SP3BTT-10 | 2026-09-05 06:16:35 | 52.23788 | 16.75349 | 79° | 168km/h | 9908m | -3.0m/s | -46.6°C | 24.1% | 273.5hPa | 2.5V | 00:00:00 | 00:00:00 | 00:00:00 | |
| EDDB2-11 | 2026-09-05 06:16:34 | 52.23780 | 16.75277 | 80° | 175km/h | 9910m | -2.3m/s | -46.7°C | 20.0% | 273.4hPa | 2.5V | 00:00:00 | 00:00:00 | 00:00:00 | |
| SP3WXH-11 | 2026-09-05 06:16:33 | 52.23773 | 16.75205 | 82° | 175km/h | 9913m | -2.6m/s | -46.7°C | 20.1% | 273.3hPa | 2.5V | 00:00:00 | 00:00:00 | 00:00:00 | |
| 3Z3Z-3 | 2026-09-05 06:16:32 | 52.23773 | 16.75205 | 83° | 175km/h | 9913m | -2.6m/s | -46.7°C | 20.1% | 273.3hPa | 2.5V | 07:57:00 | 00:00:00 | 00:00:00 | |
| EDDB2-12 | 2026-09-05 06:16:28 | 52.23748 | 16.74789 | 84° | 157km/h | 9928m | -2.6m/s | -46.8°C | 20.1% | 272.6hPa | 2.5V | 00:00:00 | 00:00:00 | 00:00:00 | |
| SONDE2-11 | 2026-09-05 06:16:27 | 52.23744 | 16.74726 | 82° | 155km/h | 9931m | -2.7m/s | -46.8°C | 19.9% | 272.5hPa | 2.5V | 00:00:00 | 00:00:00 | 00:00:00 | |
| 3Z3Z-3 | 2026-09-05 06:16:22 | 52.23724 | 16.74534 | 80° | 161km/h | 9940m | -2.7m/s | -46.8°C | 19.3% | 272.1hPa | 2.5V | 07:58:00 | 00:00:00 | 00:00:00 | |
| KRY50SP-1 | 2026-09-05 06:16:21 | 52.23716 | 16.74469 | 79° | 162km/h | 9943m | -2.7m/s | -46.9°C | 19.2% | 272.1hPa | 2.5V | 07:58:00 | 00:00:00 | 00:00:00 | |
| KRY50SP-1 | 2026-09-05 06:16:16 | 52.23674 | 16.74120 | 82° | 179km/h | 9956m | -2.7m/s | -46.9°C | 19.1% | 271.5hPa | 2.5V | 07:58:00 | 00:00:00 | 00:00:00 | |
| SP6BVK | 2026-09-05 06:16:13 | 52.23659 | 16.73903 | 86° | 170km/h | 9965m | -2.6m/s | -46.9°C | 19.3% | 271.1hPa | 2.5V | 07:58:00 | 00:00:00 | 00:00:00 | |
| 13BRC | 2026-09-05 06:16:12 | 52.23656 | 16.73834 | 86° | 166km/h | 9967m | -2.5m/s | -47.0°C | 19.3% | 271.0hPa | 2.5V | 00:00:00 | 00:00:00 | 00:00:00 | |
| DB0DAN | 2026-09-05 06:16:10 | 52.23643 | 16.73635 | 83° | 150km/h | 9975m | -2.7m/s | -47°C | 19.8% | 270.7hPa | 2.5V | 00:00:00 | 00:00:00 | 00:00:00 | |
| KRY50SP-1 | 2026-09-05 06:16:05 | 52.23615 | 16.73376 | 79° | 168km/h | 9987m | -2.3m/s | -47.1°C | 20.2% | 270.3hPa | 2.5V | 07:58:00 | 00:00:00 | 00:00:00 | |
| EDDB2-11 | 2026-09-05 06:16:03 | 52.23589 | 16.73167 | 80° | 173km/h | 9994m | -1.8m/s | -47.2°C | 20.2% | 269.9hPa | 2.5V | 00:00:00 | 00:00:00 | 00:00:00 | |
| SP3WXH-11 | 2026-09-05 06:16:02 | 52.23582 | 16.73095 | 81° | 179km/h | 9996m | -2.4m/s | -47.3°C | 20.1% | 269.9hPa | 2.5V | 00:00:00 | 00:00:00 | 00:00:00 | |
| EDDB2-12 | 2026-09-05 06:15:57 | 52.23558 | 16.72670 | 86° | 161km/h | 10011m | -3.0m/s | -47.4°C | 19.7% | 269.1hPa | 2.5V | 00:00:00 | 00:00:00 | 00:00:00 | |
| SONDE2-11 | 2026-09-05 06:15:56 | 52.23555 | 16.72604 | 85° | 159km/h | 10015m | -2.8m/s | -47.4°C | 19.7% | 269.1hPa | 2.5V | 00:00:00 | 00:00:00 | 00:00:00 | |
| KRY50SP-1 | 2026-09-05 06:15:55 | 52.23558 | 16.72670 | 87° | 161km/h | 10011m | -3.0m/s | -47.4°C | 19.7% | 269.2hPa | 2.5V | 07:58:00 | 00:00:00 | 00:00:00 | |
| SP6BVK | 2026-09-05 06:15:53 | 52.23551 | 16.72539 | 85° | 157km/h | 10017m | -2.5m/s | -47.4°C | 19.8% | 268.9hPa | 2.5V | 07:58:00 | 00:00:00 | 00:00:00 | |
| SP3BTT-10 | 2026-09-05 06:15:51 | 52.23533 | 16.72348 | 80° | 172km/h | 10025m | -2.6m/s | -47.4°C | 24.1% | 268.5hPa | 2.5V | 00:00:00 | 00:00:00 | 00:00:00 | |
| KRY50SP-1 | 2026-09-05 06:15:50 | 52.23533 | 16.72348 | 80° | 161km/h | 10025m | -2.7m/s | -47.5°C | 19.8% | 268.6hPa | 2.5V | 07:58:00 | 00:00:00 | 00:00:00 | |
| KRY50SP-1 | 2026-09-05 06:15:45 | 52.23492 | 16.72004 | 82° | 177km/h | 10039m | -2.3m/s | -47.4°C | 19.5% | 268.0hPa | 2.5V | 07:58:00 | 00:00:00 | 00:00:00 | |
| 3Z3Z-3 | 2026-09-05 06:15:40 | 52.23464 | 16.71639 | 86° | 173km/h | 10053m | -2.8m/s | -47.5°C | 20.1% | 267.6hPa | 2.5V | 07:58:00 | 00:00:00 | 00:00:00 | |
| KRY50SP-1 | 2026-09-05 06:15:39 | 52.23460 | 16.71570 | 85° | 168km/h | 10056m | -2.6m/s | -47.5°C | 20.0% | 267.4hPa | 2.5V | 07:58:00 | 00:00:00 | 00:00:00 | |
| 13BRC | 2026-09-05 06:15:36 | 52.23445 | 16.71371 | 81° | 161km/h | 10063m | -2.3m/s | -47.5°C | 19.6% | 267.1hPa | 2.5V | 00:00:00 | 00:00:00 | 00:00:00 | |
| KRY50SP-1 | 2026-09-05 06:15:34 | 52.23430 | 16.71241 | 80° | 162km/h | 10068m | -2.3m/s | -47.5°C | 19.5% | 266.9hPa | 2.5V | 07:58:00 | 00:00:00 | 00:00:00 | |
| SP6BVK | 2026-09-05 06:15:33 | 52.23421 | 16.71175 | 79° | 168km/h | 10071m | -2.7m/s | -47.6°C | 19.4% | 266.8hPa | 2.5V | 07:58:00 | 00:00:00 | 00:00:00 | |
| SP3WXH-11 | 2026-09-05 06:15:31 | 52.23394 | 16.70968 | 78° | 173km/h | 10080m | -2.6m/s | -47.6°C | 19.5% | 266.4hPa | 2.5V | 00:00:00 | 00:00:00 | 00:00:00 | |
| 3Z3Z-3 | 2026-09-05 06:15:29 | 52.23385 | 16.70897 | 81° | 177km/h | 10082m | -2.0m/s | -47.6°C | 19.6% | 266.4hPa | 2.5V | 07:59:00 | 00:00:00 | 00:00:00 | |
| KRY50SP-1 | 2026-09-05 06:15:28 | 52.23377 | 16.70824 | 81° | 183km/h | 10085m | -2.3m/s | -47.6°C | 19.8% | 266.2hPa | 2.5V | 07:59:00 | 00:00:00 | 00:00:00 | |
| EDDB2-12 | 2026-09-05 06:15:26 | 52.23355 | 16.70532 | 85° | 173km/h | 10094m | -2.5m/s | -47.6°C | 19.9% | 265.9hPa | 2.5V | 00:00:00 | 00:00:00 | 00:00:00 | |
| SONDE2-11 | 2026-09-05 06:15:25 | 52.23352 | 16.70462 | 85° | 166km/h | 10096m | -2.0m/s | -47.6°C | 19.8% | 265.8hPa | 2.5V | 00:00:00 | 00:00:00 | 00:00:00 | |
| KRY50SP-1 | 2026-09-05 06:15:23 | 52.23352 | 16.70462 | 86° | 168km/h | 10096m | -2.0m/s | -47.6°C | 19.8% | 265.8hPa | 2.5V | 07:59:00 | 00:00:00 | 00:00:00 | |
| 3Z3Z-3 | 2026-09-05 06:15:19 | 52.23334 | 16.70197 | 83° | 159km/h | 10107m | -2.7m/s | -47.6°C | 19.5% | 265.3hPa | 2.5V | 07:59:00 | 00:00:00 | 00:00:00 | |
| KRY50SP-1 | 2026-09-05 06:15:18 | 52.23327 | 16.70133 | 80° | 157km/h | 10110m | -2.7m/s | -47.6°C | 19.6% | 265.3hPa | 2.5V | 07:59:00 | 00:00:00 | 00:00:00 | |
| 13BRC | 2026-09-05 06:15:15 | 52.23302 | 16.69936 | 79° | 172km/h | 10117m | -2.5m/s | -47.5°C | 19.6% | 264.9hPa | 2.5V | 00:00:00 | 00:00:00 | 00:00:00 | |
| KRY50SP-1 | 2026-09-05 06:15:12 | 52.23276 | 16.69723 | 82° | 179km/h | 10125m | -2.3m/s | -47.5°C | 19.2% | 264.7hPa | 2.5V | 07:59:00 | 00:00:00 | 00:00:00 | |
| DB0DAN | 2026-09-05 06:15:10 | 52.23258 | 16.69502 | 84° | 170km/h | 10132m | -2.7m/s | -47.5°C | 18.8% | 264.4hPa | 2.5V | 00:00:00 | 00:00:00 | 00:00:00 | |
| KRY50SP-1 | 2026-09-05 06:15:08 | 52.23251 | 16.69359 | 87° | 168km/h | 10138m | -2.3m/s | -47.6°C | 18.6% | 264.2hPa | 2.5V | 07:59:00 | 00:00:00 | 00:00:00 | |
| SP3BTT-10 | 2026-09-05 06:15:05 | 52.23239 | 16.69158 | 85° | 170km/h | 10145m | -2.7m/s | -47.6°C | 22.8% | 263.8hPa | 2.5V | 00:00:00 | 00:00:00 | 00:00:00 | |
| EDDB2-11 | 2026-09-05 06:15:01 | 52.23206 | 16.68831 | 78° | 170km/h | 10159m | -1.8m/s | -47.7°C | 19.6% | 263.4hPa | 2.5V | 00:00:00 | 00:00:00 | 00:00:00 | |
| SP3WXH-11 | 2026-09-05 06:15:00 | 52.23206 | 16.68831 | 78° | 170km/h | 10159m | -1.8m/s | -47.7°C | 19.6% | 263.4hPa | 2.5V | 00:00:00 | 00:00:00 | 00:00:00 | |
| DB0DAN | 2026-09-05 06:14:55 | 52.23171 | 16.68473 | 84° | 172km/h | 10169m | -2.1m/s | -47.8°C | 19.2% | 262.95hPa | 2.5V | 00:00:00 | 00:00:00 | 00:00:00 | |
| SONDE2-11 | 2026-09-05 06:14:54 | 52.23162 | 16.68327 | 84° | 177km/h | 10174m | -2.1m/s | -47.8°C | 18.9% | 262.7hPa | 2.6V | 00:00:00 | 00:00:00 | 00:00:00 | |
| 13BRC | 2026-09-05 06:14:45 | 52.23137 | 16.67854 | 82° | 159km/h | 10193m | -2.1m/s | -47.7°C | 17.8% | 262.0hPa | 2.6V | 00:00:00 | 00:00:00 | 00:00:00 | |
| DB0DAN | 2026-09-05 06:14:40 | 52.23088 | 16.67444 | 80° | 172km/h | 10206m | -3m/s | -47.7°C | 17.2% | 261.46hPa | 2.6V | 00:00:00 | 00:00:00 | 00:00:00 | |
| KRY50SP-1 | 2026-09-05 06:14:34 | 52.23063 | 16.67081 | 87° | 172km/h | 10220m | -2.3m/s | -47.7°C | 17.6% | 260.9hPa | 2.6V | 08:00:00 | 00:00:00 | 00:00:00 | |
| SP6BVK | 2026-09-05 06:14:31 | 52.23051 | 16.66879 | 83° | 159km/h | 10227m | -2.3m/s | -47.6°C | 17.1% | 260.7hPa | 2.6V | 08:00:00 | 00:00:00 | 00:00:00 | |
| EDDB2-11 | 2026-09-05 06:14:30 | 52.23031 | 16.66682 | 79° | 166km/h | 10234m | -1.7m/s | -47.7°C | 16.5% | 260.4hPa | 2.6V | 00:00:00 | 00:00:00 | 00:00:00 | |
| SP3WXH-11 | 2026-09-05 06:14:29 | 52.23031 | 16.66682 | 79° | 166km/h | 10234m | -1.7m/s | -47.7°C | 16.5% | 260.4hPa | 2.6V | 00:00:00 | 00:00:00 | 00:00:00 | |
| DB0DAN | 2026-09-05 06:14:25 | 52.22996 | 16.66403 | 80° | 170km/h | 10243m | -2m/s | -47.6°C | 15.8% | 259.99hPa | 2.6V | 00:00:00 | 00:00:00 | 00:00:00 | |
| 13BRC | 2026-09-05 06:14:25 | 52.22996 | 16.66403 | 81° | 179km/h | 10243m | -2.0m/s | -47.6°C | 15.8% | 260.0hPa | 2.6V | 08:00:00 | 00:00:00 | 00:00:00 | |
| KRY50SP-1 | 2026-09-05 06:14:24 | 52.22996 | 16.66403 | 81° | 179km/h | 10243m | -2.0m/s | -47.6°C | 15.8% | 260.0hPa | 2.6V | 08:00:00 | 00:00:00 | 00:00:00 | |
| EDDB2-12 | 2026-09-05 06:14:23 | 52.22981 | 16.66256 | 81° | 183km/h | 10247m | -2.0m/s | -47.6°C | 15.7% | 259.8hPa | 2.6V | 00:00:00 | 00:00:00 | 00:00:00 | |
| SONDE2-11 | 2026-09-05 06:14:22 | 52.22974 | 16.66181 | 82° | 184km/h | 10249m | -1.9m/s | -47.5°C | 15.7% | 259.7hPa | 2.6V | 00:00:00 | 00:00:00 | 00:00:00 | |
| SP3BTT-10 | 2026-09-05 06:14:20 | 52.22964 | 16.66031 | 86° | 173km/h | 10254m | -2.1m/s | -47.4°C | 19.7% | 259.5hPa | 2.6V | 00:00:00 | 00:00:00 | 00:00:00 | |
| KRY50SP-1 | 2026-09-05 06:14:19 | 52.22964 | 16.66031 | 86° | 177km/h | 10254m | -2.1m/s | -47.5°C | 15.8% | 259.5hPa | 2.6V | 08:00:00 | 00:00:00 | 00:00:00 | |
| KRY50SP-1 | 2026-09-05 06:14:14 | 52.22943 | 16.65685 | 83° | 161km/h | 10266m | -2.3m/s | -47.5°C | 15.5% | 259.1hPa | 2.6V | 08:00:00 | 00:00:00 | 00:00:00 | |
| DB0DAN | 2026-09-05 06:14:10 | 52.22902 | 16.65350 | 77° | 164km/h | 10278m | -2m/s | -47.5°C | 14.7% | 258.66hPa | 2.6V | 00:00:00 | 00:00:00 | 00:00:00 | |
| 3Z3Z-3 | 2026-09-05 06:14:09 | 52.22902 | 16.65350 | 78° | 173km/h | 10278m | -2.0m/s | -47.5°C | 14.7% | 258.7hPa | 2.5V | 08:00:00 | 00:00:00 | 00:00:00 | |
| KRY50SP-1 | 2026-09-05 06:14:08 | 52.22892 | 16.65280 | 78° | 175km/h | 10281m | -2.0m/s | -47.5°C | 14.6% | 258.5hPa | 2.5V | 08:00:00 | 00:00:00 | 00:00:00 | |
| 13BRC | 2026-09-05 06:14:04 | 52.22859 | 16.64984 | 83° | 184km/h | 10290m | -2.1m/s | -47.6°C | 15.1% | 258.2hPa | 2.5V | 08:00:00 | 00:00:00 | 00:00:00 | |
| KRY50SP-1 | 2026-09-05 06:14:03 | 52.22853 | 16.64910 | 84° | 181km/h | 10292m | -1.9m/s | -47.6°C | 15.3% | 258.0hPa | 2.5V | 08:00:00 | 00:00:00 | 00:00:00 | |
| EDDB2-11 | 2026-09-05 06:13:59 | 52.22817 | 16.64491 | 79° | 166km/h | 10306m | -1.8m/s | -47.7°C | 15.0% | 257.6hPa | 2.5V | 00:00:00 | 00:00:00 | 00:00:00 | |
| SP3WXH-11 | 2026-09-05 06:13:58 | 52.22817 | 16.64491 | 79° | 166km/h | 10306m | -1.8m/s | -47.7°C | 15.0% | 257.6hPa | 2.5V | 00:00:00 | 00:00:00 | 00:00:00 | |
| KRY50SP-1 | 2026-09-05 06:13:57 | 52.22817 | 16.64491 | 80° | 168km/h | 10306m | -1.8m/s | -47.7°C | 15.0% | 257.5hPa | 2.5V | 08:00:00 | 00:00:00 | 00:00:00 | |
| DB0DAN | 2026-09-05 06:13:55 | 52.22790 | 16.64286 | 77° | 164km/h | 10313m | -1.7m/s | -47.7°C | 14.4% | 257.26hPa | 2.5V | 00:00:00 | 00:00:00 | 00:00:00 | |
| EDDB2-12 | 2026-09-05 06:13:52 | 52.22760 | 16.64074 | 77° | 181km/h | 10318m | -1.8m/s | -47.7°C | 14.0% | 257.0hPa | 2.6V | 00:00:00 | 00:00:00 | 00:00:00 | |
| KRY50SP-1 | 2026-09-05 06:13:51 | 52.22760 | 16.64074 | 78° | 181km/h | 10318m | -1.8m/s | -47.7°C | 14.0% | 257.0hPa | 2.6V | 08:00:00 | 00:00:00 | 00:00:00 | |
| SP6BVK | 2026-09-05 06:13:49 | 52.22740 | 16.63925 | 80° | 188km/h | 10323m | -2.6m/s | -47.7°C | 14.0% | 256.8hPa | 2.6V | 08:00:00 | 00:00:00 | 00:00:00 | |
| 3Z3Z-3 | 2026-09-05 06:13:47 | 52.22725 | 16.63773 | 83° | 186km/h | 10327m | -2.1m/s | -47.7°C | 14.3% | 256.6hPa | 2.6V | 00:00:00 | 00:00:00 | 00:00:00 | |
| KRY50SP-1 | 2026-09-05 06:13:46 | 52.22718 | 16.63696 | 83° | 188km/h | 10329m | -2.6m/s | -47.7°C | 14.5% | 256.6hPa | 2.6V | 08:00:00 | 00:00:00 | 00:00:00 | |
| 13BRC | 2026-09-05 06:13:44 | 52.22700 | 16.63478 | 82° | 172km/h | 10336m | -2.5m/s | -47.7°C | 14.7% | 256.3hPa | 2.6V | 08:00:00 | 00:00:00 | 00:00:00 | |
| DB0DAN | 2026-09-05 06:13:40 | 52.22667 | 16.63206 | 76° | 161km/h | 10345m | -2.2m/s | -47.8°C | 13.9% | 255.94hPa | 2.6V | 00:00:00 | 00:00:00 | 00:00:00 | |
| 3Z3Z-3 | 2026-09-05 06:13:37 | 52.22645 | 16.63068 | 76° | 177km/h | 10350m | -2.3m/s | -47.8°C | 13.5% | 255.8hPa | 2.5V | 00:00:00 | 00:00:00 | 00:00:00 | |
| KRY50SP-1 | 2026-09-05 06:13:36 | 52.22633 | 16.62996 | 76° | 183km/h | 10352m | -2.5m/s | -47.9°C | 13.5% | 255.7hPa | 2.5V | 08:00:00 | 00:00:00 | 00:00:00 | |
| SP3BTT-10 | 2026-09-05 06:13:35 | 52.22610 | 16.62848 | 77° | 192km/h | 10357m | -2.1m/s | -47.8°C | 17.0% | 255.5hPa | 2.5V | 00:00:00 | 00:00:00 | 00:00:00 | |
| KRY50SP-1 | 2026-09-05 06:13:31 | 52.22581 | 16.62618 | 81° | 188km/h | 10363m | -2.5m/s | -47.8°C | 13.6% | 255.2hPa | 2.5V | 08:00:00 | 00:00:00 | 00:00:00 | |
| SP6BVK | 2026-09-05 06:13:29 | 52.22567 | 16.62466 | 82° | 186km/h | 10369m | -2.5m/s | -47.8°C | 13.9% | 255.1hPa | 2.5V | 08:00:00 | 00:00:00 | 00:00:00 | |
| DB0DAN | 2026-09-05 06:13:25 | 52.22525 | 16.62109 | 76° | 166km/h | 10380m | -1.6m/s | -47.8°C | 13.7% | 254.68hPa | 2.5V | 00:00:00 | 00:00:00 | 00:00:00 | |
| AA1-15 | 2026-09-05 06:13:25 | 52.22525 | 16.62109 | 76° | 173km/h | 10380m | -1.6m/s | -47.8°C | 17.8% | 254.7hPa | 2.5V | 08:01:44 | 02:04:30 | 00:00:00 | |
| AA1-15 | 2026-09-05 06:13:14 | 52.22398 | 16.61297 | 80° | 192km/h | 10403m | -2.5m/s | -48°C | 17.2% | 253.6hPa | 2.5V | 08:01:44 | 02:04:19 | 00:00:00 | |
| AA1-15 | 2026-09-05 06:13:03 | 52.22276 | 16.60490 | 74° | 193km/h | 10425m | -2.7m/s | -48°C | 16.7% | 252.6hPa | 2.6V | 08:01:44 | 02:04:08 | 00:00:00 | |
| EDDB2-11 | 2026-09-05 06:12:57 | 52.22199 | 16.59936 | 79° | 190km/h | 10442m | -2.7m/s | -47.9°C | 12.6% | 251.9hPa | 2.5V | 00:00:00 | 00:00:00 | 00:00:00 | |
| SP3WXH-11 | 2026-09-05 06:12:56 | 52.22199 | 16.59936 | 79° | 190km/h | 10442m | -2.7m/s | -47.9°C | 12.6% | 251.9hPa | 2.5V | 00:00:00 | 00:00:00 | 00:00:00 | |
| EDDB2-12 | 2026-09-05 06:12:50 | 52.22138 | 16.59498 | 73° | 183km/h | 10456m | -2.7m/s | -47.8°C | 12.5% | 251.4hPa | 2.5V | 00:00:00 | 00:00:00 | 00:00:00 | |
| SP6BVK | 2026-09-05 06:12:49 | 52.22124 | 16.59425 | 74° | 190km/h | 10458m | -2.7m/s | -47.7°C | 12.3% | 251.3hPa | 2.5V | 08:01:00 | 00:00:00 | 00:00:00 | |
| KRY50SP-1 | 2026-09-05 06:12:47 | 52.22110 | 16.59349 | 74° | 193km/h | 10461m | -2.6m/s | -47.7°C | 12.2% | 251.1hPa | 2.5V | 08:01:00 | 00:00:00 | 00:00:00 | |
| 13BRC | 2026-09-05 06:12:43 | 52.22055 | 16.59032 | 77° | 206km/h | 10471m | -2.6m/s | -47.8°C | 11.9% | 250.7hPa | 2.5V | 08:01:00 | 00:00:00 | 00:00:00 | |
| KRY50SP-1 | 2026-09-05 06:12:41 | 52.22032 | 16.58867 | 80° | 204km/h | 10476m | -2.9m/s | -47.9°C | 11.8% | 250.5hPa | 2.5V | 08:01:00 | 00:00:00 | 00:00:00 | |
| 3Z3Z-3 | 2026-09-05 06:12:38 | 52.22006 | 16.58627 | 82° | 190km/h | 10484m | -2.7m/s | -47.8°C | 12.2% | 250.2hPa | 2.5V | 00:00:00 | 00:00:00 | 00:00:00 | |
| KRY50SP-1 | 2026-09-05 06:12:37 | 52.21990 | 16.58476 | 80° | 183km/h | 10488m | -2.7m/s | -47.8°C | 12.5% | 250.0hPa | 2.5V | 08:01:00 | 00:00:00 | 00:00:00 | |
| KRY50SP-1 | 2026-09-05 06:12:30 | 52.21916 | 16.58030 | 74° | 197km/h | 10503m | -3.0m/s | -47.9°C | 12.2% | 249.4hPa | 2.5V | 08:01:00 | 00:00:00 | 00:00:00 | |
| AA1-15 | 2026-09-05 06:12:11 | 52.21684 | 16.56444 | 76° | 212km/h | 10559m | -3.5m/s | -48.3°C | 16.3% | 247.2hPa | 2.5V | 08:01:44 | 02:03:16 | 00:00:00 | |
| AA1-15 | 2026-09-05 06:12:00 | 52.21572 | 16.55550 | 74° | 190km/h | 10592m | -3m/s | -48.5°C | 16.4% | 246.1hPa | 2.5V | 08:11:56 | 02:03:05 | 00:00:00 | |
| AA1-15 | 2026-09-05 06:11:49 | 52.21428 | 16.54649 | 80° | 204km/h | 10625m | -3.3m/s | -48.6°C | 15.8% | 244.8hPa | 2.6V | 08:11:56 | 02:02:54 | 00:00:00 | |
| EDDB2-12 | 2026-09-05 06:11:48 | 52.21419 | 16.54566 | 80° | 201km/h | 10628m | -3.3m/s | -48.6°C | 11.9% | 244.7hPa | 2.6V | 00:00:00 | 00:00:00 | 00:00:00 | |
| SONDE2-11 | 2026-09-05 06:11:47 | 52.21411 | 16.54486 | 80° | 193km/h | 10631m | -3.6m/s | -48.6°C | 11.8% | 244.6hPa | 2.6V | 00:00:00 | 00:00:00 | 00:00:00 | |
| SP6BVK | 2026-09-05 06:11:45 | 52.21402 | 16.54408 | 80° | 190km/h | 10635m | -3.3m/s | -48.6°C | 11.6% | 244.4hPa | 2.6V | 08:02:00 | 00:00:00 | 00:00:00 | |
| 3Z3Z-3 | 2026-09-05 06:11:44 | 52.21392 | 16.54331 | 79° | 188km/h | 10638m | -3.5m/s | -48.6°C | 11.6% | 244.3hPa | 2.6V | 00:00:00 | 00:00:00 | 00:00:00 | |
| KRY50SP-1 | 2026-09-05 06:11:42 | 52.21370 | 16.54181 | 76° | 188km/h | 10644m | -3.4m/s | -48.6°C | 11.5% | 244.1hPa | 2.6V | 08:02:00 | 00:00:00 | 00:00:00 | |
| DB0DAN | 2026-09-05 06:11:40 | 52.21328 | 16.53951 | 73° | 190km/h | 10654m | -3.1m/s | -48.5°C | 11.6% | 243.75hPa | 2.6V | 00:00:00 | 00:00:00 | 00:00:00 | |
| AA1-15 | 2026-09-05 06:11:38 | 52.21298 | 16.53790 | 74° | 210km/h | 10660m | -3.3m/s | -48.5°C | 15.4% | 243.5hPa | 2.5V | 08:11:56 | 02:02:43 | 00:00:00 | |
| AA1-15 | 2026-09-05 06:11:27 | 52.21185 | 16.52896 | 77° | 186km/h | 10695m | -3.4m/s | -48.7°C | 15.2% | 242.2hPa | 2.6V | 08:11:56 | 02:02:32 | 00:00:00 | |
| DB0DAN | 2026-09-05 06:11:25 | 52.21162 | 16.52748 | 74° | 179km/h | 10701m | -3.6m/s | -48.7°C | 11.5% | 241.95hPa | 2.5V | 00:00:00 | 00:00:00 | 00:00:00 | |
| AA1-15 | 2026-09-05 06:11:16 | 52.21046 | 16.52016 | 80° | 208km/h | 10732m | -3.8m/s | -48.9°C | 15.3% | 240.8hPa | 2.5V | 08:11:56 | 02:02:21 | 00:00:00 | |
| DB0DAN | 2026-09-05 06:11:10 | 52.20997 | 16.51533 | 80° | 179km/h | 10753m | -3.5m/s | -49°C | 11.1% | 240.05hPa | 2.5V | 00:00:00 | 00:00:00 | 00:00:00 | |
| KRY50SP-1 | 2026-09-05 06:11:04 | 52.20942 | 16.51155 | 76° | 197km/h | 10769m | -3.4m/s | -49.1°C | 11.5% | 239.5hPa | 2.5V | 08:03:00 | 00:00:00 | 00:00:00 | |
| KRY50SP-1 | 2026-09-05 06:10:59 | 52.20882 | 16.50740 | 81° | 210km/h | 10786m | -3.8m/s | -49.2°C | 10.8% | 238.8hPa | 2.5V | 08:03:00 | 00:00:00 | 00:00:00 | |
| 13BRC | 2026-09-05 06:10:57 | 52.20866 | 16.50572 | 83° | 204km/h | 10793m | -3.7m/s | -49.2°C | 10.7% | 238.6hPa | 2.5V | 08:03:00 | 00:00:00 | 00:00:00 | |
| DB0DAN | 2026-09-05 06:10:55 | 52.20845 | 16.50327 | 82° | 186km/h | 10803m | -3.4m/s | -49.2°C | 10.8% | 238.17hPa | 2.5V | 00:00:00 | 00:00:00 | 00:00:00 | |
| EDDB2-11 | 2026-09-05 06:10:53 | 52.20821 | 16.50096 | 78° | 186km/h | 10812m | -3.3m/s | -49.1°C | 11.0% | 237.8hPa | 2.5V | 00:00:00 | 00:00:00 | 00:00:00 | |
| SP3WXH-11 | 2026-09-05 06:10:52 | 52.20821 | 16.50096 | 78° | 186km/h | 10812m | -3.3m/s | -49.1°C | 11.0% | 237.8hPa | 2.5V | 00:00:00 | 00:00:00 | 00:00:00 | |
| EDDB2-12 | 2026-09-05 06:10:46 | 52.20748 | 16.49621 | 76° | 210km/h | 10833m | -4.0m/s | -49.3°C | 10.4% | 237.2hPa | 2.5V | 00:00:00 | 00:00:00 | 00:00:00 | |
| SONDE2-11 | 2026-09-05 06:10:45 | 52.20737 | 16.49537 | 78° | 210km/h | 10837m | -3.7m/s | -49.3°C | 10.3% | 237.0hPa | 2.5V | 00:00:00 | 00:00:00 | 00:00:00 | |
| SP6BVK | 2026-09-05 06:10:44 | 52.20737 | 16.49536 | 79° | 212km/h | 10837m | -3.7m/s | -49.3°C | 10.3% | 237.0hPa | 2.5V | 08:03:00 | 00:00:00 | 00:00:00 | |
| KRY50SP-1 | 2026-09-05 06:10:42 | 52.20716 | 16.49365 | 80° | 214km/h | 10844m | -3.5m/s | -49.3°C | 10.2% | 236.7hPa | 2.5V | 08:03:00 | 00:00:00 | 00:00:00 | |
| DB0DAN | 2026-09-05 06:10:40 | 52.20692 | 16.49110 | 83° | 195km/h | 10855m | -3.7m/s | -49.4°C | 10.4% | 236.36hPa | 2.5V | 00:00:00 | 00:00:00 | 00:00:00 | |
| 3Z3Z-3 | 2026-09-05 06:10:38 | 52.20679 | 16.48945 | 83° | 197km/h | 10861m | -3.5m/s | -49.3°C | 10.5% | 236.1hPa | 2.6V | 00:00:00 | 00:00:00 | 00:00:00 | |
| 13BRC | 2026-09-05 06:10:37 | 52.20679 | 16.48945 | 83° | 197km/h | 10861m | -3.5m/s | -49.3°C | 10.5% | 236.1hPa | 2.6V | 08:03:00 | 00:00:00 | 00:00:00 | |
| KRY50SP-1 | 2026-09-05 06:10:36 | 52.20671 | 16.48866 | 82° | 193km/h | 10864m | -3.5m/s | -49.2°C | 10.5% | 236.0hPa | 2.6V | 08:03:00 | 00:00:00 | 00:00:00 | |
| SP3BTT-10 | 2026-09-05 06:10:34 | 52.20644 | 16.48634 | 78° | 206km/h | 10874m | -3.5m/s | -49.1°C | 13.7% | 235.6hPa | 2.6V | 00:00:00 | 00:00:00 | 00:00:00 | |
| KRY50SP-1 | 2026-09-05 06:10:30 | 52.20608 | 16.48395 | 77° | 204km/h | 10884m | -3.8m/s | -49.1°C | 10.0% | 235.2hPa | 2.6V | 08:03:00 | 00:00:00 | 00:00:00 | |
| DB0DAN | 2026-09-05 06:10:25 | 52.20540 | 16.47880 | 81° | 206km/h | 10905m | -4m/s | -49.2°C | 9.5% | 234.54hPa | 2.6V | 00:00:00 | 00:00:00 | 00:00:00 | |
| SP6BVK | 2026-09-05 06:10:24 | 52.20540 | 16.47880 | 82° | 215km/h | 10905m | -4.0m/s | -49.2°C | 9.5% | 234.5hPa | 2.6V | 08:04:00 | 00:00:00 | 00:00:00 | |
| SP3WXH-11 | 2026-09-05 06:10:21 | 52.20513 | 16.47539 | 82° | 199km/h | 10919m | -3.2m/s | -49.1°C | 9.6% | 234.1hPa | 2.6V | 00:00:00 | 00:00:00 | 00:00:00 | |
| KRY50SP-1 | 2026-09-05 06:10:18 | 52.20499 | 16.47378 | 83° | 193km/h | 10926m | -3.4m/s | -49.0°C | 9.7% | 233.8hPa | 2.6V | 08:04:00 | 00:00:00 | 00:00:00 | |
| 13BRC | 2026-09-05 06:10:17 | 52.20491 | 16.47299 | 81° | 192km/h | 10929m | -3.4m/s | -49.0°C | 9.7% | 233.7hPa | 2.6V | 08:04:00 | 00:00:00 | 00:00:00 | |
| EDDB2-12 | 2026-09-05 06:10:15 | 52.20461 | 16.47063 | 76° | 203km/h | 10938m | -3.4m/s | -49.0°C | 9.7% | 233.4hPa | 2.6V | 00:00:00 | 00:00:00 | 00:00:00 | |
| SONDE2-11 | 2026-09-05 06:10:14 | 52.20448 | 16.46981 | 76° | 204km/h | 10941m | -3.7m/s | -49.0°C | 9.6% | 233.3hPa | 2.6V | 00:00:00 | 00:00:00 | 00:00:00 | |
| KRY50SP-1 | 2026-09-05 06:10:12 | 52.20435 | 16.46898 | 78° | 212km/h | 10945m | -3.9m/s | -49.0°C | 9.6% | 233.2hPa | 2.6V | 08:04:00 | 00:00:00 | 00:00:00 | |
| DB0DAN | 2026-09-05 06:10:10 | 52.20402 | 16.46637 | 80° | 206km/h | 10956m | -3.5m/s | -49.1°C | 9.4% | 232.8hPa | 2.6V | 00:00:00 | 00:00:00 | 00:00:00 | |
| S3001 | 2026-09-05 06:10:10 | 52.20392 | 16.46549 | 80° | 215km/h | 10959m | -3.6m/s | -49.1°C | 9.4% | 232.7hPa | 2.6V | 00:00:00 | 00:00:00 | 00:00:00 | |
| KRY50SP-1 | 2026-09-05 06:10:06 | 52.20377 | 16.46373 | 84° | 215km/h | 10966m | -3.7m/s | -49.1°C | 9.4% | 232.4hPa | 2.6V | 08:04:00 | 00:00:00 | 00:00:00 | |
| 3Z3Z-3 | 2026-09-05 06:10:04 | 52.20365 | 16.46199 | 86° | 208km/h | 10972m | -3.5m/s | -49.1°C | 9.4% | 232.2hPa | 2.6V | 00:00:00 | 00:00:00 | 00:00:00 | |
| SP6BVK | 2026-09-05 06:10:03 | 52.20359 | 16.46115 | 85° | 204km/h | 10976m | -3.4m/s | -49.1°C | 9.4% | 232.0hPa | 2.6V | 08:04:00 | 00:00:00 | 00:00:00 | |
| KRY50SP-1 | 2026-09-05 06:10:01 | 52.20347 | 16.45950 | 84° | 195km/h | 10982m | -3.4m/s | -49.1°C | 9.5% | 231.8hPa | 2.6V | 08:04:00 | 00:00:00 | 00:00:00 | |
| DB0DAN | 2026-09-05 06:09:55 | 52.20282 | 16.45390 | 77° | 199km/h | 11004m | -3.6m/s | -49.3°C | 9.7% | 231.04hPa | 2.6V | 00:00:00 | 00:00:00 | 00:00:00 | |
| SP3WXH-11 | 2026-09-05 06:09:50 | 52.20234 | 16.44950 | 82° | 217km/h | 11021m | -3.4m/s | -49.4°C | 9.6% | 230.5hPa | 2.5V | 00:00:00 | 00:00:00 | 00:00:00 | |
| SP3BTT-10 | 2026-09-05 06:09:49 | 52.20227 | 16.44862 | 83° | 204km/h | 11024m | -3.1m/s | -49.3°C | 13.0% | 230.3hPa | 2.5V | 00:00:00 | 00:00:00 | 00:00:00 | |
| KRY50SP-1 | 2026-09-05 06:09:44 | 52.20205 | 16.44519 | 85° | 201km/h | 11036m | -3.6m/s | -49.5°C | 9.8% | 229.9hPa | 2.5V | 08:04:00 | 00:00:00 | 00:00:00 | |
| SONDE2-11 | 2026-09-05 06:09:43 | 52.20194 | 16.44359 | 81° | 193km/h | 11042m | -3.3m/s | -49.5°C | 9.9% | 229.7hPa | 2.5V | 00:00:00 | 00:00:00 | 00:00:00 | |
| 3Z3Z-3 | 2026-09-05 06:09:42 | 52.20193 | 16.44358 | 83° | 195km/h | 11042m | -3.3m/s | -49.5°C | 9.9% | 229.7hPa | 2.5V | 00:00:00 | 00:00:00 | 00:00:00 | |
| DB0DAN | 2026-09-05 06:09:40 | 52.20168 | 16.44121 | 79° | 190km/h | 11051m | -3.2m/s | -49.6°C | 10% | 229.34hPa | 2.5V | 00:00:00 | 00:00:00 | 00:00:00 | |
| KRY50SP-1 | 2026-09-05 06:09:38 | 52.20158 | 16.44040 | 79° | 204km/h | 11054m | -3.4m/s | -49.6°C | 10.0% | 229.2hPa | 2.5V | 08:04:00 | 00:00:00 | 00:00:00 | |
| 13BRC | 2026-09-05 06:09:37 | 52.20136 | 16.43872 | 80° | 214km/h | 11060m | -3.4m/s | -49.7°C | 10.0% | 229.0hPa | 2.5V | 08:04:00 | 00:00:00 | 00:00:00 | |
| KRY50SP-1 | 2026-09-05 06:09:33 | 52.20106 | 16.43606 | 82° | 224km/h | 11071m | -3.9m/s | -49.8°C | 10.0% | 228.7hPa | 2.5V | 08:05:00 | 00:00:00 | 00:00:00 | |
| 3Z3Z-3 | 2026-09-05 06:09:32 | 52.20091 | 16.43427 | 84° | 219km/h | 11078m | -3.4m/s | -49.8°C | 10.0% | 228.5hPa | 2.5V | 08:05:00 | 00:00:00 | 00:00:00 | |
| KRY50SP-1 | 2026-09-05 06:09:28 | 52.20075 | 16.43163 | 86° | 210km/h | 11087m | -3.2m/s | -49.9°C | 10.0% | 228.1hPa | 2.5V | 08:05:00 | 00:00:00 | 00:00:00 | |
| DB0DAN | 2026-09-05 06:09:25 | 52.20054 | 16.42834 | 83° | 184km/h | 11098m | -3.4m/s | -50°C | 10.3% | 227.73hPa | 2.5V | 00:00:00 | 00:00:00 | 00:00:00 | |
| KRY50SP-1 | 2026-09-05 06:09:24 | 52.20047 | 16.42756 | 82° | 193km/h | 11101m | -3.2m/s | -50.0°C | 10.3% | 227.6hPa | 2.5V | 08:05:00 | 00:00:00 | 00:00:00 | |
| SP6BVK | 2026-09-05 06:09:21 | 52.20029 | 16.42597 | 79° | 199km/h | 11108m | -3.0m/s | -50.0°C | 10.4% | 227.4hPa | 2.5V | 08:05:00 | 00:00:00 | 00:00:00 | |
| 3Z3Z-3 | 2026-09-05 06:09:20 | 52.20018 | 16.42514 | 79° | 206km/h | 11110m | -3.1m/s | -50.1°C | 10.4% | 227.3hPa | 2.5V | 08:05:00 | 00:00:00 | 00:00:00 | |
| SP3WXH-11 | 2026-09-05 06:09:19 | 52.19997 | 16.42344 | 79° | 215km/h | 11116m | -3.4m/s | -50.1°C | 10.4% | 227.2hPa | 2.5V | 00:00:00 | 00:00:00 | 00:00:00 | |
| KRY50SP-1 | 2026-09-05 06:09:17 | 52.19987 | 16.42256 | 82° | 219km/h | 11119m | -3.3m/s | -50.1°C | 10.4% | 227.0hPa | 2.5V | 08:05:00 | 00:00:00 | 00:00:00 | |
| 13BRC | 2026-09-05 06:09:15 | 52.19972 | 16.42077 | 84° | 219km/h | 11126m | -2.9m/s | -50.2°C | 10.4% | 226.8hPa | 2.5V | 08:05:00 | 00:00:00 | 00:00:00 | |
| EDDB2-12 | 2026-09-05 06:09:13 | 52.19956 | 16.41810 | 85° | 212km/h | 11134m | -3.3m/s | -50.3°C | 10.4% | 226.5hPa | 2.5V | 00:00:00 | 00:00:00 | 00:00:00 | |
| DB0DAN | 2026-09-05 06:09:10 | 52.19945 | 16.41557 | 86° | 190km/h | 11143m | -3.2m/s | -50.3°C | 10.5% | 226.23hPa | 2.5V | 00:00:00 | 00:00:00 | 00:00:00 | |
| S3001 | 2026-09-05 06:09:08 | 52.19928 | 16.41317 | 81° | 193km/h | 11152m | -2.9m/s | -50.4°C | 10.6% | 225.9hPa | 2.5V | 00:00:00 | 00:00:00 | 00:00:00 | |
| KRY50SP-1 | 2026-09-05 06:09:06 | 52.19928 | 16.41317 | 82° | 195km/h | 11152m | -2.9m/s | -50.4°C | 10.6% | 225.9hPa | 2.5V | 08:05:00 | 00:00:00 | 00:00:00 | |
| 3Z3Z-3 | 2026-09-05 06:09:05 | 52.19921 | 16.41237 | 81° | 197km/h | 11155m | -2.9m/s | -50.4°C | 10.6% | 225.8hPa | 2.5V | 08:05:00 | 00:00:00 | 00:00:00 | |
| SP3BTT-10 | 2026-09-05 06:09:04 | 52.19902 | 16.41076 | 79° | 210km/h | 11161m | -3.3m/s | -50.4°C | 14.3% | 225.6hPa | 2.5V | 00:00:00 | 00:00:00 | 00:00:00 | |
| SP6BVK | 2026-09-05 06:09:00 | 52.19872 | 16.40821 | 81° | 215km/h | 11171m | -2.9m/s | -50.6°C | 10.7% | 225.3hPa | 2.5V | 08:05:00 | 00:00:00 | 00:00:00 | |
| DB0DAN | 2026-09-05 06:08:55 | 52.19833 | 16.40288 | 86° | 201km/h | 11187m | -2.6m/s | -50.7°C | 10.7% | 224.73hPa | 2.5V | 00:00:00 | 00:00:00 | 00:00:00 | |
| SP3WXH-11 | 2026-09-05 06:08:48 | 52.19797 | 16.39722 | 80° | 193km/h | 11205m | -3.1m/s | -50.9°C | 11.1% | 224.1hPa | 2.6V | 00:00:00 | 00:00:00 | 00:00:00 | |
| KRY50SP-1 | 2026-09-05 06:08:44 | 52.19769 | 16.39479 | 80° | 206km/h | 11213m | -3.0m/s | -50.9°C | 11.2% | 223.8hPa | 2.6V | 08:05:00 | 00:00:00 | 00:00:00 | |
| DB0DAN | 2026-09-05 06:08:40 | 52.19728 | 16.39041 | 84° | 206km/h | 11227m | -3.2m/s | -51.1°C | 11.1% | 223.29hPa | 2.6V | 00:00:00 | 00:00:00 | 00:00:00 | |
| AA1-15 | 2026-09-05 06:08:26 | 52.19647 | 16.37888 | 81° | 212km/h | 11267m | -3.5m/s | -51.4°C | 15.5% | 222hPa | 2.6V | 08:11:56 | 01:59:31 | 00:00:00 | |
| DB0DAN | 2026-09-05 06:08:25 | 52.19639 | 16.37802 | 82° | 203km/h | 11270m | -2.9m/s | -51.4°C | 11.7% | 221.88hPa | 2.6V | 00:00:00 | 00:00:00 | 00:00:00 | |
| AA1-15 | 2026-09-05 06:08:15 | 52.19597 | 16.36960 | 85° | 192km/h | 11297m | -2.6m/s | -51.6°C | 15.4% | 220.9hPa | 2.5V | 08:11:56 | 01:59:20 | 00:00:00 | |
| AA1-15 | 2026-09-05 06:08:05 | 52.19526 | 16.36142 | 85° | 214km/h | 11325m | -3.7m/s | -51.8°C | 15.7% | 220hPa | 2.6V | 08:11:56 | 01:59:10 | 00:00:00 | |
| AA1-15 | 2026-09-05 06:07:53 | 52.19479 | 16.35177 | 81° | 193km/h | 11361m | -3.2m/s | -52.1°C | 15.7% | 218.8hPa | 2.5V | 08:11:56 | 01:58:58 | 00:00:00 | |
| SP3WXH-11 | 2026-09-05 06:07:47 | 52.19439 | 16.34590 | 87° | 204km/h | 11380m | -3.1m/s | -52.1°C | 11.5% | 218.2hPa | 2.6V | 00:00:00 | 00:00:00 | 00:00:00 | |
| 3Z3Z-3 | 2026-09-05 06:07:45 | 52.19439 | 16.34590 | 89° | 204km/h | 11380m | -3.1m/s | -52.1°C | 11.5% | 218.2hPa | 2.6V | 08:06:00 | 00:00:00 | 00:00:00 | |
| KRY50SP-1 | 2026-09-05 06:07:42 | 52.19435 | 16.34342 | 89° | 193km/h | 11389m | -2.9m/s | -52.2°C | 11.2% | 217.9hPa | 2.6V | 08:06:00 | 00:00:00 | 00:00:00 | |
| DB0DAN | 2026-09-05 06:07:40 | 52.19430 | 16.34111 | 86° | 177km/h | 11397m | -2.9m/s | -52.2°C | 11.1% | 217.49hPa | 2.6V | 00:00:00 | 00:00:00 | 00:00:00 | |
| AA1-15 | 2026-09-05 06:07:30 | 52.19373 | 16.33316 | 86° | 208km/h | 11427m | -2.9m/s | -52.4°C | 15.3% | 216.7hPa | 2.5V | 08:11:56 | 01:58:35 | 00:00:00 | |
| 13BRC | 2026-09-05 06:07:30 | 52.19373 | 16.33316 | 87° | 208km/h | 11428m | -2.9m/s | -52.3°C | 11.5% | 216.6hPa | 2.5V | 08:06:00 | 00:00:00 | 00:00:00 | |
| DB0DAN | 2026-09-05 06:07:25 | 52.19364 | 16.32903 | 89° | 183km/h | 11441m | -3.4m/s | -52.5°C | 10.9% | 216.15hPa | 2.5V | 00:00:00 | 00:00:00 | 00:00:00 | |
| AA1-15 | 2026-09-05 06:07:19 | 52.19350 | 16.32453 | 83° | 183km/h | 11459m | -2.9m/s | -52.6°C | 14.7% | 215.5hPa | 2.6V | 08:11:56 | 01:58:24 | 00:00:00 | |
| AA1-15 | 2026-09-05 06:07:09 | 52.19311 | 16.31650 | 90° | 193km/h | 11490m | -3.2m/s | -52.6°C | 14.3% | 214.6hPa | 2.5V | 08:11:56 | 01:58:14 | 00:00:00 | |
| AA1-15 | 2026-09-05 06:06:58 | 52.19285 | 16.30839 | 83° | 183km/h | 11526m | -3m/s | -52.8°C | 13.6% | 213.5hPa | 2.6V | 08:11:56 | 01:58:03 | 00:00:00 | |
| DB0DAN | 2026-09-05 06:06:55 | 52.19273 | 16.30606 | 87° | 184km/h | 11536m | -3.1m/s | -52.9°C | 10.7% | 213.27hPa | 2.5V | 00:00:00 | 00:00:00 | 00:00:00 | |
| 3Z3Z-3 | 2026-09-05 06:06:53 | 52.19271 | 16.30527 | 90° | 188km/h | 11540m | -2.6m/s | -52.9°C | 10.5% | 213.1hPa | 2.5V | 08:07:00 | 00:00:00 | 00:00:00 | |
| KRY50SP-1 | 2026-09-05 06:06:52 | 52.19270 | 16.30449 | 90° | 190km/h | 11543m | -2.6m/s | -52.9°C | 10.3% | 213.1hPa | 2.5V | 08:07:00 | 00:00:00 | 00:00:00 | |
| SP3BTT-10 | 2026-09-05 06:06:49 | 52.19270 | 16.30150 | 90° | 168km/h | 11555m | -2.8m/s | -53.0°C | 13.3% | 212.6hPa | 2.5V | 00:00:00 | 00:00:00 | 00:00:00 | |
| KRY50SP-1 | 2026-09-05 06:06:46 | 52.19269 | 16.30008 | 89° | 170km/h | 11561m | -2.7m/s | -53.0°C | 9.1% | 212.5hPa | 2.6V | 08:07:00 | 00:00:00 | 00:00:00 | |
| EDDB2-11 | 2026-09-05 06:06:44 | 52.19262 | 16.29804 | 84° | 164km/h | 11570m | -3.0m/s | -52.7°C | 8.8% | 212.2hPa | 2.6V | 00:00:00 | 00:00:00 | 00:00:00 | |
| 3Z3Z-3 | 2026-09-05 06:06:43 | 52.19262 | 16.29804 | 85° | 166km/h | 11571m | -3.0m/s | -52.7°C | 8.8% | 212.2hPa | 2.6V | 08:07:00 | 00:00:00 | 00:00:00 | |
| DB0DAN | 2026-09-05 06:06:40 | 52.19240 | 16.29521 | 83° | 173km/h | 11582m | -2.4m/s | -52.4°C | 9.1% | 0hPa | 2.6V | 00:00:00 | 00:00:00 | 00:00:00 | |
| EDDB2-12 | 2026-09-05 06:06:38 | 52.19227 | 16.29290 | 86° | 190km/h | 11590m | -2.8m/s | -52.4°C | 9.0% | 211.6hPa | 2.6V | 00:00:00 | 00:00:00 | 00:00:00 | |
| SP6BVK | 2026-09-05 06:06:36 | 52.19227 | 16.29290 | 88° | 190km/h | 11590m | -2.8m/s | -52.4°C | 9.0% | 211.6hPa | 2.6V | 08:07:00 | 00:00:00 | 00:00:00 | |
| KRY50SP-1 | 2026-09-05 06:06:35 | 52.19225 | 16.29212 | 89° | 188km/h | 11593m | -3.0m/s | -52.4°C | 8.9% | 211.5hPa | 2.6V | 08:07:00 | 00:00:00 | 00:00:00 | |
| 3Z3Z-3 | 2026-09-05 06:06:33 | 52.19224 | 16.29060 | 92° | 181km/h | 11599m | -2.8m/s | -52.3°C | 8.8% | 211.3hPa | 2.6V | 08:07:00 | 00:00:00 | 00:00:00 | |
| S3001 | 2026-09-05 06:06:32 | 52.19225 | 16.28915 | 90° | 170km/h | 11606m | -2.8m/s | -52.3°C | 8.6% | 211.2hPa | 2.6V | 00:00:00 | 00:00:00 | 00:00:00 | |
| KRY50SP-1 | 2026-09-05 06:06:29 | 52.19225 | 16.28778 | 90° | 162km/h | 11612m | -3.3m/s | -52.4°C | 8.5% | 210.9hPa | 2.6V | 08:07:00 | 00:00:00 | 00:00:00 | |
| 13BRC | 2026-09-05 06:06:28 | 52.19223 | 16.28711 | 88° | 161km/h | 11615m | -2.7m/s | -52.4°C | 8.5% | 210.8hPa | 2.6V | 08:07:00 | 00:00:00 | 00:00:00 | |
| KRY50SP-1 | 2026-09-05 06:06:24 | 52.19207 | 16.28443 | 83° | 170km/h | 11628m | -3.1m/s | -52.4°C | 8.7% | 210.4hPa | 2.6V | 08:07:00 | 00:00:00 | 00:00:00 | |
| 3Z3Z-3 | 2026-09-05 06:06:22 | 52.19195 | 16.28300 | 84° | 181km/h | 11634m | -2.8m/s | -52.4°C | 8.8% | 210.2hPa | 2.6V | 08:07:00 | 00:00:00 | 00:00:00 | |
| KRY50SP-1 | 2026-09-05 06:06:18 | 52.19182 | 16.27999 | 90° | 183km/h | 11647m | -3.0m/s | -52.4°C | 8.7% | 209.8hPa | 2.6V | 08:07:00 | 00:00:00 | 00:00:00 | |
| SP6BVK | 2026-09-05 06:06:15 | 52.19183 | 16.27779 | 92° | 172km/h | 11656m | -2.8m/s | -52.5°C | 8.4% | 209.5hPa | 2.6V | 08:07:00 | 00:00:00 | 00:00:00 | |
| KRY50SP-1 | 2026-09-05 06:06:14 | 52.19183 | 16.27642 | 90° | 162km/h | 11663m | -2.9m/s | -52.5°C | 8.3% | 209.3hPa | 2.6V | 08:07:00 | 00:00:00 | 00:00:00 | |
| EDDB2-11 | 2026-09-05 06:06:13 | 52.19182 | 16.27576 | 87° | 159km/h | 11666m | -3.2m/s | -52.5°C | 8.3% | 209.2hPa | 2.6V | 00:00:00 | 00:00:00 | 00:00:00 | |
| 3Z3Z-3 | 2026-09-05 06:06:12 | 52.19182 | 16.27576 | 89° | 161km/h | 11666m | -3.2m/s | -52.5°C | 8.3% | 209.2hPa | 2.6V | 08:07:00 | 00:00:00 | 00:00:00 | |
| KRY50SP-1 | 2026-09-05 06:06:08 | 52.19167 | 16.27312 | 83° | 164km/h | 11680m | -2.8m/s | -52.5°C | 8.7% | 208.8hPa | 2.6V | 08:08:00 | 00:00:00 | 00:00:00 | |
| EDDB2-12 | 2026-09-05 06:06:07 | 52.19151 | 16.27101 | 84° | 177km/h | 11688m | -2.4m/s | -52.6°C | 9.0% | 208.6hPa | 2.6V | 00:00:00 | 00:00:00 | 00:00:00 | |
| SONDE2-11 | 2026-09-05 06:06:06 | 52.19148 | 16.27027 | 86° | 181km/h | 11691m | -2.5m/s | -52.6°C | 9.0% | 208.5hPa | 2.6V | 00:00:00 | 00:00:00 | 00:00:00 | |
| SP3BTT-10 | 2026-09-05 06:06:04 | 52.19146 | 16.26953 | 89° | 162km/h | 11693m | -2.5m/s | -52.5°C | 12.9% | 208.3hPa | 2.6V | 00:00:00 | 00:00:00 | 00:00:00 | |
| KRY50SP-1 | 2026-09-05 06:06:03 | 52.19145 | 16.26953 | 89° | 177km/h | 11693m | -2.5m/s | -52.6°C | 9.0% | 208.3hPa | 2.6V | 08:08:00 | 00:00:00 | 00:00:00 | |
| 3Z3Z-3 | 2026-09-05 06:06:01 | 52.19145 | 16.26808 | 91° | 175km/h | 11699m | -2.9m/s | -52.5°C | 8.8% | 208.2hPa | 2.6V | 08:08:00 | 00:00:00 | 00:00:00 | |
| KRY50SP-1 | 2026-09-05 06:05:57 | 52.19148 | 16.26533 | 91° | 161km/h | 11711m | -2.7m/s | -52.6°C | 8.5% | 207.7hPa | 2.6V | 08:08:00 | 00:00:00 | 00:00:00 | |
| DB0DAN | 2026-09-05 06:05:55 | 52.19146 | 16.26341 | 87° | 146km/h | 11721m | -3.2m/s | -52.6°C | 8.7% | 0hPa | 2.6V | 00:00:00 | 00:00:00 | 00:00:00 | |
| KRY50SP-1 | 2026-09-05 06:05:52 | 52.19139 | 16.26214 | 85° | 159km/h | 11728m | -3.1m/s | -52.5°C | 8.9% | 207.2hPa | 2.5V | 08:08:00 | 00:00:00 | 00:00:00 | |
| 3Z3Z-3 | 2026-09-05 06:05:50 | 52.19131 | 16.26081 | 84° | 168km/h | 11734m | -2.9m/s | -52.4°C | 9.1% | 207.0hPa | 2.5V | 08:08:00 | 00:00:00 | 00:00:00 | |
| DL2RXE-15 | 2026-09-05 06:05:49 | 52.19127 | 16.26012 | 86° | 172km/h | 11738m | -2.4m/s | -52.4°C | 9.0% | 206.9hPa | 2.5V | 00:00:00 | 00:00:00 | 00:00:00 | |
| 13BRC | 2026-09-05 06:05:48 | 52.19123 | 16.25940 | 86° | 175km/h | 11740m | -2.8m/s | -52.3°C | 8.9% | 206.8hPa | 2.5V | 08:08:00 | 00:00:00 | 00:00:00 | |
| KRY50SP-1 | 2026-09-05 06:05:47 | 52.19120 | 16.25868 | 89° | 175km/h | 11743m | -2.8m/s | -52.3°C | 8.8% | 206.8hPa | 2.5V | 08:08:00 | 00:00:00 | 00:00:00 | |
| DB0DAN | 2026-09-05 06:05:40 | 52.19127 | 16.25323 | 90° | 142km/h | 11769m | -3.1m/s | -52.1°C | 0% | 0hPa | 2.5V | 00:00:00 | 00:00:00 | 00:00:00 | |
| 3Z3Z-3 | 2026-09-05 06:05:39 | 52.19127 | 16.25323 | 91° | 150km/h | 11769m | -3.1m/s | -52.1°C | 8.1% | 205.9hPa | 2.5V | 08:08:00 | 00:00:00 | 00:00:00 | |
| EDDB2-12 | 2026-09-05 06:05:36 | 52.19113 | 16.25011 | 83° | 157km/h | 11784m | -2.8m/s | -52.1°C | 8.3% | 205.4hPa | 2.5V | 00:00:00 | 00:00:00 | 00:00:00 | |
| SONDE2-11 | 2026-09-05 06:05:35 | 52.19109 | 16.24945 | 84° | 164km/h | 11787m | -2.5m/s | -52.1°C | 8.2% | 205.3hPa | 2.5V | 00:00:00 | 00:00:00 | 00:00:00 | |
| KRY50SP-1 | 2026-09-05 06:05:31 | 52.19101 | 16.24804 | 87° | 175km/h | 11793m | -3.0m/s | -52.0°C | 8.1% | 205.1hPa | 2.5V | 08:08:00 | 00:00:00 | 00:00:00 | |
| 3Z3Z-3 | 2026-09-05 06:05:28 | 52.19098 | 16.24588 | 93° | 172km/h | 11802m | -3.0m/s | -52.1°C | 7.9% | 204.8hPa | 2.5V | 08:08:00 | 00:00:00 | 00:00:00 | |
| 13BRC | 2026-09-05 06:05:27 | 52.19099 | 16.24518 | 94° | 168km/h | 11805m | -3.1m/s | -52.1°C | 7.8% | 204.7hPa | 2.5V | 08:08:00 | 00:00:00 | 00:00:00 | |
| DB0DAN | 2026-09-05 06:05:25 | 52.19105 | 16.24319 | 92° | 148km/h | 11816m | -2.7m/s | 0°C | 0% | 0hPa | 2.5V | 00:00:00 | 00:00:00 | 00:00:00 | |
| KRY50SP-1 | 2026-09-05 06:05:20 | 52.19103 | 16.24074 | 87° | 150km/h | 11828m | -3.1m/s | -52.1°C | 7.7% | 204.0hPa | 2.7V | 08:09:00 | 00:00:00 | 00:00:00 | |
| SP3BTT-10 | 2026-09-05 06:05:19 | 52.19096 | 16.23948 | 84° | 157km/h | 11834m | -3.1m/s | -52.0°C | 11.4% | 203.8hPa | 2.7V | 00:00:00 | 00:00:00 | 00:00:00 | |
| 3Z3Z-3 | 2026-09-05 06:05:18 | 52.19096 | 16.23948 | 85° | 159km/h | 11834m | -3.2m/s | -52.0°C | 7.9% | 203.8hPa | 2.7V | 08:09:00 | 00:00:00 | 00:00:00 | |
| KRY50SP-1 | 2026-09-05 06:05:15 | 52.19087 | 16.23675 | 91° | 168km/h | 11844m | -2.2m/s | -52.1°C | 7.9% | 203.5hPa | 2.7V | 08:09:00 | 00:00:00 | 00:00:00 | |
| DL2RXE-15 | 2026-09-05 06:05:14 | 52.19087 | 16.23675 | 91° | 168km/h | 11844m | -2.2m/s | -52.1°C | 7.9% | 203.5hPa | 2.7V | 00:00:00 | 00:00:00 | 00:00:00 | |
| DB0DAN | 2026-09-05 06:05:10 | 52.19095 | 16.23337 | 94° | 151km/h | 11859m | -3m/s | 0°C | 0% | 0hPa | 2.7V | 00:00:00 | 00:00:00 | 00:00:00 | |
| AA1-15 | 2026-09-05 06:05:00 | 52.19088 | 16.22720 | 87° | 166km/h | 11890m | -2.8m/s | -52.1°C | 9.3% | 202.1hPa | 2.5V | 08:11:56 | 01:56:05 | 00:00:00 | |
| AA1-15 | 2026-09-05 06:04:49 | 52.19105 | 16.22016 | 90° | 139km/h | 11923m | -2.9m/s | -52°C | 8.4% | 201.1hPa | 2.5V | 08:11:56 | 01:55:54 | 00:00:00 | |
| 3Z3Z-3 | 2026-09-05 06:04:48 | 52.19104 | 16.21958 | 88° | 142km/h | 11927m | -2.5m/s | -52.0°C | 6.3% | 201.0hPa | 2.7V | 08:09:00 | 00:00:00 | 00:00:00 | |
| KRY50SP-1 | 2026-09-05 06:04:46 | 52.19102 | 16.21899 | 87° | 148km/h | 11930m | -2.6m/s | -52.0°C | 6.3% | 200.9hPa | 2.7V | 08:09:00 | 00:00:00 | 00:00:00 | |
| 13BRC | 2026-09-05 06:04:45 | 52.19099 | 16.21838 | 85° | 150km/h | 11932m | -2.6m/s | -52.0°C | 6.3% | 200.8hPa | 2.7V | 08:09:00 | 00:00:00 | 00:00:00 | |
| SP3WXH-11 | 2026-09-05 06:04:40 | 52.19090 | 16.21383 | 92° | 153km/h | 11951m | -2.1m/s | -51.9°C | 6.4% | 200.2hPa | 2.7V | 00:00:00 | 00:00:00 | 00:00:00 | |
| DL2RXE-15 | 2026-09-05 06:04:35 | 52.19098 | 16.21199 | 95° | 141km/h | 11959m | -2.6m/s | -51.9°C | 6.0% | 200.0hPa | 2.7V | 00:00:00 | 00:00:00 | 00:00:00 | |
| SP3BTT-10 | 2026-09-05 06:04:34 | 52.19103 | 16.21084 | 93° | 135km/h | 11965m | -2.9m/s | -51.9°C | 9.0% | 199.8hPa | 2.7V | 08:09:00 | 00:00:00 | 00:00:00 | |
| SP6BVK | 2026-09-05 06:04:33 | 52.19102 | 16.21084 | 93° | 135km/h | 11965m | -2.9m/s | -51.9°C | 5.8% | 199.8hPa | 2.5V | 08:09:00 | 00:00:00 | 00:00:00 | |
| 3Z3Z-3 | 2026-09-05 06:04:32 | 52.19103 | 16.21028 | 92° | 137km/h | 11967m | -2.9m/s | -51.9°C | 5.7% | 199.7hPa | 2.5V | 08:09:00 | 00:00:00 | 00:00:00 | |
| S3001 | 2026-09-05 06:04:28 | 52.19093 | 16.20746 | 84° | 144km/h | 11983m | -2.6m/s | -51.9°C | 5.8% | 199.2hPa | 2.5V | 00:00:00 | 00:00:00 | 00:00:00 | |
| 13BRC | 2026-09-05 06:04:24 | 52.19084 | 16.20560 | 89° | 153km/h | 11991m | -2.3m/s | -51.7°C | 5.8% | 199.0hPa | 2.5V | 08:10:00 | 00:00:00 | 00:00:00 | |
| KRY50SP-1 | 2026-09-05 06:04:23 | 52.19083 | 16.20496 | 91° | 153km/h | 11994m | -2.6m/s | -51.6°C | 5.8% | 198.9hPa | 2.5V | 08:10:00 | 00:00:00 | 00:00:00 | |
| 3Z3Z-3 | 2026-09-05 06:04:20 | 52.19089 | 16.20314 | 95° | 144km/h | 12002m | -2.7m/s | -51.5°C | 5.4% | 198.7hPa | 2.5V | 00:00:00 | 00:00:00 | 00:00:00 | |
| KRY50SP-1 | 2026-09-05 06:04:17 | 52.19096 | 16.20145 | 94° | 133km/h | 12010m | -2.7m/s | -51.5°C | 5.1% | 198.4hPa | 2.5V | 08:10:00 | 00:00:00 | 00:00:00 | |
| SP6BVK | 2026-09-05 06:04:13 | 52.19095 | 16.19934 | 87° | 130km/h | 12022m | -2.5m/s | -51.4°C | 5.0% | 198.1hPa | 2.5V | 08:10:00 | 00:00:00 | 00:00:00 | |
| KRY50SP-1 | 2026-09-05 06:04:12 | 52.19092 | 16.19879 | 85° | 135km/h | 12024m | -2.2m/s | -51.4°C | 5.0% | 197.9hPa | 2.5V | 08:10:00 | 00:00:00 | 00:00:00 | |
| SP3WXH-11 | 2026-09-05 06:04:09 | 52.19079 | 16.19581 | 90° | 148km/h | 12036m | -2.7m/s | -51.3°C | 5.2% | 197.6hPa | 2.5V | 00:00:00 | 00:00:00 | 00:00:00 | |
| KRY50SP-1 | 2026-09-05 06:04:06 | 52.19080 | 16.19521 | 93° | 146km/h | 12039m | -2.4m/s | -51.3°C | 5.2% | 197.5hPa | 2.5V | 08:10:00 | 00:00:00 | 00:00:00 | |
| EDDB2-12 | 2026-09-05 06:04:03 | 52.19090 | 16.19240 | 93° | 124km/h | 12053m | -2.9m/s | -51.3°C | 4.8% | 197.1hPa | 2.5V | 00:00:00 | 00:00:00 | 00:00:00 | |
| KRY50SP-1 | 2026-09-05 06:04:00 | 52.19091 | 16.19188 | 93° | 126km/h | 12056m | -2.5m/s | -51.2°C | 4.7% | 197.0hPa | 2.5V | 08:10:00 | 00:00:00 | 00:00:00 | |
| 3Z3Z-3 | 2026-09-05 06:03:58 | 52.19091 | 16.19087 | 89° | 122km/h | 12062m | -2.6m/s | -51.2°C | 4.6% | 196.9hPa | 2.5V | 00:00:00 | 00:00:00 | 00:00:00 | |
| KRY50SP-1 | 2026-09-05 06:03:54 | 52.19078 | 16.18876 | 84° | 135km/h | 12073m | -2.4m/s | -51.0°C | 4.6% | 196.5hPa | 2.5V | 08:10:00 | 00:00:00 | 00:00:00 | |
| SP6BVK | 2026-09-05 06:03:53 | 52.19074 | 16.18819 | 84° | 139km/h | 12076m | -2.6m/s | -51.0°C | 4.6% | 196.4hPa | 2.5V | 08:10:00 | 00:00:00 | 00:00:00 | |
| SP3BTT-10 | 2026-09-05 06:03:49 | 52.19064 | 16.18527 | 92° | 124km/h | 12090m | -2.6m/s | -50.9°C | 7.7% | 196.0hPa | 2.5V | 00:00:00 | 00:00:00 | 00:00:00 | |
| KRY50SP-1 | 2026-09-05 06:03:48 | 52.19065 | 16.18527 | 92° | 137km/h | 12090m | -2.7m/s | -51.0°C | 4.7% | 196.0hPa | 2.5V | 08:10:00 | 00:00:00 | 00:00:00 | |
| 3Z3Z-3 | 2026-09-05 06:03:46 | 52.19067 | 16.18419 | 93° | 128km/h | 12095m | -2.3m/s | -50.9°C | 4.6% | 195.8hPa | 2.5V | 00:00:00 | 00:00:00 | 00:00:00 | |
| 13BRC | 2026-09-05 06:03:42 | 52.19066 | 16.18223 | 88° | 117km/h | 12105m | -2.9m/s | -50.9°C | 4.3% | 195.5hPa | 2.5V | 08:10:00 | 00:00:00 | 00:00:00 | |
| SP3WXH-11 | 2026-09-05 06:03:38 | 52.19040 | 16.17915 | 81° | 137km/h | 12123m | -2.5m/s | -50.9°C | 4.3% | 195.0hPa | 2.5V | 00:00:00 | 00:00:00 | 00:00:00 | |
| KRY50SP-1 | 2026-09-05 06:03:36 | 52.19040 | 16.17915 | 82° | 137km/h | 12123m | -2.5m/s | -50.9°C | 4.3% | 195.0hPa | 2.5V | 08:11:00 | 00:00:00 | 00:00:00 | |
| 3Z3Z-3 | 2026-09-05 06:03:35 | 52.19035 | 16.17858 | 84° | 144km/h | 12125m | -2.4m/s | -50.8°C | 4.3% | 194.9hPa | 2.5V | 00:00:00 | 00:00:00 | 00:00:00 | |
| SP6BVK | 2026-09-05 06:03:32 | 52.19028 | 16.17682 | 90° | 141km/h | 12133m | -2.7m/s | -50.7°C | 4.3% | 194.7hPa | 2.5V | 08:11:00 | 00:00:00 | 00:00:00 | |
| KRY50SP-1 | 2026-09-05 06:03:31 | 52.19029 | 16.17625 | 92° | 133km/h | 12136m | -2.3m/s | -50.7°C | 4.3% | 194.6hPa | 2.5V | 08:11:00 | 00:00:00 | 00:00:00 | |
| SONDE2-11 | 2026-09-05 06:03:30 | 52.19030 | 16.17519 | 91° | 122km/h | 12142m | -2.6m/s | -50.7°C | 4.3% | 194.5hPa | 2.5V | 00:00:00 | 00:00:00 | 00:00:00 | |
| DB0DAN | 2026-09-05 06:03:25 | 52.19020 | 16.17278 | 81° | 115km/h | 12157m | -2.5m/s | -50.7°C | 4% | 194.01hPa | 2.5V | 00:00:00 | 00:00:00 | 00:00:00 | |
| 13BRC | 2026-09-05 06:03:21 | 52.19002 | 16.17127 | 80° | 131km/h | 12165m | -2.5m/s | -50.8°C | 4.0% | 193.7hPa | 2.6V | 08:11:00 | 00:00:00 | 00:00:00 | |
| DL2RXE-15 | 2026-09-05 06:03:20 | 52.18995 | 16.17072 | 80° | 139km/h | 12168m | -2.5m/s | -50.8°C | 4.0% | 193.7hPa | 2.6V | 00:00:00 | 00:00:00 | 00:00:00 | |
| KRY50SP-1 | 2026-09-05 06:03:15 | 52.18976 | 16.16782 | 89° | 139km/h | 12181m | -2.6m/s | -50.9°C | 4.3% | 193.3hPa | 2.6V | 08:11:00 | 00:00:00 | 00:00:00 | |
| SP6BVK | 2026-09-05 06:03:12 | 52.18975 | 16.16624 | 89° | 119km/h | 12189m | -2.8m/s | -51.0°C | 4.3% | 193.1hPa | 2.6V | 08:11:00 | 00:00:00 | 00:00:00 | |
| DB0DAN | 2026-09-05 06:03:10 | 52.18967 | 16.16480 | 81° | 111km/h | 12197m | -2.6m/s | -51°C | 4.1% | 192.76hPa | 2.6V | 00:00:00 | 00:00:00 | 00:00:00 | |
| KRY50SP-1 | 2026-09-05 06:03:10 | 52.18967 | 16.16480 | 82° | 117km/h | 12198m | -2.6m/s | -51.0°C | 4.1% | 192.8hPa | 2.5V | 08:11:00 | 00:00:00 | 00:00:00 | |
| 3Z3Z-3 | 2026-09-05 06:03:09 | 52.18967 | 16.16480 | 82° | 117km/h | 12198m | -2.6m/s | -51.0°C | 4.1% | 192.8hPa | 2.5V | 00:00:00 | 00:00:00 | 00:00:00 | |
| SP3WXH-11 | 2026-09-05 06:03:07 | 52.18940 | 16.16284 | 75° | 128km/h | 12210m | -3.2m/s | -51.2°C | 4.1% | 192.4hPa | 2.5V | 00:00:00 | 00:00:00 | 00:00:00 | |
| SP3BTT-10 | 2026-09-05 06:03:04 | 52.18924 | 16.16177 | 79° | 133km/h | 12216m | -2.9m/s | -51.1°C | 6.8% | 192.1hPa | 2.5V | 00:00:00 | 00:00:00 | 00:00:00 | |
| KRY50SP-1 | 2026-09-05 06:03:03 | 52.18924 | 16.16177 | 79° | 137km/h | 12216m | -3.0m/s | -51.2°C | 4.1% | 192.2hPa | 2.5V | 08:11:00 | 00:00:00 | 00:00:00 | |
| EDDB2-12 | 2026-09-05 06:03:01 | 52.18904 | 16.15945 | 85° | 139km/h | 12229m | -3.1m/s | -51.2°C | 4.3% | 191.8hPa | 2.5V | 00:00:00 | 00:00:00 | 00:00:00 | |
| 13BRC | 2026-09-05 06:03:00 | 52.18907 | 16.16003 | 86° | 144km/h | 12226m | -3.3m/s | -51.2°C | 4.2% | 191.9hPa | 2.5V | 08:11:00 | 00:00:00 | 00:00:00 | |
| KRY50SP-1 | 2026-09-05 06:02:58 | 52.18901 | 16.15888 | 88° | 137km/h | 12233m | -3.1m/s | -51.2°C | 4.3% | 191.8hPa | 2.5V | 08:11:00 | 00:00:00 | 00:00:00 | |
| DB0DAN | 2026-09-05 06:02:55 | 52.18892 | 16.15687 | 83° | 108km/h | 12245m | -3.2m/s | -51.3°C | 4.1% | 191.37hPa | 2.5V | 00:00:00 | 00:00:00 | 00:00:00 | |
| 3Z3Z-3 | 2026-09-05 06:02:54 | 52.18892 | 16.15686 | 84° | 113km/h | 12245m | -3.2m/s | -51.3°C | 4.1% | 191.4hPa | 2.7V | 00:00:00 | 00:00:00 | 00:00:00 | |
| KRY50SP-1 | 2026-09-05 06:02:53 | 52.18887 | 16.15641 | 81° | 113km/h | 12249m | -2.8m/s | -51.3°C | 4.1% | 191.3hPa | 2.7V | 08:11:00 | 00:00:00 | 00:00:00 | |
| DL2RXE-15 | 2026-09-05 06:02:52 | 52.18882 | 16.15594 | 79° | 117km/h | 12252m | -2.7m/s | -51.4°C | 4.0% | 191.2hPa | 2.7V | 08:11:00 | 00:00:00 | 00:00:00 | |
| SP6BVK | 2026-09-05 06:02:51 | 52.18875 | 16.15547 | 77° | 122km/h | 12255m | -2.5m/s | -51.4°C | 4.0% | 191.1hPa | 2.7V | 08:11:00 | 00:00:00 | 00:00:00 | |
| KRY50SP-1 | 2026-09-05 06:02:47 | 52.18839 | 16.15340 | 78° | 139km/h | 12268m | -2.6m/s | -51.5°C | 4.1% | 190.8hPa | 2.7V | 08:11:00 | 00:00:00 | 00:00:00 | |
| DB0DAN | 2026-09-05 06:02:40 | 52.18804 | 16.14897 | 83° | 113km/h | 12292m | -2.8m/s | -51.7°C | 4.3% | 190.1hPa | 2.7V | 00:00:00 | 00:00:00 | 00:00:00 | |
| SP3WXH-11 | 2026-09-05 06:02:36 | 52.18769 | 16.14656 | 72° | 126km/h | 12308m | -3.0m/s | -51.8°C | 4.1% | 189.7hPa | 2.5V | 00:00:00 | 00:00:00 | 00:00:00 | |
| 3Z3Z-3 | 2026-09-05 06:02:32 | 52.18750 | 16.14552 | 74° | 135km/h | 12315m | -2.8m/s | -51.9°C | 4.0% | 189.4hPa | 2.5V | 00:00:00 | 00:00:00 | 00:00:00 | |
| DL2RXE-15 | 2026-09-05 06:02:30 | 52.18732 | 16.14441 | 77° | 142km/h | 12321m | -2.6m/s | -51.9°C | 4.0% | 189.3hPa | 2.5V | 00:00:00 | 00:00:00 | 00:00:00 | |
| EDDB2-12 | 2026-09-05 06:02:29 | 52.18718 | 16.14324 | 79° | 146km/h | 12326m | -2.9m/s | -52.0°C | 4.1% | 189.1hPa | 2.5V | 00:00:00 | 00:00:00 | 00:00:00 | |
| SONDE2-11 | 2026-09-05 06:02:28 | 52.18712 | 16.14264 | 81° | 144km/h | 12329m | -2.9m/s | -52.0°C | 4.2% | 189.0hPa | 2.5V | 00:00:00 | 00:00:00 | 00:00:00 | |
| DB0DAN | 2026-09-05 06:02:25 | 52.18701 | 16.14096 | 84° | 122km/h | 12338m | -2.6m/s | -52.1°C | 4.3% | 188.74hPa | 2.5V | 00:00:00 | 00:00:00 | 00:00:00 | |
| 3Z3Z-3 | 2026-09-05 06:02:20 | 52.18681 | 16.13898 | 77° | 119km/h | 12350m | -3.0m/s | -52.1°C | 4.1% | 188.4hPa | 2.5V | 00:00:00 | 00:00:00 | 00:00:00 | |
| SP3BTT-10 | 2026-09-05 06:02:19 | 52.18665 | 16.13800 | 73° | 146km/h | 12356m | -2.4m/s | -52.2°C | 6.9% | 188.1hPa | 2.5V | 00:00:00 | 00:00:00 | 00:00:00 | |
| KRY50SP-1 | 2026-09-05 06:02:14 | 52.18624 | 16.13584 | 76° | 146km/h | 12367m | -2.8m/s | -52.3°C | 4.0% | 187.9hPa | 2.5V | 08:11:00 | 00:00:00 | 00:00:00 | |
| SP6BVK | 2026-09-05 06:02:10 | 52.18594 | 16.13345 | 83° | 142km/h | 12380m | -2.6m/s | -52.4°C | 4.1% | 187.5hPa | 2.5V | 08:11:00 | 00:00:00 | 00:00:00 | |
| KRY50SP-1 | 2026-09-05 06:02:09 | 52.18585 | 16.13231 | 83° | 131km/h | 12386m | -2.4m/s | -52.4°C | 4.2% | 187.3hPa | 2.5V | 08:11:00 | 00:00:00 | 00:00:00 | |
| EDDB2-11 | 2026-09-05 06:02:05 | 52.18560 | 16.13030 | 74° | 122km/h | 12397m | -3.1m/s | -52.6°C | 4.0% | 187.0hPa | 2.5V | 00:00:00 | 00:00:00 | 00:00:00 | |
| 3Z3Z-3 | 2026-09-05 06:02:04 | 52.18560 | 16.13030 | 75° | 124km/h | 12397m | -3.1m/s | -52.6°C | 4.0% | 187.0hPa | 2.5V | 00:00:00 | 00:00:00 | 00:00:00 | |
| EDDB2-12 | 2026-09-05 06:01:58 | 52.18482 | 16.12658 | 73° | 153km/h | 12419m | -3.0m/s | -52.7°C | 3.7% | 186.3hPa | 2.5V | 00:00:00 | 00:00:00 | 00:00:00 | |
| SONDE2-11 | 2026-09-05 06:01:57 | 52.18471 | 16.12596 | 75° | 155km/h | 12423m | -3.0m/s | -52.8°C | 3.7% | 186.2hPa | 2.5V | 00:00:00 | 00:00:00 | 00:00:00 | |
| DB0DAN | 2026-09-05 06:01:55 | 52.18455 | 16.12473 | 80° | 142km/h | 12429m | -2.6m/s | -52.8°C | 3.7% | 186.05hPa | 2.5V | 00:00:00 | 00:00:00 | 00:00:00 | |
| AA1-15 | 2026-09-05 06:01:54 | 52.18450 | 16.12414 | 82° | 142km/h | 12432m | -2.8m/s | -52.8°C | 4.3% | 186hPa | 2.5V | 08:23:50 | 01:52:59 | 00:00:00 | |
| AA1-15 | 2026-09-05 06:01:41 | 52.18342 | 16.11698 | 77° | 157km/h | 12470m | -3.2m/s | -53°C | 3.6% | 184.9hPa | 2.5V | 08:23:50 | 01:52:46 | 00:00:00 | |
| DB0DAN | 2026-09-05 06:01:40 | 52.18335 | 16.11634 | 80° | 150km/h | 12473m | -3.3m/s | -53°C | 3.2% | 184.81hPa | 2.7V | 00:00:00 | 00:00:00 | 00:00:00 | |
| SP3BTT-10 | 2026-09-05 06:01:37 | 52.18318 | 16.11449 | 84° | 148km/h | 12483m | -3.0m/s | -52.9°C | 5.9% | 184.5hPa | 2.5V | 00:00:00 | 00:00:00 | 00:00:00 | |
| DL2RXE-15 | 2026-09-05 06:01:35 | 52.18314 | 16.11390 | 85° | 142km/h | 12486m | -3.2m/s | -52.9°C | 3.1% | 184.4hPa | 2.5V | 00:00:00 | 00:00:00 | 00:00:00 | |
| SP3WXH-11 | 2026-09-05 06:01:34 | 52.18301 | 16.11221 | 79° | 133km/h | 12496m | -3.0m/s | -52.9°C | 3.2% | 184.2hPa | 2.5V | 00:00:00 | 00:00:00 | 00:00:00 | |
| KRY50SP-1 | 2026-09-05 06:01:32 | 52.18301 | 16.11221 | 81° | 135km/h | 12496m | -3.0m/s | -52.9°C | 3.2% | 184.2hPa | 2.5V | 08:12:00 | 00:00:00 | 00:00:00 | |
| SP6BVK | 2026-09-05 06:01:29 | 52.18277 | 16.11051 | 76° | 146km/h | 12504m | -2.6m/s | -52.9°C | 3.1% | 183.9hPa | 2.5V | 08:12:00 | 00:00:00 | 00:00:00 | |
| KRY50SP-1 | 2026-09-05 06:01:27 | 52.18258 | 16.10932 | 76° | 153km/h | 12509m | -2.7m/s | -52.8°C | 2.9% | 183.8hPa | 2.5V | 08:12:00 | 00:00:00 | 00:00:00 | |
| DB0DAN | 2026-09-05 06:01:25 | 52.18229 | 16.10741 | 78° | 153km/h | 12518m | -2.7m/s | -52.8°C | 2.7% | 183.5hPa | 2.5V | 00:00:00 | 00:00:00 | 00:00:00 | |
| S3001 | 2026-09-05 06:01:22 | 52.18208 | 16.10544 | 82° | 164km/h | 12527m | -3.1m/s | -52.7°C | 2.5% | 183.2hPa | 2.7V | 00:00:00 | 00:00:00 | 00:00:00 | |
| KRY50SP-1 | 2026-09-05 06:01:21 | 52.18208 | 16.10544 | 83° | 164km/h | 12527m | -3.1m/s | -52.7°C | 2.5% | 183.2hPa | 2.7V | 08:12:00 | 00:00:00 | 00:00:00 | |
| 13BRC | 2026-09-05 06:01:17 | 52.18193 | 16.10285 | 88° | 155km/h | 12541m | -3.8m/s | -52.5°C | 2.3% | 182.8hPa | 2.7V | 08:12:00 | 00:00:00 | 00:00:00 | |
| KRY50SP-1 | 2026-09-05 06:01:16 | 52.18191 | 16.10223 | 88° | 150km/h | 12545m | -3.6m/s | -52.5°C | 2.4% | 182.7hPa | 2.7V | 08:12:00 | 00:00:00 | 00:00:00 | |
| 3Z3Z-3 | 2026-09-05 06:01:12 | 52.18175 | 16.09988 | 81° | 144km/h | 12559m | -2.7m/s | -52.4°C | 2.4% | 182.4hPa | 2.7V | 00:00:00 | 00:00:00 | 00:00:00 | |
| DB0DAN | 2026-09-05 06:01:10 | 52.18150 | 16.09803 | 78° | 153km/h | 12567m | -2.8m/s | -52.2°C | 2.2% | 182.17hPa | 2.7V | 00:00:00 | 00:00:00 | 00:00:00 | |
| SP6BVK | 2026-09-05 06:01:09 | 52.18150 | 16.09803 | 79° | 162km/h | 12567m | -2.8m/s | -52.2°C | 2.2% | 182.2hPa | 2.7V | 08:12:00 | 00:00:00 | 00:00:00 | |
| DB0NH | 2026-09-05 06:01:04 | 52.18109 | 16.09390 | 86° | 150km/h | 12586m | -3.1m/s | -51.3°C | 4.4% | 181.6hPa | 2.7V | 00:00:00 | 01:52:09 | 00:00:00 | |
| EDDB2-11 | 2026-09-05 06:01:03 | 52.18106 | 16.09322 | 87° | 164km/h | 12589m | -3.4m/s | -51.2°C | 1.9% | 181.5hPa | 2.5V | 00:00:00 | 00:00:00 | 00:00:00 | |
| SP3WXH-11 | 2026-09-05 06:01:02 | 52.18105 | 16.09254 | 88° | 161km/h | 12592m | -3.5m/s | -51.0°C | 1.8% | 181.4hPa | 2.5V | 00:00:00 | 00:00:00 | 00:00:00 | |
| EDDB2-12 | 2026-09-05 06:00:56 | 52.18087 | 16.08893 | 80° | 141km/h | 12607m | -2.8m/s | -50.6°C | 1.8% | 180.9hPa | 2.5V | 00:00:00 | 00:00:00 | 00:00:00 | |
| DB0DAN | 2026-09-05 06:00:55 | 52.18081 | 16.08835 | 79° | 139km/h | 12610m | -3.4m/s | -50.6°C | 1.9% | 180.85hPa | 2.5V | 00:00:00 | 00:00:00 | 00:00:00 | |
| AA1-15 | 2026-09-05 06:00:49 | 52.18049 | 16.08447 | 88° | 162km/h | 12625m | -2.8m/s | -50.5°C | 1.2% | 180.3hPa | 2.5V | 08:23:50 | 01:51:54 | 00:00:00 | |
| SP3BTT-10 | 2026-09-05 06:00:49 | 52.18049 | 16.08447 | 88° | 142km/h | 12625m | -2.7m/s | -50.5°C | 4.3% | 180.3hPa | 2.7V | 00:00:00 | 00:00:00 | 00:00:00 | |
| 3Z3Z-3 | 2026-09-05 06:00:46 | 52.18047 | 16.08317 | 90° | 155km/h | 12630m | -3.0m/s | -50.5°C | 1.8% | 180.2hPa | 2.7V | 00:00:00 | 00:00:00 | 00:00:00 | |
| KRY50SP-1 | 2026-09-05 06:00:43 | 52.18046 | 16.08132 | 90° | 144km/h | 12639m | -3.4m/s | -50.4°C | 1.8% | 179.8hPa | 2.7V | 08:13:00 | 00:00:00 | 00:00:00 | |
| DB0DAN | 2026-09-05 06:00:40 | 52.18036 | 16.07909 | 82° | 128km/h | 12651m | -3.8m/s | -50.2°C | 1.7% | 179.47hPa | 2.7V | 00:00:00 | 00:00:00 | 00:00:00 | |
| KRY50SP-1 | 2026-09-05 06:00:38 | 52.18031 | 16.07854 | 80° | 137km/h | 12655m | -3.3m/s | -50.2°C | 1.7% | 179.4hPa | 2.7V | 08:13:00 | 00:00:00 | 00:00:00 | |
| 13BRC | 2026-09-05 06:00:37 | 52.18024 | 16.07797 | 80° | 144km/h | 12658m | -3.5m/s | -50.2°C | 1.7% | 179.3hPa | 2.7V | 08:13:00 | 00:00:00 | 00:00:00 | |
| 3Z3Z-3 | 2026-09-05 06:00:35 | 52.18010 | 16.07677 | 80° | 155km/h | 12664m | -3.5m/s | -50.1°C | 1.8% | 179.2hPa | 2.7V | 00:00:00 | 00:00:00 | 00:00:00 | |
| EDDB2-11 | 2026-09-05 06:00:32 | 52.17991 | 16.07420 | 87° | 155km/h | 12676m | -2.8m/s | -50.0°C | 1.8% | 178.8hPa | 2.7V | 00:00:00 | 00:00:00 | 00:00:00 | |
| SP3WXH-11 | 2026-09-05 06:00:31 | 52.17990 | 16.07357 | 89° | 150km/h | 12679m | -2.9m/s | -50.0°C | 1.8% | 178.7hPa | 2.7V | 00:00:00 | 00:00:00 | 00:00:00 | |
| DB0NH | 2026-09-05 06:00:29 | 52.17990 | 16.07236 | 92° | 137km/h | 12685m | -3.2m/s | -50.0°C | 4.0% | 178.5hPa | 2.7V | 00:00:00 | 01:51:34 | 00:00:00 | |
| SP6BVK | 2026-09-05 06:00:28 | 52.17990 | 16.07236 | 92° | 142km/h | 12685m | -3.3m/s | -50.0°C | 1.7% | 178.6hPa | 2.7V | 08:13:00 | 00:00:00 | 00:00:00 | |
| KRY50SP-1 | 2026-09-05 06:00:27 | 52.17991 | 16.07179 | 92° | 137km/h | 12688m | -3.8m/s | -50.0°C | 1.7% | 178.4hPa | 2.7V | 08:13:00 | 00:00:00 | 00:00:00 | |
| EDDB2-12 | 2026-09-05 06:00:25 | 52.17989 | 16.07018 | 86° | 124km/h | 12697m | -3.8m/s | -50.0°C | 1.7% | 178.1hPa | 2.7V | 00:00:00 | 00:00:00 | 00:00:00 | |
| SONDE2-11 | 2026-09-05 06:00:24 | 52.17987 | 16.06967 | 83° | 122km/h | 12701m | -3.7m/s | -50.1°C | 1.6% | 178.1hPa | 2.7V | 00:00:00 | 00:00:00 | 00:00:00 | |
| KRY50SP-1 | 2026-09-05 06:00:22 | 52.17977 | 16.06865 | 80° | 130km/h | 12708m | -3.5m/s | -50.1°C | 1.7% | 177.9hPa | 2.7V | 08:13:00 | 00:00:00 | 00:00:00 | |
| 3Z3Z-3 | 2026-09-05 06:00:21 | 52.17977 | 16.06865 | 80° | 130km/h | 12708m | -3.5m/s | -50.1°C | 1.7% | 177.9hPa | 2.7V | 00:00:00 | 00:00:00 | 00:00:00 | |
| S3001 | 2026-09-05 06:00:20 | 52.17963 | 16.06756 | 77° | 139km/h | 12715m | -3.3m/s | -50.1°C | 1.7% | 177.7hPa | 2.7V | 00:00:00 | 00:00:00 | 00:00:00 | |
| KRY50SP-1 | 2026-09-05 06:00:16 | 52.17945 | 16.06577 | 85° | 153km/h | 12724m | -3.0m/s | -50.1°C | 1.7% | 177.4hPa | 2.7V | 08:13:00 | 00:00:00 | 00:00:00 | |
| DB0DAN | 2026-09-05 06:00:10 | 52.17940 | 16.06171 | 89° | 119km/h | 12746m | -3.5m/s | -50.1°C | 1.7% | 176.78hPa | 2.7V | 00:00:00 | 00:00:00 | 00:00:00 | |
| SP3BTT-10 | 2026-09-05 06:00:08 | 52.17936 | 16.06071 | 85° | 144km/h | 12753m | -3.1m/s | -50.0°C | 4.0% | 176.6hPa | 2.5V | 00:00:00 | 00:00:00 | 00:00:00 | |
| SP6BVK | 2026-09-05 06:00:07 | 52.17936 | 16.06071 | 86° | 120km/h | 12753m | -3.1m/s | -50.1°C | 1.7% | 176.6hPa | 2.7V | 08:14:00 | 00:00:00 | 00:00:00 | |
| KRY50SP-1 | 2026-09-05 06:00:05 | 52.17927 | 16.05971 | 81° | 126km/h | 12760m | -3.8m/s | -50.1°C | 1.7% | 176.5hPa | 2.7V | 08:14:00 | 00:00:00 | 00:00:00 | |
| 3Z3Z-3 | 2026-09-05 06:00:03 | 52.17914 | 16.05865 | 79° | 137km/h | 12767m | -3.5m/s | -50.0°C | 1.7% | 176.3hPa | 2.7V | 08:14:00 | 00:00:00 | 00:00:00 | |
| EDDB2-11 | 2026-09-05 06:00:01 | 52.17890 | 16.05629 | 84° | 150km/h | 12780m | -3.6m/s | -49.7°C | 1.6% | 175.9hPa | 2.7V | 00:00:00 | 00:00:00 | 00:00:00 | |
| SP3WXH-11 | 2026-09-05 06:00:00 | 52.17890 | 16.05629 | 84° | 150km/h | 12780m | -3.6m/s | -49.7°C | 1.6% | 175.9hPa | 2.7V | 00:00:00 | 00:00:00 | 00:00:00 | |
| EDDB2-12 | 2026-09-05 05:59:54 | 52.17885 | 16.05272 | 91° | 130km/h | 12799m | -3.5m/s | -49.7°C | 1.6% | 175.3hPa | 2.7V | 00:00:00 | 00:00:00 | 00:00:00 | |
| SONDE2-11 | 2026-09-05 05:59:53 | 52.17886 | 16.05219 | 91° | 124km/h | 12803m | -4.1m/s | -49.7°C | 1.6% | 175.2hPa | 2.7V | 00:00:00 | 00:00:00 | 00:00:00 | |
| S3001 | 2026-09-05 05:59:49 | 52.17879 | 16.05017 | 82° | 126km/h | 12818m | -3.4m/s | -49.8°C | 1.7% | 174.9hPa | 2.7V | 00:00:00 | 00:00:00 | 00:00:00 | |
| SP6BVK | 2026-09-05 05:59:46 | 52.17869 | 16.04911 | 81° | 137km/h | 12825m | -3.0m/s | -49.8°C | 1.7% | 174.7hPa | 2.7V | 08:14:00 | 00:00:00 | 00:00:00 | |
| KRY50SP-1 | 2026-09-05 05:59:44 | 52.17858 | 16.04795 | 83° | 150km/h | 12832m | -3.3m/s | -49.9°C | 1.7% | 174.5hPa | 2.7V | 08:14:00 | 00:00:00 | 00:00:00 | |
| 3Z3Z-3 | 2026-09-05 05:59:42 | 52.17849 | 16.04672 | 87° | 150km/h | 12838m | -3.6m/s | -49.9°C | 1.6% | 174.4hPa | 2.7V | 08:14:00 | 00:00:00 | 00:00:00 | |
| DB0DAN | 2026-09-05 05:59:40 | 52.17845 | 16.04485 | 91° | 141km/h | 12848m | -3.4m/s | -50°C | 1.6% | 174.04hPa | 2.7V | 00:00:00 | 00:00:00 | 00:00:00 | |
| KRY50SP-1 | 2026-09-05 05:59:39 | 52.17845 | 16.04485 | 92° | 148km/h | 12848m | -3.4m/s | -50.0°C | 1.6% | 174.0hPa | 2.5V | 08:14:00 | 00:00:00 | 00:00:00 | |
| 13BRC | 2026-09-05 05:59:35 | 52.17854 | 16.04253 | 95° | 133km/h | 12862m | -3.8m/s | -50.0°C | 1.6% | 173.6hPa | 2.5V | 08:14:00 | 00:00:00 | 00:00:00 | |
| DL2RXE-15 | 2026-09-05 05:59:33 | 52.17858 | 16.04149 | 92° | 124km/h | 12869m | -3.9m/s | -50.0°C | 1.7% | 173.4hPa | 2.5V | 00:00:00 | 00:00:00 | 00:00:00 | |
| 3Z3Z-3 | 2026-09-05 05:59:31 | 52.17858 | 16.04046 | 87° | 128km/h | 12876m | -3.6m/s | -50.0°C | 1.7% | 173.3hPa | 2.5V | 08:14:00 | 00:00:00 | 00:00:00 | |
| EDDB2-11 | 2026-09-05 05:59:30 | 52.17849 | 16.03880 | 84° | 144km/h | 12887m | -3.3m/s | -50.1°C | 1.7% | 173.0hPa | 2.5V | 00:00:00 | 00:00:00 | 00:00:00 | |
| KRY50SP-1 | 2026-09-05 05:59:29 | 52.17849 | 16.03880 | 85° | 144km/h | 12887m | -3.3m/s | -50.1°C | 1.7% | 173.0hPa | 2.5V | 08:14:00 | 00:00:00 | 00:00:00 | |
| DB0DAN | 2026-09-05 05:59:25 | 52.17837 | 16.03632 | 89° | 151km/h | 12900m | -4.3m/s | -50°C | 1.6% | 172.61hPa | 2.5V | 00:00:00 | 00:00:00 | 00:00:00 | |
| EDDB2-12 | 2026-09-05 05:59:23 | 52.17837 | 16.03503 | 92° | 155km/h | 12908m | -4.0m/s | -50.1°C | 1.6% | 172.3hPa | 2.7V | 00:00:00 | 00:00:00 | 00:00:00 | |
| SONDE2-11 | 2026-09-05 05:59:22 | 52.17839 | 16.03440 | 94° | 153km/h | 12912m | -4.2m/s | -50.1°C | 1.6% | 172.3hPa | 2.7V | 00:00:00 | 00:00:00 | 00:00:00 | |
| 3Z3Z-3 | 2026-09-05 05:59:21 | 52.17839 | 16.03440 | 95° | 153km/h | 12912m | -4.2m/s | -50.1°C | 1.6% | 172.3hPa | 2.7V | 00:00:00 | 00:00:00 | 00:00:00 | |
| SP3BTT-10 | 2026-09-05 05:59:18 | 52.17854 | 16.03205 | 98° | 135km/h | 12928m | -4.1m/s | -50.0°C | 3.9% | 171.8hPa | 2.7V | 00:00:00 | 00:00:00 | 00:00:00 | |
| KRY50SP-1 | 2026-09-05 05:59:16 | 52.17858 | 16.03151 | 96° | 131km/h | 12932m | -3.9m/s | -49.9°C | 1.6% | 171.8hPa | 2.7V | 08:15:00 | 00:00:00 | 00:00:00 | |
| 13BRC | 2026-09-05 05:59:14 | 52.17862 | 16.03047 | 92° | 124km/h | 12940m | -3.9m/s | -49.8°C | 1.6% | 171.6hPa | 2.7V | 08:15:00 | 00:00:00 | 00:00:00 | |
| DB0DAN | 2026-09-05 05:59:10 | 52.17851 | 16.02768 | 87° | 144km/h | 12959m | -3.6m/s | -49.9°C | 1.6% | 171.16hPa | 2.7V | 00:00:00 | 00:00:00 | 00:00:00 | |
| SP6BVK | 2026-09-05 05:59:06 | 52.17847 | 16.02510 | 94° | 162km/h | 12974m | -4.2m/s | -49.9°C | 1.5% | 170.7hPa | 2.5V | 08:15:00 | 00:00:00 | 00:00:00 | |
| KRY50SP-1 | 2026-09-05 05:59:04 | 52.17850 | 16.02444 | 96° | 159km/h | 12978m | -4.3m/s | -49.9°C | 1.6% | 170.6hPa | 2.5V | 08:15:00 | 00:00:00 | 00:00:00 | |
| EDDB2-11 | 2026-09-05 05:58:59 | 52.17875 | 16.02035 | 90° | 128km/h | 13005m | -4.1m/s | -50.1°C | 1.6% | 169.9hPa | 2.5V | 00:00:00 | 00:00:00 | 00:00:00 | |
| SP3WXH-11 | 2026-09-05 05:58:58 | 52.17875 | 16.02035 | 90° | 128km/h | 13005m | -4.1m/s | -50.1°C | 1.6% | 169.9hPa | 2.5V | 00:00:00 | 00:00:00 | 00:00:00 | |
| EDDB2-12 | 2026-09-05 05:58:52 | 52.17860 | 16.01695 | 85° | 150km/h | 13027m | -4.2m/s | -50.2°C | 1.6% | 169.3hPa | 2.5V | 00:00:00 | 00:00:00 | 00:00:00 | |
| SONDE2-11 | 2026-09-05 05:58:51 | 52.17857 | 16.01631 | 86° | 159km/h | 13031m | -4.0m/s | -50.2°C | 1.6% | 169.2hPa | 2.5V | 00:00:00 | 00:00:00 | 00:00:00 | |
| S3001 | 2026-09-05 05:58:47 | 52.17863 | 16.01311 | 96° | 148km/h | 13048m | -4.2m/s | -50.1°C | 1.6% | 168.8hPa | 2.5V | 00:00:00 | 00:00:00 | 00:00:00 | |
| SP6BVK | 2026-09-05 05:58:44 | 52.17867 | 16.01251 | 98° | 142km/h | 13052m | -4.2m/s | -50.0°C | 1.6% | 168.6hPa | 2.5V | 08:15:00 | 00:00:00 | 00:00:00 | |
| KRY50SP-1 | 2026-09-05 05:58:43 | 52.17871 | 16.01194 | 99° | 135km/h | 13056m | -4.8m/s | -50.0°C | 1.5% | 168.5hPa | 2.5V | 08:15:00 | 00:00:00 | 00:00:00 | |
| 3Z3Z-3 | 2026-09-05 05:58:39 | 52.17880 | 16.00982 | 91° | 122km/h | 13072m | -4.4m/s | -50.0°C | 1.6% | 168.1hPa | 2.5V | 00:00:00 | 00:00:00 | 00:00:00 | |
| KRY50SP-1 | 2026-09-05 05:58:37 | 52.17879 | 16.00878 | 87° | 133km/h | 13081m | -4.0m/s | -50.0°C | 1.6% | 167.9hPa | 2.5V | 08:15:00 | 00:00:00 | 00:00:00 | |
| SP3BTT-10 | 2026-09-05 05:58:32 | 52.17870 | 16.00515 | 93° | 135km/h | 13104m | -3.7m/s | -50.0°C | 4.0% | 167.3hPa | 2.5V | 00:00:00 | 00:00:00 | 00:00:00 | |
| KRY50SP-1 | 2026-09-05 05:58:31 | 52.17870 | 16.00515 | 94° | 155km/h | 13104m | -3.8m/s | -50.1°C | 1.7% | 167.4hPa | 2.5V | 08:16:00 | 00:00:00 | 00:00:00 | |
| DB0NH | 2026-09-05 05:58:29 | 52.17880 | 16.00330 | 98° | 128km/h | 13115m | -3.6m/s | -49.9°C | 3.9% | 167.0hPa | 2.5V | 00:00:00 | 01:49:34 | 00:00:00 | |
| DL2RXE-15 | 2026-09-05 05:58:28 | 52.17880 | 16.00330 | 98° | 146km/h | 13115m | -3.6m/s | -50.0°C | 1.6% | 167.1hPa | 2.5V | 00:00:00 | 00:00:00 | 00:00:00 | |
| 3Z3Z-3 | 2026-09-05 05:58:27 | 52.17884 | 16.00272 | 99° | 141km/h | 13118m | -4.1m/s | -50.0°C | 1.6% | 167.0hPa | 2.5V | 08:16:00 | 00:00:00 | 00:00:00 | |
| DB0DAN | 2026-09-05 05:58:25 | 52.17900 | 16.00109 | 98° | 120km/h | 13130m | -4.7m/s | -50°C | 1.6% | 166.69hPa | 2.5V | 00:00:00 | 00:00:00 | 00:00:00 | |
| SP6BVK | 2026-09-05 05:58:23 | 52.17904 | 16.00058 | 98° | 120km/h | 13134m | -4.9m/s | -50.0°C | 1.6% | 166.5hPa | 2.7V | 08:16:00 | 00:00:00 | 00:00:00 | |
| SONCRA | 2026-09-05 05:58:22 | 52.17909 | 15.99957 | 93° | 117km/h | 13143m | -4.0m/s | -50.0°C | 1.6% | 166.3hPa | 2.7V | 00:00:00 | 00:00:00 | 00:00:00 | |
| EDDB2-12 | 2026-09-05 05:58:21 | 52.17910 | 15.99907 | 89° | 119km/h | 13147m | -4.1m/s | -50.0°C | 1.6% | 166.2hPa | 2.7V | 00:00:00 | 00:00:00 | 00:00:00 | |
| SONDE2-11 | 2026-09-05 05:58:20 | 52.17910 | 15.99856 | 87° | 122km/h | 13151m | -4.1m/s | -50.0°C | 1.6% | 166.2hPa | 2.7V | 00:00:00 | 00:00:00 | 00:00:00 | |
| 3Z3Z-3 | 2026-09-05 05:58:17 | 52.17906 | 15.99751 | 87° | 131km/h | 13157m | -3.9m/s | -50.0°C | 1.7% | 166.0hPa | 2.7V | 08:16:00 | 00:00:00 | 00:00:00 | |
| S3001 | 2026-09-05 05:58:16 | 52.17903 | 15.99581 | 91° | 142km/h | 13168m | -3.7m/s | -50.1°C | 1.7% | 165.7hPa | 2.7V | 00:00:00 | 00:00:00 | 00:00:00 | |
| KRY50SP-1 | 2026-09-05 05:58:14 | 52.17903 | 15.99581 | 92° | 144km/h | 13168m | -3.7m/s | -50.1°C | 1.7% | 165.7hPa | 2.7V | 08:16:00 | 00:00:00 | 00:00:00 | |
| 13BRC | 2026-09-05 05:58:12 | 52.17906 | 15.99464 | 97° | 144km/h | 13175m | -3.6m/s | -50.0°C | 1.7% | 165.5hPa | 2.7V | 08:16:00 | 00:00:00 | 00:00:00 | |
| DB0DAN | 2026-09-05 05:58:10 | 52.17920 | 15.99294 | 100° | 126km/h | 13185m | -4.3m/s | -50°C | 1.7% | 165.26hPa | 2.7V | 00:00:00 | 00:00:00 | 00:00:00 | |
| KRY50SP-1 | 2026-09-05 05:58:09 | 52.17920 | 15.99294 | 101° | 133km/h | 13186m | -4.3m/s | -50.0°C | 1.7% | 165.3hPa | 2.7V | 08:16:00 | 00:00:00 | 00:00:00 | |
| KRY50SP-1 | 2026-09-05 05:58:05 | 52.17945 | 15.99049 | 96° | 113km/h | 13207m | -4.6m/s | -50.1°C | 1.6% | 164.7hPa | 2.7V | 08:16:00 | 00:00:00 | 00:00:00 | |
| SP6BVK | 2026-09-05 05:58:03 | 52.17947 | 15.99003 | 93° | 111km/h | 13211m | -4.2m/s | -50.1°C | 1.6% | 164.6hPa | 2.7V | 08:16:00 | 00:00:00 | 00:00:00 | |
| EDDB2-11 | 2026-09-05 05:57:57 | 52.17935 | 15.98589 | 90° | 139km/h | 13242m | -4.1m/s | -49.9°C | 1.6% | 163.8hPa | 2.7V | 00:00:00 | 00:00:00 | 00:00:00 | |
| SP3WXH-11 | 2026-09-05 05:57:56 | 52.17935 | 15.98589 | 90° | 139km/h | 13242m | -4.1m/s | -49.9°C | 1.6% | 163.8hPa | 2.7V | 00:00:00 | 00:00:00 | 00:00:00 | |
| DB0DAN | 2026-09-05 05:57:55 | 52.17936 | 15.98531 | 93° | 135km/h | 13246m | -4m/s | -49.8°C | 1.7% | 163.75hPa | 2.7V | 00:00:00 | 00:00:00 | 00:00:00 | |
| SONCRA | 2026-09-05 05:57:51 | 52.17951 | 15.98314 | 99° | 120km/h | 13260m | -3.6m/s | -49.9°C | 1.7% | 163.4hPa | 2.7V | 00:00:00 | 00:00:00 | 00:00:00 | |
| EDDB2-12 | 2026-09-05 05:57:50 | 52.17956 | 15.98266 | 98° | 115km/h | 13264m | -3.9m/s | -49.9°C | 1.7% | 163.3hPa | 2.7V | 00:00:00 | 00:00:00 | 00:00:00 | |
| SONDE2-11 | 2026-09-05 05:57:49 | 52.17960 | 15.98221 | 98° | 110km/h | 13268m | -4.3m/s | -50.0°C | 1.7% | 163.2hPa | 2.7V | 00:00:00 | 00:00:00 | 00:00:00 | |
| KRY50SP-1 | 2026-09-05 05:57:48 | 52.17960 | 15.98221 | 99° | 111km/h | 13268m | -4.3m/s | -50.0°C | 1.7% | 163.2hPa | 2.7V | 08:16:00 | 00:00:00 | 00:00:00 | |
| SP3BTT-10 | 2026-09-05 05:57:47 | 52.17967 | 15.98134 | 95° | 115km/h | 13276m | -4.7m/s | -50.0°C | 3.9% | 162.8hPa | 2.7V | 08:16:00 | 00:00:00 | 00:00:00 | |
| DL2RXE-15 | 2026-09-05 05:57:44 | 52.17969 | 15.98046 | 89° | 106km/h | 13285m | -4.6m/s | -50.1°C | 1.6% | 162.8hPa | 2.5V | 00:00:00 | 00:00:00 | 00:00:00 | |
| KRY50SP-1 | 2026-09-05 05:57:43 | 52.17968 | 15.98003 | 87° | 108km/h | 13290m | -4.9m/s | -50.2°C | 1.6% | 162.7hPa | 2.5V | 08:16:00 | 00:00:00 | 00:00:00 | |
| SP6BVK | 2026-09-05 05:57:42 | 52.17965 | 15.97957 | 86° | 113km/h | 13294m | -5.0m/s | -50.2°C | 1.6% | 162.6hPa | 2.5V | 08:16:00 | 00:00:00 | 00:00:00 | |
| DB0DAN | 2026-09-05 05:57:40 | 52.17955 | 15.97807 | 86° | 126km/h | 13308m | -3.7m/s | -50.3°C | 1.7% | 162.28hPa | 2.5V | 00:00:00 | 00:00:00 | 00:00:00 | |
| AA1-15 | 2026-09-05 05:57:27 | 52.17970 | 15.97155 | 84° | 111km/h | 13354m | -3.9m/s | -50.5°C | 1% | 161.1hPa | 2.5V | 08:23:50 | 01:48:32 | 00:00:00 | |
| DB0DAN | 2026-09-05 05:57:25 | 52.17964 | 15.97061 | 82° | 115km/h | 13362m | -4.4m/s | -50.5°C | 1.7% | 160.83hPa | 2.7V | 00:00:00 | 00:00:00 | 00:00:00 | |
| AA1-15 | 2026-09-05 05:57:14 | 52.17970 | 15.96476 | 99° | 119km/h | 13407m | -4.2m/s | -50.7°C | 1% | 159.7hPa | 2.5V | 08:23:50 | 01:48:19 | 00:00:00 | |
| 3Z3Z-3 | 2026-09-05 05:57:13 | 52.17970 | 15.96476 | 99° | 119km/h | 13407m | -4.2m/s | -50.7°C | 1.6% | 159.7hPa | 2.5V | 00:00:00 | 00:00:00 | 00:00:00 | |
| DB0DAN | 2026-09-05 05:57:10 | 52.17983 | 15.96296 | 92° | 100km/h | 13422m | -4.6m/s | -50.7°C | 0% | 0hPa | 2.5V | 00:00:00 | 00:00:00 | 00:00:00 | |
| DB0DAN | 2026-09-05 05:57:10 | 52.17983 | 15.96296 | 92° | 100km/h | 13422m | -4.6m/s | -50.7°C | 1.8% | 159.33hPa | 2.5V | 00:00:00 | 00:00:00 | 00:00:00 | |
| AA1-15 | 2026-09-05 05:56:58 | 52.17994 | 15.95668 | 102° | 131km/h | 13468m | -4.3m/s | -50.6°C | 1.1% | 158.2hPa | 2.5V | 08:23:50 | 01:48:03 | 00:00:00 | |
| DB0DAN | 2026-09-05 05:56:55 | 52.18014 | 15.95522 | 101° | 106km/h | 13481m | -4.1m/s | 0°C | 0% | 0hPa | 2.7V | 00:00:00 | 00:00:00 | 00:00:00 | |
| DB0DAN | 2026-09-05 05:56:55 | 52.18014 | 15.95522 | 101° | 106km/h | 13481m | -4.1m/s | -50.7°C | 1.7% | 157.92hPa | 2.7V | 00:00:00 | 00:00:00 | 00:00:00 | |
| AA1-15 | 2026-09-05 05:56:47 | 52.18022 | 15.95144 | 90° | 133km/h | 13510m | -4.2m/s | -50.8°C | 1.2% | 157.2hPa | 2.5V | 08:23:50 | 01:47:52 | 00:00:00 | |
| KRY50SP-1 | 2026-09-05 05:56:42 | 52.18030 | 15.94921 | 100° | 135km/h | 13526m | -4.1m/s | -50.9°C | 1.9% | 156.9hPa | 2.6V | 08:17:00 | 00:00:00 | 00:00:00 | |
| DB0DAN | 2026-09-05 05:56:40 | 52.18049 | 15.94769 | 103° | 113km/h | 13537m | -4m/s | -50.9°C | 1.9% | 156.58hPa | 2.6V | 00:00:00 | 00:00:00 | 00:00:00 | |
| AA1-15 | 2026-09-05 05:56:30 | 52.18066 | 15.94319 | 86° | 126km/h | 13577m | -4.5m/s | -50.9°C | 1.2% | 155.6hPa | 2.7V | 08:23:50 | 01:47:35 | 00:00:00 | |
| 13BRC | 2026-09-05 05:56:29 | 52.18066 | 15.94318 | 87° | 126km/h | 13577m | -4.5m/s | -50.9°C | 1.8% | 155.6hPa | 2.7V | 08:17:00 | 00:00:00 | 00:00:00 | |
| DB0DAN | 2026-09-05 05:56:25 | 52.18070 | 15.94048 | 97° | 126km/h | 13595m | -4.2m/s | -51°C | 1.9% | 155.15hPa | 2.7V | 00:00:00 | 00:00:00 | 00:00:00 | |
| EDDB2-11 | 2026-09-05 05:56:24 | 52.18079 | 15.93944 | 100° | 122km/h | 13604m | -4.4m/s | -51.0°C | 1.8% | 155.0hPa | 2.5V | 00:00:00 | 00:00:00 | 00:00:00 | |
| SP3WXH-11 | 2026-09-05 05:56:23 | 52.18079 | 15.93944 | 100° | 122km/h | 13604m | -4.4m/s | -51.0°C | 1.8% | 155.0hPa | 2.5V | 00:00:00 | 00:00:00 | 00:00:00 | |
| KRY50SP-1 | 2026-09-05 05:56:21 | 52.18090 | 15.93850 | 101° | 111km/h | 13612m | -4.4m/s | -51.1°C | 1.8% | 154.8hPa | 2.5V | 08:17:00 | 00:00:00 | 00:00:00 | |
| 3Z3Z-3 | 2026-09-05 05:56:20 | 52.18090 | 15.93850 | 101° | 111km/h | 13612m | -4.4m/s | -51.1°C | 1.8% | 154.8hPa | 2.5V | 08:17:00 | 00:00:00 | 00:00:00 | |
| SP6BVK | 2026-09-05 05:56:19 | 52.18094 | 15.93806 | 99° | 106km/h | 13616m | -4.0m/s | -51.1°C | 1.8% | 154.7hPa | 2.5V | 08:17:00 | 00:00:00 | 00:00:00 | |
| SONCRA | 2026-09-05 05:56:18 | 52.18101 | 15.93680 | 90° | 100km/h | 13628m | -4.4m/s | -51.1°C | 1.8% | 154.4hPa | 2.5V | 00:00:00 | 00:00:00 | 00:00:00 | |
| SP3BTT-10 | 2026-09-05 05:56:17 | 52.18101 | 15.93680 | 91° | 117km/h | 13628m | -4.4m/s | -51.1°C | 4.3% | 154.4hPa | 2.5V | 00:00:00 | 00:00:00 | 00:00:00 | |
| SONDE2-11 | 2026-09-05 05:56:16 | 52.18099 | 15.93592 | 85° | 111km/h | 13636m | -3.9m/s | -51.2°C | 1.8% | 154.2hPa | 2.5V | 00:00:00 | 00:00:00 | 00:00:00 | |
| DB0NH | 2026-09-05 05:56:15 | 52.18099 | 15.93592 | 86° | 124km/h | 13636m | -3.8m/s | -51.1°C | 4.3% | 154.2hPa | 2.5V | 00:00:00 | 01:47:20 | 00:00:00 | |
| DL2RXE-15 | 2026-09-05 05:56:11 | 52.18092 | 15.93444 | 86° | 128km/h | 13649m | -4.5m/s | -51.2°C | 1.8% | 153.9hPa | 2.5V | 08:17:00 | 00:00:00 | 00:00:00 | |
| 3Z3Z-3 | 2026-09-05 05:56:09 | 52.18089 | 15.93336 | 92° | 137km/h | 13658m | -4.2m/s | -51.1°C | 1.7% | 153.7hPa | 2.5V | 08:17:00 | 00:00:00 | 00:00:00 | |
| KRY50SP-1 | 2026-09-05 05:56:03 | 52.18109 | 15.93012 | 102° | 119km/h | 13682m | -3.9m/s | -51.2°C | 1.7% | 153.2hPa | 2.5V | 08:17:00 | 00:00:00 | 00:00:00 | |
| SP6BVK | 2026-09-05 05:55:58 | 52.18125 | 15.92787 | 89° | 108km/h | 13700m | -4.0m/s | -51.3°C | 1.8% | 152.7hPa | 2.5V | 08:18:00 | 00:00:00 | 00:00:00 | |
| 3Z3Z-3 | 2026-09-05 05:55:57 | 52.18123 | 15.92742 | 87° | 113km/h | 13704m | -4.0m/s | -51.4°C | 1.8% | 152.7hPa | 2.5V | 00:00:00 | 00:00:00 | 00:00:00 | |
| DB0DAN | 2026-09-05 05:55:55 | 52.18116 | 15.92593 | 88° | 124km/h | 13717m | -4.7m/s | -51.4°C | 1.8% | 152.37hPa | 2.5V | 00:00:00 | 00:00:00 | 00:00:00 | |
| SP3WXH-11 | 2026-09-05 05:55:52 | 52.18114 | 15.92426 | 93° | 137km/h | 13729m | -3.9m/s | -51.3°C | 1.7% | 152.1hPa | 2.7V | 00:00:00 | 00:00:00 | 00:00:00 | |
| SONCRA | 2026-09-05 05:55:47 | 52.18144 | 15.92104 | 101° | 119km/h | 13750m | -4.7m/s | -51.2°C | 1.6% | 151.5hPa | 2.7V | 00:00:00 | 00:00:00 | 00:00:00 | |
| EDDB2-12 | 2026-09-05 05:55:46 | 52.18144 | 15.92104 | 101° | 119km/h | 13750m | -4.7m/s | -51.2°C | 1.6% | 151.5hPa | 2.7V | 00:00:00 | 00:00:00 | 00:00:00 | |
| SONDE2-11 | 2026-09-05 05:55:45 | 52.18154 | 15.92012 | 98° | 106km/h | 13758m | -4.5m/s | -51.1°C | 1.6% | 151.4hPa | 2.7V | 00:00:00 | 00:00:00 | 00:00:00 | |
| DB0NH | 2026-09-05 05:55:43 | 52.18158 | 15.91968 | 97° | 115km/h | 13762m | -4.7m/s | -51.0°C | 4.0% | 151.3hPa | 2.7V | 00:00:00 | 01:46:48 | 00:00:00 | |
| 3Z3Z-3 | 2026-09-05 05:55:42 | 52.18158 | 15.91968 | 98° | 106km/h | 13762m | -4.7m/s | -51.1°C | 1.6% | 151.3hPa | 2.7V | 00:00:00 | 00:00:00 | 00:00:00 | |
| DB0DAN | 2026-09-05 05:55:40 | 52.18161 | 15.91835 | 88° | 108km/h | 13773m | -3.6m/s | -51°C | 1.6% | 151.05hPa | 2.7V | 00:00:00 | 00:00:00 | 00:00:00 | |
| SP6BVK | 2026-09-05 05:55:38 | 52.18160 | 15.91787 | 88° | 117km/h | 13777m | -3.8m/s | -51.0°C | 1.6% | 151.0hPa | 2.5V | 08:18:00 | 00:00:00 | 00:00:00 | |
| SP3BTT-10 | 2026-09-05 05:55:32 | 52.18164 | 15.91420 | 100° | 108km/h | 13802m | -3.6m/s | -50.9°C | 4.2% | 150.3hPa | 2.5V | 00:00:00 | 00:00:00 | 00:00:00 | |
| KRY50SP-1 | 2026-09-05 05:55:31 | 52.18164 | 15.91420 | 100° | 126km/h | 13802m | -3.7m/s | -51.0°C | 1.7% | 150.4hPa | 2.5V | 08:18:00 | 00:00:00 | 00:00:00 | |
| 13BRC | 2026-09-05 05:55:27 | 52.18188 | 15.91231 | 103° | 108km/h | 13816m | -4.1m/s | -51.1°C | 1.6% | 150.0hPa | 2.5V | 08:18:00 | 00:00:00 | 00:00:00 | |
| KRY50SP-1 | 2026-09-05 05:55:26 | 52.18193 | 15.91188 | 101° | 102km/h | 13820m | -4.3m/s | -51.1°C | 1.6% | 149.9hPa | 2.5V | 08:18:00 | 00:00:00 | 00:00:00 | |
| EDDB2-11 | 2026-09-05 05:55:22 | 52.18204 | 15.90944 | 85° | 106km/h | 13842m | -4.7m/s | -51.0°C | 1.6% | 149.4hPa | 2.5V | 00:00:00 | 00:00:00 | 00:00:00 | |
| SP3WXH-11 | 2026-09-05 05:55:21 | 52.18204 | 15.90944 | 85° | 106km/h | 13842m | -4.7m/s | -51.0°C | 1.6% | 149.4hPa | 2.5V | 00:00:00 | 00:00:00 | 00:00:00 | |
| DAC517 | 2026-09-05 05:55:20 | 52.18203 | 15.90943 | 87° | 106km/h | 13842m | -4.7m/s | -51.0°C | 1.6% | 149.4hPa | 2.5V | 00:00:00 | 00:00:00 | 00:00:00 | |
| SP6BVK | 2026-09-05 05:55:18 | 52.18199 | 15.90851 | 88° | 119km/h | 13851m | -3.8m/s | -51.0°C | 1.7% | 149.2hPa | 2.5V | 08:18:00 | 00:00:00 | 00:00:00 | |
| SONCRA | 2026-09-05 05:55:16 | 52.18206 | 15.90649 | 99° | 122km/h | 13867m | -3.9m/s | -50.9°C | 1.7% | 148.9hPa | 2.5V | 00:00:00 | 00:00:00 | 00:00:00 | |
| EDDB2-12 | 2026-09-05 05:55:15 | 52.18206 | 15.90649 | 99° | 122km/h | 13867m | -3.9m/s | -50.9°C | 1.7% | 148.9hPa | 2.5V | 00:00:00 | 00:00:00 | 00:00:00 | |
| SONDE2-11 | 2026-09-05 05:55:14 | 52.18218 | 15.90551 | 102° | 117km/h | 13875m | -4.3m/s | -50.8°C | 1.6% | 148.7hPa | 2.5V | 00:00:00 | 00:00:00 | 00:00:00 | |
| DB0NH | 2026-09-05 05:55:13 | 52.18218 | 15.90551 | 103° | 99km/h | 13875m | -4.3m/s | -50.8°C | 4.1% | 148.7hPa | 2.5V | 00:00:00 | 01:46:18 | 00:00:00 | |
| DB0DAN | 2026-09-05 05:55:10 | 52.18237 | 15.90421 | 104° | 99km/h | 13889m | -4.3m/s | -50.9°C | 1.6% | 148.43hPa | 2.7V | 00:00:00 | 00:00:00 | 00:00:00 | |
| AA1-15 | 2026-09-05 05:54:59 | 52.18253 | 15.89992 | 91° | 115km/h | 13938m | -3.7m/s | -50.8°C | 1% | 147.5hPa | 2.7V | 08:23:50 | 01:46:04 | 00:00:00 | |
| KRY50SP-1 | 2026-09-05 05:54:58 | 52.18253 | 15.89992 | 92° | 115km/h | 13938m | -3.7m/s | -50.8°C | 1.6% | 147.5hPa | 2.7V | 08:19:00 | 00:00:00 | 00:00:00 | |
| SP6BVK | 2026-09-05 05:54:57 | 52.18253 | 15.89945 | 93° | 119km/h | 13942m | -3.4m/s | -50.7°C | 1.7% | 147.5hPa | 2.7V | 08:19:00 | 00:00:00 | 00:00:00 | |
| DB0DAN | 2026-09-05 05:54:55 | 52.18265 | 15.89802 | 103° | 108km/h | 13953m | -3.6m/s | -50.7°C | 1.6% | 147.2hPa | 2.7V | 00:00:00 | 00:00:00 | 00:00:00 | |
| SP3WXH-11 | 2026-09-05 05:54:50 | 52.18297 | 15.89603 | 103° | 86km/h | 13971m | -4.0m/s | -50.6°C | 1.5% | 146.8hPa | 2.6V | 00:00:00 | 00:00:00 | 00:00:00 | |
| SP3BTT-10 | 2026-09-05 05:54:48 | 52.18304 | 15.89535 | 96° | 93km/h | 13979m | -3.8m/s | -50.5°C | 3.9% | 146.6hPa | 2.6V | 00:00:00 | 00:00:00 | 00:00:00 | |
| 13BRC | 2026-09-05 05:54:46 | 52.18305 | 15.89501 | 93° | 84km/h | 13983m | -4.1m/s | -50.6°C | 1.6% | 146.5hPa | 2.6V | 08:19:00 | 00:00:00 | 00:00:00 | |
| SONCRA | 2026-09-05 05:54:45 | 52.18303 | 15.89389 | 88° | 97km/h | 13995m | -3.4m/s | -50.5°C | 1.5% | 146.3hPa | 2.6V | 00:00:00 | 00:00:00 | 00:00:00 | |
| EDDB2-12 | 2026-09-05 05:54:44 | 52.18303 | 15.89389 | 88° | 97km/h | 13995m | -3.4m/s | -50.5°C | 1.5% | 146.3hPa | 2.6V | 00:00:00 | 00:00:00 | 00:00:00 | |
| DB0NH | 2026-09-05 05:54:43 | 52.18303 | 15.89348 | 90° | 93km/h | 13999m | -3.4m/s | -50.5°C | 4.0% | 146.2hPa | 2.6V | 00:00:00 | 01:45:48 | 00:00:00 | |
| KRY50SP-1 | 2026-09-05 05:54:42 | 52.18303 | 15.89348 | 90° | 104km/h | 13999m | -3.4m/s | -50.5°C | 1.6% | 146.3hPa | 2.6V | 08:19:00 | 00:00:00 | 00:00:00 | |
| DB0DAN | 2026-09-05 05:54:40 | 52.18308 | 15.89213 | 98° | 106km/h | 14010m | -3.7m/s | -50.6°C | 1.6% | 145.98hPa | 2.6V | 00:00:00 | 00:00:00 | 00:00:00 | |
| SP6BVK | 2026-09-05 05:54:37 | 52.18317 | 15.89125 | 104° | 104km/h | 14017m | -3.1m/s | -50.5°C | 1.6% | 145.9hPa | 2.7V | 08:19:00 | 00:00:00 | 00:00:00 | |
| KRY50SP-1 | 2026-09-05 05:54:36 | 52.18323 | 15.89084 | 105° | 100km/h | 14020m | -3.5m/s | -50.5°C | 1.6% | 145.8hPa | 2.7V | 08:19:00 | 00:00:00 | 00:00:00 | |
| DL2RXE-15 | 2026-09-05 05:54:33 | 52.18340 | 15.88975 | 105° | 84km/h | 14031m | -3.7m/s | -50.5°C | 1.6% | 145.5hPa | 2.7V | 00:00:00 | 00:00:00 | 00:00:00 | |
| KRY50SP-1 | 2026-09-05 05:54:31 | 52.18347 | 15.88910 | 97° | 77km/h | 14038m | -3.4m/s | -50.5°C | 1.5% | 145.4hPa | 2.7V | 08:19:00 | 00:00:00 | 00:00:00 | |
| 3Z3Z-3 | 2026-09-05 05:54:29 | 52.18348 | 15.88845 | 89° | 80km/h | 14046m | -3.5m/s | -50.5°C | 1.5% | 145.2hPa | 2.7V | 00:00:00 | 00:00:00 | 00:00:00 | |
| DB0DAN | 2026-09-05 05:54:25 | 52.18338 | 15.88658 | 88° | 99km/h | 14064m | -3.4m/s | -50.4°C | 1.6% | 144.79hPa | 2.7V | 00:00:00 | 00:00:00 | 00:00:00 | |
| KRY50SP-1 | 2026-09-05 05:54:21 | 52.18341 | 15.88525 | 98° | 108km/h | 14074m | -3.6m/s | -50.4°C | 1.6% | 144.6hPa | 2.7V | 08:19:00 | 00:00:00 | 00:00:00 | |
| SP3WXH-11 | 2026-09-05 05:54:19 | 52.18354 | 15.88404 | 102° | 89km/h | 14084m | -3.5m/s | -50.4°C | 1.6% | 144.4hPa | 2.7V | 00:00:00 | 00:00:00 | 00:00:00 | |
| SP6BVK | 2026-09-05 05:54:17 | 52.18359 | 15.88368 | 102° | 86km/h | 14087m | -3.1m/s | -50.4°C | 1.6% | 144.3hPa | 2.7V | 08:20:00 | 00:00:00 | 00:00:00 | |
| KRY50SP-1 | 2026-09-05 05:54:15 | 52.18365 | 15.88302 | 96° | 77km/h | 14094m | -3.1m/s | -50.4°C | 1.5% | 144.1hPa | 2.7V | 08:20:00 | 00:00:00 | 00:00:00 | |
| 3Z3Z-3 | 2026-09-05 05:54:13 | 52.18365 | 15.88210 | 87° | 75km/h | 14103m | -3.5m/s | -50.4°C | 1.5% | 143.9hPa | 2.7V | 08:20:00 | 00:00:00 | 00:00:00 | |
| DL2RXE-15 | 2026-09-05 05:54:12 | 52.18365 | 15.88210 | 87° | 75km/h | 14103m | -3.5m/s | -50.4°C | 1.5% | 143.9hPa | 2.7V | 08:20:00 | 00:00:00 | 00:00:00 | |
| DB0DAN | 2026-09-05 05:54:10 | 52.18356 | 15.88108 | 79° | 86km/h | 14114m | -3.5m/s | -50.4°C | 1.5% | 143.64hPa | 2.7V | 00:00:00 | 00:00:00 | 00:00:00 | |
| DAC517 | 2026-09-05 05:54:09 | 52.18356 | 15.88108 | 80° | 91km/h | 14114m | -3.5m/s | -50.4°C | 1.5% | 143.6hPa | 2.6V | 00:00:00 | 00:00:00 | 00:00:00 | |
| 13BRC | 2026-09-05 05:54:05 | 52.18342 | 15.87899 | 91° | 106km/h | 14132m | -3.5m/s | -50.5°C | 1.6% | 143.3hPa | 2.6V | 08:20:00 | 00:00:00 | 00:00:00 | |
| KRY50SP-1 | 2026-09-05 05:54:04 | 52.18342 | 15.87899 | 91° | 106km/h | 14132m | -3.5m/s | -50.5°C | 1.6% | 143.3hPa | 2.6V | 08:20:00 | 00:00:00 | 00:00:00 | |
| SP3BTT-10 | 2026-09-05 05:54:02 | 52.18349 | 15.87778 | 99° | 88km/h | 14142m | -3.6m/s | -50.5°C | 4.0% | 143.0hPa | 2.6V | 00:00:00 | 00:00:00 | 00:00:00 | |
| KRY50SP-1 | 2026-09-05 05:53:58 | 52.18357 | 15.87677 | 96° | 73km/h | 14154m | -3.5m/s | -50.5°C | 1.5% | 142.9hPa | 2.6V | 08:20:00 | 00:00:00 | 00:00:00 | |
| DB0DAN | 2026-09-05 05:53:55 | 52.18350 | 15.87555 | 78° | 78km/h | 14167m | -3.2m/s | -50.5°C | 1.5% | 142.48hPa | 2.6V | 00:00:00 | 00:00:00 | 00:00:00 | |
| SP3WXH-11 | 2026-09-05 05:53:48 | 52.18324 | 15.87273 | 89° | 106km/h | 14192m | -3.3m/s | -50.6°C | 1.6% | 142.0hPa | 2.6V | 00:00:00 | 00:00:00 | 00:00:00 | |
| KRY50SP-1 | 2026-09-05 05:53:46 | 52.18325 | 15.87230 | 94° | 104km/h | 14196m | -3.1m/s | -50.7°C | 1.6% | 142.0hPa | 2.6V | 08:20:00 | 00:00:00 | 00:00:00 | |
| DL2RXE-15 | 2026-09-05 05:53:44 | 52.18332 | 15.87112 | 97° | 86km/h | 14205m | -3.2m/s | -50.7°C | 1.6% | 141.7hPa | 2.6V | 00:00:00 | 00:00:00 | 00:00:00 | |
| DB0NH | 2026-09-05 05:53:43 | 52.18334 | 15.87078 | 94° | 95km/h | 14208m | -2.9m/s | -50.7°C | 4.0% | 141.6hPa | 2.6V | 00:00:00 | 01:44:48 | 00:00:00 | |
| DB0DAN | 2026-09-05 05:53:40 | 52.18332 | 15.86985 | 80° | 73km/h | 14218m | -3.3m/s | -50.8°C | 1.6% | 141.46hPa | 2.5V | 00:00:00 | 00:00:00 | 00:00:00 | |
| SP6BVK | 2026-09-05 05:53:36 | 52.18317 | 15.86884 | 76° | 91km/h | 14228m | -3.2m/s | -50.9°C | 1.6% | 141.2hPa | 2.6V | 08:20:00 | 00:00:00 | 00:00:00 | |
| KRY50SP-1 | 2026-09-05 05:53:35 | 52.18311 | 15.86847 | 77° | 99km/h | 14231m | -3.5m/s | -50.9°C | 1.6% | 141.2hPa | 2.6V | 08:20:00 | 00:00:00 | 00:00:00 | |
| 3Z3Z-3 | 2026-09-05 05:53:34 | 52.18305 | 15.86806 | 79° | 104km/h | 14235m | -3.1m/s | -51.0°C | 1.6% | 141.1hPa | 2.6V | 08:20:00 | 00:00:00 | 00:00:00 | |
| KRY50SP-1 | 2026-09-05 05:53:29 | 52.18297 | 15.86584 | 94° | 104km/h | 14250m | -3.2m/s | -51.1°C | 1.6% | 140.7hPa | 2.6V | 08:20:00 | 00:00:00 | 00:00:00 | |
| AA1-15 | 2026-09-05 05:53:12 | 52.18250 | 15.85878 | 92° | 102km/h | 14312m | -3.6m/s | -51.6°C | 1.2% | 139.4hPa | 2.6V | 08:23:50 | 01:44:17 | 00:00:00 | |
| DB0DAN | 2026-09-05 05:53:10 | 52.18251 | 15.85801 | 91° | 84km/h | 14319m | -3.4m/s | -51.7°C | 1.7% | 139.27hPa | 2.6V | 00:00:00 | 00:00:00 | 00:00:00 | |
| AA1-15 | 2026-09-05 05:53:00 | 52.18196 | 15.85422 | 76° | 115km/h | 14355m | -3.3m/s | -51.9°C | 1% | 138.5hPa | 2.6V | 08:23:50 | 01:44:05 | 00:00:00 | |
| DB0DAN | 2026-09-05 05:52:55 | 52.18184 | 15.85190 | 91° | 97km/h | 14372m | -3.1m/s | -52°C | 1.6% | 138.11hPa | 2.6V | 00:00:00 | 00:00:00 | 00:00:00 | |
| AA1-15 | 2026-09-05 05:52:50 | 52.18180 | 15.85001 | 81° | 86km/h | 14389m | -3.3m/s | -52°C | 1.1% | 137.8hPa | 2.6V | 08:23:50 | 01:43:55 | 00:00:00 | |
| SP3WXH-11 | 2026-09-05 05:52:46 | 52.18155 | 15.84847 | 75° | 110km/h | 14401m | -3.1m/s | -52.1°C | 1.7% | 137.5hPa | 2.7V | 00:00:00 | 00:00:00 | 00:00:00 | |
| KRY50SP-1 | 2026-09-05 05:52:43 | 52.18142 | 15.84756 | 79° | 117km/h | 14409m | -2.9m/s | -52.2°C | 1.7% | 137.4hPa | 2.7V | 08:21:00 | 00:00:00 | 00:00:00 | |
| DB0DAN | 2026-09-05 05:52:40 | 52.18127 | 15.84560 | 87° | 113km/h | 14422m | -2.9m/s | -52.3°C | 1.7% | 137.07hPa | 2.7V | 00:00:00 | 00:00:00 | 00:00:00 | |
| AA1-15 | 2026-09-05 05:52:39 | 52.18127 | 15.84511 | 90° | 115km/h | 14425m | -3.5m/s | -52.3°C | 1.1% | 137hPa | 2.6V | 08:23:50 | 01:43:44 | 00:00:00 | |
| SONDE2-11 | 2026-09-05 05:52:38 | 52.18128 | 15.84465 | 93° | 110km/h | 14429m | -3.7m/s | -52.3°C | 1.7% | 136.9hPa | 2.6V | 00:00:00 | 00:00:00 | 00:00:00 | |
| DL2RXE-15 | 2026-09-05 05:52:34 | 52.18132 | 15.84338 | 94° | 95km/h | 14440m | -3.2m/s | -52.3°C | 1.7% | 136.7hPa | 2.6V | 08:22:00 | 00:00:00 | 00:00:00 | |
| AA1-15 | 2026-09-05 05:52:16 | 52.18106 | 15.83534 | 85° | 91km/h | 14509m | -3.4m/s | -51.8°C | 1.1% | 135.3hPa | 2.6V | 08:23:50 | 01:43:21 | 00:00:00 | |
| SP6BVK | 2026-09-05 05:52:15 | 52.18103 | 15.83496 | 83° | 95km/h | 14513m | -3.0m/s | -51.8°C | 1.6% | 135.2hPa | 2.6V | 08:22:00 | 00:00:00 | 00:00:00 | |
| 3Z3Z-3 | 2026-09-05 05:52:12 | 52.18093 | 15.83415 | 80° | 106km/h | 14520m | -3.3m/s | -51.7°C | 0% | 135.0hPa | 2.6V | 00:00:00 | 00:00:00 | 00:00:00 | |
| DB0DAN | 2026-09-05 05:52:10 | 52.18079 | 15.83275 | 83° | 113km/h | 14530m | -3.2m/s | -51.7°C | 1.5% | 134.76hPa | 2.6V | 00:00:00 | 00:00:00 | 00:00:00 | |
| AA1-15 | 2026-09-05 05:52:06 | 52.18077 | 15.83071 | 93° | 120km/h | 14545m | -3.2m/s | -51.5°C | 0.9% | 134.5hPa | 2.6V | 08:23:50 | 01:43:11 | 00:00:00 | |
| KRY50SP-1 | 2026-09-05 05:52:05 | 52.18077 | 15.83071 | 94° | 120km/h | 14545m | -3.2m/s | -51.5°C | 1.5% | 134.5hPa | 2.6V | 08:22:00 | 00:00:00 | 00:00:00 | |
| S3001 | 2026-09-05 05:52:03 | 52.18068 | 15.82494 | 84° | 128km/h | 14593m | -3.9m/s | -51.8°C | 1.6% | 133.5hPa | 2.6V | 00:00:00 | 00:00:00 | 00:00:00 | |
| KRY50SP-1 | 2026-09-05 05:52:00 | 52.18093 | 15.82848 | 95° | 95km/h | 14564m | -3.7m/s | -51.6°C | 1.6% | 134.1hPa | 2.6V | 08:22:00 | 00:00:00 | 00:00:00 | |
| 13BRC | 2026-09-05 05:51:59 | 52.18093 | 15.82809 | 90° | 97km/h | 14568m | -3.0m/s | -51.6°C | 1.6% | 134.0hPa | 2.6V | 08:22:00 | 00:00:00 | 00:00:00 | |
| 3Z3Z-3 | 2026-09-05 05:51:58 | 52.18091 | 15.82770 | 86° | 95km/h | 14570m | -3.5m/s | -51.6°C | 0% | 134.0hPa | 2.6V | 00:00:00 | 00:00:00 | 00:00:00 | |
| DB0DAN | 2026-09-05 05:51:55 | 52.18075 | 15.82596 | 82° | 113km/h | 14585m | -3.6m/s | -51.7°C | 1.6% | 133.63hPa | 2.6V | 00:00:00 | 00:00:00 | 00:00:00 | |
| AA1-15 | 2026-09-05 05:51:55 | 52.18075 | 15.82596 | 82° | 119km/h | 14584m | -3.6m/s | -51.7°C | 1% | 133.6hPa | 2.6V | 08:23:50 | 01:43:00 | 00:00:00 | |
| AA1-15 | 2026-09-05 05:51:44 | 52.18089 | 15.82054 | 97° | 95km/h | 14628m | -4.2m/s | -51.9°C | 0.9% | 132.8hPa | 2.6V | 08:23:50 | 01:42:49 | 00:00:00 | |
| AA1-15 | 2026-09-05 05:51:33 | 52.18086 | 15.81554 | 98° | 122km/h | 14669m | -4.4m/s | -51.5°C | 0.9% | 131.9hPa | 2.6V | 08:23:50 | 01:42:38 | 00:00:00 | |
| AA1-15 | 2026-09-05 05:51:23 | 52.18103 | 15.81154 | 82° | 97km/h | 14714m | -4.4m/s | -50.8°C | 0.7% | 131hPa | 2.6V | 08:23:50 | 01:42:28 | 00:00:00 | |
| KRY50SP-1 | 2026-09-05 05:51:18 | 52.18092 | 15.80975 | 90° | 119km/h | 14729m | -4.0m/s | -50.7°C | 1.5% | 130.6hPa | 2.7V | 08:22:00 | 00:00:00 | 00:00:00 | |
| DAC517 | 2026-09-05 05:51:16 | 52.18094 | 15.80880 | 97° | 113km/h | 14738m | -3.9m/s | -50.6°C | 1.5% | 130.5hPa | 2.7V | 00:00:00 | 00:00:00 | 00:00:00 | |
| EDDB2-11 | 2026-09-05 05:51:14 | 52.18109 | 15.80712 | 98° | 91km/h | 14756m | -4.2m/s | -50.6°C | 1.5% | 130.2hPa | 2.7V | 00:00:00 | 00:00:00 | 00:00:00 | |
| SP3WXH-11 | 2026-09-05 05:51:13 | 52.18109 | 15.80712 | 98° | 91km/h | 14756m | -4.2m/s | -50.6°C | 1.5% | 130.2hPa | 2.7V | 00:00:00 | 00:00:00 | 00:00:00 | |
| KRY50SP-1 | 2026-09-05 05:51:12 | 52.18110 | 15.80712 | 99° | 93km/h | 14757m | -4.2m/s | -50.6°C | 1.5% | 130.2hPa | 2.7V | 08:22:00 | 00:00:00 | 00:00:00 | |
| DB0DAN | 2026-09-05 05:51:10 | 52.18113 | 15.80605 | 88° | 80km/h | 14769m | -3.9m/s | -50.6°C | 1.4% | 129.88hPa | 2.7V | 00:00:00 | 00:00:00 | 00:00:00 | |
| DL2RXE-15 | 2026-09-05 05:51:09 | 52.18113 | 15.80605 | 89° | 84km/h | 14769m | -3.9m/s | -50.6°C | 1.4% | 129.9hPa | 2.7V | 00:00:00 | 00:00:00 | 00:00:00 | |
| SONCRA | 2026-09-05 05:51:07 | 52.18102 | 15.80498 | 78° | 93km/h | 14780m | -4.1m/s | -50.6°C | 1.4% | 129.6hPa | 2.7V | 00:00:00 | 00:00:00 | 00:00:00 | |
| KRY50SP-1 | 2026-09-05 05:51:06 | 52.18102 | 15.80499 | 80° | 93km/h | 14781m | -4.1m/s | -50.6°C | 1.4% | 129.6hPa | 2.7V | 08:22:00 | 00:00:00 | 00:00:00 | |
| SONDE2-11 | 2026-09-05 05:51:05 | 52.18092 | 15.80418 | 78° | 104km/h | 14789m | -4.6m/s | -50.6°C | 1.4% | 129.4hPa | 2.7V | 00:00:00 | 00:00:00 | 00:00:00 | |
| S3001 | 2026-09-05 05:51:01 | 52.18097 | 15.80040 | 99° | 80km/h | 14825m | -4.3m/s | -50.7°C | 1.4% | 128.7hPa | 2.7V | 00:00:00 | 00:00:00 | 00:00:00 | |
| 13BRC | 2026-09-05 05:50:57 | 52.18090 | 15.80110 | 101° | 93km/h | 14816m | -3.5m/s | -50.6°C | 1.4% | 128.9hPa | 2.7V | 08:22:00 | 00:00:00 | 00:00:00 | |
| DB0DAN | 2026-09-05 05:50:55 | 52.18100 | 15.80008 | 96° | 73km/h | 14829m | -4.9m/s | -50.7°C | 1.4% | 128.61hPa | 2.7V | 00:00:00 | 00:00:00 | 00:00:00 | |
| 3Z3Z-3 | 2026-09-05 05:50:53 | 52.18101 | 15.79977 | 94° | 75km/h | 14834m | -4.9m/s | -50.7°C | 0% | 128.5hPa | 2.7V | 00:00:00 | 00:00:00 | 00:00:00 | |
| KRY50SP-1 | 2026-09-05 05:50:51 | 52.18100 | 15.79913 | 84° | 82km/h | 14843m | -4.0m/s | -50.7°C | 1.5% | 128.3hPa | 2.7V | 08:23:00 | 00:00:00 | 00:00:00 | |
| KRY50SP-1 | 2026-09-05 05:50:45 | 52.18080 | 15.79664 | 90° | 115km/h | 14865m | -4.5m/s | -50.6°C | 1.5% | 127.8hPa | 2.7V | 08:23:00 | 00:00:00 | 00:00:00 | |
| DB0DAN | 2026-09-05 05:50:40 | 52.18098 | 15.79396 | 103° | 91km/h | 14891m | -4.5m/s | -50.3°C | 1.4% | 127.26hPa | 2.7V | 00:00:00 | 00:00:00 | 00:00:00 | |
| 3Z3Z-3 | 2026-09-05 05:50:39 | 52.18103 | 15.79359 | 102° | 86km/h | 14896m | -4.1m/s | -50.3°C | 0% | 127.2hPa | 2.6V | 00:00:00 | 00:00:00 | 00:00:00 | |
| SONCRA | 2026-09-05 05:50:36 | 52.18110 | 15.79260 | 91° | 78km/h | 14909m | -4.5m/s | -50.2°C | 1.4% | 127.0hPa | 2.6V | 00:00:00 | 00:00:00 | 00:00:00 | |
| KRY50SP-1 | 2026-09-05 05:50:35 | 52.18110 | 15.79260 | 92° | 78km/h | 14909m | -4.5m/s | -50.2°C | 1.4% | 127.0hPa | 2.6V | 08:23:00 | 00:00:00 | 00:00:00 | |
| SONDE2-11 | 2026-09-05 05:50:34 | 52.18108 | 15.79194 | 85° | 84km/h | 14918m | -4.2m/s | -50.1°C | 1.4% | 126.8hPa | 2.6V | 00:00:00 | 00:00:00 | 00:00:00 | |
| SP6BVK | 2026-09-05 05:50:33 | 52.18108 | 15.79194 | 86° | 84km/h | 14918m | -4.2m/s | -50.1°C | 1.4% | 126.8hPa | 2.6V | 08:23:00 | 00:00:00 | 00:00:00 | |
| S3001 | 2026-09-05 05:50:30 | 52.18104 | 15.79037 | 92° | 104km/h | 14934m | -3.9m/s | -50.1°C | 1.4% | 126.5hPa | 2.6V | 00:00:00 | 00:00:00 | 00:00:00 | |
| DB0DAN | 2026-09-05 05:50:25 | 52.18119 | 15.78825 | 97° | 95km/h | 14954m | -4.2m/s | -49.9°C | 1.4% | 126.08hPa | 2.6V | 00:00:00 | 00:00:00 | 00:00:00 | |
| KRY50SP-1 | 2026-09-05 05:50:24 | 52.18119 | 15.78825 | 98° | 100km/h | 14954m | -4.2m/s | -49.9°C | 1.4% | 126.1hPa | 2.6V | 08:23:00 | 00:00:00 | 00:00:00 | |
| DAC517 | 2026-09-05 05:50:22 | 52.18125 | 15.78663 | 90° | 97km/h | 14975m | -8.0m/s | -49.9°C | 1.4% | 125.7hPa | 2.6V | 08:23:00 | 00:00:00 | 00:00:00 | |
| DL2RXE-15 | 2026-09-05 05:50:19 | 52.18124 | 15.78623 | 89° | 97km/h | 14982m | -7.8m/s | -49.9°C | 1.4% | 125.6hPa | 2.6V | 00:00:00 | 00:00:00 | 00:00:00 | |
| KRY50SP-1 | 2026-09-05 05:50:18 | 52.18123 | 15.78584 | 88° | 97km/h | 14990m | -8.7m/s | -49.8°C | 1.4% | 125.4hPa | 2.6V | 08:23:00 | 00:00:00 | 00:00:00 | |
| SP3BTT-10 | 2026-09-05 05:50:17 | 52.18120 | 15.78506 | 86° | 88km/h | 15006m | -7.8m/s | -49.6°C | 3.8% | 125.0hPa | 2.6V | 00:00:00 | 00:00:00 | 00:00:00 | |
| 13BRC | 2026-09-05 05:50:16 | 52.18120 | 15.78506 | 87° | 93km/h | 15006m | -7.9m/s | -49.7°C | 1.4% | 125.1hPa | 2.6V | 08:23:00 | 00:00:00 | 00:00:00 | |
| POL2MAQ | 2026-09-05 05:50:15 | 52.18118 | 15.78468 | 86° | 91km/h | 15014m | -7.7m/s | -49.6°C | 1.4% | 125.0hPa | 2.6V | 00:00:00 | 00:00:00 | 00:00:00 | |
| 3Z3Z-3 | 2026-09-05 05:50:13 | 52.18115 | 15.78397 | 87° | 84km/h | 15029m | -7.7m/s | -49.6°C | 0% | 124.7hPa | 2.6V | 00:00:00 | 00:00:00 | 00:00:00 | |
| KRY50SP-1 | 2026-09-05 05:50:12 | 52.18113 | 15.78363 | 88° | 80km/h | 15037m | -7.5m/s | -49.5°C | 1.4% | 124.5hPa | 2.6V | 08:23:00 | 00:00:00 | 00:00:00 | |
| DB0DAN | 2026-09-05 05:50:10 | 52.18112 | 15.78268 | 90° | 71km/h | 15059m | -8m/s | -49.5°C | 1.3% | 124.14hPa | 2.6V | 00:00:00 | 00:00:00 | 00:00:00 | |
| AA1-15 | 2026-09-05 05:49:55 | 52.18115 | 15.77726 | 82° | 84km/h | 15178m | -8m/s | -50.1°C | 0.8% | 121.9hPa | 2.6V | 08:24:41 | 01:41:00 | 00:00:00 | |
| AA1-15 | 2026-09-05 05:49:44 | 52.18127 | 15.77367 | 100° | 89km/h | 15263m | -8.1m/s | -50.1°C | 0.7% | 120.3hPa | 2.6V | 08:24:41 | 01:40:49 | 00:00:00 | |
| AA1-15 | 2026-09-05 05:49:33 | 52.18143 | 15.76972 | 96° | 73km/h | 15350m | -8.2m/s | -50.3°C | 0.7% | 118.8hPa | 2.6V | 08:24:41 | 01:40:38 | 00:00:00 | |
| SP3BTT-10 | 2026-09-05 05:49:33 | 52.18143 | 15.76971 | 97° | 78km/h | 15350m | -8.2m/s | -50.2°C | 3.9% | 118.7hPa | 2.7V | 00:00:00 | 00:00:00 | 00:00:00 | |
| SONDE2-11 | 2026-09-05 05:49:32 | 52.18145 | 15.76942 | 99° | 73km/h | 15358m | -8.1m/s | -50.3°C | 1.4% | 118.6hPa | 2.7V | 00:00:00 | 00:00:00 | 00:00:00 | |
| DL2RXE-15 | 2026-09-05 05:49:29 | 52.18153 | 15.76881 | 105° | 78km/h | 15374m | -7.8m/s | -50.3°C | 1.4% | 118.3hPa | 2.7V | 00:00:00 | 00:00:00 | 00:00:00 | |
| S3001 | 2026-09-05 05:49:28 | 52.18164 | 15.76816 | 105° | 86km/h | 15390m | -7.6m/s | -50.1°C | 1.4% | 118.0hPa | 2.7V | 00:00:00 | 00:00:00 | 00:00:00 | |
| 3Z3Z-3 | 2026-09-05 05:49:27 | 52.18164 | 15.76816 | 106° | 88km/h | 15390m | -7.6m/s | -50.1°C | 0% | 118.0hPa | 2.7V | 00:00:00 | 00:00:00 | 00:00:00 | |
| DB0DAN | 2026-09-05 05:49:25 | 52.18178 | 15.76706 | 99° | 89km/h | 15413m | -7.9m/s | -49.9°C | 1.4% | 117.62hPa | 2.7V | 00:00:00 | 00:00:00 | 00:00:00 | |
| AA1-15 | 2026-09-05 05:49:22 | 52.18186 | 15.76592 | 93° | 91km/h | 15436m | -7.9m/s | -49.7°C | 0.6% | 117.2hPa | 2.6V | 08:24:41 | 01:40:27 | 00:00:00 | |
| AA1-15 | 2026-09-05 05:49:11 | 52.18200 | 15.76236 | 102° | 82km/h | 15518m | -7.8m/s | -49.7°C | 0.5% | 115.7hPa | 2.7V | 08:25:32 | 01:40:16 | 00:00:00 | |
| DB0DAN | 2026-09-05 05:49:10 | 52.18204 | 15.76203 | 102° | 80km/h | 15526m | -7.8m/s | -49.8°C | 1.3% | 115.56hPa | 2.7V | 00:00:00 | 00:00:00 | 00:00:00 | |
| EDDB2-11 | 2026-09-05 05:49:09 | 52.18208 | 15.76169 | 101° | 86km/h | 15534m | -7.8m/s | -49.9°C | 1.3% | 115.4hPa | 2.7V | 00:00:00 | 00:00:00 | 00:00:00 | |
| DL2RXE-15 | 2026-09-05 05:49:08 | 52.18208 | 15.76169 | 102° | 86km/h | 15534m | -7.8m/s | -49.9°C | 1.3% | 115.4hPa | 2.7V | 08:25:00 | 00:00:00 | 00:00:00 | |
| KRY50SP-1 | 2026-09-05 05:49:07 | 52.18212 | 15.76134 | 101° | 88km/h | 15541m | -7.9m/s | -50.0°C | 1.3% | 115.3hPa | 2.7V | 08:25:00 | 00:00:00 | 00:00:00 | |
| 3Z3Z-3 | 2026-09-05 05:49:06 | 52.18215 | 15.76097 | 99° | 89km/h | 15549m | -7.6m/s | -50.0°C | 0% | 115.1hPa | 2.7V | 00:00:00 | 00:00:00 | 00:00:00 | |
| EDDB2-12 | 2026-09-05 05:49:03 | 52.18221 | 15.75904 | 87° | 95km/h | 15586m | -7.7m/s | -50.4°C | 1.4% | 114.5hPa | 2.7V | 00:00:00 | 00:00:00 | 00:00:00 | |
| DM0DOS-11 | 2026-09-05 05:49:02 | 52.18209 | 15.75685 | 87° | 77km/h | 15632m | -7.2m/s | -50.8°C | 4% | 113.6hPa | 2.7V | 08:24:58 | 01:40:01 | 00:00:00 | |
| SONDE2-11 | 2026-09-05 05:49:01 | 52.18220 | 15.75864 | 86° | 95km/h | 15593m | -7.7m/s | -50.5°C | 1.4% | 114.3hPa | 2.7V | 00:00:00 | 00:00:00 | 00:00:00 | |
| AA1-15 | 2026-09-05 05:49:01 | 52.18220 | 15.75864 | 86° | 97km/h | 15593m | -7.7m/s | -50.5°C | 0.7% | 114.3hPa | 2.7V | 08:25:32 | 01:40:06 | 00:00:00 | |
| S3001 | 2026-09-05 05:48:57 | 52.18210 | 15.75685 | 87° | 77km/h | 15632m | -7.2m/s | -50.9°C | 1.4% | 113.7hPa | 2.7V | 00:00:00 | 00:00:00 | 00:00:00 | |
| DB0DAN | 2026-09-05 05:48:55 | 52.18209 | 15.75654 | 90° | 69km/h | 15639m | -7.2m/s | -50.9°C | 1.4% | 113.54hPa | 2.7V | 00:00:00 | 00:00:00 | 00:00:00 | |
| 13BRC | 2026-09-05 05:48:54 | 52.18209 | 15.75654 | 91° | 73km/h | 15640m | -7.2m/s | -50.9°C | 1.4% | 113.5hPa | 2.6V | 08:25:00 | 00:00:00 | 00:00:00 | |
| DAC517 | 2026-09-05 05:48:52 | 52.18214 | 15.75562 | 99° | 78km/h | 15662m | -8.0m/s | -51.0°C | 1.4% | 113.1hPa | 2.6V | 00:00:00 | 00:00:00 | 00:00:00 | |
| DM0DOS-11 | 2026-09-05 05:48:51 | 52.18223 | 15.75350 | 84° | 91km/h | 15707m | -7.5m/s | -50.8°C | 4% | 112.3hPa | 2.6V | 08:25:08 | 01:39:51 | 00:00:00 | |
| AA1-15 | 2026-09-05 05:48:50 | 52.18220 | 15.75496 | 97° | 84km/h | 15677m | -7.6m/s | -51.1°C | 0.9% | 112.9hPa | 2.7V | 08:25:32 | 01:39:55 | 00:00:00 | |
| SP3BTT-10 | 2026-09-05 05:48:47 | 52.18224 | 15.75387 | 88° | 86km/h | 15700m | -7.8m/s | -50.8°C | 4.0% | 112.4hPa | 2.6V | 00:00:00 | 00:00:00 | 00:00:00 | |
| KRY50SP-1 | 2026-09-05 05:48:45 | 52.18223 | 15.75349 | 86° | 91km/h | 15708m | -7.5m/s | -50.8°C | 1.4% | 112.4hPa | 2.6V | 08:25:00 | 00:00:00 | 00:00:00 | |
| DL2RXE-15 | 2026-09-05 05:48:43 | 52.18218 | 15.75277 | 83° | 89km/h | 15724m | -7.6m/s | -50.8°C | 1.4% | 112.1hPa | 2.6V | 00:00:00 | 00:00:00 | 00:00:00 | |
| DB0NH | 2026-09-05 05:48:42 | 52.18210 | 15.75208 | 79° | 82km/h | 15739m | -7.5m/s | -50.6°C | 3.9% | 111.8hPa | 2.6V | 00:00:00 | 01:39:47 | 00:00:00 | |
| DM0DOS-11 | 2026-09-05 05:48:40 | 52.18192 | 15.75023 | 89° | 69km/h | 15784m | -7.8m/s | -50.7°C | 3.9% | 111.1hPa | 2.6V | 08:25:18 | 01:39:41 | 00:00:00 | |
| DB0DAN | 2026-09-05 05:48:40 | 52.18202 | 15.75142 | 78° | 75km/h | 15754m | -8m/s | -50.6°C | 1.3% | 111.63hPa | 2.6V | 00:00:00 | 00:00:00 | 00:00:00 | |
| AA1-15 | 2026-09-05 05:48:39 | 52.18198 | 15.75111 | 80° | 77km/h | 15761m | -7.3m/s | -50.7°C | 0.8% | 111.5hPa | 2.7V | 08:25:32 | 01:39:44 | 00:00:00 | |
| SP3WXH-11 | 2026-09-05 05:48:38 | 52.18193 | 15.75052 | 84° | 69km/h | 15776m | -7.5m/s | -50.7°C | 1.4% | 111.2hPa | 2.6V | 00:00:00 | 00:00:00 | 00:00:00 | |
| KRY50SP-1 | 2026-09-05 05:48:34 | 52.18192 | 15.74994 | 93° | 71km/h | 15792m | -7.5m/s | -50.7°C | 1.4% | 110.9hPa | 2.6V | 08:25:00 | 00:00:00 | 00:00:00 | |
| 13BRC | 2026-09-05 05:48:33 | 52.18193 | 15.74964 | 93° | 73km/h | 15799m | -7.7m/s | -50.6°C | 1.4% | 110.8hPa | 2.6V | 08:25:00 | 00:00:00 | 00:00:00 | |
| SONCRA | 2026-09-05 05:48:32 | 52.18195 | 15.74900 | 92° | 82km/h | 15815m | -7.7m/s | -50.6°C | 1.4% | 110.5hPa | 2.6V | 00:00:00 | 00:00:00 | 00:00:00 | |
| EDDB2-12 | 2026-09-05 05:48:31 | 52.18195 | 15.74865 | 90° | 84km/h | 15822m | -7.5m/s | -50.6°C | 1.4% | 110.4hPa | 2.6V | 00:00:00 | 00:00:00 | 00:00:00 | |
| DM0DOS-11 | 2026-09-05 05:48:30 | 52.18183 | 15.74683 | 78° | 88km/h | 15860m | -8.1m/s | -50.7°C | 3.9% | 109.8hPa | 2.6V | 08:25:28 | 01:39:31 | 00:00:00 | |
| AA1-15 | 2026-09-05 05:48:29 | 52.18193 | 15.74793 | 85° | 91km/h | 15837m | -6.9m/s | -50.6°C | 0.7% | 110.1hPa | 2.7V | 08:25:32 | 01:39:34 | 00:00:00 | |
| POL2MAQ | 2026-09-05 05:48:27 | 52.18191 | 15.74755 | 82° | 89km/h | 15844m | -7.5m/s | -50.6°C | 1.4% | 110.0hPa | 2.6V | 00:00:00 | 00:00:00 | 00:00:00 | |
| S3001 | 2026-09-05 05:48:26 | 52.18178 | 15.74648 | 78° | 84km/h | 15868m | -7.8m/s | -50.7°C | 1.4% | 109.7hPa | 2.6V | 00:00:00 | 00:00:00 | 00:00:00 | |
| KRY50SP-1 | 2026-09-05 05:48:23 | 52.18174 | 15.74614 | 79° | 82km/h | 15876m | -7.5m/s | -50.7°C | 1.4% | 109.5hPa | 2.6V | 08:25:00 | 00:00:00 | 00:00:00 | |
| DL2RXE-15 | 2026-09-05 05:48:22 | 52.18170 | 15.74582 | 79° | 78km/h | 15883m | -8.0m/s | -50.8°C | 1.4% | 109.4hPa | 2.6V | 08:25:00 | 00:00:00 | 00:00:00 | |
| DM0DOS-11 | 2026-09-05 05:48:19 | 52.18161 | 15.74363 | 94° | 89km/h | 15938m | -7.5m/s | -51°C | 3.9% | 108.5hPa | 2.6V | 08:25:38 | 01:39:21 | 00:00:00 | |
| AA1-15 | 2026-09-05 05:48:17 | 52.18159 | 15.74398 | 94° | 84km/h | 15930m | -7.3m/s | -51°C | 0.8% | 108.6hPa | 2.6V | 08:26:23 | 01:39:22 | 00:00:00 | |
| KRY50SP-1 | 2026-09-05 05:48:13 | 52.18164 | 15.74286 | 94° | 97km/h | 15952m | -7.8m/s | -51.1°C | 1.4% | 108.3hPa | 2.6V | 08:26:00 | 00:00:00 | 00:00:00 | |
| DB0NH | 2026-09-05 05:48:12 | 52.18165 | 15.74206 | 91° | 82km/h | 15967m | -7.8m/s | -51.1°C | 4.0% | 107.9hPa | 2.6V | 00:00:00 | 01:39:17 | 00:00:00 | |
| DAC517 | 2026-09-05 05:48:10 | 52.18164 | 15.74128 | 89° | 93km/h | 15982m | -8.0m/s | -51.2°C | 1.4% | 107.7hPa | 2.6V | 00:00:00 | 00:00:00 | 00:00:00 | |
| DM0DOS-11 | 2026-09-05 05:48:09 | 52.18162 | 15.73991 | 91° | 75km/h | 16014m | -7.4m/s | -51.2°C | 4% | 107.2hPa | 2.6V | 08:25:48 | 01:39:11 | 00:00:00 | |
| AA1-15 | 2026-09-05 05:48:06 | 52.18162 | 15.73991 | 91° | 75km/h | 16014m | -7.4m/s | -51.2°C | 0.8% | 107.2hPa | 2.6V | 08:26:23 | 01:39:11 | 00:00:00 | |
| KRY50SP-1 | 2026-09-05 05:48:02 | 52.18169 | 15.73895 | 100° | 84km/h | 16037m | -7.5m/s | -51.1°C | 1.4% | 106.8hPa | 2.6V | 08:26:00 | 00:00:00 | 00:00:00 | |
| SONCRA | 2026-09-05 05:48:01 | 52.18178 | 15.73824 | 100° | 91km/h | 16052m | -7.9m/s | -51.2°C | 1.4% | 106.6hPa | 2.6V | 00:00:00 | 00:00:00 | 00:00:00 | |
| EDDB2-12 | 2026-09-05 05:48:00 | 52.18181 | 15.73787 | 98° | 93km/h | 16060m | -7.9m/s | -51.2°C | 1.4% | 106.5hPa | 2.6V | 00:00:00 | 00:00:00 | 00:00:00 | |
| DM0DOS-11 | 2026-09-05 05:47:59 | 52.18191 | 15.73631 | 91° | 91km/h | 16092m | -8m/s | -51.3°C | 4% | 105.9hPa | 2.6V | 08:25:58 | 01:39:01 | 00:00:00 | |
| AA1-15 | 2026-09-05 05:47:56 | 52.18191 | 15.73631 | 91° | 91km/h | 16092m | -8m/s | -51.3°C | 0.8% | 105.9hPa | 2.6V | 08:26:23 | 01:39:01 | 00:00:00 | |
| DB0DAN | 2026-09-05 05:47:55 | 52.18191 | 15.73594 | 88° | 82km/h | 16100m | -7.3m/s | -51.3°C | 1.4% | 105.81hPa | 2.6V | 00:00:00 | 00:00:00 | 00:00:00 | |
| S3001 | 2026-09-05 05:47:55 | 52.18190 | 15.73560 | 87° | 80km/h | 16107m | -7.3m/s | -51.3°C | 1.4% | 105.7hPa | 2.6V | 00:00:00 | 00:00:00 | 00:00:00 | |
| 13BRC | 2026-09-05 05:47:52 | 52.18189 | 15.73528 | 88° | 77km/h | 16114m | -8.1m/s | -51.2°C | 1.4% | 105.5hPa | 2.6V | 08:26:00 | 00:00:00 | 00:00:00 | |
| 3Z3Z-3 | 2026-09-05 05:47:51 | 52.18188 | 15.73497 | 88° | 73km/h | 16122m | -8.2m/s | -51.1°C | 0% | 105.4hPa | 2.6V | 00:00:00 | 00:00:00 | 00:00:00 | |
| DM0DOS-11 | 2026-09-05 05:47:49 | 52.18198 | 15.73327 | 103° | 75km/h | 16170m | -7.8m/s | -51°C | 4% | 104.7hPa | 2.6V | 08:26:08 | 01:38:51 | 00:00:00 | |
| AA1-15 | 2026-09-05 05:47:46 | 52.18198 | 15.73327 | 103° | 75km/h | 16170m | -7.8m/s | -51°C | 0.8% | 104.7hPa | 2.6V | 08:26:23 | 01:38:51 | 00:00:00 | |
| DB0DAN | 2026-09-05 05:47:40 | 52.18220 | 15.73132 | 94° | 78km/h | 16217m | -8.4m/s | -50.8°C | 1.4% | 103.9hPa | 2.6V | 00:00:00 | 00:00:00 | 00:00:00 | |
| DM0DOS-11 | 2026-09-05 05:47:39 | 52.18216 | 15.73007 | 82° | 68km/h | 16249m | -7.8m/s | -50.9°C | 3.9% | 103.4hPa | 2.6V | 08:26:18 | 01:38:41 | 00:00:00 | |
| AA1-15 | 2026-09-05 05:47:35 | 52.18214 | 15.72980 | 83° | 64km/h | 16256m | -8.1m/s | -51°C | 0.7% | 103.2hPa | 2.6V | 08:26:23 | 01:38:40 | 00:00:00 | |
| 13BRC | 2026-09-05 05:47:31 | 52.18211 | 15.72909 | 89° | 53km/h | 16280m | -7.6m/s | -51.1°C | 1.4% | 102.8hPa | 2.6V | 08:26:00 | 00:00:00 | 00:00:00 | |
| SONCRA | 2026-09-05 05:47:30 | 52.18212 | 15.72866 | 94° | 51km/h | 16295m | -8.0m/s | -51.1°C | 1.4% | 102.6hPa | 2.6V | 00:00:00 | 00:00:00 | 00:00:00 | |
| DM0DOS-11 | 2026-09-05 05:47:29 | 52.18218 | 15.72777 | 92° | 58km/h | 16327m | -7.7m/s | -51.1°C | 4% | 102.1hPa | 2.6V | 08:30:00 | 01:38:31 | 00:00:00 | |
| SONDE2-11 | 2026-09-05 05:47:28 | 52.18215 | 15.72824 | 96° | 53km/h | 16311m | -8.1m/s | -51.1°C | 1.4% | 102.3hPa | 2.6V | 00:00:00 | 00:00:00 | 00:00:00 | |
| DB0DAN | 2026-09-05 05:47:25 | 52.18218 | 15.72752 | 92° | 62km/h | 16334m | -7.5m/s | -51°C | 1.4% | 101.98hPa | 2.6V | 00:00:00 | 00:00:00 | 00:00:00 | |
| AA1-15 | 2026-09-05 05:47:25 | 52.18218 | 15.72752 | 92° | 66km/h | 16334m | -7.5m/s | -51°C | 0.8% | 102hPa | 2.6V | 08:27:14 | 01:38:30 | 00:00:00 | |
| KRY50SP-1 | 2026-09-05 05:47:23 | 52.18218 | 15.72725 | 90° | 66km/h | 16342m | -7.8m/s | -51.0°C | 1.4% | 101.9hPa | 2.6V | 08:27:00 | 00:00:00 | 00:00:00 | |
| POL2MAQ | 2026-09-05 05:47:20 | 52.18212 | 15.72642 | 77° | 66km/h | 16366m | -7.9m/s | -51.1°C | 1.3% | 101.5hPa | 2.6V | 08:27:00 | 00:00:00 | 00:00:00 | |
| DM0DOS-11 | 2026-09-05 05:47:19 | 52.18187 | 15.72528 | 69° | 47km/h | 16405m | -8.2m/s | -50.9°C | 3.8% | 100.8hPa | 2.6V | 08:30:00 | 01:38:21 | 00:00:00 | |
| AA1-15 | 2026-09-05 05:47:14 | 52.18181 | 15.72494 | 79° | 40km/h | 16421m | -8m/s | -51°C | 0.7% | 100.6hPa | 2.6V | 08:27:14 | 01:38:19 | 00:00:00 | |
| KRY50SP-1 | 2026-09-05 05:47:12 | 52.18180 | 15.72478 | 85° | 40km/h | 16430m | -8.6m/s | -51.0°C | 1.3% | 100.5hPa | 2.6V | 08:27:00 | 00:00:00 | 00:00:00 | |
| DB0DAN | 2026-09-05 05:47:10 | 52.18179 | 15.72420 | 92° | 51km/h | 16455m | -7.6m/s | -51.2°C | 1.4% | 100.11hPa | 2.6V | 00:00:00 | 00:00:00 | 00:00:00 | |
| DM0DOS-11 | 2026-09-05 05:47:09 | 52.18176 | 15.72320 | 80° | 64km/h | 16487m | -8.6m/s | -51.4°C | 4% | 99.6hPa | 2.6V | 08:30:00 | 01:38:11 | 00:00:00 | |
| AA1-15 | 2026-09-05 05:47:03 | 52.18162 | 15.72244 | 67° | 62km/h | 16513m | -8.3m/s | -51.5°C | 0.9% | 99.2hPa | 2.7V | 08:27:14 | 01:38:08 | 00:00:00 | |
| SONCRA | 2026-09-05 05:46:59 | 52.18140 | 15.72162 | 70° | 44km/h | 16545m | -8.0m/s | -51.7°C | 1.4% | 98.7hPa | 2.6V | 00:00:00 | 00:00:00 | 00:00:00 | |
| EDDB2-12 | 2026-09-05 05:46:58 | 52.18137 | 15.72145 | 77° | 42km/h | 16553m | -8.0m/s | -51.8°C | 1.4% | 98.6hPa | 2.6V | 00:00:00 | 00:00:00 | 00:00:00 | |
| SONDE2-11 | 2026-09-05 05:46:57 | 52.18135 | 15.72127 | 85° | 44km/h | 16561m | -8.4m/s | -51.9°C | 1.4% | 98.5hPa | 2.6V | 00:00:00 | 00:00:00 | 00:00:00 | |
| DB0DAN | 2026-09-05 05:46:55 | 52.18134 | 15.72086 | 88° | 53km/h | 16578m | -8.1m/s | -52°C | 1.4% | 98.26hPa | 2.6V | 00:00:00 | 00:00:00 | 00:00:00 | |
| AA1-15 | 2026-09-05 05:46:53 | 52.18133 | 15.72036 | 90° | 64km/h | 16594m | -8.1m/s | -51.9°C | 0.9% | 98hPa | 2.7V | 08:27:14 | 01:37:58 | 00:00:00 | |
| S3001 | 2026-09-05 05:46:53 | 52.18134 | 15.72009 | 90° | 66km/h | 16603m | -8.7m/s | -51.9°C | 1.4% | 97.8hPa | 2.6V | 00:00:00 | 00:00:00 | 00:00:00 | |
| KRY50SP-1 | 2026-09-05 05:46:50 | 52.18134 | 15.71981 | 89° | 71km/h | 16613m | -8.6m/s | -51.9°C | 1.4% | 97.7hPa | 2.6V | 08:27:00 | 00:00:00 | 00:00:00 | |
| 13BRC | 2026-09-05 05:46:49 | 52.18134 | 15.71951 | 89° | 73km/h | 16623m | -8.3m/s | -51.9°C | 1.4% | 97.6hPa | 2.6V | 08:27:00 | 00:00:00 | 00:00:00 | |
| SP6BVK | 2026-09-05 05:46:47 | 52.18132 | 15.71891 | 86° | 71km/h | 16639m | -8.4m/s | -51.8°C | 1.4% | 97.3hPa | 2.6V | 08:27:00 | 00:00:00 | 00:00:00 | |
| DL1XH1-15 | 2026-09-05 05:46:45 | 52.18126 | 15.71700 | 99° | 53km/h | 16705m | -8.9m/s | -51.9°C | 0% | 0hPa | 2.6V | 08:27:14 | 01:37:45 | 00:00:00 | |
| AA1-15 | 2026-09-05 05:46:42 | 52.18123 | 15.71744 | 93° | 51km/h | 16687m | -8.8m/s | -51.9°C | 0.9% | 96.6hPa | 2.7V | 08:27:14 | 01:37:47 | 00:00:00 | |
| AA1-15 | 2026-09-05 05:46:31 | 52.18142 | 15.71444 | 88° | 73km/h | 16781m | -8.7m/s | -52.2°C | 0.9% | 95.2hPa | 2.6V | 08:28:05 | 01:37:36 | 00:00:00 | |
| 3Z3Z-3 | 2026-09-05 05:46:29 | 52.18142 | 15.71414 | 87° | 71km/h | 16790m | -9.0m/s | -52.2°C | 0% | 95.1hPa | 2.6V | 00:00:00 | 00:00:00 | 00:00:00 | |
| 13BRC | 2026-09-05 05:46:28 | 52.18140 | 15.71386 | 88° | 68km/h | 16799m | -8.9m/s | -52.3°C | 1.4% | 95.0hPa | 2.6V | 08:28:00 | 00:00:00 | 00:00:00 | |
| SP6BVK | 2026-09-05 05:46:27 | 52.18140 | 15.71359 | 89° | 64km/h | 16808m | -8.9m/s | -52.3°C | 1.4% | 94.8hPa | 2.6V | 08:28:00 | 00:00:00 | 00:00:00 | |
| DB0DAN | 2026-09-05 05:46:25 | 52.18144 | 15.71286 | 102° | 57km/h | 16833m | -9.1m/s | -52.5°C | 1.5% | 94.46hPa | 2.6V | 00:00:00 | 00:00:00 | 00:00:00 | |
| AA1-15 | 2026-09-05 05:46:20 | 52.18169 | 15.71156 | 108° | 77km/h | 16878m | -8.8m/s | -52.7°C | 1% | 93.8hPa | 2.6V | 08:28:05 | 01:37:25 | 00:00:00 | |
| POL2MAQ | 2026-09-05 05:46:17 | 52.18179 | 15.71093 | 103° | 80km/h | 16895m | -8.6m/s | -52.6°C | 1.4% | 93.6hPa | 2.6V | 08:28:00 | 00:00:00 | 00:00:00 | |
| KRY50SP-1 | 2026-09-05 05:46:16 | 52.18183 | 15.71061 | 101° | 80km/h | 16903m | -9.0m/s | -52.5°C | 1.5% | 93.4hPa | 2.6V | 08:28:00 | 00:00:00 | 00:00:00 | |
| 3Z3Z-3 | 2026-09-05 05:46:12 | 52.18187 | 15.70933 | 89° | 73km/h | 16940m | -9.2m/s | -52.6°C | 0% | 92.9hPa | 2.6V | 00:00:00 | 00:00:00 | 00:00:00 | |
| DB0DAN | 2026-09-05 05:46:10 | 52.18186 | 15.70856 | 91° | 53km/h | 16967m | -9m/s | -52.6°C | 1.4% | 92.52hPa | 2.6V | 00:00:00 | 00:00:00 | 00:00:00 | |
| AA1-15 | 2026-09-05 05:46:10 | 52.18186 | 15.70856 | 91° | 55km/h | 16967m | -9m/s | -52.6°C | 0.9% | 92.5hPa | 2.6V | 08:28:05 | 01:37:15 | 00:00:00 | |
| AA1-15 | 2026-09-05 05:45:59 | 52.18214 | 15.70604 | 88° | 62km/h | 17065m | -9.7m/s | -52.7°C | 0.9% | 91.1hPa | 2.7V | 08:28:05 | 01:37:04 | 00:00:00 | |
| DM0DOS-11 | 2026-09-05 05:45:58 | 52.18209 | 15.70515 | 84° | 46km/h | 17103m | -9.3m/s | -52.8°C | 4.1% | 90.6hPa | 2.6V | 08:30:00 | 01:37:00 | 00:00:00 | |
| SONCRA | 2026-09-05 05:45:57 | 52.18211 | 15.70535 | 83° | 47km/h | 17093m | -9.3m/s | -52.7°C | 1.4% | 90.7hPa | 2.6V | 00:00:00 | 00:00:00 | 00:00:00 | |
| EDDB2-12 | 2026-09-05 05:45:56 | 52.18211 | 15.70535 | 83° | 47km/h | 17093m | -9.3m/s | -52.7°C | 1.4% | 90.7hPa | 2.6V | 00:00:00 | 00:00:00 | 00:00:00 | |
| DB0DAN | 2026-09-05 05:45:55 | 52.18209 | 15.70515 | 84° | 44km/h | 17103m | -9.3m/s | -52.8°C | 1.4% | 90.58hPa | 2.6V | 00:00:00 | 00:00:00 | 00:00:00 | |
| SONDE2-11 | 2026-09-05 05:45:55 | 52.18208 | 15.70498 | 85° | 40km/h | 17112m | -8.5m/s | -52.8°C | 1.4% | 90.5hPa | 2.6V | 00:00:00 | 00:00:00 | 00:00:00 | |
| S3001 | 2026-09-05 05:45:51 | 52.18211 | 15.70436 | 102° | 38km/h | 17147m | -9.4m/s | -53.0°C | 1.4% | 89.9hPa | 2.6V | 00:00:00 | 00:00:00 | 00:00:00 | |
| KRY50SP-1 | 2026-09-05 05:45:50 | 52.18210 | 15.70451 | 98° | 37km/h | 17139m | -9.4m/s | -53.0°C | 1.4% | 90.1hPa | 2.6V | 08:28:00 | 00:00:00 | 00:00:00 | |
| DM0DOS-11 | 2026-09-05 05:45:48 | 52.18218 | 15.70338 | 86° | 57km/h | 17195m | -9.5m/s | -53.3°C | 4.3% | 89.3hPa | 2.6V | 08:30:00 | 01:36:50 | 00:00:00 | |
| AA1-15 | 2026-09-05 05:45:48 | 52.18216 | 15.70402 | 101° | 47km/h | 17167m | -9.6m/s | -53.1°C | 1% | 89.7hPa | 2.7V | 08:28:56 | 01:36:53 | 00:00:00 | |
| DB0NH | 2026-09-05 05:45:48 | 52.18216 | 15.70402 | 101° | 55km/h | 17168m | -9.6m/s | -53.1°C | 4.3% | 89.6hPa | 2.6V | 00:00:00 | 01:36:53 | 00:00:00 | |
| SP3BTT-10 | 2026-09-05 05:45:47 | 52.18218 | 15.70382 | 98° | 58km/h | 17177m | -9.1m/s | -53.1°C | 4.3% | 89.5hPa | 2.6V | 00:00:00 | 00:00:00 | 00:00:00 | |
| KRY50SP-1 | 2026-09-05 05:45:45 | 52.18218 | 15.70338 | 87° | 57km/h | 17196m | -9.5m/s | -53.3°C | 1.5% | 89.3hPa | 2.6V | 08:28:00 | 00:00:00 | 00:00:00 | |
| DL2RXE-15 | 2026-09-05 05:45:44 | 52.18218 | 15.70338 | 87° | 57km/h | 17196m | -9.5m/s | -53.3°C | 1.5% | 89.3hPa | 2.6V | 08:28:00 | 00:00:00 | 00:00:00 | |
| 3Z3Z-3 | 2026-09-05 05:45:43 | 52.18217 | 15.70315 | 80° | 57km/h | 17205m | -8.7m/s | -53.4°C | 0% | 89.2hPa | 2.6V | 00:00:00 | 00:00:00 | 00:00:00 | |
| DB0DAN | 2026-09-05 05:45:40 | 52.18203 | 15.70231 | 69° | 46km/h | 17239m | -9.4m/s | -53.6°C | 1.5% | 88.62hPa | 2.6V | 00:00:00 | 00:00:00 | 00:00:00 | |
| DM0DOS-11 | 2026-09-05 05:45:40 | 52.18192 | 15.70147 | 90° | 44km/h | 17286m | -9.1m/s | -53.5°C | 4.6% | 88hPa | 2.6V | 08:30:00 | 01:36:40 | 00:00:00 | |
| AA1-15 | 2026-09-05 05:45:37 | 52.18194 | 15.70182 | 79° | 40km/h | 17268m | -10m/s | -53.6°C | 1.1% | 88.3hPa | 2.7V | 08:28:56 | 01:36:42 | 00:00:00 | |
| AA1-15 | 2026-09-05 05:45:27 | 52.18193 | 15.69942 | 83° | 71km/h | 17359m | -9.4m/s | -53.6°C | 1.1% | 87hPa | 2.6V | 08:28:56 | 01:36:32 | 00:00:00 | |
| DM0DOS-11 | 2026-09-05 05:45:26 | 52.18173 | 15.69785 | 80° | 51km/h | 17416m | -9.6m/s | -53°C | 4.5% | 86.2hPa | 2.6V | 08:30:00 | 01:36:26 | 00:00:00 | |
| AA1-15 | 2026-09-05 05:45:16 | 52.18176 | 15.69685 | 102° | 51km/h | 17462m | -9.2m/s | -52.2°C | 0.9% | 85.6hPa | 2.7V | 08:28:56 | 01:36:21 | 00:00:00 | |
| DL2RXE-15 | 2026-09-05 05:45:15 | 52.18176 | 15.69685 | 103° | 51km/h | 17463m | -9.2m/s | -52.2°C | 1.4% | 85.6hPa | 2.6V | 00:00:00 | 00:00:00 | 00:00:00 | |
| KRY50SP-1 | 2026-09-05 05:45:13 | 52.18183 | 15.69643 | 104° | 57km/h | 17482m | -9.4m/s | -52.2°C | 1.4% | 85.4hPa | 2.6V | 08:28:00 | 00:00:00 | 00:00:00 | |
| DM0DOS-11 | 2026-09-05 05:45:10 | 52.18192 | 15.69456 | 83° | 66km/h | 17546m | -9.9m/s | -52.4°C | 4.2% | 84.5hPa | 2.6V | 08:30:00 | 01:36:12 | 00:00:00 | |
| AA1-15 | 2026-09-05 05:45:05 | 52.18188 | 15.69404 | 80° | 62km/h | 17565m | -9.8m/s | -52.2°C | 0.9% | 84.3hPa | 2.7V | 08:28:56 | 01:36:10 | 00:00:00 | |
| 3Z3Z-3 | 2026-09-05 05:45:03 | 52.18184 | 15.69380 | 76° | 58km/h | 17575m | -9.1m/s | -52.0°C | 0% | 84.1hPa | 2.6V | 00:00:00 | 00:00:00 | 00:00:00 | |
| EDDB2-11 | 2026-09-05 05:45:01 | 52.18173 | 15.69321 | 70° | 42km/h | 17602m | -9.3m/s | -51.7°C | 1.3% | 83.8hPa | 2.6V | 00:00:00 | 00:00:00 | 00:00:00 | |
| SP3BTT-10 | 2026-09-05 05:45:00 | 52.18169 | 15.69304 | 74° | 66km/h | 17611m | -9.4m/s | -51.7°C | 4.0% | 83.6hPa | 2.6V | 00:00:00 | 00:00:00 | 00:00:00 | |
| DM0DOS-11 | 2026-09-05 05:44:56 | 52.18161 | 15.69128 | 84° | 62km/h | 17698m | -9.7m/s | -52.4°C | 4% | 82.5hPa | 2.6V | 08:30:00 | 01:35:56 | 00:00:00 | |
| DB0DAN | 2026-09-05 05:44:55 | 52.18162 | 15.69220 | 88° | 46km/h | 17659m | -9.9m/s | -52.1°C | 1.3% | 83.05hPa | 2.7V | 00:00:00 | 00:00:00 | 00:00:00 | |
| AA1-15 | 2026-09-05 05:44:54 | 52.18162 | 15.69199 | 88° | 51km/h | 17669m | -9.8m/s | -52.2°C | 0.8% | 82.9hPa | 2.7V | 08:29:47 | 01:35:59 | 00:00:00 | |
| SONDE2-11 | 2026-09-05 05:44:53 | 52.18161 | 15.69153 | 87° | 62km/h | 17688m | -10.0m/s | -52.3°C | 1.3% | 82.7hPa | 2.7V | 00:00:00 | 00:00:00 | 00:00:00 | |
| S3001 | 2026-09-05 05:44:48 | 52.18157 | 15.69045 | 79° | 71km/h | 17730m | -10.2m/s | -52.6°C | 1.3% | 82.2hPa | 2.7V | 00:00:00 | 00:00:00 | 00:00:00 | |
| AA1-15 | 2026-09-05 05:44:44 | 52.18135 | 15.68932 | 66° | 73km/h | 17769m | -9.6m/s | -52.8°C | 0.9% | 81.7hPa | 2.7V | 08:29:47 | 01:35:49 | 00:00:00 | |
| 3Z3Z-3 | 2026-09-05 05:44:43 | 52.18135 | 15.68932 | 67° | 73km/h | 17769m | -9.6m/s | -52.8°C | 0% | 81.7hPa | 2.7V | 08:29:00 | 00:00:00 | 00:00:00 | |
| DB0DAN | 2026-09-05 05:44:40 | 52.18105 | 15.68833 | 66° | 58km/h | 17809m | -9.9m/s | -52.9°C | 1.4% | 81.18hPa | 2.7V | 00:00:00 | 00:00:00 | 00:00:00 | |
| DM0DOS-11 | 2026-09-05 05:44:40 | 52.18089 | 15.68762 | 79° | 58km/h | 17839m | -9.8m/s | -53°C | 4.2% | 80.8hPa | 2.6V | 08:30:00 | 01:35:42 | 00:00:00 | |
| AA1-15 | 2026-09-05 05:44:33 | 52.18078 | 15.68649 | 81° | 82km/h | 17874m | -9.5m/s | -53.1°C | 0.9% | 80.3hPa | 2.7V | 08:29:47 | 01:35:38 | 00:00:00 | |
| DM0DOS-11 | 2026-09-05 05:44:30 | 52.18045 | 15.68443 | 66° | 86km/h | 17931m | -9.7m/s | -53.5°C | 4.4% | 79.6hPa | 2.7V | 08:30:00 | 01:35:32 | 00:00:00 | |
| SP3BTT-10 | 2026-09-05 05:44:30 | 52.18066 | 15.68546 | 77° | 68km/h | 17900m | -11.0m/s | -53.3°C | 4.3% | 79.9hPa | 2.6V | 08:29:00 | 00:00:00 | 00:00:00 | |
| DB0DAN | 2026-09-05 05:44:25 | 52.18029 | 15.68382 | 64° | 73km/h | 17951m | -10m/s | -53.7°C | 1.5% | 79.33hPa | 2.6V | 00:00:00 | 00:00:00 | 00:00:00 | |
| AA1-15 | 2026-09-05 05:44:21 | 52.18003 | 15.68282 | 76° | 57km/h | 17990m | -9.8m/s | -54°C | 1.1% | 78.8hPa | 2.6V | 08:29:47 | 01:35:26 | 00:00:00 | |
| KRY50SP-1 | 2026-09-05 05:44:19 | 52.18000 | 15.68259 | 81° | 58km/h | 17999m | -10.2m/s | -54.0°C | 1.5% | 78.7hPa | 2.7V | 08:29:00 | 00:00:00 | 00:00:00 | |
| DB0NH | 2026-09-05 05:44:18 | 52.17998 | 15.68210 | 91° | 71km/h | 18019m | -10.7m/s | -54.0°C | 4.6% | 78.4hPa | 2.7V | 00:00:00 | 01:35:23 | 00:00:00 | |
| DM0DOS-11 | 2026-09-05 05:44:17 | 52.18000 | 15.68024 | 87° | 86km/h | 18081m | -9.9m/s | -53.8°C | 4.7% | 77.7hPa | 2.7V | 08:30:00 | 01:35:17 | 00:00:00 | |
| AA1-15 | 2026-09-05 05:44:10 | 52.17997 | 15.67957 | 85° | 80km/h | 18101m | -10.5m/s | -53.4°C | 1.1% | 77.5hPa | 2.6V | 08:29:47 | 01:35:15 | 00:00:00 | |
| KRY50SP-1 | 2026-09-05 05:44:08 | 52.17995 | 15.67925 | 83° | 75km/h | 18112m | -10.1m/s | -53.4°C | 1.4% | 77.4hPa | 2.7V | 08:29:00 | 00:00:00 | 00:00:00 | |
| DL2RXE-15 | 2026-09-05 05:44:06 | 52.17990 | 15.67868 | 78° | 64km/h | 18132m | -9.9m/s | -53.4°C | 1.5% | 77.1hPa | 2.7V | 08:29:00 | 00:00:00 | 00:00:00 | |
| 13BRC | 2026-09-05 05:44:05 | 52.17988 | 15.67843 | 85° | 58km/h | 18142m | -10.0m/s | -53.4°C | 1.5% | 77.1hPa | 2.7V | 00:00:00 | 00:00:00 | 00:00:00 | |
| SP3WXH-11 | 2026-09-05 05:44:04 | 52.17986 | 15.67797 | 88° | 55km/h | 18162m | -10.4m/s | -53.4°C | 1.4% | 76.8hPa | 2.7V | 00:00:00 | 00:00:00 | 00:00:00 | |
| SP6BVK | 2026-09-05 05:44:03 | 52.17986 | 15.67797 | 90° | 55km/h | 18162m | -10.4m/s | -53.4°C | 1.4% | 76.8hPa | 2.7V | 00:00:00 | 00:00:00 | 00:00:00 | |
| KRY50SP-1 | 2026-09-05 05:44:02 | 52.17986 | 15.67775 | 96° | 51km/h | 18173m | -10.4m/s | -53.4°C | 1.5% | 76.7hPa | 2.7V | 00:00:00 | 00:00:00 | 00:00:00 | |
| DM0DOS-11 | 2026-09-05 05:44:00 | 52.18009 | 15.67640 | 114° | 66km/h | 18235m | -10.2m/s | -53°C | 4.4% | 76hPa | 2.7V | 08:30:00 | 01:35:02 | 00:00:00 | |
| AA1-15 | 2026-09-05 05:43:59 | 52.17997 | 15.67688 | 111° | 58km/h | 18215m | -10.1m/s | -53.2°C | 1% | 76.2hPa | 2.6V | 18:12:15 | 01:35:04 | 00:00:00 | |
| EDDB2-11 | 2026-09-05 05:43:59 | 52.18003 | 15.67665 | 111° | 64km/h | 18225m | -9.9m/s | -53.2°C | 1.5% | 76.1hPa | 2.6V | 00:00:00 | 00:00:00 | 00:00:00 | |
| SONCRA | 2026-09-05 05:43:53 | 52.18037 | 15.67506 | 100° | 69km/h | 18286m | -9.6m/s | -52.5°C | 1.4% | 75.4hPa | 2.6V | 00:00:00 | 00:00:00 | 00:00:00 | |
| EDDB2-12 | 2026-09-05 05:43:52 | 52.18037 | 15.67506 | 100° | 69km/h | 18286m | -9.6m/s | -52.5°C | 1.4% | 75.4hPa | 2.6V | 00:00:00 | 00:00:00 | 00:00:00 | |
| DAC517 | 2026-09-05 05:43:51 | 52.18037 | 15.67506 | 101° | 71km/h | 18286m | -9.6m/s | -52.5°C | 1.4% | 75.4hPa | 2.6V | 00:00:00 | 00:00:00 | 00:00:00 | |
| DM0DOS-11 | 2026-09-05 05:43:50 | 52.18043 | 15.67371 | 86° | 58km/h | 18338m | -10.1m/s | -52.5°C | 4.3% | 74.8hPa | 2.6V | 08:30:00 | 01:34:52 | 00:00:00 | |
| AA1-15 | 2026-09-05 05:43:49 | 52.18043 | 15.67422 | 92° | 64km/h | 18317m | -10.2m/s | -52.6°C | 1% | 75.1hPa | 2.7V | 18:12:15 | 01:34:54 | 00:00:00 | |
| S3001 | 2026-09-05 05:43:46 | 52.18042 | 15.67349 | 86° | 49km/h | 18348m | -10.1m/s | -52.4°C | 1.4% | 74.7hPa | 2.7V | 00:00:00 | 00:00:00 | 00:00:00 | |
| 13BRC | 2026-09-05 05:43:45 | 52.18042 | 15.67349 | 87° | 49km/h | 18348m | -10.1m/s | -52.4°C | 1.4% | 74.7hPa | 2.7V | 00:00:00 | 00:00:00 | 00:00:00 | |
| KRY50SP-1 | 2026-09-05 05:43:44 | 52.18042 | 15.67330 | 91° | 47km/h | 18358m | -10.3m/s | -52.4°C | 1.4% | 74.6hPa | 2.7V | 00:00:00 | 00:00:00 | 00:00:00 | |
| SP6BVK | 2026-09-05 05:43:42 | 52.18043 | 15.67294 | 100° | 40km/h | 18380m | -10.7m/s | -52.4°C | 1.4% | 74.4hPa | 2.7V | 00:00:00 | 00:00:00 | 00:00:00 | |
| DB0DAN | 2026-09-05 05:43:40 | 52.18049 | 15.67244 | 106° | 44km/h | 18411m | -9.7m/s | -52.4°C | 1.4% | 74.04hPa | 2.7V | 00:00:00 | 00:00:00 | 00:00:00 | |
| AA1-15 | 2026-09-05 05:43:39 | 52.18053 | 15.67225 | 106° | 49km/h | 18422m | -9.8m/s | -52.3°C | 1% | 73.9hPa | 2.6V | 18:12:15 | 01:34:44 | 00:00:00 | |
| DO3MHA-11 | 2026-09-05 05:43:39 | 52.18053 | 15.67225 | 107° | 53km/h | 18422m | -9.7m/s | 0°C | 0% | 0hPa | 2.7V | 00:00:00 | 01:34:44 | 00:00:00 | |
| SP3WXH-11 | 2026-09-05 05:43:33 | 52.18077 | 15.67096 | 106° | 51km/h | 18479m | -10.0m/s | -51.5°C | 1.3% | 73.2hPa | 2.7V | 00:00:00 | 00:00:00 | 00:00:00 | |
| DM0DOS-11 | 2026-09-05 05:43:30 | 52.18095 | 15.67003 | 108° | 44km/h | 18528m | -10.6m/s | -51.5°C | 3.9% | 72.7hPa | 2.7V | 08:30:00 | 01:34:33 | 00:00:00 | |
| AA1-15 | 2026-09-05 05:43:28 | 52.18095 | 15.67003 | 108° | 44km/h | 18528m | -10.6m/s | -51.5°C | 0.7% | 72.7hPa | 2.7V | 18:12:15 | 01:34:33 | 00:00:00 | |
| EDDB2-11 | 2026-09-05 05:43:28 | 52.18095 | 15.67003 | 108° | 44km/h | 18529m | -10.6m/s | -51.5°C | 1.3% | 72.7hPa | 2.6V | 00:00:00 | 00:00:00 | 00:00:00 | |
| KRY50SP-1 | 2026-09-05 05:43:27 | 52.18095 | 15.67003 | 109° | 44km/h | 18529m | -10.6m/s | -51.5°C | 1.3% | 72.7hPa | 2.6V | 00:00:00 | 00:00:00 | 00:00:00 | |
| DB0DAN | 2026-09-05 05:43:25 | 52.18106 | 15.66946 | 105° | 47km/h | 18566m | -9.8m/s | -51.5°C | 1.3% | 72.19hPa | 2.6V | 00:00:00 | 00:00:00 | 00:00:00 | |
| 13BRC | 2026-09-05 05:43:24 | 52.18106 | 15.66946 | 106° | 49km/h | 18567m | -9.8m/s | -51.5°C | 1.3% | 72.2hPa | 2.7V | 00:00:00 | 00:00:00 | 00:00:00 | |
| SONCRA | 2026-09-05 05:43:22 | 52.18120 | 15.66866 | 105° | 51km/h | 18558m | 3.7m/s | -51.5°C | 1.3% | 72.3hPa | 2.7V | 00:00:00 | 00:00:00 | 00:00:00 | |
| EDDB2-12 | 2026-09-05 05:43:21 | 52.18120 | 15.66866 | 105° | 51km/h | 18558m | 3.7m/s | -51.5°C | 1.3% | 72.3hPa | 2.7V | 00:00:00 | 00:00:00 | 00:00:00 | |
| DM0DOS-11 | 2026-09-05 05:43:20 | 52.18142 | 15.66732 | 102° | 57km/h | 18528m | 6m/s | -51.5°C | 4% | 72.6hPa | 2.7V | 08:30:00 | 01:34:20 | 00:00:00 | |
| AA1-15 | 2026-09-05 05:43:18 | 52.18132 | 15.66800 | 106° | 58km/h | 18543m | 4.8m/s | -51.5°C | 0.8% | 72.5hPa | 2.6V | 18:12:15 | 01:34:23 | 00:00:00 | |
| KRY50SP-1 | 2026-09-05 05:43:16 | 52.18135 | 15.66777 | 105° | 57km/h | 18538m | 5.6m/s | -51.5°C | 1.3% | 72.5hPa | 2.6V | 00:00:00 | 00:00:00 | 00:00:00 | |
| S3001 | 2026-09-05 05:43:15 | 52.18142 | 15.66732 | 102° | 57km/h | 18528m | 6.0m/s | -51.5°C | 1.3% | 72.6hPa | 2.6V | 00:00:00 | 00:00:00 | 00:00:00 | |
| 3Z3Z-3 | 2026-09-05 05:43:12 | 52.18147 | 15.66686 | 101° | 57km/h | 18518m | 6.1m/s | -51.4°C | 0% | 72.7hPa | 2.6V | 00:00:00 | 00:00:00 | 00:00:00 | |
| DB0DAN | 2026-09-05 05:43:10 | 52.18153 | 15.66620 | 99° | 51km/h | 18502m | 5.2m/s | -51.4°C | 1.2% | 72.92hPa | 2.6V | 00:00:00 | 00:00:00 | 00:00:00 | |
| AA1-15 | 2026-09-05 05:43:08 | 52.18158 | 15.66576 | 99° | 53km/h | 18493m | 6m/s | -51.5°C | 0.7% | 73hPa | 2.7V | 18:12:15 | 01:34:13 | 00:00:00 | |
| AA1-15 | 2026-09-05 05:42:57 | 52.18180 | 15.66346 | 97° | 47km/h | 18436m | 4.9m/s | -52.3°C | 0.9% | 73.6hPa | 2.6V | 18:12:15 | 01:34:02 | 00:00:00 | |
| EDDB2-11 | 2026-09-05 05:42:57 | 52.18182 | 15.66327 | 97° | 47km/h | 18431m | 5.6m/s | -52.4°C | 1.3% | 73.7hPa | 2.6V | 00:00:00 | 00:00:00 | 00:00:00 | |
| DB0DAN | 2026-09-05 05:42:55 | 52.18183 | 15.66307 | 100° | 47km/h | 18425m | 4.7m/s | -52.4°C | 1.4% | 73.79hPa | 2.6V | 00:00:00 | 00:00:00 | 00:00:00 | |
| DM0DOS-11 | 2026-09-05 05:42:55 | 52.18192 | 15.66204 | 98° | 53km/h | 18400m | 4.5m/s | -52.4°C | 4.2% | 74.1hPa | 2.6V | 08:30:00 | 01:33:55 | 00:00:00 | |
| AA1-15 | 2026-09-05 05:42:47 | 52.18197 | 15.66140 | 98° | 53km/h | 18385m | 4.3m/s | -52.4°C | 0.9% | 74.2hPa | 2.7V | 18:12:15 | 01:33:52 | 00:00:00 | |
| S3001 | 2026-09-05 05:42:44 | 52.18204 | 15.66075 | 99° | 53km/h | 18368m | 5.6m/s | -52.3°C | 1.3% | 74.5hPa | 2.7V | 00:00:00 | 00:00:00 | 00:00:00 | |
| 13BRC | 2026-09-05 05:42:43 | 52.18204 | 15.66075 | 101° | 55km/h | 18368m | 5.6m/s | -52.3°C | 1.3% | 74.5hPa | 2.7V | 00:00:00 | 00:00:00 | 00:00:00 | |
| DM0DOS-11 | 2026-09-05 05:42:42 | 52.18217 | 15.65928 | 102° | 51km/h | 18332m | 3.3m/s | -52.5°C | 4.2% | 74.8hPa | 2.7V | 08:30:00 | 01:33:42 | 00:00:00 | |
| DB0DAN | 2026-09-05 05:42:40 | 52.18211 | 15.65990 | 99° | 49km/h | 18347m | 4.4m/s | -52.6°C | 1.4% | 74.68hPa | 2.6V | 00:00:00 | 00:00:00 | 00:00:00 | |
| AA1-15 | 2026-09-05 05:42:37 | 52.18217 | 15.65927 | 102° | 51km/h | 18332m | 3.3m/s | -52.5°C | 0.9% | 74.8hPa | 2.7V | 18:12:15 | 01:33:42 | 00:00:00 | |
| DO3MHA-11 | 2026-09-05 05:42:36 | 52.18221 | 15.65906 | 105° | 58km/h | 18327m | 6.5m/s | 0°C | 0% | 0hPa | 2.7V | 00:00:00 | 01:33:41 | 00:00:00 | |
| DL2RXE-15 | 2026-09-05 05:42:35 | 52.18221 | 15.65906 | 105° | 53km/h | 18327m | 6.6m/s | -52.5°C | 1.4% | 74.9hPa | 2.7V | 00:00:00 | 00:00:00 | 00:00:00 | |
| KRY50SP-1 | 2026-09-05 05:42:33 | 52.18230 | 15.65862 | 112° | 58km/h | 18316m | 5.5m/s | -52.5°C | 1.3% | 75.1hPa | 2.7V | 00:00:00 | 00:00:00 | 00:00:00 | |
| DM0DOS-11 | 2026-09-05 05:42:31 | 52.18262 | 15.65697 | 102° | 58km/h | 18278m | 6.7m/s | -52.5°C | 4% | 75.5hPa | 2.7V | 08:30:00 | 01:33:32 | 00:00:00 | |
| AA1-15 | 2026-09-05 05:42:26 | 52.18265 | 15.65673 | 101° | 57km/h | 18272m | 5m/s | -52.6°C | 0.9% | 75.6hPa | 2.7V | 18:12:15 | 01:33:31 | 00:00:00 | |
| DB0DAN | 2026-09-05 05:42:25 | 52.18267 | 15.65650 | 100° | 53km/h | 18266m | 7m/s | -52.7°C | 1.3% | 75.64hPa | 2.7V | 00:00:00 | 00:00:00 | 00:00:00 | |
| 13BRC | 2026-09-05 05:42:22 | 52.18272 | 15.65606 | 101° | 55km/h | 18255m | 6.8m/s | -52.9°C | 1.4% | 75.8hPa | 2.7V | 00:00:00 | 00:00:00 | 00:00:00 | |
| KRY50SP-1 | 2026-09-05 05:42:21 | 52.18275 | 15.65583 | 103° | 57km/h | 18250m | 4.6m/s | -53.0°C | 1.4% | 75.8hPa | 2.7V | 00:00:00 | 00:00:00 | 00:00:00 | |
| DM0DOS-11 | 2026-09-05 05:42:20 | 52.18295 | 15.65443 | 101° | 62km/h | 18216m | 6.4m/s | -53.1°C | 4.3% | 76.2hPa | 2.7V | 08:30:00 | 01:33:21 | 00:00:00 | |
| AA1-15 | 2026-09-05 05:42:16 | 52.18295 | 15.65443 | 102° | 62km/h | 18217m | 6.4m/s | -53.1°C | 1% | 76.2hPa | 2.7V | 18:12:15 | 01:33:21 | 00:00:00 | |
| DO3MHA-11 | 2026-09-05 05:42:16 | 52.18295 | 15.65443 | 102° | 64km/h | 18217m | 6.4m/s | 0°C | 0% | 0hPa | 2.7V | 00:00:00 | 01:33:21 | 00:00:00 | |
| DL2RXE-15 | 2026-09-05 05:42:14 | 52.18297 | 15.65418 | 100° | 62km/h | 18211m | 6.0m/s | -53.1°C | 1.4% | 76.3hPa | 2.7V | 00:00:00 | 00:00:00 | 00:00:00 | |
| S3001 | 2026-09-05 05:42:13 | 52.18301 | 15.65367 | 94° | 62km/h | 18198m | 5.5m/s | -53.1°C | 1.4% | 76.4hPa | 2.7V | 00:00:00 | 00:00:00 | 00:00:00 | |
| DM0DOS-11 | 2026-09-05 05:42:11 | 52.18314 | 15.65188 | 100° | 64km/h | 18158m | 5.9m/s | -53.2°C | 4.3% | 76.9hPa | 2.7V | 08:30:00 | 01:33:11 | 00:00:00 | |
| DB0DAN | 2026-09-05 05:42:10 | 52.18304 | 15.65292 | 95° | 58km/h | 18181m | 5.2m/s | -53.3°C | 1.4% | 76.61hPa | 2.6V | 00:00:00 | 00:00:00 | 00:00:00 | |
| AA1-15 | 2026-09-05 05:42:05 | 52.18317 | 15.65162 | 100° | 68km/h | 18153m | 4.6m/s | -53.3°C | 1% | 77hPa | 2.6V | 18:12:15 | 01:33:10 | 00:00:00 | |
| 3Z3Z-3 | 2026-09-05 05:42:04 | 52.18317 | 15.65162 | 101° | 68km/h | 18153m | 4.6m/s | -53.3°C | 0% | 76.9hPa | 2.7V | 00:00:00 | 00:00:00 | 00:00:00 | |
| 13BRC | 2026-09-05 05:42:02 | 52.18321 | 15.65106 | 96° | 71km/h | 18142m | 4.4m/s | -53.2°C | 1.4% | 77.1hPa | 2.7V | 00:00:00 | 00:00:00 | 00:00:00 | |
| SP3WXH-11 | 2026-09-05 05:42:00 | 52.18322 | 15.65020 | 87° | 69km/h | 18126m | 6.7m/s | -53.1°C | 1.4% | 77.3hPa | 2.7V | 00:00:00 | 00:00:00 | 00:00:00 | |
| DM0DOS-11 | 2026-09-05 05:42:00 | 52.18318 | 15.64909 | 87° | 66km/h | 18103m | 6.3m/s | -53.1°C | 4.2% | 77.5hPa | 2.7V | 08:30:00 | 01:33:01 | 00:00:00 | |
| SP3BTT-10 | 2026-09-05 05:41:59 | 52.18321 | 15.64991 | 87° | 71km/h | 18120m | 5.7m/s | -53.1°C | 4.2% | 77.3hPa | 2.7V | 00:00:00 | 00:00:00 | 00:00:00 | |
| DB0DAN | 2026-09-05 05:41:55 | 52.18318 | 15.64881 | 90° | 64km/h | 18097m | 5.2m/s | -53.2°C | 1.4% | 77.61hPa | 2.7V | 00:00:00 | 00:00:00 | 00:00:00 | |
| AA1-15 | 2026-09-05 05:41:54 | 52.18318 | 15.64854 | 90° | 66km/h | 18092m | 5.1m/s | -53.4°C | 1% | 77.7hPa | 2.6V | 18:12:15 | 01:32:59 | 00:00:00 | |
| DL2RXE-15 | 2026-09-05 05:41:53 | 52.18318 | 15.64854 | 91° | 66km/h | 18092m | 5.1m/s | -53.4°C | 1.4% | 77.7hPa | 2.7V | 00:00:00 | 00:00:00 | 00:00:00 | |
| 3Z3Z-3 | 2026-09-05 05:41:51 | 52.18318 | 15.64799 | 91° | 68km/h | 18082m | 4.2m/s | -53.6°C | 0% | 77.8hPa | 2.7V | 00:00:00 | 00:00:00 | 00:00:00 | |
| DM0DOS-11 | 2026-09-05 05:41:50 | 52.18316 | 15.64624 | 86° | 73km/h | 18049m | 4.2m/s | -53.9°C | 4.6% | 78.2hPa | 2.7V | 08:30:00 | 01:32:51 | 00:00:00 | |
| SONCRA | 2026-09-05 05:41:49 | 52.18317 | 15.64683 | 88° | 69km/h | 18060m | 4.7m/s | -54.0°C | 1.5% | 78.1hPa | 2.6V | 00:00:00 | 00:00:00 | 00:00:00 | |
| EDDB2-12 | 2026-09-05 05:41:48 | 52.18317 | 15.64683 | 88° | 69km/h | 18060m | 4.7m/s | -54.0°C | 1.5% | 78.1hPa | 2.6V | 00:00:00 | 00:00:00 | 00:00:00 | |
| SONDE2-11 | 2026-09-05 05:41:46 | 52.18316 | 15.64624 | 86° | 73km/h | 18049m | 4.2m/s | -53.9°C | 1.5% | 78.2hPa | 2.6V | 00:00:00 | 00:00:00 | 00:00:00 | |
| AA1-15 | 2026-09-05 05:41:44 | 52.18313 | 15.64567 | 83° | 68km/h | 18038m | 6.3m/s | -53.8°C | 1.1% | 78.4hPa | 2.6V | 18:12:15 | 01:32:49 | 00:00:00 | |
| S3001 | 2026-09-05 05:41:42 | 52.18308 | 15.64513 | 82° | 64km/h | 18026m | 6.9m/s | -53.8°C | 1.5% | 78.5hPa | 2.6V | 00:00:00 | 00:00:00 | 00:00:00 | |
| DM0DOS-11 | 2026-09-05 05:41:40 | 52.18289 | 15.64348 | 78° | 73km/h | 17993m | 4.8m/s | -53.7°C | 4.6% | 78.9hPa | 2.6V | 08:30:00 | 01:32:41 | 00:00:00 | |
| AA1-15 | 2026-09-05 05:41:33 | 52.18277 | 15.64261 | 76° | 73km/h | 17975m | 7.2m/s | -53.5°C | 1.1% | 79.1hPa | 2.6V | 18:12:15 | 01:32:38 | 00:00:00 | |
| DM0DOS-11 | 2026-09-05 05:41:30 | 52.18243 | 15.64060 | 74° | 73km/h | 17936m | 6.7m/s | -53.2°C | 4.4% | 79.6hPa | 2.7V | 08:30:00 | 01:32:31 | 00:00:00 | |
| AA1-15 | 2026-09-05 05:41:23 | 52.18229 | 15.63975 | 76° | 73km/h | 17919m | 6.3m/s | -53.1°C | 1% | 79.8hPa | 2.6V | 18:12:15 | 01:32:28 | 00:00:00 | |
| 13BRC | 2026-09-05 05:41:21 | 52.18224 | 15.63946 | 77° | 75km/h | 17914m | 5.2m/s | -53.1°C | 1.5% | 79.9hPa | 2.7V | 00:00:00 | 00:00:00 | 00:00:00 | |
| DM0DOS-11 | 2026-09-05 05:41:19 | 52.18178 | 15.63720 | 69° | 71km/h | 17870m | 5.9m/s | -52.7°C | 4.3% | 80.5hPa | 2.7V | 08:30:00 | 01:32:19 | 00:00:00 | |
| AA1-15 | 2026-09-05 05:41:13 | 52.18172 | 15.63692 | 72° | 71km/h | 17864m | 5.8m/s | -52.6°C | 1% | 80.5hPa | 2.6V | 18:12:15 | 01:32:18 | 00:00:00 | |
| KRY50SP-1 | 2026-09-05 05:41:11 | 52.18167 | 15.63665 | 75° | 69km/h | 17859m | 5.6m/s | -52.6°C | 1.4% | 80.6hPa | 2.6V | 00:00:00 | 00:00:00 | 00:00:00 | |
| DM0DOS-11 | 2026-09-05 05:41:09 | 52.18134 | 15.63442 | 71° | 77km/h | 17813m | 5.8m/s | -52.6°C | 4.3% | 81.1hPa | 2.6V | 08:30:00 | 01:32:09 | 00:00:00 | |
| AA1-15 | 2026-09-05 05:41:02 | 52.18121 | 15.63383 | 69° | 73km/h | 17802m | 6.7m/s | -52.5°C | 0.9% | 81.3hPa | 2.6V | 18:12:15 | 01:32:07 | 00:00:00 | |
| 13BRC | 2026-09-05 05:41:00 | 52.18114 | 15.63356 | 70° | 69km/h | 17797m | 4.8m/s | -52.5°C | 1.4% | 81.4hPa | 2.7V | 00:00:00 | 00:00:00 | 00:00:00 | |
| SP3BTT-10 | 2026-09-05 05:40:59 | 52.18102 | 15.63302 | 72° | 57km/h | 17785m | 5.8m/s | -52.4°C | 4.3% | 81.5hPa | 2.7V | 00:00:00 | 00:00:00 | 00:00:00 | |
| DM0DOS-11 | 2026-09-05 05:40:58 | 52.18075 | 15.63153 | 75° | 62km/h | 17747m | 7.7m/s | -52.4°C | 4.3% | 82hPa | 2.7V | 08:30:00 | 01:31:58 | 00:00:00 | |
| AA1-15 | 2026-09-05 05:40:52 | 52.18071 | 15.63129 | 76° | 60km/h | 17741m | 4.3m/s | -52.3°C | 1% | 82.1hPa | 2.6V | 18:12:15 | 01:31:57 | 00:00:00 | |
| EDDB2-12 | 2026-09-05 05:40:46 | 52.18049 | 15.62984 | 74° | 57km/h | 17706m | 6.8m/s | -52.1°C | 1.4% | 82.5hPa | 2.6V | 00:00:00 | 00:00:00 | 00:00:00 | |
| AA1-15 | 2026-09-05 05:40:40 | 52.18024 | 15.62852 | 75° | 57km/h | 17671m | 4.3m/s | -51.9°C | 0.9% | 83hPa | 2.6V | 18:12:15 | 01:31:45 | 00:00:00 | |
| AA1-15 | 2026-09-05 05:40:29 | 52.17992 | 15.62613 | 80° | 49km/h | 17610m | 4.9m/s | -51.5°C | 0.8% | 83.7hPa | 2.6V | 18:12:15 | 01:31:34 | 00:00:00 | |
| AA1-15 | 2026-09-05 05:40:19 | 52.17974 | 15.62404 | 82° | 51km/h | 17554m | 4.8m/s | -51.6°C | 0.9% | 84.5hPa | 2.6V | 18:12:15 | 01:31:24 | 00:00:00 | |
| SP6BVK | 2026-09-05 05:40:18 | 52.17974 | 15.62404 | 83° | 51km/h | 17555m | 4.8m/s | -51.6°C | 1.4% | 84.5hPa | 2.6V | 00:00:00 | 00:00:00 | 00:00:00 | |
| DB0NH | 2026-09-05 05:40:17 | 52.17969 | 15.62360 | 81° | 58km/h | 17543m | 5.0m/s | -51.8°C | 4.0% | 84.6hPa | 2.6V | 00:00:00 | 01:31:22 | 00:00:00 | |
| EDDB2-12 | 2026-09-05 05:40:15 | 52.17964 | 15.62297 | 83° | 51km/h | 17525m | 7.3m/s | -52.0°C | 1.4% | 84.8hPa | 2.6V | 00:00:00 | 00:00:00 | 00:00:00 | |
| SONDE2-11 | 2026-09-05 05:40:13 | 52.17963 | 15.62276 | 89° | 49km/h | 17520m | 4.3m/s | -52.1°C | 1.4% | 85.0hPa | 2.6V | 00:00:00 | 00:00:00 | 00:00:00 | |
| KRY50SP-1 | 2026-09-05 05:40:12 | 52.17963 | 15.62276 | 90° | 51km/h | 17520m | 4.3m/s | -52.1°C | 1.4% | 84.9hPa | 2.6V | 00:00:00 | 00:00:00 | 00:00:00 | |
| DB0DAN | 2026-09-05 05:40:10 | 52.17965 | 15.62213 | 96° | 51km/h | 17503m | 6.9m/s | -52°C | 1.4% | 85.12hPa | 2.6V | 00:00:00 | 00:00:00 | 00:00:00 | |
| AA1-15 | 2026-09-05 05:40:08 | 52.17968 | 15.62166 | 97° | 58km/h | 17490m | 6.6m/s | -51.9°C | 0.9% | 85.3hPa | 2.6V | 18:12:15 | 01:31:13 | 00:00:00 | |
| AA1-15 | 2026-09-05 05:39:58 | 52.17977 | 15.61916 | 98° | 55km/h | 17439m | 5.8m/s | -51.7°C | 0.7% | 86hPa | 2.6V | 18:12:15 | 01:31:03 | 00:00:00 | |
| SP6BVK | 2026-09-05 05:39:57 | 52.17977 | 15.61916 | 99° | 55km/h | 17439m | 5.8m/s | -51.7°C | 1.3% | 86.0hPa | 2.7V | 00:00:00 | 00:00:00 | 00:00:00 | |
| DB0DAN | 2026-09-05 05:39:55 | 52.17983 | 15.61850 | 97° | 53km/h | 17424m | 4.8m/s | -51.8°C | 1.3% | 86.18hPa | 2.7V | 00:00:00 | 00:00:00 | 00:00:00 | |
| AA1-15 | 2026-09-05 05:39:48 | 52.17984 | 15.61674 | 87° | 64km/h | 17388m | 5.2m/s | -52.9°C | 1% | 86.7hPa | 2.7V | 18:12:15 | 01:30:53 | 00:00:00 | |
| DB0NH | 2026-09-05 05:39:47 | 52.17984 | 15.61648 | 88° | 57km/h | 17383m | 4.7m/s | -52.9°C | 4.2% | 86.7hPa | 2.6V | 00:00:00 | 01:30:52 | 00:00:00 | |
| EDDB2-12 | 2026-09-05 05:39:44 | 52.17983 | 15.61548 | 91° | 58km/h | 17361m | 3.8m/s | -53.2°C | 1.5% | 87.0hPa | 2.7V | 00:00:00 | 00:00:00 | 00:00:00 | |
| DB0DAN | 2026-09-05 05:39:40 | 52.17984 | 15.61474 | 90° | 57km/h | 17347m | 5.9m/s | -53.4°C | 1.5% | 87.22hPa | 2.7V | 00:00:00 | 00:00:00 | 00:00:00 | |
| AA1-15 | 2026-09-05 05:39:37 | 52.17982 | 15.61399 | 85° | 64km/h | 17332m | 3.8m/s | -53.4°C | 1.1% | 87.4hPa | 2.6V | 18:12:15 | 01:30:42 | 00:00:00 | |
| AA1-15 | 2026-09-05 05:39:27 | 52.17966 | 15.61166 | 91° | 55km/h | 17281m | 4m/s | -53.5°C | 1.1% | 88.1hPa | 2.6V | 18:12:15 | 01:30:32 | 00:00:00 | |
| DB0DAN | 2026-09-05 05:39:25 | 52.17966 | 15.61123 | 90° | 49km/h | 17270m | 5.4m/s | -53.6°C | 1.5% | 88.27hPa | 2.6V | 00:00:00 | 00:00:00 | 00:00:00 | |
| KRY50SP-1 | 2026-09-05 05:39:22 | 52.17966 | 15.61080 | 90° | 51km/h | 17260m | 3.1m/s | -53.5°C | 1.5% | 88.4hPa | 2.7V | 00:00:00 | 00:00:00 | 00:00:00 | |
| DAC517 | 2026-09-05 05:39:20 | 52.17964 | 15.61019 | 87° | 49km/h | 17245m | 4.6m/s | -53.4°C | 1.5% | 88.6hPa | 2.7V | 00:00:00 | 00:00:00 | 00:00:00 | |
| 3Z3Z-3 | 2026-09-05 05:39:19 | 52.17964 | 15.61019 | 87° | 49km/h | 17245m | 4.6m/s | -53.4°C | 0% | 88.6hPa | 2.7V | 00:00:00 | 00:00:00 | 00:00:00 | |
| DL1XH1-15 | 2026-09-05 05:39:18 | 52.17962 | 15.60879 | 91° | 47km/h | 17210m | 5.3m/s | -53.2°C | 0% | 0hPa | 2.7V | 00:00:00 | 01:30:18 | 00:00:00 | |
| AA1-15 | 2026-09-05 05:39:16 | 52.17962 | 15.60938 | 89° | 47km/h | 17225m | 4.2m/s | -53.3°C | 1% | 88.9hPa | 2.6V | 18:12:15 | 01:30:21 | 00:00:00 | |
| SP6BVK | 2026-09-05 05:39:15 | 52.17962 | 15.60938 | 90° | 47km/h | 17225m | 4.2m/s | -53.3°C | 1.5% | 88.9hPa | 2.7V | 00:00:00 | 00:00:00 | 00:00:00 | |
| EDDB2-12 | 2026-09-05 05:39:13 | 52.17962 | 15.60879 | 91° | 47km/h | 17210m | 5.4m/s | -53.2°C | 1.5% | 89.1hPa | 2.7V | 00:00:00 | 00:00:00 | 00:00:00 | |
| DB0DAN | 2026-09-05 05:39:10 | 52.17963 | 15.60821 | 94° | 46km/h | 17193m | 6.1m/s | -53.2°C | 1.5% | 89.31hPa | 2.7V | 00:00:00 | 00:00:00 | 00:00:00 | |
| DM0DOS-11 | 2026-09-05 05:39:09 | 52.17969 | 15.60698 | 93° | 51km/h | 17167m | 5.1m/s | -53°C | 4.3% | 89.7hPa | 2.7V | 08:30:00 | 01:30:09 | 00:00:00 | |
| DL1XH1-15 | 2026-09-05 05:39:08 | 52.17970 | 15.60678 | 94° | 47km/h | 17161m | 5.5m/s | 0°C | 0% | 0hPa | 2.7V | 00:00:00 | 01:30:08 | 00:00:00 | |
| AA1-15 | 2026-09-05 05:39:06 | 52.17967 | 15.60741 | 94° | 49km/h | 17176m | 4.9m/s | -53°C | 1.1% | 89.6hPa | 2.6V | 18:12:15 | 01:30:11 | 00:00:00 | |
| AA1-15 | 2026-09-05 05:38:56 | 52.17984 | 15.60543 | 98° | 49km/h | 17126m | 6m/s | -52.9°C | 1% | 90.3hPa | 2.6V | 18:12:15 | 01:30:01 | 00:00:00 | |
| DB0DAN | 2026-09-05 05:38:55 | 52.17986 | 15.60523 | 96° | 49km/h | 17121m | 3.5m/s | -52.9°C | 1.5% | 90.3hPa | 2.6V | 00:00:00 | 00:00:00 | 00:00:00 | |
| EDDB2-11 | 2026-09-05 05:38:49 | 52.17994 | 15.60367 | 99° | 53km/h | 17085m | 5.6m/s | -52.9°C | 1.5% | 90.8hPa | 2.6V | 00:00:00 | 00:00:00 | 00:00:00 | |
| DB0NH | 2026-09-05 05:38:47 | 52.17997 | 15.60346 | 103° | 62km/h | 17080m | 4.0m/s | -52.8°C | 4.4% | 90.8hPa | 2.6V | 00:00:00 | 01:29:52 | 00:00:00 | |
| DL1XH1-15 | 2026-09-05 05:38:46 | 52.18013 | 15.60214 | 96° | 60km/h | 17051m | 5.7m/s | 0°C | 0% | 0hPa | 2.6V | 00:00:00 | 01:29:46 | 00:00:00 | |
| AA1-15 | 2026-09-05 05:38:45 | 52.18003 | 15.60304 | 102° | 51km/h | 17070m | 4.3m/s | -52.8°C | 1% | 91hPa | 2.6V | 18:12:15 | 01:29:50 | 00:00:00 | |
| KRY50SP-1 | 2026-09-05 05:38:45 | 52.18003 | 15.60304 | 103° | 51km/h | 17070m | 4.3m/s | -52.8°C | 1.5% | 91.0hPa | 2.6V | 00:00:00 | 00:00:00 | 00:00:00 | |
| DL2RXE-15 | 2026-09-05 05:38:44 | 52.18003 | 15.60304 | 103° | 51km/h | 17070m | 4.3m/s | -52.8°C | 1.5% | 91.0hPa | 2.6V | 00:00:00 | 00:00:00 | 00:00:00 | |
| 3Z3Z-3 | 2026-09-05 05:38:43 | 52.18006 | 15.60283 | 103° | 53km/h | 17066m | 3.8m/s | -52.8°C | 0% | 91.1hPa | 2.6V | 00:00:00 | 00:00:00 | 00:00:00 | |
| DB0DAN | 2026-09-05 05:38:40 | 52.18014 | 15.60189 | 93° | 58km/h | 17046m | 4.3m/s | -52.8°C | 1.5% | 91.37hPa | 2.6V | 00:00:00 | 00:00:00 | 00:00:00 | |
| AA1-15 | 2026-09-05 05:38:35 | 52.18020 | 15.60060 | 99° | 60km/h | 17023m | 3.2m/s | -52.9°C | 1% | 91.7hPa | 2.6V | 18:12:15 | 01:29:40 | 00:00:00 | |
| AA1-15 | 2026-09-05 05:38:24 | 52.18045 | 15.59785 | 97° | 69km/h | 16972m | 5.3m/s | -52.8°C | 1% | 92.5hPa | 2.6V | 18:12:15 | 01:29:29 | 00:00:00 | |
| AA1-15 | 2026-09-05 05:38:14 | 52.18067 | 15.59513 | 100° | 66km/h | 16924m | 4m/s | -52.9°C | 1% | 93.1hPa | 2.6V | 18:12:15 | 01:29:19 | 00:00:00 | |
| AA1-15 | 2026-09-05 05:38:03 | 52.18106 | 15.59177 | 99° | 71km/h | 16872m | 4.9m/s | -52.7°C | 1% | 93.9hPa | 2.7V | 18:12:15 | 01:29:08 | 00:00:00 | |
| AA1-15 | 2026-09-05 05:37:52 | 52.18131 | 15.58853 | 94° | 73km/h | 16816m | 4.3m/s | -52.5°C | 1% | 94.7hPa | 2.7V | 18:12:15 | 01:28:57 | 00:00:00 | |
| DM0DOS-11 | 2026-09-05 05:37:50 | 52.18137 | 15.58713 | 94° | 64km/h | 16793m | 6.6m/s | -52.3°C | 4.3% | 95hPa | 2.7V | 08:30:00 | 01:28:52 | 00:00:00 | |
| SP3WXH-11 | 2026-09-05 05:37:47 | 52.18137 | 15.58713 | 94° | 64km/h | 16793m | 6.6m/s | -52.3°C | 1.5% | 95.0hPa | 2.6V | 00:00:00 | 00:00:00 | 00:00:00 | |
| EDDB2-11 | 2026-09-05 05:37:46 | 52.18138 | 15.58687 | 93° | 64km/h | 16788m | 3.7m/s | -52.3°C | 1.5% | 95.1hPa | 2.6V | 00:00:00 | 00:00:00 | 00:00:00 | |
| AA1-15 | 2026-09-05 05:37:42 | 52.18141 | 15.58582 | 94° | 66km/h | 16768m | 3.7m/s | -52.2°C | 1% | 95.4hPa | 2.6V | 18:12:15 | 01:28:47 | 00:00:00 | |
| DM0DOS-11 | 2026-09-05 05:37:40 | 52.18145 | 15.58395 | 91° | 66km/h | 16732m | 6.6m/s | -52.2°C | 4.2% | 96hPa | 2.7V | 08:30:00 | 01:28:40 | 00:00:00 | |
| AA1-15 | 2026-09-05 05:37:31 | 52.18145 | 15.58291 | 88° | 62km/h | 16712m | 5.1m/s | -52.1°C | 0.9% | 96.3hPa | 2.7V | 18:12:15 | 01:28:36 | 00:00:00 | |
| SP3BTT-10 | 2026-09-05 05:37:29 | 52.18143 | 15.58240 | 87° | 57km/h | 16702m | 5.9m/s | -52.0°C | 4.2% | 96.4hPa | 2.6V | 00:00:00 | 00:00:00 | 00:00:00 | |
| DB0DAN | 2026-09-05 05:37:25 | 52.18138 | 15.58133 | 84° | 64km/h | 16681m | 6.6m/s | -52.1°C | 1.5% | 96.72hPa | 2.6V | 00:00:00 | 00:00:00 | 00:00:00 | |
| AA1-15 | 2026-09-05 05:37:21 | 52.18132 | 15.58029 | 84° | 58km/h | 16660m | 5.5m/s | -52°C | 1% | 97hPa | 2.6V | 18:12:15 | 01:28:26 | 00:00:00 | |
| POL2MAQ | 2026-09-05 05:37:20 | 52.18132 | 15.58029 | 85° | 58km/h | 16660m | 5.5m/s | 0°C | 0% | 0hPa | 2.7V | 00:00:00 | 00:00:00 | 00:00:00 | |
| DM0DOS-11 | 2026-09-05 05:37:18 | 52.18120 | 15.57850 | 85° | 58km/h | 16617m | 4.4m/s | -52°C | 4.1% | 97.7hPa | 2.7V | 08:30:00 | 01:28:18 | 00:00:00 | |
| DB0NH | 2026-09-05 05:37:17 | 52.18125 | 15.57939 | 84° | 55km/h | 16638m | 5.1m/s | -52.0°C | 4.2% | 97.3hPa | 2.6V | 00:00:00 | 01:28:22 | 00:00:00 | |
| SP3WXH-11 | 2026-09-05 05:37:16 | 52.18124 | 15.57918 | 82° | 51km/h | 16632m | 6.5m/s | -52.0°C | 1.4% | 97.4hPa | 2.6V | 00:00:00 | 00:00:00 | 00:00:00 | |
| DAC517 | 2026-09-05 05:37:15 | 52.18124 | 15.57918 | 84° | 53km/h | 16632m | 6.5m/s | -52.0°C | 1.4% | 97.4hPa | 2.6V | 00:00:00 | 00:00:00 | 00:00:00 | |
| 3Z3Z-3 | 2026-09-05 05:37:14 | 52.18122 | 15.57896 | 85° | 55km/h | 16627m | 4.1m/s | -52.0°C | 0% | 97.5hPa | 2.6V | 00:00:00 | 00:00:00 | 00:00:00 | |
| DB0DAN | 2026-09-05 05:37:10 | 52.18114 | 15.57774 | 82° | 60km/h | 16600m | 7.2m/s | -52°C | 1.4% | 97.93hPa | 2.6V | 00:00:00 | 00:00:00 | 00:00:00 | |
| AA1-15 | 2026-09-05 05:37:10 | 52.18114 | 15.57774 | 82° | 62km/h | 16600m | 7.2m/s | -52°C | 0.9% | 97.9hPa | 2.6V | 18:12:15 | 01:28:15 | 00:00:00 | |
| EDDB2-12 | 2026-09-05 05:37:09 | 52.18109 | 15.57725 | 77° | 58km/h | 16591m | 4.9m/s | -51.9°C | 1.5% | 98.1hPa | 2.7V | 00:00:00 | 00:00:00 | 00:00:00 | |
| SONDE2-11 | 2026-09-05 05:37:07 | 52.18105 | 15.57702 | 73° | 57km/h | 16584m | 6.4m/s | -51.9°C | 1.5% | 98.2hPa | 2.7V | 00:00:00 | 00:00:00 | 00:00:00 | |
| KRY50SP-1 | 2026-09-05 05:37:03 | 52.18093 | 15.57638 | 74° | 53km/h | 16570m | 4.1m/s | -51.8°C | 1.5% | 98.4hPa | 2.7V | 00:00:00 | 00:00:00 | 00:00:00 | |
| DL2RXE-15 | 2026-09-05 05:37:02 | 52.18088 | 15.57617 | 71° | 53km/h | 16565m | 6.4m/s | -51.9°C | 1.5% | 98.4hPa | 2.7V | 00:00:00 | 00:00:00 | 00:00:00 | |
| 3Z3Z-3 | 2026-09-05 05:37:01 | 52.18084 | 15.57596 | 73° | 53km/h | 16559m | 4.4m/s | -51.8°C | 0% | 98.6hPa | 2.7V | 00:00:00 | 00:00:00 | 00:00:00 | |
| DM0DOS-11 | 2026-09-05 05:36:59 | 52.18058 | 15.57420 | 73° | 53km/h | 16519m | 6.2m/s | -51.5°C | 4.1% | 99.2hPa | 2.7V | 08:30:00 | 01:27:59 | 00:00:00 | |
| AA1-15 | 2026-09-05 05:36:59 | 52.18074 | 15.57531 | 79° | 57km/h | 16544m | 3.1m/s | -51.7°C | 0.9% | 98.8hPa | 2.6V | 18:12:15 | 01:28:04 | 00:00:00 | |
| SP3BTT-10 | 2026-09-05 05:36:58 | 52.18071 | 15.57508 | 77° | 51km/h | 16539m | 6.2m/s | -51.6°C | 4.2% | 98.8hPa | 2.6V | 00:00:00 | 00:00:00 | 00:00:00 | |
| DB0DAN | 2026-09-05 05:36:55 | 52.18062 | 15.57441 | 76° | 51km/h | 16524m | 4.2m/s | -51.5°C | 1.4% | 99.11hPa | 2.7V | 00:00:00 | 00:00:00 | 00:00:00 | |
| 13BRC | 2026-09-05 05:36:53 | 52.18058 | 15.57420 | 75° | 53km/h | 16519m | 6.2m/s | -51.5°C | 1.4% | 99.2hPa | 2.7V | 00:00:00 | 00:00:00 | 00:00:00 | |
| KRY50SP-1 | 2026-09-05 05:36:52 | 52.18055 | 15.57400 | 74° | 51km/h | 16514m | 3.8m/s | -51.4°C | 1.4% | 99.3hPa | 2.7V | 00:00:00 | 00:00:00 | 00:00:00 | |
| SP6BVK | 2026-09-05 05:36:50 | 52.18047 | 15.57361 | 75° | 49km/h | 16503m | 4.4m/s | -51.3°C | 1.4% | 99.4hPa | 2.7V | 00:00:00 | 00:00:00 | 00:00:00 | |
| DM0DOS-11 | 2026-09-05 05:36:49 | 52.18029 | 15.57211 | 81° | 57km/h | 16466m | 4.2m/s | -51°C | 4% | 100hPa | 2.7V | 08:30:00 | 01:27:49 | 00:00:00 | |
| AA1-15 | 2026-09-05 05:36:48 | 52.18037 | 15.57300 | 77° | 53km/h | 16488m | 5m/s | -51.1°C | 0.8% | 99.7hPa | 2.7V | 18:12:15 | 01:27:53 | 00:00:00 | |
| KRY50SP-1 | 2026-09-05 05:36:47 | 52.18035 | 15.57279 | 82° | 55km/h | 16483m | 5.1m/s | -51.1°C | 1.4% | 99.7hPa | 2.7V | 00:00:00 | 00:00:00 | 00:00:00 | |
| SP3WXH-11 | 2026-09-05 05:36:45 | 52.18029 | 15.57211 | 81° | 57km/h | 16466m | 4.2m/s | -51.0°C | 1.4% | 100.0hPa | 2.7V | 00:00:00 | 00:00:00 | 00:00:00 | |
| EDDB2-11 | 2026-09-05 05:36:44 | 52.18029 | 15.57211 | 81° | 57km/h | 16466m | 4.2m/s | -51.0°C | 1.4% | 100.0hPa | 2.7V | 00:00:00 | 00:00:00 | 00:00:00 | |
| DB0DAN | 2026-09-05 05:36:40 | 52.18020 | 15.57120 | 76° | 51km/h | 16443m | 5.3m/s | -51.1°C | 1.4% | 100.33hPa | 2.7V | 00:00:00 | 00:00:00 | 00:00:00 | |
| DM0DOS-11 | 2026-09-05 05:36:39 | 52.18003 | 15.57002 | 80° | 47km/h | 16410m | 6.5m/s | -51.3°C | 4% | 100.8hPa | 2.6V | 08:30:00 | 01:27:39 | 00:00:00 | |
| AA1-15 | 2026-09-05 05:36:38 | 52.18014 | 15.57079 | 76° | 49km/h | 16431m | 5m/s | -51.1°C | 0.8% | 100.5hPa | 2.6V | 18:12:15 | 01:27:43 | 00:00:00 | |
| POL2MAQ | 2026-09-05 05:36:37 | 52.18014 | 15.57079 | 77° | 49km/h | 16431m | 5.0m/s | 0°C | 0% | 0hPa | 2.6V | 00:00:00 | 00:00:00 | 00:00:00 | |
| SONDE2-11 | 2026-09-05 05:36:36 | 52.18008 | 15.57041 | 74° | 47km/h | 16421m | 6.2m/s | -51.2°C | 1.4% | 100.7hPa | 2.6V | 00:00:00 | 00:00:00 | 00:00:00 | |
| 3Z3Z-3 | 2026-09-05 05:36:35 | 52.18008 | 15.57040 | 75° | 49km/h | 16421m | 6.2m/s | -51.2°C | 0% | 100.7hPa | 2.6V | 00:00:00 | 00:00:00 | 00:00:00 | |
| 13BRC | 2026-09-05 05:36:33 | 52.18003 | 15.57002 | 82° | 47km/h | 16410m | 6.5m/s | -51.3°C | 1.4% | 100.9hPa | 2.6V | 00:00:00 | 00:00:00 | 00:00:00 | |
| S3001 | 2026-09-05 05:36:32 | 52.17999 | 15.56941 | 86° | 53km/h | 16394m | 4.2m/s | -51.2°C | 1.4% | 101.1hPa | 2.6V | 00:00:00 | 00:00:00 | 00:00:00 | |
| KRY50SP-1 | 2026-09-05 05:36:30 | 52.17999 | 15.56940 | 88° | 53km/h | 16394m | 4.2m/s | -51.2°C | 1.4% | 101.1hPa | 2.6V | 00:00:00 | 00:00:00 | 00:00:00 | |
| DM0DOS-11 | 2026-09-05 05:36:29 | 52.17999 | 15.56781 | 88° | 58km/h | 16353m | 4.8m/s | -51.2°C | 4% | 101.8hPa | 2.6V | 08:30:00 | 01:27:29 | 00:00:00 | |
| AA1-15 | 2026-09-05 05:36:28 | 52.17999 | 15.56875 | 91° | 55km/h | 16377m | 6.6m/s | -51.2°C | 0.8% | 101.3hPa | 2.6V | 18:12:15 | 01:27:33 | 00:00:00 | |
| SP3BTT-10 | 2026-09-05 05:36:28 | 52.17999 | 15.56875 | 92° | 69km/h | 16377m | 6.5m/s | -51.2°C | 4.0% | 101.3hPa | 2.7V | 00:00:00 | 00:00:00 | 00:00:00 | |
| DB0DAN | 2026-09-05 05:36:25 | 52.17999 | 15.56804 | 90° | 55km/h | 16358m | 6.3m/s | -51.2°C | 1.4% | 101.66hPa | 2.7V | 00:00:00 | 00:00:00 | 00:00:00 | |
| 3Z3Z-3 | 2026-09-05 05:36:24 | 52.17999 | 15.56804 | 91° | 58km/h | 16359m | 6.3m/s | -51.2°C | 0% | 101.7hPa | 2.7V | 00:00:00 | 00:00:00 | 00:00:00 | |
| DM0DOS-11 | 2026-09-05 05:36:19 | 52.17995 | 15.56527 | 90° | 68km/h | 16299m | 5.9m/s | -51.1°C | 4% | 102.6hPa | 2.7V | 08:30:00 | 01:27:19 | 00:00:00 | |
| AA1-15 | 2026-09-05 05:36:15 | 52.17995 | 15.56554 | 91° | 66km/h | 16305m | 5m/s | -51.1°C | 0.9% | 102.5hPa | 2.7V | 18:12:15 | 01:27:20 | 00:00:00 | |
| SP3WXH-11 | 2026-09-05 05:36:14 | 52.17995 | 15.56499 | 90° | 69km/h | 16294m | 4.3m/s | -51.0°C | 1.4% | 102.7hPa | 2.6V | 00:00:00 | 00:00:00 | 00:00:00 | |
| 13BRC | 2026-09-05 05:36:13 | 52.17995 | 15.56499 | 91° | 69km/h | 16295m | 4.3m/s | -51.0°C | 1.4% | 102.7hPa | 2.6V | 00:00:00 | 00:00:00 | 00:00:00 | |
| 3Z3Z-3 | 2026-09-05 05:36:12 | 52.17995 | 15.56499 | 91° | 69km/h | 16295m | 4.3m/s | -51.0°C | 0% | 0hPa | 2.6V | 00:00:00 | 00:00:00 | 00:00:00 | |
| DB0DAN | 2026-09-05 05:36:10 | 52.17997 | 15.56412 | 92° | 68km/h | 16278m | 6m/s | -51°C | 1.4% | 102.93hPa | 2.6V | 00:00:00 | 00:00:00 | 00:00:00 | |
| AA1-15 | 2026-09-05 05:36:05 | 52.18000 | 15.56266 | 91° | 69km/h | 16249m | 4.8m/s | -51.1°C | 0.8% | 103.4hPa | 2.6V | 18:12:15 | 01:27:10 | 00:00:00 | |
| S3001 | 2026-09-05 05:36:01 | 52.18000 | 15.56062 | 91° | 73km/h | 16210m | 6.2m/s | -51.3°C | 1.4% | 104.0hPa | 2.6V | 00:00:00 | 00:00:00 | 00:00:00 | |
| 3Z3Z-3 | 2026-09-05 05:35:59 | 52.18000 | 15.56122 | 89° | 73km/h | 16223m | 5.5m/s | -51.3°C | 0% | 0hPa | 2.6V | 00:00:00 | 00:00:00 | 00:00:00 | |
| SP3BTT-10 | 2026-09-05 05:35:58 | 52.18000 | 15.56062 | 92° | 80km/h | 16210m | 6.1m/s | -51.2°C | 4.1% | 104.0hPa | 2.6V | 00:00:00 | 00:00:00 | 00:00:00 | |
| DB0DAN | 2026-09-05 05:35:55 | 52.18002 | 15.55969 | 95° | 73km/h | 16194m | 6.1m/s | -51.3°C | 1.4% | 104.26hPa | 2.6V | 00:00:00 | 00:00:00 | 00:00:00 | |
| AA1-15 | 2026-09-05 05:35:55 | 52.18002 | 15.55969 | 95° | 77km/h | 16194m | 6.1m/s | -51.3°C | 0.9% | 104.3hPa | 2.6V | 18:12:15 | 01:27:00 | 00:00:00 | |
| DL2RXE-15 | 2026-09-05 05:35:52 | 52.18006 | 15.55908 | 98° | 75km/h | 16183m | 7.2m/s | -51.4°C | 1.5% | 104.4hPa | 2.6V | 00:00:00 | 00:00:00 | 00:00:00 | |
| DM0DOS-11 | 2026-09-05 05:35:50 | 52.18013 | 15.55814 | 97° | 78km/h | 16166m | 5.5m/s | -51.4°C | 4.1% | 104.7hPa | 2.6V | 08:30:00 | 01:26:55 | 00:00:00 | |
| SP6BVK | 2026-09-05 05:35:48 | 52.18016 | 15.55782 | 98° | 80km/h | 16160m | 4.9m/s | -51.4°C | 1.5% | 104.8hPa | 2.7V | 00:00:00 | 00:00:00 | 00:00:00 | |
| 3Z3Z-3 | 2026-09-05 05:35:47 | 52.18018 | 15.55749 | 97° | 82km/h | 16155m | 6.2m/s | -51.4°C | 0% | 0hPa | 2.7V | 00:00:00 | 00:00:00 | 00:00:00 | |
| KRY50SP-1 | 2026-09-05 05:35:45 | 52.18022 | 15.55680 | 97° | 86km/h | 16143m | 6.6m/s | -51.5°C | 1.5% | 105.1hPa | 2.7V | 00:00:00 | 00:00:00 | 00:00:00 | |
| OE3JTB-15 | 2026-09-05 05:35:43 | 52.18028 | 15.55575 | 95° | 86km/h | 16126m | 5.0m/s | -51.4°C | 4.1% | 105.3hPa | 2.7V | 00:00:00 | 01:26:48 | 00:00:00 | |
| DB0DAN | 2026-09-05 05:35:40 | 52.18034 | 15.55473 | 95° | 78km/h | 16110m | 6.2m/s | -51.4°C | 1.4% | 105.62hPa | 2.7V | 00:00:00 | 00:00:00 | 00:00:00 | |
| KRY50SP-1 | 2026-09-05 05:35:39 | 52.18034 | 15.55473 | 96° | 82km/h | 16110m | 6.2m/s | -51.4°C | 1.4% | 105.6hPa | 2.7V | 00:00:00 | 00:00:00 | 00:00:00 | |
| POL1PZ | 2026-09-05 05:35:38 | 52.18036 | 15.55440 | 94° | 82km/h | 16104m | 5.2m/s | 0°C | 0% | 0hPa | 2.7V | 00:00:00 | 00:00:00 | 00:00:00 | |
| EDDB2-12 | 2026-09-05 05:35:36 | 52.18041 | 15.55309 | 92° | 77km/h | 16084m | 6.4m/s | -51.2°C | 1.4% | 106.1hPa | 2.7V | 00:00:00 | 00:00:00 | 00:00:00 | |
| SONDE2-11 | 2026-09-05 05:35:34 | 52.18043 | 15.55245 | 93° | 77km/h | 16073m | 7.1m/s | -51.2°C | 1.4% | 106.2hPa | 2.7V | 00:00:00 | 00:00:00 | 00:00:00 | |
| DAC517 | 2026-09-05 05:35:32 | 52.18043 | 15.55245 | 95° | 78km/h | 16073m | 7.1m/s | -51.2°C | 1.4% | 106.2hPa | 2.7V | 00:00:00 | 00:00:00 | 00:00:00 | |
| 13BRC | 2026-09-05 05:35:31 | 52.18044 | 15.55212 | 94° | 82km/h | 16068m | 3.6m/s | -51.2°C | 1.4% | 106.3hPa | 2.7V | 00:00:00 | 00:00:00 | 00:00:00 | |
| S3001 | 2026-09-05 05:35:29 | 52.18047 | 15.55108 | 92° | 86km/h | 16052m | 6.4m/s | -51.3°C | 1.4% | 106.6hPa | 2.7V | 00:00:00 | 00:00:00 | 00:00:00 | |
| SP3BTT-10 | 2026-09-05 05:35:28 | 52.18048 | 15.55073 | 94° | 88km/h | 16046m | 5.0m/s | -51.2°C | 4.1% | 106.7hPa | 2.7V | 00:00:00 | 00:00:00 | 08:30:00 | |
| DB0DAN | 2026-09-05 05:35:25 | 52.18052 | 15.54963 | 94° | 86km/h | 16029m | 6.4m/s | -51.3°C | 1.5% | 106.96hPa | 2.6V | 00:00:00 | 00:00:00 | 00:00:00 | |
| AA1-15 | 2026-09-05 05:35:24 | 52.18053 | 15.54927 | 95° | 89km/h | 16022m | 5.3m/s | -51.2°C | 0.9% | 107.1hPa | 2.7V | 18:12:15 | 01:26:29 | 00:00:00 | |
| AA1-15 | 2026-09-05 05:35:13 | 52.18059 | 15.54535 | 88° | 89km/h | 15962m | 4.5m/s | -51.1°C | 0.9% | 108.1hPa | 2.6V | 18:12:15 | 01:26:18 | 00:00:00 | |
| AA1-15 | 2026-09-05 05:35:02 | 52.18057 | 15.54141 | 87° | 88km/h | 15903m | 6m/s | -50.8°C | 0.8% | 109hPa | 2.6V | 18:12:15 | 01:26:07 | 00:00:00 | |
| OE3JTB-15 | 2026-09-05 05:35:00 | 52.18055 | 15.54068 | 87° | 82km/h | 15892m | 6.3m/s | -50.7°C | 4.0% | 109.1hPa | 2.7V | 00:00:00 | 00:00:00 | 00:00:00 | |
| SP3BTT-10 | 2026-09-05 05:34:58 | 52.18052 | 15.53997 | 87° | 84km/h | 15882m | 6.7m/s | -50.7°C | 4.0% | 109.3hPa | 2.6V | 00:00:00 | 00:00:00 | 00:00:00 | |
| KRY50SP-1 | 2026-09-05 05:34:55 | 52.18050 | 15.53926 | 88° | 86km/h | 15870m | 5.8m/s | -50.7°C | 1.4% | 109.5hPa | 2.6V | 00:00:00 | 00:00:00 | 00:00:00 | |
| MECKS9 | 2026-09-05 05:34:52 | 52.18047 | 15.53823 | 89° | 82km/h | 15854m | 3.7m/s | 0°C | 0% | 0hPa | 2.6V | 00:00:00 | 00:00:00 | 00:00:00 | |
| DAC517 | 2026-09-05 05:34:51 | 52.18047 | 15.53790 | 90° | 80km/h | 15850m | 5.7m/s | -50.7°C | 1.4% | 109.9hPa | 2.6V | 00:00:00 | 00:00:00 | 00:00:00 | |
| DM0DOS-11 | 2026-09-05 05:34:50 | 52.18040 | 15.53623 | 84° | 82km/h | 15826m | 5m/s | -50.5°C | 3.9% | 110.3hPa | 2.6V | 08:30:00 | 01:25:52 | 00:00:00 | |
| AA1-15 | 2026-09-05 05:34:43 | 52.18030 | 15.53486 | 84° | 82km/h | 15805m | 5m/s | -50.6°C | 0.8% | 110.7hPa | 2.6V | 18:12:15 | 01:25:48 | 00:00:00 | |
| MECKS9 | 2026-09-05 05:34:42 | 52.18030 | 15.53486 | 85° | 82km/h | 15805m | 5.0m/s | 0°C | 0% | 0hPa | 2.7V | 00:00:00 | 00:00:00 | 00:00:00 | |
| SP3WXH-11 | 2026-09-05 05:34:41 | 52.18025 | 15.53387 | 86° | 78km/h | 15790m | 5.1m/s | -50.6°C | 1.4% | 110.9hPa | 2.7V | 00:00:00 | 00:00:00 | 00:00:00 | |
| DM0DOS-11 | 2026-09-05 05:34:40 | 52.18021 | 15.53290 | 85° | 78km/h | 15776m | 5.6m/s | -50.7°C | 3.9% | 111.2hPa | 2.7V | 08:30:00 | 01:25:42 | 00:00:00 | |
| KRY50SP-1 | 2026-09-05 05:34:38 | 52.18023 | 15.53354 | 88° | 78km/h | 15785m | 5.6m/s | -50.7°C | 1.4% | 111.0hPa | 2.6V | 00:00:00 | 00:00:00 | 00:00:00 | |
| 3Z3Z-3 | 2026-09-05 05:34:36 | 52.18021 | 15.53290 | 87° | 78km/h | 15776m | 5.6m/s | 0°C | 0% | 0hPa | 2.6V | 00:00:00 | 00:00:00 | 00:00:00 | |
| SONCRA | 2026-09-05 05:34:34 | 52.18017 | 15.53191 | 85° | 82km/h | 15761m | 3.9m/s | -50.7°C | 1.4% | 111.4hPa | 2.6V | 00:00:00 | 00:00:00 | 00:00:00 | |
| KRY50SP-1 | 2026-09-05 05:34:33 | 52.18015 | 15.53156 | 87° | 86km/h | 15756m | 6.1m/s | -50.7°C | 1.4% | 111.5hPa | 2.6V | 00:00:00 | 00:00:00 | 00:00:00 | |
| SONDE2-11 | 2026-09-05 05:34:32 | 52.18012 | 15.53084 | 86° | 88km/h | 15747m | 4.8m/s | -50.8°C | 1.4% | 111.7hPa | 2.6V | 00:00:00 | 00:00:00 | 00:00:00 | |
| OE3JTB-15 | 2026-09-05 05:34:31 | 52.18012 | 15.53084 | 87° | 84km/h | 15748m | 4.8m/s | -50.7°C | 3.9% | 111.6hPa | 2.6V | 00:00:00 | 00:00:00 | 00:00:00 | |
| DM0DOS-11 | 2026-09-05 05:34:30 | 52.18008 | 15.52944 | 86° | 82km/h | 15729m | 4.2m/s | -50.9°C | 3.9% | 112hPa | 2.6V | 08:30:00 | 01:25:32 | 00:00:00 | |
| AA1-15 | 2026-09-05 05:34:26 | 52.18007 | 15.52911 | 87° | 80km/h | 15723m | 6.3m/s | -50.9°C | 0.9% | 112.1hPa | 2.6V | 18:12:15 | 01:25:31 | 00:00:00 | |
| DB0DAN | 2026-09-05 05:34:25 | 52.18006 | 15.52878 | 86° | 73km/h | 15718m | 3.6m/s | -50.9°C | 1.4% | 112.17hPa | 2.7V | 00:00:00 | 00:00:00 | 00:00:00 | |
| 3Z3Z-3 | 2026-09-05 05:34:25 | 52.18006 | 15.52878 | 87° | 77km/h | 15718m | 3.6m/s | 0°C | 0% | 0hPa | 2.7V | 00:00:00 | 00:00:00 | 00:00:00 | |
| KRY50SP-1 | 2026-09-05 05:34:22 | 52.18003 | 15.52814 | 87° | 80km/h | 15708m | 3.6m/s | -51.1°C | 1.5% | 112.4hPa | 2.7V | 00:00:00 | 00:00:00 | 00:00:00 | |
| DM0DOS-11 | 2026-09-05 05:34:20 | 52.17997 | 15.52613 | 86° | 84km/h | 15680m | 5.9m/s | -51.1°C | 4.1% | 112.8hPa | 2.7V | 08:30:00 | 01:25:22 | 00:00:00 | |
| AA1-15 | 2026-09-05 05:34:15 | 52.17994 | 15.52546 | 86° | 82km/h | 15671m | 5.3m/s | -51.1°C | 0.8% | 113hPa | 2.6V | 18:12:15 | 01:25:20 | 00:00:00 | |
| 3Z3Z-3 | 2026-09-05 05:34:14 | 52.17994 | 15.52546 | 87° | 82km/h | 15671m | 5.3m/s | 0°C | 0% | 0hPa | 2.6V | 00:00:00 | 00:00:00 | 00:00:00 | |
| DL2RXE-15 | 2026-09-05 05:34:13 | 52.17993 | 15.52512 | 87° | 80km/h | 15666m | 4.0m/s | -51.0°C | 1.5% | 113.1hPa | 2.6V | 00:00:00 | 00:00:00 | 00:00:00 | |
| KRY50SP-1 | 2026-09-05 05:34:12 | 52.17992 | 15.52479 | 88° | 80km/h | 15661m | 5.8m/s | -51.0°C | 1.5% | 113.2hPa | 2.6V | 00:00:00 | 00:00:00 | 00:00:00 | |
| DB0DAN | 2026-09-05 05:34:10 | 52.17990 | 15.52377 | 90° | 80km/h | 15645m | 4.5m/s | -50.9°C | 1.5% | 113.44hPa | 2.6V | 00:00:00 | 00:00:00 | 00:00:00 | |
| DM0DOS-11 | 2026-09-05 05:34:10 | 52.17989 | 15.52272 | 88° | 86km/h | 15631m | 4.2m/s | -50.8°C | 4.1% | 113.7hPa | 2.7V | 08:30:00 | 01:25:12 | 00:00:00 | |
| AA1-15 | 2026-09-05 05:34:05 | 52.17989 | 15.52202 | 91° | 84km/h | 15623m | 5m/s | -50.7°C | 0.9% | 113.8hPa | 2.7V | 18:12:15 | 01:25:10 | 00:00:00 | |
| SONCRA | 2026-09-05 05:34:03 | 52.17990 | 15.52131 | 91° | 86km/h | 15612m | 6.4m/s | -50.6°C | 1.5% | 114.1hPa | 2.6V | 00:00:00 | 00:00:00 | 00:00:00 | |
| OE3JTB-15 | 2026-09-05 05:34:02 | 52.17991 | 15.52097 | 92° | 82km/h | 15608m | 3.1m/s | -50.5°C | 4.1% | 114.1hPa | 2.6V | 00:00:00 | 01:25:07 | 00:00:00 | |
| KRY50SP-1 | 2026-09-05 05:34:01 | 52.17991 | 15.52097 | 93° | 84km/h | 15608m | 3.2m/s | -50.6°C | 1.5% | 114.1hPa | 2.6V | 00:00:00 | 00:00:00 | 00:00:00 | |
| DM0DOS-11 | 2026-09-05 05:34:00 | 52.17994 | 15.51929 | 91° | 82km/h | 15582m | 4.1m/s | -50.4°C | 4% | 114.5hPa | 2.6V | 08:30:00 | 01:25:02 | 00:00:00 | |
| S3001 | 2026-09-05 05:33:56 | 52.17994 | 15.51896 | 91° | 80km/h | 15577m | 6.1m/s | -50.4°C | 1.4% | 114.7hPa | 2.7V | 00:00:00 | 00:00:00 | 00:00:00 | |
| DB0DAN | 2026-09-05 05:33:55 | 52.17995 | 15.51862 | 92° | 78km/h | 15572m | 3.3m/s | -50.3°C | 1.4% | 114.72hPa | 2.7V | 00:00:00 | 00:00:00 | 00:00:00 | |
| AA1-15 | 2026-09-05 05:33:55 | 52.17995 | 15.51862 | 92° | 82km/h | 15572m | 3.3m/s | -50.3°C | 0.8% | 114.7hPa | 2.7V | 18:12:15 | 01:25:00 | 00:00:00 | |
| 3Z3Z-3 | 2026-09-05 05:33:53 | 52.17995 | 15.51828 | 93° | 84km/h | 15567m | 6.8m/s | 0°C | 0% | 0hPa | 2.7V | 00:00:00 | 00:00:00 | 00:00:00 | |
| DM0DOS-11 | 2026-09-05 05:33:50 | 52.18001 | 15.51585 | 93° | 80km/h | 15533m | 4.7m/s | -50°C | 3.8% | 115.4hPa | 2.7V | 08:30:00 | 01:24:52 | 00:00:00 | |
| AA1-15 | 2026-09-05 05:33:44 | 52.18005 | 15.51485 | 95° | 82km/h | 15518m | 2.9m/s | -49.9°C | 0.7% | 115.7hPa | 2.6V | 18:12:15 | 01:24:49 | 00:00:00 | |
| DM0DOS-11 | 2026-09-05 05:33:40 | 52.18018 | 15.51257 | 95° | 78km/h | 15482m | 5.2m/s | -50°C | 3.7% | 116.3hPa | 2.7V | 08:30:00 | 01:24:42 | 00:00:00 | |
| DB0DAN | 2026-09-05 05:33:40 | 52.18012 | 15.51354 | 95° | 77km/h | 15497m | 3.7m/s | -49.7°C | 1.4% | 116.11hPa | 2.6V | 00:00:00 | 00:00:00 | 00:00:00 | |
| AA1-15 | 2026-09-05 05:33:34 | 52.18023 | 15.51160 | 95° | 78km/h | 15466m | 4.7m/s | -50.1°C | 0.8% | 116.6hPa | 2.6V | 18:12:15 | 01:24:39 | 00:00:00 | |
| OE3JTB-15 | 2026-09-05 05:33:33 | 52.18024 | 15.51128 | 94° | 86km/h | 15462m | 5.3m/s | -50.1°C | 3.7% | 116.6hPa | 2.6V | 00:00:00 | 00:00:00 | 00:00:00 | |
| SONCRA | 2026-09-05 05:33:32 | 52.18027 | 15.51062 | 94° | 80km/h | 15452m | 5.1m/s | -50.3°C | -1.0% | -1.0hPa | 2.6V | 00:00:00 | 00:00:00 | 00:00:00 | |
| EDDB2-12 | 2026-09-05 05:33:31 | 52.18027 | 15.51062 | 94° | 80km/h | 15452m | 5.1m/s | -50.3°C | 1.4% | 116.8hPa | 2.6V | 00:00:00 | 00:00:00 | 00:00:00 | |
| DM0DOS-11 | 2026-09-05 05:33:30 | 52.18039 | 15.50930 | 99° | 82km/h | 15432m | 5.1m/s | -50.5°C | 3.9% | 117.2hPa | 2.6V | 08:30:00 | 01:24:32 | 00:00:00 | |
| 3Z3Z-3 | 2026-09-05 05:33:29 | 52.18029 | 15.51030 | 98° | 80km/h | 15447m | 4.4m/s | 0°C | 0% | 0hPa | 2.7V | 00:00:00 | 00:00:00 | 00:00:00 | |
| DB0DAN | 2026-09-05 05:33:25 | 52.18046 | 15.50864 | 100° | 78km/h | 15421m | 4.8m/s | -50.6°C | 1.4% | 117.41hPa | 2.7V | 00:00:00 | 00:00:00 | 00:00:00 | |
| AA1-15 | 2026-09-05 05:33:24 | 52.18049 | 15.50830 | 100° | 84km/h | 15416m | 4.9m/s | -50.7°C | 0.9% | 117.5hPa | 2.7V | 18:12:15 | 01:24:29 | 00:00:00 | |
| DB0NH | 2026-09-05 05:33:24 | 52.18049 | 15.50830 | 101° | 86km/h | 15417m | 4.8m/s | -50.6°C | 4.0% | 117.5hPa | 2.7V | 00:00:00 | 01:24:29 | 00:00:00 | |
| KRY50SP-1 | 2026-09-05 05:33:21 | 52.18056 | 15.50762 | 101° | 84km/h | 15406m | 3.8m/s | -50.6°C | 1.5% | 117.7hPa | 2.7V | 00:00:00 | 00:00:00 | 00:00:00 | |
| DM0DOS-11 | 2026-09-05 05:33:20 | 52.18073 | 15.50587 | 97° | 88km/h | 15381m | 6.1m/s | -50.7°C | 4% | 118.2hPa | 2.7V | 08:30:00 | 01:24:22 | 00:00:00 | |
| AA1-15 | 2026-09-05 05:33:13 | 52.18082 | 15.50444 | 95° | 88km/h | 15361m | 6.6m/s | -50.8°C | 0.8% | 118.5hPa | 2.7V | 18:12:15 | 01:24:18 | 00:00:00 | |
| DB0DAN | 2026-09-05 05:33:10 | 52.18088 | 15.50337 | 96° | 82km/h | 15345m | 4.6m/s | -50.7°C | 1.5% | 118.81hPa | 2.6V | 00:00:00 | 00:00:00 | 00:00:00 | |
| DM0DOS-11 | 2026-09-05 05:33:10 | 52.18095 | 15.50230 | 95° | 86km/h | 15331m | 5.4m/s | -50.5°C | 3.9% | 119.1hPa | 2.7V | 08:30:00 | 01:24:12 | 00:00:00 | |
| AA1-15 | 2026-09-05 05:33:03 | 52.18099 | 15.50089 | 90° | 86km/h | 15312m | 6.2m/s | -50.4°C | 0.9% | 119.4hPa | 2.6V | 18:12:15 | 01:24:08 | 00:00:00 | |
| DL2RXE-15 | 2026-09-05 05:33:02 | 52.18099 | 15.50089 | 91° | 86km/h | 15312m | 6.2m/s | -50.4°C | 1.5% | 119.4hPa | 2.7V | 00:00:00 | 00:00:00 | 00:00:00 | |
| SONCRA | 2026-09-05 05:33:01 | 52.18098 | 15.49985 | 89° | 84km/h | 15296m | 4.9m/s | 0°C | -1.0% | -1.0hPa | 2.7V | 00:00:00 | 00:00:00 | 00:00:00 | |
| EDDB2-12 | 2026-09-05 05:33:00 | 52.18098 | 15.49985 | 89° | 84km/h | 15296m | 4.9m/s | -50.4°C | 1.4% | 119.7hPa | 2.7V | 00:00:00 | 00:00:00 | 00:00:00 | |
| 3Z3Z-3 | 2026-09-05 05:32:59 | 52.18098 | 15.49985 | 91° | 84km/h | 15296m | 4.9m/s | 0°C | 0% | 0hPa | 2.7V | 00:00:00 | 00:00:00 | 00:00:00 | |
| KRY50SP-1 | 2026-09-05 05:32:58 | 52.18098 | 15.49951 | 92° | 82km/h | 15291m | 5.7m/s | -50.4°C | 1.5% | 119.8hPa | 2.7V | 00:00:00 | 00:00:00 | 00:00:00 | |
| DB0DAN | 2026-09-05 05:32:55 | 52.18102 | 15.49814 | 95° | 78km/h | 15270m | 6.7m/s | -50.3°C | 1.4% | 120.15hPa | 2.7V | 00:00:00 | 00:00:00 | 00:00:00 | |
| AA1-15 | 2026-09-05 05:32:53 | 52.18105 | 15.49747 | 94° | 84km/h | 15260m | 6m/s | -50.3°C | 0.8% | 120.4hPa | 2.7V | 18:12:15 | 01:23:58 | 00:00:00 | |
| KRY50SP-1 | 2026-09-05 05:32:52 | 52.18105 | 15.49747 | 95° | 82km/h | 15260m | 6.0m/s | -50.3°C | 1.4% | 120.4hPa | 2.7V | 00:00:00 | 00:00:00 | 00:00:00 | |
| DM0DOS-11 | 2026-09-05 05:32:48 | 52.18106 | 15.49547 | 88° | 80km/h | 15231m | 5.6m/s | -50.4°C | 3.9% | 120.9hPa | 2.7V | 08:30:00 | 01:23:52 | 00:00:00 | |
| AA1-15 | 2026-09-05 05:32:42 | 52.18105 | 15.49386 | 91° | 78km/h | 15208m | 5.8m/s | -50.5°C | 0.9% | 121.3hPa | 2.7V | 18:12:15 | 01:23:47 | 00:00:00 | |
| DB0DAN | 2026-09-05 05:32:40 | 52.18106 | 15.49321 | 91° | 77km/h | 15198m | 5.2m/s | -50.6°C | 1.5% | 121.52hPa | 2.6V | 00:00:00 | 00:00:00 | 00:00:00 | |
| DM0DOS-11 | 2026-09-05 05:32:38 | 52.18105 | 15.49220 | 85° | 82km/h | 15183m | 4.4m/s | -50.5°C | 4% | 121.8hPa | 2.7V | 08:30:00 | 01:23:42 | 00:00:00 | |
| AA1-15 | 2026-09-05 05:32:30 | 52.18087 | 15.48983 | 85° | 82km/h | 15149m | 4.2m/s | -50.3°C | 0.8% | 122.4hPa | 2.7V | 18:12:15 | 01:23:35 | 00:00:00 | |
| DM0DOS-11 | 2026-09-05 05:32:27 | 52.18083 | 15.48883 | 88° | 84km/h | 15134m | 4.9m/s | -50.1°C | 3.9% | 122.7hPa | 2.6V | 08:30:00 | 01:23:32 | 00:00:00 | |
| DB0DAN | 2026-09-05 05:32:25 | 52.18082 | 15.48814 | 88° | 80km/h | 15124m | 6.3m/s | -50°C | 1.4% | 122.94hPa | 2.7V | 00:00:00 | 00:00:00 | 00:00:00 | |
| DB0NH | 2026-09-05 05:32:24 | 52.18081 | 15.48779 | 89° | 86km/h | 15119m | 3.5m/s | -49.9°C | 3.8% | 123.0hPa | 2.7V | 00:00:00 | 01:23:29 | 00:00:00 | |
| S3001 | 2026-09-05 05:32:23 | 52.18081 | 15.48744 | 88° | 86km/h | 15114m | 6.3m/s | -50.0°C | 1.4% | 123.1hPa | 2.7V | 00:00:00 | 00:00:00 | 00:00:00 | |
| DM0DOS-11 | 2026-09-05 05:32:22 | 52.18081 | 15.48535 | 90° | 82km/h | 15085m | 4.6m/s | -50°C | 3.8% | 123.7hPa | 2.7V | 08:30:00 | 01:23:22 | 00:00:00 | |
| SP6BVK | 2026-09-05 05:32:21 | 52.18080 | 15.48708 | 90° | 88km/h | 15110m | 4.3m/s | -49.9°C | 1.4% | 123.2hPa | 2.6V | 00:00:00 | 00:00:00 | 00:00:00 | |
| DAC517 | 2026-09-05 05:32:20 | 52.18080 | 15.48672 | 90° | 86km/h | 15104m | 6.6m/s | -49.9°C | 1.4% | 123.3hPa | 2.6V | 00:00:00 | 00:00:00 | 00:00:00 | |
| KRY50SP-1 | 2026-09-05 05:32:16 | 52.18080 | 15.48535 | 91° | 82km/h | 15085m | 4.6m/s | -50.0°C | 1.4% | 123.7hPa | 2.6V | 00:00:00 | 00:00:00 | 00:00:00 | |
| DB0DAN | 2026-09-05 05:32:10 | 52.18079 | 15.48303 | 91° | 80km/h | 15046m | 5m/s | -50.5°C | 1.5% | 124.42hPa | 2.6V | 00:00:00 | 00:00:00 | 00:00:00 | |
| AA1-15 | 2026-09-05 05:32:03 | 52.18089 | 15.48049 | 94° | 91km/h | 15006m | 4.9m/s | -50.6°C | 0.9% | 125.2hPa | 2.6V | 18:12:15 | 01:23:08 | 00:00:00 | |
| AA1-15 | 2026-09-05 05:31:52 | 52.18108 | 15.47623 | 91° | 93km/h | 14948m | 4.8m/s | -50.7°C | 0.9% | 126.3hPa | 2.6V | 18:12:15 | 01:22:57 | 00:00:00 | |
| AA1-15 | 2026-09-05 05:31:42 | 52.18111 | 15.47249 | 92° | 88km/h | 14898m | 5.5m/s | -51.1°C | 0.9% | 127.3hPa | 2.7V | 18:12:15 | 01:22:47 | 00:00:00 | |
| SP3BTT-10 | 2026-09-05 05:31:42 | 52.18111 | 15.47249 | 93° | 99km/h | 14898m | 5.4m/s | -51.1°C | 4.1% | 127.2hPa | 2.6V | 00:00:00 | 00:00:00 | 00:00:00 | |
| SP6BVK | 2026-09-05 05:31:40 | 52.18112 | 15.47213 | 91° | 88km/h | 14893m | 4.7m/s | -51.1°C | 1.5% | 127.3hPa | 2.6V | 00:00:00 | 00:00:00 | 00:00:00 | |
| OE3JTB-15 | 2026-09-05 05:31:37 | 52.18107 | 15.47069 | 85° | 122km/h | 14873m | 5.8m/s | -51.0°C | 4.1% | 127.7hPa | 2.6V | 00:00:00 | 00:00:00 | 00:00:00 | |
| KRY50SP-1 | 2026-09-05 05:31:36 | 52.18107 | 15.47069 | 85° | 89km/h | 14873m | 5.8m/s | -51.1°C | 1.5% | 127.7hPa | 2.6V | 00:00:00 | 00:00:00 | 00:00:00 | |
| EDDB2-11 | 2026-09-05 05:31:34 | 52.18100 | 15.46956 | 85° | 91km/h | 14858m | 3.9m/s | -51.1°C | 1.5% | 128.0hPa | 2.6V | 00:00:00 | 00:00:00 | 00:00:00 | |
| DM0DOS-11 | 2026-09-05 05:31:32 | 52.18093 | 15.46684 | 86° | 97km/h | 14824m | 5.5m/s | -51°C | 4.1% | 128.7hPa | 2.6V | 08:30:00 | 01:22:32 | 00:00:00 | |
| AA1-15 | 2026-09-05 05:31:31 | 52.18097 | 15.46841 | 89° | 95km/h | 14843m | 4.7m/s | -51.1°C | 0.9% | 128.3hPa | 2.7V | 18:12:15 | 01:22:36 | 00:00:00 | |
| AA1-15 | 2026-09-05 05:31:21 | 52.18084 | 15.46451 | 87° | 93km/h | 14794m | 3.6m/s | -51°C | 1% | 129.3hPa | 2.6V | 18:12:15 | 01:22:26 | 00:00:00 | |
| DB0NH | 2026-09-05 05:31:21 | 52.18084 | 15.46451 | 87° | 102km/h | 14794m | 3.6m/s | -50.9°C | 4.1% | 129.3hPa | 2.6V | 00:00:00 | 01:22:26 | 00:00:00 | |
| SP6BVK | 2026-09-05 05:31:20 | 52.18084 | 15.46451 | 88° | 93km/h | 14794m | 3.6m/s | -51.0°C | 1.6% | 129.3hPa | 2.7V | 00:00:00 | 00:00:00 | 00:00:00 | |
| KRY50SP-1 | 2026-09-05 05:31:18 | 52.18082 | 15.46375 | 89° | 93km/h | 14784m | 4.6m/s | -50.9°C | 1.5% | 129.5hPa | 2.7V | 00:00:00 | 00:00:00 | 00:00:00 | |
| DM0DOS-11 | 2026-09-05 05:31:16 | 52.18081 | 15.46058 | 90° | 99km/h | 14743m | 4.7m/s | -51°C | 4% | 130.4hPa | 2.7V | 08:30:00 | 01:22:16 | 00:00:00 | |
| AA1-15 | 2026-09-05 05:31:10 | 52.18082 | 15.46018 | 91° | 97km/h | 14737m | 6m/s | -51.1°C | 0.9% | 130.4hPa | 2.6V | 18:12:15 | 01:22:15 | 00:00:00 | |
| DB0DAN | 2026-09-05 05:31:10 | 52.18082 | 15.46018 | 91° | 91km/h | 14737m | 6m/s | -51.1°C | 1.5% | 130.44hPa | 2.6V | 00:00:00 | 00:00:00 | 00:00:00 | |
| AA1-15 | 2026-09-05 05:31:00 | 52.18095 | 15.45603 | 94° | 108km/h | 14683m | 4.9m/s | -51.8°C | 1% | 131.5hPa | 2.7V | 18:12:15 | 01:22:05 | 00:00:00 | |
| DM0DOS-11 | 2026-09-05 05:30:56 | 52.18103 | 15.45379 | 92° | 110km/h | 14658m | 4.7m/s | -52.2°C | 4.4% | 132.1hPa | 2.7V | 08:30:00 | 01:22:00 | 00:00:00 | |
| DB0DAN | 2026-09-05 05:30:55 | 52.18103 | 15.45379 | 92° | 104km/h | 14658m | 4.7m/s | -52.2°C | 1.7% | 132.05hPa | 2.7V | 00:00:00 | 00:00:00 | 00:00:00 | |
| AA1-15 | 2026-09-05 05:30:50 | 52.18107 | 15.45148 | 90° | 113km/h | 14634m | 4.5m/s | -52.1°C | 1.1% | 132.6hPa | 2.6V | 18:12:15 | 01:21:55 | 00:00:00 | |
| DL2RXE-15 | 2026-09-05 05:30:49 | 52.18107 | 15.45148 | 91° | 113km/h | 14634m | 4.5m/s | -52.1°C | 0% | 0hPa | 2.8V | 00:00:00 | 00:00:00 | 00:00:00 | |
| DM0DOS-11 | 2026-09-05 05:30:46 | 52.18103 | 15.44816 | 89° | 119km/h | 14596m | 3.7m/s | -51.9°C | 4.3% | 133.3hPa | 2.8V | 08:30:00 | 01:21:48 | 00:00:00 | |
| KRY50SP-1 | 2026-09-05 05:30:44 | 52.18105 | 15.44914 | 89° | 117km/h | 14608m | 5.1m/s | -52.0°C | 1.7% | 133.1hPa | 2.6V | 00:00:00 | 00:00:00 | 00:00:00 | |
| DB0DAN | 2026-09-05 05:30:40 | 52.18103 | 15.44671 | 89° | 111km/h | 14583m | 5.4m/s | -51.8°C | 1.7% | 133.59hPa | 2.6V | 00:00:00 | 00:00:00 | 00:00:00 | |
| AA1-15 | 2026-09-05 05:30:39 | 52.18103 | 15.44623 | 90° | 115km/h | 14578m | 4.8m/s | -51.7°C | 1.2% | 133.7hPa | 2.6V | 18:12:15 | 01:21:44 | 00:00:00 | |
| AA1-15 | 2026-09-05 05:30:29 | 52.18099 | 15.44169 | 89° | 113km/h | 14529m | 4.6m/s | -51.4°C | 1.1% | 134.7hPa | 2.7V | 18:12:15 | 01:21:34 | 00:00:00 | |
| DL2RXE-15 | 2026-09-05 05:30:28 | 52.18099 | 15.44169 | 90° | 113km/h | 14529m | 4.6m/s | -51.4°C | 1.6% | 134.7hPa | 2.8V | 00:00:00 | 00:00:00 | 00:00:00 | |
| DB0DAN | 2026-09-05 05:30:25 | 52.18096 | 15.43984 | 90° | 106km/h | 14509m | 3.5m/s | -51.6°C | 1.7% | 135.12hPa | 2.8V | 00:00:00 | 00:00:00 | 00:00:00 | |
| AA1-15 | 2026-09-05 05:30:18 | 52.18093 | 15.43680 | 88° | 104km/h | 14476m | 6.1m/s | -51.6°C | 1.1% | 135.8hPa | 2.7V | 18:12:15 | 01:21:23 | 00:00:00 | |
| KRY50SP-1 | 2026-09-05 05:30:15 | 52.18091 | 15.43593 | 88° | 106km/h | 14467m | 5.8m/s | -51.7°C | 1.7% | 136.0hPa | 2.6V | 00:00:00 | 00:00:00 | 00:00:00 | |
| DB0DAN | 2026-09-05 05:30:10 | 52.18081 | 15.43334 | 87° | 99km/h | 14436m | 5.7m/s | -51.8°C | 1.7% | 136.64hPa | 2.6V | 00:00:00 | 00:00:00 | 00:00:00 | |
| AA1-15 | 2026-09-05 05:30:08 | 52.18079 | 15.43250 | 86° | 100km/h | 14426m | 5m/s | -51.8°C | 1.2% | 136.9hPa | 2.6V | 18:12:15 | 01:21:13 | 00:00:00 | |
| AA1-15 | 2026-09-05 05:29:58 | 52.18056 | 15.42819 | 85° | 104km/h | 14377m | 5m/s | -51.7°C | 1.2% | 137.9hPa | 2.6V | 18:12:15 | 01:21:03 | 00:00:00 | |
| KRY50SP-1 | 2026-09-05 05:29:57 | 52.18056 | 15.42819 | 86° | 104km/h | 14377m | 5.0m/s | -51.7°C | 1.7% | 137.9hPa | 2.7V | 00:00:00 | 00:00:00 | 00:00:00 | |
| DM0DOS-11 | 2026-09-05 05:29:56 | 52.18041 | 15.42613 | 82° | 100km/h | 14353m | 5.2m/s | -51.6°C | 4.3% | 138.4hPa | 2.7V | 08:30:00 | 01:20:58 | 00:00:00 | |
| DB0DAN | 2026-09-05 05:29:55 | 52.18047 | 15.42694 | 83° | 95km/h | 14362m | 4.3m/s | -51.7°C | 1.7% | 138.19hPa | 2.8V | 00:00:00 | 00:00:00 | 00:00:00 | |
| AA1-15 | 2026-09-05 05:29:48 | 52.18024 | 15.42404 | 81° | 106km/h | 14330m | 5.3m/s | -51.5°C | 1.3% | 138.9hPa | 2.8V | 18:12:15 | 01:20:53 | 00:00:00 | |
| KRY50SP-1 | 2026-09-05 05:29:47 | 52.18024 | 15.42403 | 82° | 106km/h | 14330m | 5.3m/s | -51.5°C | 1.8% | 138.9hPa | 2.8V | 00:00:00 | 00:00:00 | 00:00:00 | |
| DM0DOS-11 | 2026-09-05 05:29:46 | 52.18005 | 15.42196 | 82° | 99km/h | 14307m | 5.4m/s | -51.4°C | 4.2% | 139.4hPa | 2.8V | 08:30:00 | 01:20:48 | 00:00:00 | |
| 3Z3Z-3 | 2026-09-05 05:29:43 | 52.18009 | 15.42236 | 83° | 99km/h | 14312m | 4.4m/s | 0°C | 0% | 0hPa | 2.6V | 00:00:00 | 00:00:00 | 00:00:00 | |
| KRY50SP-1 | 2026-09-05 05:29:42 | 52.18005 | 15.42196 | 83° | 99km/h | 14308m | 5.4m/s | -51.4°C | 1.7% | 139.4hPa | 2.6V | 00:00:00 | 00:00:00 | 00:00:00 | |
| DB0DAN | 2026-09-05 05:29:40 | 52.17996 | 15.42077 | 81° | 93km/h | 14293m | 4.3m/s | -51.2°C | 1.7% | 139.73hPa | 2.6V | 00:00:00 | 00:00:00 | 00:00:00 | |
| AA1-15 | 2026-09-05 05:29:37 | 52.17985 | 15.41957 | 80° | 99km/h | 14277m | 5.9m/s | -51.2°C | 1.2% | 140hPa | 2.8V | 18:12:15 | 01:20:42 | 00:00:00 | |
| KRY50SP-1 | 2026-09-05 05:29:36 | 52.17985 | 15.41957 | 81° | 99km/h | 14277m | 5.9m/s | -51.2°C | 1.7% | 140.0hPa | 2.6V | 00:00:00 | 00:00:00 | 00:00:00 | |
| DM0DOS-11 | 2026-09-05 05:29:34 | 52.17970 | 15.41796 | 81° | 99km/h | 14258m | 4.7m/s | -51.1°C | 4.3% | 140.4hPa | 2.6V | 08:30:00 | 01:20:38 | 00:00:00 | |
| EDDB2-11 | 2026-09-05 05:29:30 | 52.17961 | 15.41680 | 83° | 91km/h | 14243m | 5.8m/s | -51.1°C | 1.7% | 140.8hPa | 2.7V | 00:00:00 | 00:00:00 | 00:00:00 | |
| DM0DOS-11 | 2026-09-05 05:29:28 | 52.17941 | 15.41418 | 82° | 97km/h | 14211m | 3.8m/s | -51°C | 4.2% | 141.5hPa | 2.7V | 08:30:00 | 01:20:28 | 00:00:00 | |
| AA1-15 | 2026-09-05 05:29:26 | 52.17951 | 15.41531 | 83° | 91km/h | 14224m | 5.1m/s | -51.1°C | 1.1% | 141.2hPa | 2.6V | 18:12:15 | 01:20:31 | 00:00:00 | |
| DB0DAN | 2026-09-05 05:29:25 | 52.17948 | 15.41494 | 82° | 88km/h | 14220m | 3.2m/s | -51°C | 1.7% | 141.32hPa | 2.8V | 00:00:00 | 00:00:00 | 00:00:00 | |
| AA1-15 | 2026-09-05 05:29:16 | 52.17931 | 15.41131 | 89° | 97km/h | 14179m | 4.7m/s | -50.8°C | 1.1% | 142.2hPa | 2.7V | 18:12:15 | 01:20:21 | 00:00:00 | |
| DM0DOS-11 | 2026-09-05 05:29:15 | 52.17925 | 15.41018 | 83° | 88km/h | 14164m | 4.3m/s | -50.6°C | 4.1% | 142.5hPa | 2.6V | 08:30:00 | 01:20:18 | 00:00:00 | |
| KRY50SP-1 | 2026-09-05 05:29:13 | 52.17928 | 15.41054 | 85° | 91km/h | 14169m | 6.3m/s | -50.7°C | 1.6% | 142.4hPa | 2.6V | 00:00:00 | 00:00:00 | 00:00:00 | |
| DB0DAN | 2026-09-05 05:29:10 | 52.17920 | 15.40911 | 86° | 84km/h | 14151m | 4.8m/s | -50.6°C | 1.6% | 142.83hPa | 2.6V | 00:00:00 | 00:00:00 | 00:00:00 | |
| AA1-15 | 2026-09-05 05:29:06 | 52.17915 | 15.40760 | 86° | 91km/h | 14131m | 7.1m/s | -50.5°C | 1% | 143.3hPa | 2.6V | 18:12:15 | 01:20:11 | 00:00:00 | |
| DM0DOS-11 | 2026-09-05 05:29:04 | 52.17913 | 15.40651 | 92° | 86km/h | 14115m | 3.2m/s | -50.4°C | 4.1% | 143.6hPa | 2.7V | 08:30:00 | 01:20:08 | 00:00:00 | |
| AA1-15 | 2026-09-05 05:28:55 | 52.17923 | 15.40363 | 90° | 91km/h | 14073m | 3.9m/s | -50.3°C | 1% | 144.5hPa | 2.6V | 18:12:15 | 01:20:00 | 00:00:00 | |
| DM0DOS-11 | 2026-09-05 05:28:54 | 52.17922 | 15.40290 | 88° | 89km/h | 14063m | 5m/s | -50.3°C | 4.1% | 144.7hPa | 2.7V | 08:30:00 | 01:19:58 | 00:00:00 | |
| EDDB2-12 | 2026-09-05 05:28:52 | 52.17922 | 15.40252 | 88° | 91km/h | 14057m | 5.5m/s | -50.3°C | 1.6% | 144.8hPa | 2.6V | 00:00:00 | 00:00:00 | 00:00:00 | |
| SONDE2-11 | 2026-09-05 05:28:50 | 52.17922 | 15.40178 | 91° | 88km/h | 14049m | 5.7m/s | -50.4°C | 1.6% | 145.0hPa | 2.6V | 00:00:00 | 00:00:00 | 00:00:00 | |
| S3001 | 2026-09-05 05:28:46 | 52.17931 | 15.39994 | 98° | 91km/h | 14022m | 6.4m/s | -50.3°C | 1.6% | 145.7hPa | 2.6V | 00:00:00 | 00:00:00 | 00:00:00 | |
| DAC517 | 2026-09-05 05:28:45 | 52.17928 | 15.40032 | 98° | 93km/h | 14028m | 3.5m/s | -50.3°C | 1.6% | 145.6hPa | 2.6V | 00:00:00 | 00:00:00 | 00:00:00 | |
| DM0DOS-11 | 2026-09-05 05:28:44 | 52.17939 | 15.39919 | 100° | 95km/h | 14013m | 5.3m/s | -50.2°C | 4% | 145.9hPa | 2.6V | 08:30:00 | 01:19:48 | 00:00:00 | |
| AA1-15 | 2026-09-05 05:28:44 | 52.17935 | 15.39956 | 100° | 93km/h | 14017m | 3.9m/s | -50.2°C | 1% | 145.8hPa | 2.6V | 18:12:15 | 01:19:49 | 00:00:00 | |
| SP3BTT-10 | 2026-09-05 05:28:42 | 52.17943 | 15.39880 | 101° | 108km/h | 14008m | 4.6m/s | -50.1°C | 4.0% | 145.9hPa | 2.6V | 00:00:00 | 00:00:00 | 00:00:00 | |
| KRY50SP-1 | 2026-09-05 05:28:39 | 52.17953 | 15.39801 | 102° | 97km/h | 13999m | 6.4m/s | -50.1°C | 1.6% | 146.2hPa | 2.6V | 00:00:00 | 00:00:00 | 00:00:00 | |
| 13BRC | 2026-09-05 05:28:37 | 52.17962 | 15.39721 | 102° | 100km/h | 13988m | 4.9m/s | -50.1°C | 1.6% | 146.4hPa | 2.6V | 00:00:00 | 00:00:00 | 00:00:00 | |
| SP6BVK | 2026-09-05 05:28:36 | 52.17967 | 15.39681 | 101° | 99km/h | 13984m | 4.4m/s | -50.2°C | 1.7% | 146.5hPa | 2.6V | 00:00:00 | 00:00:00 | 00:00:00 | |
| DM0DOS-11 | 2026-09-05 05:28:34 | 52.17981 | 15.39522 | 96° | 97km/h | 13965m | 5.9m/s | -50.2°C | 4.1% | 146.9hPa | 2.6V | 08:30:00 | 01:19:38 | 00:00:00 | |
| AA1-15 | 2026-09-05 05:28:30 | 52.17990 | 15.39403 | 97° | 100km/h | 13950m | 4.4m/s | -50.3°C | 1.1% | 147.3hPa | 2.8V | 18:12:15 | 01:19:35 | 00:00:00 | |
| EDDB2-11 | 2026-09-05 05:28:28 | 52.17997 | 15.39321 | 99° | 99km/h | 13941m | 4.2m/s | -50.3°C | 1.7% | 147.4hPa | 2.6V | 00:00:00 | 00:00:00 | 00:00:00 | |
| DB0DAN | 2026-09-05 05:28:25 | 52.18010 | 15.39197 | 99° | 99km/h | 13927m | 3.4m/s | -50.3°C | 1.7% | 147.8hPa | 2.6V | 00:00:00 | 00:00:00 | 00:00:00 | |
| DAC517 | 2026-09-05 05:28:24 | 52.18010 | 15.39197 | 100° | 104km/h | 13928m | 3.4m/s | -50.3°C | 1.7% | 147.8hPa | 2.6V | 00:00:00 | 00:00:00 | 00:00:00 | |
| KRY50SP-1 | 2026-09-05 05:28:23 | 52.18014 | 15.39154 | 100° | 104km/h | 13922m | 6.8m/s | -50.4°C | 1.7% | 147.9hPa | 2.6V | 00:00:00 | 00:00:00 | 00:00:00 | |
| EDDB2-12 | 2026-09-05 05:28:21 | 52.18025 | 15.39028 | 96° | 102km/h | 13909m | 2.8m/s | -50.3°C | 1.7% | 148.2hPa | 2.6V | 00:00:00 | 00:00:00 | 00:00:00 | |
| SONDE2-11 | 2026-09-05 05:28:19 | 52.18031 | 15.38945 | 97° | 102km/h | 13899m | 3.3m/s | -50.3°C | 1.7% | 148.4hPa | 2.6V | 00:00:00 | 00:00:00 | 00:00:00 | |
| KRY50SP-1 | 2026-09-05 05:28:18 | 52.18031 | 15.38945 | 98° | 102km/h | 13900m | 3.3m/s | -50.3°C | 1.7% | 148.4hPa | 2.6V | 00:00:00 | 00:00:00 | 00:00:00 | |
| 13BRC | 2026-09-05 05:28:17 | 52.18035 | 15.38903 | 99° | 104km/h | 13895m | 5.5m/s | -50.3°C | 1.7% | 148.5hPa | 2.6V | 00:00:00 | 00:00:00 | 00:00:00 | |
| SP6BVK | 2026-09-05 05:28:15 | 52.18042 | 15.38816 | 99° | 108km/h | 13886m | 5.1m/s | -50.3°C | 1.7% | 148.7hPa | 2.6V | 00:00:00 | 00:00:00 | 00:00:00 | |
| DM0DOS-11 | 2026-09-05 05:28:14 | 52.18055 | 15.38683 | 98° | 111km/h | 13873m | 4.4m/s | -50.3°C | 4.1% | 149hPa | 2.6V | 08:30:00 | 01:19:18 | 00:00:00 | |
| KRY50SP-1 | 2026-09-05 05:28:12 | 52.18055 | 15.38683 | 100° | 111km/h | 13873m | 4.4m/s | -50.3°C | 1.7% | 149.0hPa | 2.8V | 00:00:00 | 00:00:00 | 00:00:00 | |
| DB0DAN | 2026-09-05 05:28:10 | 52.18068 | 15.38550 | 99° | 104km/h | 13860m | 4.9m/s | -50.4°C | 1.7% | 149.31hPa | 2.8V | 00:00:00 | 00:00:00 | 00:00:00 | |
| AA1-15 | 2026-09-05 05:28:08 | 52.18075 | 15.38461 | 98° | 110km/h | 13851m | 4.4m/s | -50.4°C | 1.2% | 149.5hPa | 2.6V | 18:12:15 | 01:19:13 | 00:00:00 | |
| KRY50SP-1 | 2026-09-05 05:28:06 | 52.18079 | 15.38417 | 99° | 108km/h | 13847m | 4.4m/s | -50.4°C | 1.7% | 149.7hPa | 2.6V | 00:00:00 | 00:00:00 | 00:00:00 | |
| DM0DOS-11 | 2026-09-05 05:28:04 | 52.18092 | 15.38237 | 97° | 111km/h | 13828m | 3.5m/s | -50.4°C | 4.1% | 150.1hPa | 2.6V | 08:30:00 | 01:19:08 | 00:00:00 | |
| DAC517 | 2026-09-05 05:28:04 | 52.18089 | 15.38282 | 98° | 111km/h | 13833m | 5.3m/s | -50.4°C | 1.7% | 149.9hPa | 2.8V | 00:00:00 | 00:00:00 | 00:00:00 | |
| EDDB2-11 | 2026-09-05 05:27:57 | 52.18109 | 15.37956 | 94° | 117km/h | 13800m | 3.2m/s | -50.5°C | 1.8% | 150.7hPa | 2.8V | 00:00:00 | 00:00:00 | 00:00:00 | |
| DB0DAN | 2026-09-05 05:27:55 | 52.18114 | 15.37860 | 95° | 111km/h | 13790m | 3.7m/s | -50.5°C | 1.8% | 150.93hPa | 2.8V | 00:00:00 | 00:00:00 | 00:00:00 | |
| DM0DOS-11 | 2026-09-05 05:27:54 | 52.18119 | 15.37763 | 94° | 120km/h | 13779m | 5.7m/s | -50.7°C | 4.2% | 151.2hPa | 2.8V | 08:30:00 | 01:18:58 | 00:00:00 | |
| AA1-15 | 2026-09-05 05:27:53 | 52.18119 | 15.37763 | 95° | 120km/h | 13779m | 5.7m/s | -50.7°C | 1.3% | 151.2hPa | 2.8V | 18:12:15 | 01:18:58 | 00:00:00 | |
| EDDB2-12 | 2026-09-05 05:27:50 | 52.18128 | 15.37616 | 95° | 122km/h | 13765m | 5.5m/s | -50.9°C | 1.8% | 151.4hPa | 2.8V | 00:00:00 | 00:00:00 | 00:00:00 | |
| SONDE2-11 | 2026-09-05 05:27:48 | 52.18134 | 15.37514 | 95° | 122km/h | 13756m | 6.1m/s | -51.0°C | 1.8% | 151.7hPa | 2.8V | 00:00:00 | 00:00:00 | 00:00:00 | |
| KRY50SP-1 | 2026-09-05 05:27:45 | 52.18140 | 15.37411 | 96° | 128km/h | 13745m | 6.1m/s | -51.1°C | 1.9% | 151.9hPa | 2.8V | 00:00:00 | 00:00:00 | 00:00:00 | |
| DM0DOS-11 | 2026-09-05 05:27:44 | 52.18148 | 15.37253 | 93° | 130km/h | 13731m | 2.8m/s | -51.2°C | 4.4% | 152.2hPa | 2.8V | 08:30:00 | 01:18:48 | 00:00:00 | |
| AA1-15 | 2026-09-05 05:27:42 | 52.18150 | 15.37200 | 93° | 131km/h | 13728m | 4.9m/s | -51.2°C | 1.5% | 152.4hPa | 2.8V | 18:12:15 | 01:18:47 | 00:00:00 | |
| DB0DAN | 2026-09-05 05:27:40 | 52.18153 | 15.37091 | 93° | 124km/h | 13720m | 5.1m/s | -51.2°C | 1.9% | 152.52hPa | 2.6V | 00:00:00 | 00:00:00 | 00:00:00 | |
| DL2RXE-15 | 2026-09-05 05:27:39 | 52.18153 | 15.37091 | 94° | 131km/h | 13720m | 5.1m/s | -51.2°C | 1.9% | 152.5hPa | 2.8V | 00:00:00 | 00:00:00 | 00:00:00 | |
| 13BRC | 2026-09-05 05:27:36 | 52.18156 | 15.36935 | 91° | 124km/h | 13707m | 5.4m/s | -51.4°C | 2.0% | 152.9hPa | 2.8V | 00:00:00 | 00:00:00 | 00:00:00 | |
| DM0DOS-11 | 2026-09-05 05:27:34 | 52.18158 | 15.36737 | 90° | 119km/h | 13687m | 3.8m/s | -51.3°C | 4.5% | 153.3hPa | 2.8V | 08:30:00 | 01:18:38 | 00:00:00 | |
| AA1-15 | 2026-09-05 05:27:32 | 52.18158 | 15.36689 | 91° | 117km/h | 13682m | 5.8m/s | -51.3°C | 1.6% | 153.4hPa | 2.6V | 18:12:15 | 01:18:37 | 00:00:00 | |
| KRY50SP-1 | 2026-09-05 05:27:29 | 52.18159 | 15.36591 | 92° | 119km/h | 13672m | 7.0m/s | -51.2°C | 1.9% | 153.7hPa | 2.6V | 00:00:00 | 00:00:00 | 00:00:00 | |
| DB0DAN | 2026-09-05 05:27:25 | 52.18162 | 15.36348 | 91° | 111km/h | 13650m | 4.2m/s | -51°C | 1.9% | 154.28hPa | 2.6V | 00:00:00 | 00:00:00 | 00:00:00 | |
| DM0DOS-11 | 2026-09-05 05:27:24 | 52.18164 | 15.36252 | 91° | 119km/h | 13640m | 4.3m/s | -51°C | 4.3% | 154.5hPa | 2.8V | 08:30:00 | 01:18:28 | 00:00:00 | |
| AA1-15 | 2026-09-05 05:27:21 | 52.18165 | 15.36154 | 91° | 120km/h | 13630m | 5.8m/s | -51°C | 1.4% | 154.7hPa | 2.6V | 18:12:15 | 01:18:26 | 00:00:00 | |
| EDDB2-12 | 2026-09-05 05:27:19 | 52.18167 | 15.36006 | 91° | 120km/h | 13615m | 4.2m/s | -50.9°C | 1.9% | 155.1hPa | 2.6V | 00:00:00 | 00:00:00 | 00:00:00 | |
| SONDE2-11 | 2026-09-05 05:27:17 | 52.18169 | 15.35907 | 92° | 119km/h | 13605m | 3.7m/s | -50.9°C | 1.9% | 155.3hPa | 2.6V | 00:00:00 | 00:00:00 | 00:00:00 | |
| 13BRC | 2026-09-05 05:27:15 | 52.18169 | 15.35907 | 93° | 120km/h | 13606m | 3.7m/s | -50.9°C | 1.9% | 155.3hPa | 2.6V | 00:00:00 | 00:00:00 | 00:00:00 | |
| DM0DOS-11 | 2026-09-05 05:27:14 | 52.18171 | 15.35759 | 90° | 119km/h | 13592m | 5.8m/s | -50.8°C | 4.3% | 155.6hPa | 2.6V | 08:30:00 | 01:18:18 | 00:00:00 | |
| AA1-15 | 2026-09-05 05:27:11 | 52.18172 | 15.35662 | 90° | 119km/h | 13582m | 6.7m/s | -50.9°C | 1.4% | 155.9hPa | 2.8V | 18:12:15 | 01:18:16 | 00:00:00 | |
| DB0DAN | 2026-09-05 05:27:10 | 52.18172 | 15.35613 | 91° | 113km/h | 13577m | 4m/s | -51°C | 1.9% | 155.99hPa | 2.8V | 00:00:00 | 00:00:00 | 00:00:00 | |
| KRY50SP-1 | 2026-09-05 05:27:05 | 52.18174 | 15.35414 | 92° | 124km/h | 13557m | 4.8m/s | -51.2°C | 1.9% | 156.4hPa | 2.8V | 00:00:00 | 00:00:00 | 00:00:00 | |
| DM0DOS-11 | 2026-09-05 05:27:04 | 52.18177 | 15.35258 | 92° | 128km/h | 13542m | 5.4m/s | -51.3°C | 4.5% | 156.8hPa | 2.8V | 00:00:00 | 01:18:08 | 00:00:00 | |
| AA1-15 | 2026-09-05 05:27:00 | 52.18183 | 15.35101 | 94° | 126km/h | 13526m | 6.4m/s | -51.2°C | 1.4% | 157.2hPa | 2.6V | 18:12:15 | 01:18:05 | 00:00:00 | |
| 3Z3Z-3 | 2026-09-05 05:26:58 | 52.18184 | 15.35050 | 94° | 122km/h | 13521m | 4.4m/s | 0°C | 0% | 0hPa | 2.6V | 00:00:00 | 00:00:00 | 00:00:00 | |
| DB0DAN | 2026-09-05 05:26:55 | 52.18190 | 15.34854 | 91° | 113km/h | 13502m | 3.7m/s | -51°C | 1.9% | 157.8hPa | 2.6V | 00:00:00 | 00:00:00 | 00:00:00 | |
| EDDB2-11 | 2026-09-05 05:26:55 | 52.18190 | 15.34805 | 91° | 119km/h | 13497m | 6.5m/s | -51.0°C | 1.8% | 157.9hPa | 2.8V | 00:00:00 | 00:00:00 | 00:00:00 | |
| DM0DOS-11 | 2026-09-05 05:26:54 | 52.18190 | 15.34755 | 90° | 122km/h | 13491m | 4.8m/s | -51°C | 4.3% | 0hPa | 2.8V | 00:00:00 | 01:17:58 | 00:00:00 | |
| AA1-15 | 2026-09-05 05:26:50 | 52.18190 | 15.34602 | 90° | 126km/h | 13475m | 5.6m/s | -51°C | 1.3% | 158.4hPa | 2.6V | 18:12:15 | 01:17:55 | 00:00:00 | |
| EDDB2-12 | 2026-09-05 05:26:48 | 52.18190 | 15.34498 | 88° | 126km/h | 13465m | 4.5m/s | -50.9°C | 1.9% | 158.7hPa | 2.8V | 00:00:00 | 00:00:00 | 00:00:00 | |
| SONDE2-11 | 2026-09-05 05:26:46 | 52.18188 | 15.34345 | 88° | 120km/h | 13450m | 4.3m/s | -50.9°C | 1.8% | 159.0hPa | 2.8V | 00:00:00 | 00:00:00 | 00:00:00 | |
| KRY50SP-1 | 2026-09-05 05:26:43 | 52.18187 | 15.34295 | 89° | 120km/h | 13446m | 5.0m/s | -50.9°C | 1.8% | 159.2hPa | 2.8V | 00:00:00 | 00:00:00 | 00:00:00 | |
| DB0DAN | 2026-09-05 05:26:40 | 52.18184 | 15.34093 | 88° | 120km/h | 13426m | 3.2m/s | -50.8°C | 1.8% | 159.62hPa | 2.8V | 00:00:00 | 00:00:00 | 00:00:00 | |
| AA1-15 | 2026-09-05 05:26:39 | 52.18183 | 15.34041 | 89° | 126km/h | 13421m | 5.5m/s | -50.9°C | 1.2% | 159.7hPa | 2.8V | 18:12:15 | 01:17:44 | 00:00:00 | |
| KRY50SP-1 | 2026-09-05 05:26:38 | 52.18183 | 15.34041 | 90° | 126km/h | 13422m | 5.5m/s | -50.9°C | 1.8% | 159.7hPa | 2.6V | 00:00:00 | 00:00:00 | 00:00:00 | |
| DM0DOS-11 | 2026-09-05 05:26:34 | 52.18176 | 15.33726 | 85° | 128km/h | 13391m | 5.2m/s | -51°C | 0% | 0hPa | 2.6V | 00:00:00 | 01:17:38 | 00:00:00 | |
| AA1-15 | 2026-09-05 05:26:28 | 52.18162 | 15.33469 | 85° | 124km/h | 13366m | 4.1m/s | -51°C | 1.3% | 161.1hPa | 2.8V | 18:12:15 | 01:17:33 | 00:00:00 | |
| KRY50SP-1 | 2026-09-05 05:26:27 | 52.18162 | 15.33469 | 86° | 124km/h | 13367m | 4.1m/s | -51.0°C | 1.9% | 161.1hPa | 2.6V | 00:00:00 | 00:00:00 | 00:00:00 | |
| DB0DAN | 2026-09-05 05:26:25 | 52.18158 | 15.33316 | 88° | 119km/h | 13352m | 6.7m/s | -51°C | 1.9% | 161.41hPa | 2.6V | 00:00:00 | 00:00:00 | 00:00:00 | |
| DM0DOS-11 | 2026-09-05 05:26:24 | 52.18156 | 15.33213 | 89° | 126km/h | 13342m | 5.5m/s | -50.9°C | 0% | 0hPa | 2.6V | 00:00:00 | 01:17:28 | 00:00:00 | |
| AA1-15 | 2026-09-05 05:26:17 | 52.18155 | 15.32898 | 90° | 128km/h | 13310m | 7.1m/s | -50.7°C | 1.3% | 162.5hPa | 2.6V | 18:12:15 | 01:17:22 | 00:00:00 | |
| DM0DOS-11 | 2026-09-05 05:26:14 | 52.18155 | 15.32689 | 91° | 128km/h | 13289m | 5.3m/s | 0°C | 0% | 0hPa | 2.6V | 00:00:00 | 01:17:18 | 00:00:00 | |
| 13BRC | 2026-09-05 05:26:13 | 52.18155 | 15.32741 | 92° | 128km/h | 13294m | 5.7m/s | -50.7°C | 1.8% | 162.9hPa | 2.8V | 00:00:00 | 00:00:00 | 00:00:00 | |
| KRY50SP-1 | 2026-09-05 05:26:12 | 52.18155 | 15.32689 | 92° | 128km/h | 13289m | 5.3m/s | -50.7°C | 1.8% | 163.0hPa | 2.8V | 00:00:00 | 00:00:00 | 00:00:00 | |
| DB0DAN | 2026-09-05 05:26:10 | 52.18157 | 15.32530 | 92° | 124km/h | 13274m | 5.3m/s | -50.6°C | 1.8% | 163.41hPa | 2.8V | 00:00:00 | 00:00:00 | 00:00:00 | |
| AA1-15 | 2026-09-05 05:26:07 | 52.18160 | 15.32369 | 91° | 131km/h | 13260m | 3.4m/s | -50.5°C | 1.1% | 163.8hPa | 2.8V | 18:12:15 | 01:17:12 | 00:00:00 | |
| AA1-15 | 2026-09-05 05:25:56 | 52.18173 | 15.31771 | 93° | 135km/h | 13203m | 5.4m/s | -50.4°C | 1.2% | 165.2hPa | 2.8V | 18:12:15 | 01:17:01 | 00:00:00 | |
| DB0DAN | 2026-09-05 05:25:55 | 52.18175 | 15.31715 | 94° | 130km/h | 13198m | 5.2m/s | -50.3°C | 1.8% | 165.31hPa | 2.8V | 00:00:00 | 00:00:00 | 00:00:00 | |
| AA1-15 | 2026-09-05 05:25:46 | 52.18191 | 15.31210 | 93° | 137km/h | 13150m | 3.9m/s | -50.1°C | 1.1% | 166.6hPa | 2.8V | 18:12:15 | 01:16:51 | 00:00:00 | |
| EDDB2-12 | 2026-09-05 05:25:46 | 52.18192 | 15.31154 | 92° | 137km/h | 13144m | 7.3m/s | -50.1°C | 1.8% | 166.7hPa | 2.8V | 00:00:00 | 00:00:00 | 00:00:00 | |
| SONDE2-11 | 2026-09-05 05:25:44 | 52.18195 | 15.31040 | 92° | 137km/h | 13134m | 5.9m/s | -50.0°C | 1.7% | 166.9hPa | 2.8V | 00:00:00 | 00:00:00 | 00:00:00 | |
| DB0DAN | 2026-09-05 05:25:40 | 52.18198 | 15.30869 | 90° | 135km/h | 13119m | 4.7m/s | -49.9°C | 1.8% | 167.38hPa | 2.8V | 00:00:00 | 00:00:00 | 00:00:00 | |
| AA1-15 | 2026-09-05 05:25:34 | 52.18195 | 15.30516 | 89° | 144km/h | 13084m | 3.6m/s | -49.7°C | 1.1% | 168.2hPa | 2.8V | 18:12:15 | 01:16:39 | 00:00:00 | |
| KRY50SP-1 | 2026-09-05 05:25:33 | 52.18195 | 15.30516 | 90° | 144km/h | 13084m | 3.6m/s | -49.7°C | 1.7% | 168.2hPa | 2.8V | 00:00:00 | 00:00:00 | 00:00:00 | |
| SP6BVK | 2026-09-05 05:25:30 | 52.18194 | 15.30340 | 91° | 141km/h | 13069m | 5.7m/s | -49.6°C | 1.7% | 168.6hPa | 2.8V | 00:00:00 | 00:00:00 | 00:00:00 | |
| KRY50SP-1 | 2026-09-05 05:25:27 | 52.18194 | 15.30167 | 91° | 141km/h | 13054m | 6.0m/s | -49.5°C | 1.7% | 169.0hPa | 2.8V | 00:00:00 | 00:00:00 | 00:00:00 | |
| DB0DAN | 2026-09-05 05:25:25 | 52.18193 | 15.29991 | 88° | 139km/h | 13037m | 4.1m/s | -49.4°C | 1.7% | 169.42hPa | 2.8V | 00:00:00 | 00:00:00 | 00:00:00 | |
| AA1-15 | 2026-09-05 05:25:24 | 52.18192 | 15.29930 | 88° | 148km/h | 13032m | 6.1m/s | -49.3°C | 1.1% | 169.6hPa | 2.8V | 18:12:15 | 01:16:29 | 00:00:00 | |
| AA1-15 | 2026-09-05 05:25:13 | 52.18178 | 15.29276 | 89° | 141km/h | 12975m | 5.6m/s | -49.6°C | 1.1% | 171hPa | 2.8V | 18:12:15 | 01:16:18 | 00:00:00 | |
| 13BRC | 2026-09-05 05:25:12 | 52.18178 | 15.29276 | 90° | 141km/h | 12975m | 5.6m/s | -49.6°C | 1.7% | 171.0hPa | 2.6V | 00:00:00 | 00:00:00 | 00:00:00 | |
| DB0DAN | 2026-09-05 05:25:10 | 52.18178 | 15.29102 | 90° | 135km/h | 12961m | 2.6m/s | -49.5°C | 1.8% | 171.4hPa | 2.6V | 00:00:00 | 00:00:00 | 00:00:00 | |
| AA1-15 | 2026-09-05 05:25:02 | 52.18168 | 15.28628 | 88° | 144km/h | 12920m | 5.1m/s | -49.6°C | 1.2% | 172.4hPa | 2.6V | 18:12:15 | 01:16:07 | 00:00:00 | |
| KRY50SP-1 | 2026-09-05 05:24:59 | 52.18165 | 15.28510 | 89° | 144km/h | 12912m | 4.1m/s | -49.7°C | 1.8% | 172.7hPa | 2.6V | 00:00:00 | 00:00:00 | 00:00:00 | |
| DAC517 | 2026-09-05 05:24:58 | 52.18164 | 15.28450 | 90° | 146km/h | 12907m | 5.6m/s | -49.7°C | 1.9% | 172.8hPa | 2.6V | 00:00:00 | 00:00:00 | 00:00:00 | |
| DB0DAN | 2026-09-05 05:24:55 | 52.18160 | 15.28212 | 88° | 137km/h | 12888m | 4.1m/s | -49.8°C | 1.9% | 173.36hPa | 2.6V | 00:00:00 | 00:00:00 | 00:00:00 | |
| AA1-15 | 2026-09-05 05:24:51 | 52.18153 | 15.27976 | 87° | 142km/h | 12866m | 4.7m/s | -50°C | 1.4% | 173.9hPa | 2.6V | 18:12:15 | 01:15:56 | 00:00:00 | |
| EDDB2-11 | 2026-09-05 05:24:51 | 52.18151 | 15.27918 | 86° | 142km/h | 12861m | 5.8m/s | -50.0°C | 2.0% | 174.0hPa | 2.6V | 00:00:00 | 00:00:00 | 00:00:00 | |
| AA1-15 | 2026-09-05 05:24:41 | 52.18131 | 15.27390 | 84° | 141km/h | 12817m | 5.6m/s | -49.7°C | 1.5% | 175.2hPa | 2.6V | 18:12:15 | 01:15:46 | 00:00:00 | |
| AA1-15 | 2026-09-05 05:24:30 | 52.18092 | 15.26768 | 84° | 141km/h | 12763m | 5.1m/s | -49.5°C | 1.6% | 176.7hPa | 2.6V | 18:12:15 | 01:15:35 | 00:00:00 | |
| AA1-15 | 2026-09-05 05:24:20 | 52.18047 | 15.26211 | 83° | 133km/h | 12715m | 3.3m/s | -50.1°C | 2% | 178hPa | 2.6V | 18:12:15 | 01:15:25 | 00:00:00 | |
| AA1-15 | 2026-09-05 05:24:09 | 52.18000 | 15.25602 | 83° | 141km/h | 12660m | 5.7m/s | -50.5°C | 2.4% | 179.5hPa | 2.8V | 18:12:15 | 01:15:14 | 00:00:00 | |
| AA1-15 | 2026-09-05 05:23:58 | 52.17945 | 15.24955 | 81° | 151km/h | 12605m | 4m/s | -50.9°C | 3% | 181hPa | 2.8V | 18:12:15 | 01:15:03 | 00:00:00 | |
| DAC517 | 2026-09-05 05:23:57 | 52.17945 | 15.24955 | 82° | 151km/h | 12605m | 4.0m/s | -50.9°C | 2.8% | 181.0hPa | 2.6V | 00:00:00 | 00:00:00 | 00:00:00 | |
| DB0DAN | 2026-09-05 05:23:55 | 52.17928 | 15.24766 | 82° | 150km/h | 12589m | 5.5m/s | -51.4°C | 3% | 181.47hPa | 2.6V | 00:00:00 | 00:00:00 | 00:00:00 | |
| AA1-15 | 2026-09-05 05:23:48 | 52.17887 | 15.24327 | 81° | 155km/h | 12555m | 3.9m/s | -51.9°C | 4.1% | 182.5hPa | 2.8V | 18:12:15 | 01:14:53 | 00:00:00 | |
| SP6BVK | 2026-09-05 05:23:43 | 52.17862 | 15.24071 | 82° | 161km/h | 12533m | 4.1m/s | -52.3°C | 3.8% | 183.0hPa | 2.6V | 00:00:00 | 00:00:00 | 00:00:00 | |
| KRY50SP-1 | 2026-09-05 05:23:42 | 52.17855 | 15.24006 | 81° | 159km/h | 12528m | 5.5m/s | -52.4°C | 3.9% | 183.2hPa | 2.6V | 00:00:00 | 00:00:00 | 00:00:00 | |
| DB0DAN | 2026-09-05 05:23:40 | 52.17834 | 15.23812 | 79° | 151km/h | 12513m | 4.9m/s | -52.8°C | 4.2% | 183.57hPa | 2.6V | 00:00:00 | 00:00:00 | 00:00:00 | |
| AA1-15 | 2026-09-05 05:23:28 | 52.17740 | 15.23099 | 77° | 141km/h | 12448m | 6.2m/s | -52.8°C | 5.4% | 185.5hPa | 2.8V | 18:12:15 | 01:14:33 | 00:00:00 | |
| DB0DAN | 2026-09-05 05:23:25 | 52.17716 | 15.22934 | 76° | 130km/h | 12432m | 4.2m/s | -52.7°C | 4.5% | 185.9hPa | 2.6V | 00:00:00 | 00:00:00 | 00:00:00 | |
| AA1-15 | 2026-09-05 05:23:17 | 52.17649 | 15.22506 | 77° | 131km/h | 12391m | 4.2m/s | -52.7°C | 5.7% | 187.2hPa | 2.8V | 18:12:15 | 01:14:22 | 00:00:00 | |
| AA1-15 | 2026-09-05 05:23:07 | 52.17568 | 15.21985 | 77° | 130km/h | 12341m | 2.6m/s | -52.4°C | 5.7% | 188.6hPa | 2.8V | 18:12:15 | 01:14:12 | 00:00:00 | |
| AA1-15 | 2026-09-05 05:22:56 | 52.17499 | 15.21416 | 80° | 128km/h | 12283m | 5.6m/s | -52°C | 5.7% | 190.3hPa | 2.8V | 18:12:15 | 01:14:01 | 00:00:00 | |
| DB0DAN | 2026-09-05 05:22:55 | 52.17493 | 15.21364 | 80° | 126km/h | 12278m | 5.5m/s | -51.9°C | 4.6% | 190.45hPa | 2.8V | 00:00:00 | 00:00:00 | 00:00:00 | |
| AA1-15 | 2026-09-05 05:22:45 | 52.17438 | 15.20832 | 82° | 131km/h | 12229m | 3.8m/s | -51.5°C | 5.7% | 191.9hPa | 2.8V | 18:12:15 | 01:13:50 | 00:00:00 | |
| SP6BVK | 2026-09-05 05:22:42 | 52.17429 | 15.20726 | 83° | 130km/h | 12219m | 4.1m/s | -51.4°C | 4.7% | 192.2hPa | 2.8V | 00:00:00 | 00:00:00 | 00:00:00 | |
| DB0DAN | 2026-09-05 05:22:40 | 52.17417 | 15.20569 | 82° | 122km/h | 12203m | 6.3m/s | -51.3°C | 4.8% | 192.7hPa | 2.8V | 00:00:00 | 00:00:00 | 00:00:00 | |
| AA1-15 | 2026-09-05 05:22:33 | 52.17387 | 15.20205 | 82° | 130km/h | 12167m | 5.4m/s | -51°C | 5.9% | 193.8hPa | 2.8V | 18:12:15 | 01:13:38 | 00:00:00 | |
| DB0NH | 2026-09-05 05:22:32 | 52.17382 | 15.20152 | 83° | 128km/h | 12163m | 3.9m/s | -50.9°C | 7.7% | 193.8hPa | 2.7V | 00:00:00 | 01:13:37 | 00:00:00 | |
| KRY50SP-1 | 2026-09-05 05:22:28 | 52.17370 | 15.19994 | 85° | 128km/h | 12149m | 4.8m/s | -50.8°C | 4.8% | 194.3hPa | 2.6V | 00:00:00 | 00:00:00 | 00:00:00 | |
| 13BRC | 2026-09-05 05:22:27 | 52.17367 | 15.19942 | 85° | 130km/h | 12144m | 4.7m/s | -50.8°C | 4.8% | 194.5hPa | 2.6V | 00:00:00 | 00:00:00 | 00:00:00 | |
| DB0DAN | 2026-09-05 05:22:25 | 52.17357 | 15.19784 | 85° | 120km/h | 12126m | 5m/s | -50.8°C | 5.1% | 195.02hPa | 2.6V | 00:00:00 | 00:00:00 | 00:00:00 | |
| AA1-15 | 2026-09-05 05:22:23 | 52.17351 | 15.19681 | 85° | 124km/h | 12116m | 6.9m/s | -50.7°C | 6.5% | 195.3hPa | 2.8V | 18:12:15 | 01:13:28 | 00:00:00 | |
| AA1-15 | 2026-09-05 05:22:13 | 52.17324 | 15.19159 | 87° | 128km/h | 12063m | 5.9m/s | -50.6°C | 7.2% | 196.8hPa | 2.6V | 18:12:15 | 01:13:18 | 00:00:00 | |
| KRY50SP-1 | 2026-09-05 05:22:12 | 52.17324 | 15.19159 | 88° | 128km/h | 12064m | 5.9m/s | -50.6°C | 5.5% | 196.8hPa | 2.8V | 00:00:00 | 00:00:00 | 00:00:00 | |
| DB0DAN | 2026-09-05 05:22:10 | 52.17318 | 15.19002 | 86° | 122km/h | 12047m | 4.2m/s | -50.6°C | 5.5% | 197.34hPa | 2.8V | 00:00:00 | 00:00:00 | 00:00:00 | |
| AA1-15 | 2026-09-05 05:22:02 | 52.17311 | 15.18572 | 92° | 130km/h | 12006m | 5.1m/s | -51.1°C | 8.2% | 198.6hPa | 2.6V | 18:12:15 | 01:13:07 | 00:00:00 | |
| DB0NH | 2026-09-05 05:22:02 | 52.17311 | 15.18572 | 92° | 142km/h | 12006m | 5.0m/s | -51.0°C | 9.2% | 198.6hPa | 2.6V | 00:00:00 | 01:13:07 | 00:00:00 | |
| SP6BVK | 2026-09-05 05:22:01 | 52.17312 | 15.18519 | 93° | 131km/h | 12001m | 4.9m/s | -51.1°C | 6.3% | 198.8hPa | 2.6V | 00:00:00 | 00:00:00 | 00:00:00 | |
| DL2RXE-15 | 2026-09-05 05:22:00 | 52.17312 | 15.18519 | 93° | 131km/h | 12001m | 4.9m/s | -51.1°C | 0% | 198.8hPa | 2.6V | 00:00:00 | 00:00:00 | 00:00:00 | |
| DB0DAN | 2026-09-05 05:21:55 | 52.17311 | 15.18189 | 87° | 130km/h | 11971m | 3.9m/s | -51.1°C | 6.4% | 199.71hPa | 2.6V | 00:00:00 | 00:00:00 | 00:00:00 | |
| AA1-15 | 2026-09-05 05:21:52 | 52.17309 | 15.18020 | 90° | 139km/h | 11956m | 4.7m/s | -51.2°C | 8.9% | 200.1hPa | 2.8V | 18:12:15 | 01:12:57 | 00:00:00 | |
| SP3WXH-11 | 2026-09-05 05:21:45 | 52.17312 | 15.17616 | 90° | 144km/h | 11923m | 5.6m/s | -51.4°C | 7.1% | 201.1hPa | 2.8V | 00:00:00 | 00:00:00 | 00:00:00 | |
| AA1-15 | 2026-09-05 05:21:41 | 52.17314 | 15.17376 | 91° | 148km/h | 11903m | 7.4m/s | -51.7°C | 10.1% | 0hPa | 2.8V | 18:12:15 | 01:12:46 | 00:00:00 | |
| DB0DAN | 2026-09-05 05:21:40 | 52.17315 | 15.17315 | 92° | 142km/h | 11897m | 4.7m/s | -51.7°C | 7.6% | 201.91hPa | 2.8V | 00:00:00 | 00:00:00 | 00:00:00 | |
| AA1-15 | 2026-09-05 05:21:31 | 52.17321 | 15.16749 | 91° | 159km/h | 11856m | 6.2m/s | -51.6°C | 10.6% | 0hPa | 2.8V | 18:12:15 | 01:12:36 | 00:00:00 | |
| KRY50SP-1 | 2026-09-05 05:21:28 | 52.17323 | 15.16617 | 92° | 162km/h | 11845m | 6.4m/s | -51.6°C | 8.0% | 203.6hPa | 2.8V | 00:00:00 | 00:00:00 | 00:00:00 | |
| DB0DAN | 2026-09-05 05:21:25 | 52.17325 | 15.16350 | 91° | 155km/h | 11826m | 5.9m/s | -51.5°C | 8.2% | 204.19hPa | 2.8V | 00:00:00 | 00:00:00 | 00:00:00 | |
| AA1-15 | 2026-09-05 05:21:20 | 52.17326 | 15.16015 | 91° | 164km/h | 11802m | 6.4m/s | -51.6°C | 11.5% | 0hPa | 2.6V | 18:12:15 | 01:12:25 | 00:00:00 | |
| OE3JTB-15 | 2026-09-05 05:21:17 | 52.17327 | 15.15813 | 91° | 166km/h | 11787m | 3.1m/s | 0°C | 0% | 0hPa | 2.6V | 00:00:00 | 01:12:22 | 00:00:00 | |
| EDDB2-11 | 2026-09-05 05:21:14 | 52.17330 | 15.15544 | 90° | 162km/h | 11768m | 5.1m/s | -51.6°C | 8.5% | 206.0hPa | 2.6V | 00:00:00 | 00:00:00 | 00:00:00 | |
| DL2RXE-15 | 2026-09-05 05:21:13 | 52.17330 | 15.15544 | 92° | 164km/h | 11768m | 5.1m/s | -51.6°C | 0% | 206.0hPa | 2.6V | 00:00:00 | 00:00:00 | 00:00:00 | |
| KRY50SP-1 | 2026-09-05 05:21:12 | 52.17330 | 15.15544 | 92° | 164km/h | 11768m | 5.1m/s | -51.6°C | 8.5% | 206.0hPa | 2.6V | 00:00:00 | 00:00:00 | 00:00:00 | |
| DB0DAN | 2026-09-05 05:21:10 | 52.17333 | 15.15342 | 91° | 155km/h | 11753m | 4.4m/s | -51.7°C | 8.8% | 206.51hPa | 2.6V | 00:00:00 | 00:00:00 | 00:00:00 | |
| AA1-15 | 2026-09-05 05:20:58 | 52.17325 | 15.14545 | 89° | 162km/h | 11698m | 4.2m/s | -52.2°C | 13% | 0hPa | 2.8V | 18:12:15 | 01:12:03 | 00:00:00 | |
| DB0DAN | 2026-09-05 05:20:55 | 52.17323 | 15.14343 | 89° | 157km/h | 11684m | 5m/s | -52.3°C | 9.6% | 208.67hPa | 2.8V | 00:00:00 | 00:00:00 | 00:00:00 | |
| AA1-15 | 2026-09-05 05:20:48 | 52.17317 | 15.13867 | 89° | 170km/h | 11651m | 3.1m/s | -52.4°C | 13% | 0hPa | 2.8V | 18:12:15 | 01:11:53 | 00:00:00 | |
| 13BRC | 2026-09-05 05:20:44 | 52.17315 | 15.13657 | 91° | 172km/h | 11638m | 6.7m/s | -52.4°C | 9.7% | 210.2hPa | 2.6V | 00:00:00 | 00:00:00 | 00:00:00 | |
| SP3WXH-11 | 2026-09-05 05:20:43 | 52.17314 | 15.13515 | 89° | 173km/h | 11627m | 5.3m/s | -52.4°C | 9.8% | 210.6hPa | 2.6V | 00:00:00 | 00:00:00 | 00:00:00 | |
| KRY50SP-1 | 2026-09-05 05:20:42 | 52.17314 | 15.13514 | 90° | 173km/h | 11627m | 5.3m/s | -52.4°C | 9.8% | 210.6hPa | 2.6V | 00:00:00 | 00:00:00 | 00:00:00 | |
| DB0DAN | 2026-09-05 05:20:40 | 52.17312 | 15.13296 | 89° | 170km/h | 11613m | 5.1m/s | -52.3°C | 9.8% | 211hPa | 2.6V | 00:00:00 | 00:00:00 | 00:00:00 | |
| AA1-15 | 2026-09-05 05:20:37 | 52.17308 | 15.13075 | 88° | 181km/h | 11599m | 6.5m/s | -52.2°C | 13% | 0hPa | 2.8V | 18:12:15 | 01:11:42 | 00:00:00 | |
| AA1-15 | 2026-09-05 05:20:26 | 52.17295 | 15.12268 | 88° | 181km/h | 11552m | 2.4m/s | -52°C | 12.8% | 0hPa | 2.7V | 18:12:15 | 01:11:31 | 00:00:00 | |
| DB0DAN | 2026-09-05 05:20:25 | 52.17294 | 15.12194 | 89° | 173km/h | 11548m | 5.6m/s | -52°C | 9.5% | 213.12hPa | 2.7V | 00:00:00 | 00:00:00 | 00:00:00 | |
| 13BRC | 2026-09-05 05:20:24 | 52.17293 | 15.12119 | 89° | 181km/h | 11543m | 5.1m/s | -52.0°C | 9.6% | 213.3hPa | 2.7V | 00:00:00 | 00:00:00 | 00:00:00 | |
| DL2RXE-15 | 2026-09-05 05:20:23 | 52.17293 | 15.12119 | 89° | 181km/h | 11543m | 5.1m/s | -52.0°C | 0% | 213.3hPa | 2.7V | 00:00:00 | 00:00:00 | 00:00:00 | |
| SP6BVK | 2026-09-05 05:20:18 | 52.17287 | 15.11750 | 89° | 181km/h | 11522m | 3.1m/s | -51.9°C | 10.1% | 214.1hPa | 2.7V | 00:00:00 | 00:00:00 | 00:00:00 | |
| KRY50SP-1 | 2026-09-05 05:20:16 | 52.17285 | 15.11601 | 89° | 183km/h | 11512m | 5.6m/s | -51.8°C | 9.9% | 214.3hPa | 2.7V | 00:00:00 | 00:00:00 | 00:00:00 | |
| OE3JTB-15 | 2026-09-05 05:20:13 | 52.17280 | 15.11297 | 89° | 190km/h | 11493m | 5.6m/s | 0°C | 0% | 0hPa | 2.7V | 00:00:00 | 00:00:00 | 00:00:00 | |
| DB0DAN | 2026-09-05 05:20:10 | 52.17275 | 15.11067 | 88° | 179km/h | 11479m | 4m/s | -51.7°C | 9.7% | 215.5hPa | 2.7V | 00:00:00 | 00:00:00 | 00:00:00 | |
| AA1-15 | 2026-09-05 05:19:56 | 52.17248 | 15.09991 | 88° | 190km/h | 11418m | 3.9m/s | -51.5°C | 13.1% | 0hPa | 2.7V | 18:12:15 | 01:11:01 | 00:00:00 | |
| DB0DAN | 2026-09-05 05:19:55 | 52.17246 | 15.09912 | 88° | 183km/h | 11414m | 5.7m/s | -51.5°C | 9.9% | 217.63hPa | 2.8V | 00:00:00 | 00:00:00 | 00:00:00 | |
| KRY50SP-1 | 2026-09-05 05:19:53 | 52.17244 | 15.09834 | 89° | 193km/h | 11410m | 3.2m/s | -51.4°C | 9.9% | 217.8hPa | 2.8V | 00:00:00 | 00:00:00 | 00:00:00 | |
| KRY50SP-1 | 2026-09-05 05:19:47 | 52.17235 | 15.09358 | 90° | 190km/h | 11385m | 3.6m/s | -51.3°C | 9.9% | 218.6hPa | 2.8V | 00:00:00 | 00:00:00 | 00:00:00 | |
| OE3JTB-15 | 2026-09-05 05:19:44 | 52.17227 | 15.09044 | 88° | 197km/h | 11369m | 7.3m/s | 0°C | 0% | 0hPa | 2.8V | 00:00:00 | 01:10:49 | 00:00:00 | |
| 13BRC | 2026-09-05 05:19:43 | 52.17227 | 15.09044 | 89° | 192km/h | 11369m | 7.4m/s | -51.3°C | 10.0% | 219.2hPa | 2.8V | 00:00:00 | 00:00:00 | 00:00:00 | |
| DB0DAN | 2026-09-05 05:19:40 | 52.17217 | 15.08723 | 87° | 188km/h | 11349m | 5m/s | -51.2°C | 10.1% | 219.79hPa | 2.8V | 00:00:00 | 00:00:00 | 00:00:00 | |
| AA1-15 | 2026-09-05 05:19:36 | 52.17206 | 15.08397 | 87° | 195km/h | 11332m | 4.1m/s | -51.1°C | 13.1% | 0hPa | 2.8V | 18:12:15 | 01:10:41 | 00:00:00 | |
| AA1-15 | 2026-09-05 05:19:26 | 52.17173 | 15.07592 | 86° | 201km/h | 11288m | 3.7m/s | -50.9°C | 12.9% | 0hPa | 2.7V | 18:12:15 | 01:10:31 | 00:00:00 | |
| DB0DAN | 2026-09-05 05:19:25 | 52.17169 | 15.07509 | 86° | 193km/h | 11283m | 5.6m/s | -50.8°C | 9.9% | 222.03hPa | 2.7V | 00:00:00 | 00:00:00 | 00:00:00 | |
| AA1-15 | 2026-09-05 05:19:09 | 52.17104 | 15.06180 | 86° | 204km/h | 11211m | 5.8m/s | -50.4°C | 12.4% | 0hPa | 2.8V | 18:12:15 | 01:10:14 | 00:00:00 | |
| AA1-15 | 2026-09-05 05:18:58 | 52.17050 | 15.05268 | 84° | 204km/h | 11161m | 4.8m/s | -49.9°C | 12.1% | 0hPa | 2.8V | 18:12:15 | 01:10:03 | 00:00:00 | |
| S3001 | 2026-09-05 05:18:56 | 52.17039 | 15.05100 | 84° | 204km/h | 11155m | 4.1m/s | -49.9°C | 9.3% | 226.5hPa | 2.8V | 00:00:00 | 00:00:00 | 00:00:00 | |
| DB0DAN | 2026-09-05 05:18:55 | 52.17034 | 15.05016 | 84° | 195km/h | 11150m | 6m/s | -49.8°C | 9.3% | 226.65hPa | 2.8V | 00:00:00 | 00:00:00 | 00:00:00 | |
| AA1-15 | 2026-09-05 05:18:48 | 52.16996 | 15.04429 | 84° | 204km/h | 11117m | 2.7m/s | -49.6°C | 12% | 0hPa | 2.8V | 18:12:15 | 01:09:53 | 00:00:00 | |
| KRY50SP-1 | 2026-09-05 05:18:45 | 52.16985 | 15.04261 | 85° | 206km/h | 11108m | 2.9m/s | -49.5°C | 9.1% | 228.1hPa | 2.8V | 00:00:00 | 00:00:00 | 00:00:00 | |
| DL2RXE-15 | 2026-09-05 05:18:43 | 52.16973 | 15.04092 | 85° | 206km/h | 11100m | 3.6m/s | -49.5°C | 0% | 228.4hPa | 2.8V | 00:00:00 | 00:00:00 | 00:00:00 | |
| DB0DAN | 2026-09-05 05:18:40 | 52.16950 | 15.03752 | 83° | 199km/h | 11080m | 5.4m/s | -49.4°C | 9.2% | 229.07hPa | 2.8V | 00:00:00 | 00:00:00 | 00:00:00 | |
| SP3WXH-11 | 2026-09-05 05:18:39 | 52.16943 | 15.03667 | 83° | 206km/h | 11076m | 3.3m/s | -49.4°C | 9.4% | 229.2hPa | 2.8V | 00:00:00 | 00:00:00 | 00:00:00 | |
| EDDB2-11 | 2026-09-05 05:18:38 | 52.16937 | 15.03583 | 82° | 204km/h | 11072m | 5.1m/s | -49.3°C | 9.2% | 229.3hPa | 2.8V | 00:00:00 | 00:00:00 | 00:00:00 | |
| SP6BVK | 2026-09-05 05:18:36 | 52.16930 | 15.03499 | 84° | 203km/h | 11068m | 3.7m/s | -49.3°C | 9.3% | 229.5hPa | 2.8V | 00:00:00 | 00:00:00 | 00:00:00 | |
| KRY50SP-1 | 2026-09-05 05:18:34 | 52.16918 | 15.03334 | 84° | 201km/h | 11058m | 5.1m/s | -49.2°C | 9.2% | 229.8hPa | 2.8V | 00:00:00 | 00:00:00 | 00:00:00 | |
| DB0NH | 2026-09-05 05:18:32 | 52.16900 | 15.03088 | 84° | 204km/h | 11044m | 3.5m/s | -49.0°C | 12.5% | 230.3hPa | 2.8V | 00:00:00 | 01:09:37 | 00:00:00 | |
| SONCRA | 2026-09-05 05:18:31 | 52.16894 | 15.03004 | 83° | 204km/h | 11039m | 5.1m/s | -49.1°C | 9.2% | 230.5hPa | 2.8V | 00:00:00 | 00:00:00 | 00:00:00 | |
| SONDE2-11 | 2026-09-05 05:18:29 | 52.16882 | 15.02835 | 83° | 206km/h | 11032m | 5.9m/s | -49.0°C | 9.1% | 230.8hPa | 2.8V | 00:00:00 | 00:00:00 | 00:00:00 | |
| KRY50SP-1 | 2026-09-05 05:18:28 | 52.16882 | 15.02835 | 84° | 206km/h | 11032m | 5.9m/s | -49.0°C | 9.1% | 230.8hPa | 2.8V | 00:00:00 | 00:00:00 | 00:00:00 | |
| DB0DAN | 2026-09-05 05:18:25 | 52.16854 | 15.02499 | 82° | 195km/h | 11009m | 3.4m/s | -48.8°C | 9.1% | 231.59hPa | 2.8V | 00:00:00 | 00:00:00 | 00:00:00 | |
| KRY50SP-1 | 2026-09-05 05:18:22 | 52.16841 | 15.02333 | 84° | 203km/h | 10998m | 6.6m/s | -48.8°C | 9.1% | 231.9hPa | 2.8V | 00:00:00 | 00:00:00 | 00:00:00 | |
| 13BRC | 2026-09-05 05:18:20 | 52.16828 | 15.02168 | 84° | 203km/h | 10987m | 6.2m/s | -48.7°C | 9.1% | 232.3hPa | 2.8V | 00:00:00 | 00:00:00 | 00:00:00 | |
| KRY50SP-1 | 2026-09-05 05:18:17 | 52.16808 | 15.01919 | 82° | 203km/h | 10973m | 3.5m/s | -48.6°C | 9.2% | 232.8hPa | 2.8V | 00:00:00 | 00:00:00 | 00:00:00 | |
| SP6BVK | 2026-09-05 05:18:16 | 52.16800 | 15.01837 | 82° | 204km/h | 10970m | 4.3m/s | -48.6°C | 9.2% | 232.9hPa | 2.8V | 00:00:00 | 00:00:00 | 00:00:00 | |
| DL2RXE-15 | 2026-09-05 05:18:12 | 52.16768 | 15.01506 | 83° | 203km/h | 10951m | 4.1m/s | 0°C | 0% | 0hPa | 2.8V | 00:00:00 | 00:00:00 | 00:00:00 | |
| DB0DAN | 2026-09-05 05:18:10 | 52.16745 | 15.01258 | 81° | 193km/h | 10935m | 4.8m/s | -48.6°C | 9.8% | 234.15hPa | 2.8V | 00:00:00 | 00:00:00 | 00:00:00 | |
| AA1-15 | 2026-09-05 05:17:55 | 52.16616 | 15.00027 | 80° | 199km/h | 10863m | 4.5m/s | -49°C | 14.5% | 0hPa | 2.8V | 18:12:15 | 01:09:00 | 00:00:00 | |
| DB0DAN | 2026-09-05 05:17:55 | 52.16616 | 15.00027 | 80° | 190km/h | 10863m | 4.5m/s | -49°C | 10.9% | 236.73hPa | 2.8V | 00:00:00 | 00:00:00 | 00:00:00 | |
| S3001 | 2026-09-05 05:17:54 | 52.16607 | 14.99947 | 79° | 197km/h | 10858m | 5.8m/s | -49.1°C | 11.0% | 237.0hPa | 2.8V | 00:00:00 | 00:00:00 | 00:00:00 | |
| DL2RXE-15 | 2026-09-05 05:17:51 | 52.16588 | 14.99789 | 80° | 195km/h | 10849m | 5.5m/s | -49.1°C | 0% | 237.3hPa | 2.8V | 00:00:00 | 00:00:00 | 00:00:00 | |
| KRY50SP-1 | 2026-09-05 05:17:50 | 52.16579 | 14.99711 | 80° | 195km/h | 10845m | 3.8m/s | -49.1°C | 11.0% | 237.4hPa | 2.8V | 00:00:00 | 00:00:00 | 00:00:00 | |
| KRY50SP-1 | 2026-09-05 05:17:44 | 52.16518 | 14.99242 | 78° | 195km/h | 10815m | 4.8m/s | -49.1°C | 11.3% | 238.6hPa | 2.8V | 00:00:00 | 00:00:00 | 00:00:00 | |
| DB0DAN | 2026-09-05 05:17:40 | 52.16465 | 14.98852 | 78° | 183km/h | 10791m | 5.4m/s | -48.9°C | 11.2% | 239.4hPa | 2.8V | 00:00:00 | 00:00:00 | 00:00:00 | |
| 13BRC | 2026-09-05 05:17:39 | 52.16464 | 14.98852 | 79° | 192km/h | 10791m | 5.4m/s | -48.9°C | 11.2% | 239.4hPa | 2.8V | 00:00:00 | 00:00:00 | 00:00:00 | |
| SP3WXH-11 | 2026-09-05 05:17:37 | 52.16433 | 14.98620 | 76° | 193km/h | 10776m | 5.8m/s | -48.9°C | 11.5% | 239.9hPa | 2.8V | 00:00:00 | 00:00:00 | 00:00:00 | |
| EDDB2-11 | 2026-09-05 05:17:36 | 52.16421 | 14.98542 | 76° | 193km/h | 10771m | 5.4m/s | -48.9°C | 11.5% | 240.1hPa | 2.8V | 00:00:00 | 00:00:00 | 00:00:00 | |
| SP6BVK | 2026-09-05 05:17:35 | 52.16421 | 14.98542 | 77° | 193km/h | 10771m | 5.4m/s | -48.9°C | 11.5% | 240.1hPa | 2.8V | 00:00:00 | 00:00:00 | 00:00:00 | |
| KRY50SP-1 | 2026-09-05 05:17:34 | 52.16410 | 14.98465 | 77° | 193km/h | 10766m | 5.3m/s | -48.8°C | 11.6% | 240.3hPa | 2.8V | 00:00:00 | 00:00:00 | 00:00:00 | |
| DB0NH | 2026-09-05 05:17:32 | 52.16373 | 14.98234 | 76° | 195km/h | 10749m | 6.3m/s | -48.7°C | 15.2% | 240.8hPa | 2.8V | 00:00:00 | 01:08:37 | 00:00:00 | |
| SONCRA | 2026-09-05 05:17:29 | 52.16336 | 14.98004 | 75° | 193km/h | 10736m | 5.2m/s | -48.7°C | 11.4% | 241.3hPa | 2.8V | 00:00:00 | 00:00:00 | 00:00:00 | |
| KRY50SP-1 | 2026-09-05 05:17:28 | 52.16336 | 14.98003 | 77° | 193km/h | 10737m | 5.2m/s | -48.7°C | 11.4% | 241.3hPa | 2.8V | 00:00:00 | 00:00:00 | 00:00:00 | |
| DB0DAN | 2026-09-05 05:17:25 | 52.16290 | 14.97698 | 76° | 181km/h | 10716m | 4.8m/s | -48.6°C | 11.3% | 242.13hPa | 2.8V | 00:00:00 | 00:00:00 | 00:00:00 | |
| KRY50SP-1 | 2026-09-05 05:17:23 | 52.16279 | 14.97622 | 77° | 190km/h | 10711m | 4.9m/s | -48.6°C | 11.2% | 242.3hPa | 2.8V | 00:00:00 | 00:00:00 | 00:00:00 | |
| DL2RXE-15 | 2026-09-05 05:17:21 | 52.16256 | 14.97468 | 77° | 197km/h | 10702m | 5.8m/s | 0°C | 0% | 0hPa | 2.8V | 00:00:00 | 00:00:00 | 00:00:00 | |
| KRY50SP-1 | 2026-09-05 05:17:18 | 52.16218 | 14.97231 | 76° | 201km/h | 10687m | 4.1m/s | -48.4°C | 11.0% | 243.3hPa | 2.8V | 00:00:00 | 00:00:00 | 00:00:00 | |
| SP6BVK | 2026-09-05 05:17:14 | 52.16166 | 14.96917 | 77° | 193km/h | 10670m | 3.7m/s | -48.2°C | 11.1% | 244.0hPa | 2.8V | 00:00:00 | 00:00:00 | 00:00:00 | |
| KRY50SP-1 | 2026-09-05 05:17:13 | 52.16155 | 14.96840 | 77° | 192km/h | 10666m | 4.9m/s | -48.2°C | 11.0% | 244.1hPa | 2.8V | 00:00:00 | 00:00:00 | 00:00:00 | |
| DB0DAN | 2026-09-05 05:17:10 | 52.16111 | 14.96535 | 77° | 183km/h | 10642m | 5.2m/s | -48.1°C | 11.6% | 244.95hPa | 2.8V | 00:00:00 | 00:00:00 | 00:00:00 | |
| AA1-15 | 2026-09-05 05:17:00 | 52.15974 | 14.95728 | 75° | 212km/h | 10587m | 9.5m/s | -48°C | 15.3% | 0hPa | 2.7V | 18:12:15 | 01:08:05 | 00:00:00 | |
| EDDB2-12 | 2026-09-05 05:16:58 | 52.15949 | 14.95561 | 77° | 203km/h | 10568m | 7.9m/s | -47.9°C | 11.8% | 247.6hPa | 2.7V | 00:00:00 | 00:00:00 | 00:00:00 | |
| SONDE2-11 | 2026-09-05 05:16:56 | 52.15917 | 14.95324 | 78° | 192km/h | 10542m | 9.1m/s | -47.9°C | 11.6% | 248.6hPa | 2.7V | 00:00:00 | 00:00:00 | 00:00:00 | |
| DB0DAN | 2026-09-05 05:16:55 | 52.15917 | 14.95324 | 78° | 184km/h | 10542m | 9.1m/s | -47.9°C | 11.6% | 248.58hPa | 2.7V | 00:00:00 | 00:00:00 | 00:00:00 | |
| SP6BVK | 2026-09-05 05:16:53 | 52.15907 | 14.95246 | 78° | 195km/h | 10533m | 9.6m/s | -47.8°C | 11.5% | 248.9hPa | 2.8V | 00:00:00 | 00:00:00 | 00:00:00 | |
| KRY50SP-1 | 2026-09-05 05:16:46 | 52.15830 | 14.94719 | 79° | 179km/h | 10478m | 8.8m/s | -48.0°C | 12.5% | 251.0hPa | 2.8V | 00:00:00 | 00:00:00 | 00:00:00 | |
| DB0DAN | 2026-09-05 05:16:40 | 52.15763 | 14.94210 | 77° | 173km/h | 10441m | 4.9m/s | -48°C | 13.3% | 252.45hPa | 2.8V | 00:00:00 | 00:00:00 | 00:00:00 | |
| 13BRC | 2026-09-05 05:16:36 | 52.15731 | 14.93991 | 77° | 179km/h | 10426m | 5.6m/s | -47.9°C | 14.0% | 253.0hPa | 2.7V | 00:00:00 | 00:00:00 | 00:00:00 | |
| SP3WXH-11 | 2026-09-05 05:16:35 | 52.15702 | 14.93778 | 78° | 177km/h | 10412m | 6.3m/s | -48.0°C | 14.6% | 253.6hPa | 2.7V | 00:00:00 | 00:00:00 | 00:00:00 | |
| EDDB2-11 | 2026-09-05 05:16:34 | 52.15702 | 14.93778 | 78° | 177km/h | 10412m | 6.3m/s | -48.0°C | 14.6% | 253.6hPa | 2.7V | 00:00:00 | 00:00:00 | 00:00:00 | |
| SP6BVK | 2026-09-05 05:16:33 | 52.15702 | 14.93778 | 79° | 177km/h | 10412m | 6.3m/s | -48.0°C | 14.6% | 253.6hPa | 2.7V | 00:00:00 | 00:00:00 | 00:00:00 | |
| DB0NH | 2026-09-05 05:16:32 | 52.15686 | 14.93635 | 81° | 175km/h | 10398m | 8.5m/s | -48.0°C | 19.2% | 253.9hPa | 2.7V | 00:00:00 | 01:07:37 | 08:30:00 | |
| DL2RXE-15 | 2026-09-05 05:16:31 | 52.15686 | 14.93635 | 81° | 179km/h | 10398m | 8.5m/s | 0°C | 0% | 0hPa | 2.7V | 00:00:00 | 00:00:00 | 00:00:00 | |
| KRY50SP-1 | 2026-09-05 05:16:29 | 52.15670 | 14.93490 | 81° | 177km/h | 10384m | 5.5m/s | -48.0°C | 16.0% | 254.6hPa | 2.7V | 00:00:00 | 00:00:00 | 00:00:00 | |
| DB0DAN | 2026-09-05 05:16:25 | 52.15622 | 14.93128 | 77° | 172km/h | 10358m | 5.7m/s | -47.8°C | 16.1% | 255.54hPa | 2.7V | 00:00:00 | 00:00:00 | 00:00:00 | |
| AA1-15 | 2026-09-05 05:16:24 | 52.15613 | 14.93057 | 79° | 177km/h | 10354m | 2.9m/s | -47.8°C | 20% | 0hPa | 2.7V | 18:12:15 | 01:07:29 | 00:00:00 | |
| AA1-15 | 2026-09-05 05:16:13 | 52.15563 | 14.92277 | 85° | 175km/h | 10271m | 6.9m/s | -47.3°C | 20.2% | 0hPa | 2.8V | 18:12:15 | 01:07:18 | 00:00:00 | |
| DB0DAN | 2026-09-05 05:16:10 | 52.15553 | 14.92063 | 85° | 164km/h | 10255m | 4.2m/s | -47.2°C | 15.5% | 259.61hPa | 2.7V | 00:00:00 | 00:00:00 | 00:00:00 | |
| AA1-15 | 2026-09-05 05:16:03 | 52.15526 | 14.91574 | 85° | 172km/h | 10219m | 5.7m/s | -47°C | 20% | 0hPa | 2.8V | 18:12:15 | 01:07:08 | 00:00:00 | |
| SONCRA | 2026-09-05 05:15:56 | 52.15493 | 14.91006 | 84° | 175km/h | 10180m | 4.7m/s | -46.8°C | 16.8% | 262.6hPa | 2.7V | 00:00:00 | 00:00:00 | 00:00:00 | |
| DB0DAN | 2026-09-05 05:15:55 | 52.15493 | 14.91006 | 85° | 168km/h | 10180m | 4.7m/s | -46.8°C | 16.8% | 262.64hPa | 2.7V | 00:00:00 | 00:00:00 | 00:00:00 | |
| AA1-15 | 2026-09-05 05:15:52 | 52.15482 | 14.90793 | 84° | 173km/h | 10165m | 6.3m/s | -46.9°C | 21.4% | 0hPa | 2.8V | 18:12:15 | 01:06:57 | 00:00:00 | |
| S3001 | 2026-09-05 05:15:50 | 52.15472 | 14.90652 | 84° | 172km/h | 10154m | 6.7m/s | -46.8°C | 16.8% | 263.7hPa | 2.8V | 00:00:00 | 00:00:00 | 00:00:00 | |
| KRY50SP-1 | 2026-09-05 05:15:49 | 52.15472 | 14.90652 | 85° | 172km/h | 10154m | 6.7m/s | -46.8°C | 16.8% | 263.7hPa | 2.8V | 00:00:00 | 00:00:00 | 00:00:00 | |
| KRY50SP-1 | 2026-09-05 05:15:43 | 52.15447 | 14.90229 | 87° | 170km/h | 10126m | 5.0m/s | -46.7°C | 16.4% | 264.7hPa | 2.8V | 00:00:00 | 00:00:00 | 00:00:00 | |
| DB0DAN | 2026-09-05 05:15:40 | 52.15437 | 14.89953 | 86° | 157km/h | 10103m | 3.4m/s | -46.7°C | 17.3% | 265.65hPa | 2.8V | 00:00:00 | 00:00:00 | 00:00:00 | |
| KRY50SP-1 | 2026-09-05 05:15:37 | 52.15430 | 14.89817 | 86° | 168km/h | 10094m | 5.2m/s | -46.7°C | 17.4% | 266.0hPa | 2.8V | 00:00:00 | 00:00:00 | 00:00:00 | |
| 13BRC | 2026-09-05 05:15:34 | 52.15419 | 14.89609 | 86° | 172km/h | 10080m | 2.9m/s | -46.7°C | 17.7% | 266.6hPa | 2.8V | 00:00:00 | 00:00:00 | 00:00:00 | |
| SP3WXH-11 | 2026-09-05 05:15:33 | 52.15407 | 14.89396 | 84° | 173km/h | 10063m | 4.4m/s | -46.7°C | 17.4% | 267.3hPa | 2.8V | 00:00:00 | 00:00:00 | 00:00:00 | |
| DB0NH | 2026-09-05 05:15:32 | 52.15407 | 14.89396 | 85° | 172km/h | 10063m | 4.3m/s | -46.6°C | 21.4% | 267.2hPa | 2.8V | 00:00:00 | 01:06:37 | 00:00:00 | |
| DB0DAN | 2026-09-05 05:15:25 | 52.15378 | 14.88896 | 85° | 162km/h | 10028m | 5.6m/s | -46.4°C | 17.2% | 268.66hPa | 2.8V | 00:00:00 | 00:00:00 | 00:00:00 | |
| AA1-15 | 2026-09-05 05:15:21 | 52.15361 | 14.88618 | 84° | 170km/h | 10008m | 4.7m/s | -46.2°C | 21.9% | 0hPa | 2.7V | 18:12:15 | 01:06:26 | 00:00:00 | |
| AA1-15 | 2026-09-05 05:15:10 | 52.15312 | 14.87859 | 84° | 170km/h | 9956m | 6.3m/s | -46.3°C | 21.9% | 0hPa | 2.7V | 18:12:15 | 01:06:15 | 00:00:00 | |
| DB0DAN | 2026-09-05 05:15:10 | 52.15312 | 14.87859 | 84° | 162km/h | 9956m | 6.3m/s | -46.3°C | 17.4% | 271.58hPa | 2.7V | 00:00:00 | 00:00:00 | 00:00:00 | |
| AA1-15 | 2026-09-05 05:14:58 | 52.15263 | 14.87011 | 84° | 173km/h | 9897m | 6.2m/s | -46°C | 21.1% | 0hPa | 2.7V | 18:12:15 | 01:06:03 | 00:00:00 | |
| DB0DAN | 2026-09-05 05:14:55 | 52.15250 | 14.86799 | 84° | 164km/h | 9882m | 2.3m/s | -45.8°C | 17% | 274.6hPa | 2.8V | 00:00:00 | 00:00:00 | 00:00:00 | |
| AA1-15 | 2026-09-05 05:14:47 | 52.15216 | 14.86244 | 85° | 166km/h | 9843m | 3.6m/s | -45.7°C | 21.5% | 0hPa | 2.7V | 18:12:15 | 01:05:52 | 00:00:00 | |
| KRY50SP-1 | 2026-09-05 05:14:44 | 52.15208 | 14.86106 | 86° | 170km/h | 9834m | 3.4m/s | -45.6°C | 17.9% | 276.5hPa | 2.8V | 00:00:00 | 00:00:00 | 00:00:00 | |
| DB0DAN | 2026-09-05 05:14:40 | 52.15190 | 14.85758 | 85° | 162km/h | 9812m | 3.7m/s | -45.5°C | 18.2% | 277.51hPa | 2.8V | 00:00:00 | 00:00:00 | 00:00:00 | |
| AA1-15 | 2026-09-05 05:14:36 | 52.15176 | 14.85482 | 86° | 166km/h | 9791m | 5.5m/s | -45.3°C | 22.2% | 0hPa | 2.7V | 18:12:15 | 01:05:41 | 00:00:00 | |
| AA1-15 | 2026-09-05 05:14:25 | 52.15137 | 14.84732 | 85° | 164km/h | 9740m | 3.5m/s | -44.9°C | 21.3% | 0hPa | 2.7V | 18:12:15 | 01:05:30 | 00:00:00 | |
| EDDB2-12 | 2026-09-05 05:14:23 | 52.15130 | 14.84597 | 85° | 164km/h | 9730m | 5.4m/s | -44.8°C | 17.3% | 281.0hPa | 2.7V | 00:00:00 | 00:00:00 | 00:00:00 | |
| SONCRA | 2026-09-05 05:14:22 | 52.15126 | 14.84530 | 84° | 164km/h | 9725m | 5.3m/s | -44.7°C | 17.2% | 281.2hPa | 2.7V | 00:00:00 | 00:00:00 | 00:00:00 | |
| KRY50SP-1 | 2026-09-05 05:14:21 | 52.15126 | 14.84530 | 86° | 164km/h | 9725m | 5.3m/s | -44.7°C | 17.2% | 281.3hPa | 2.7V | 00:00:00 | 00:00:00 | 00:00:00 | |
| SONDE2-11 | 2026-09-05 05:14:16 | 52.15101 | 14.84119 | 83° | 168km/h | 9699m | 4.0m/s | -44.5°C | 15.7% | 282.3hPa | 2.7V | 00:00:00 | 00:00:00 | 00:00:00 | |
| 13BRC | 2026-09-05 05:14:12 | 52.15088 | 14.83915 | 86° | 162km/h | 9682m | 5.7m/s | -44.4°C | 14.2% | 282.9hPa | 2.7V | 00:00:00 | 00:00:00 | 00:00:00 | |
| SP6BVK | 2026-09-05 05:14:11 | 52.15085 | 14.83849 | 86° | 161km/h | 9677m | 4.2m/s | -44.4°C | 14.0% | 283.2hPa | 2.7V | 00:00:00 | 00:00:00 | 00:00:00 | |
| DAC517 | 2026-09-05 05:14:09 | 52.15078 | 14.83717 | 87° | 161km/h | 9667m | 3.9m/s | -44.3°C | 12.9% | 283.6hPa | 2.7V | 00:00:00 | 00:00:00 | 00:00:00 | |
| KRY50SP-1 | 2026-09-05 05:14:06 | 52.15068 | 14.83521 | 86° | 161km/h | 9652m | 4.6m/s | -44.2°C | 12.3% | 284.2hPa | 2.7V | 00:00:00 | 00:00:00 | 00:00:00 | |
| EDDB2-12 | 2026-09-05 05:13:52 | 52.15020 | 14.82524 | 85° | 159km/h | 9585m | 5.1m/s | -43.8°C | 10.0% | 287.1hPa | 2.7V | 00:00:00 | 00:00:00 | 00:00:00 | |
| SONCRA | 2026-09-05 05:13:51 | 52.15017 | 14.82459 | 85° | 157km/h | 9580m | 3.8m/s | -43.8°C | 10.1% | 287.3hPa | 2.7V | 00:00:00 | 00:00:00 | 00:00:00 | |
| S3001 | 2026-09-05 05:13:46 | 52.15002 | 14.82137 | 85° | 157km/h | 9559m | 6.3m/s | -43.7°C | 9.6% | 288.3hPa | 2.7V | 00:00:00 | 00:00:00 | 00:00:00 | |
| SONDE2-11 | 2026-09-05 05:13:45 | 52.14999 | 14.82072 | 85° | 157km/h | 9554m | 3.4m/s | -43.7°C | 9.6% | 288.5hPa | 2.7V | 00:00:00 | 00:00:00 | 00:00:00 | |
| KRY50SP-1 | 2026-09-05 05:13:43 | 52.14996 | 14.82007 | 87° | 159km/h | 9549m | 6.2m/s | -43.6°C | 9.6% | 288.7hPa | 2.7V | 00:00:00 | 00:00:00 | 00:00:00 | |
| SP3BTT-10 | 2026-09-05 05:13:41 | 52.14988 | 14.81807 | 86° | 157km/h | 9535m | 4.6m/s | -43.5°C | 11.8% | 289.2hPa | 2.7V | 00:00:00 | 00:00:00 | 00:00:00 | |
| KRY50SP-1 | 2026-09-05 05:13:39 | 52.14982 | 14.81672 | 87° | 166km/h | 9526m | 5.1m/s | -43.5°C | 9.0% | 289.6hPa | 2.7V | 00:00:00 | 00:00:00 | 00:00:00 | |
| DL2RXE-15 | 2026-09-05 05:13:38 | 52.14982 | 14.81672 | 87° | 166km/h | 9526m | 5.1m/s | -43.5°C | 0% | 289.6hPa | 2.7V | 00:00:00 | 00:00:00 | 00:00:00 | |
| DB0NH | 2026-09-05 05:13:32 | 52.14961 | 14.81205 | 87° | 159km/h | 9495m | 4.1m/s | -43.4°C | 11.2% | 291.0hPa | 2.7V | 00:00:00 | 01:04:37 | 00:00:00 | |
| 13BRC | 2026-09-05 05:13:31 | 52.14961 | 14.81205 | 88° | 161km/h | 9495m | 4.1m/s | -43.4°C | 8.7% | 291.0hPa | 2.7V | 00:00:00 | 00:00:00 | 00:00:00 | |
| SP6BVK | 2026-09-05 05:13:30 | 52.14959 | 14.81138 | 88° | 162km/h | 9491m | 4.9m/s | -43.4°C | 8.7% | 291.2hPa | 2.7V | 00:00:00 | 00:00:00 | 00:00:00 | |
| SP3WXH-11 | 2026-09-05 05:13:29 | 52.14952 | 14.80940 | 86° | 159km/h | 9477m | 3.8m/s | -43.3°C | 8.8% | 291.8hPa | 2.7V | 00:00:00 | 00:00:00 | 00:00:00 | |
| EDDB2-11 | 2026-09-05 05:13:28 | 52.14952 | 14.80940 | 86° | 159km/h | 9477m | 3.8m/s | -43.3°C | 8.8% | 291.8hPa | 2.7V | 00:00:00 | 00:00:00 | 00:00:00 | |
| KRY50SP-1 | 2026-09-05 05:13:27 | 52.14952 | 14.80940 | 88° | 159km/h | 9478m | 3.8m/s | -43.3°C | 8.8% | 291.8hPa | 2.7V | 00:00:00 | 00:00:00 | 00:00:00 | |
| DAC517 | 2026-09-05 05:13:22 | 52.14939 | 14.80613 | 87° | 162km/h | 9453m | 5.5m/s | -43.2°C | 8.7% | 292.8hPa | 2.7V | 00:00:00 | 00:00:00 | 00:00:00 | |
| EDDB2-12 | 2026-09-05 05:13:21 | 52.14934 | 14.80481 | 86° | 159km/h | 9445m | 4.4m/s | -43.1°C | 8.6% | 293.2hPa | 2.7V | 00:00:00 | 00:00:00 | 00:00:00 | |
| SONCRA | 2026-09-05 05:13:20 | 52.14932 | 14.80416 | 86° | 159km/h | 9441m | 3.0m/s | -43.1°C | 8.6% | 293.4hPa | 2.7V | 00:00:00 | 00:00:00 | 00:00:00 | |
| KRY50SP-1 | 2026-09-05 05:13:16 | 52.14925 | 14.80219 | 88° | 159km/h | 9428m | 5.0m/s | -43.2°C | 8.8% | 294.0hPa | 2.7V | 00:00:00 | 00:00:00 | 00:00:00 | |
| S3001 | 2026-09-05 05:13:15 | 52.14920 | 14.80089 | 86° | 159km/h | 9419m | 6.4m/s | -43.1°C | 8.9% | 294.3hPa | 2.7V | 00:00:00 | 00:00:00 | 00:00:00 | |
| SONDE2-11 | 2026-09-05 05:13:14 | 52.14918 | 14.80024 | 86° | 159km/h | 9414m | 3.1m/s | -43.1°C | 9.0% | 294.5hPa | 2.7V | 00:00:00 | 00:00:00 | 00:00:00 | |
| 13BRC | 2026-09-05 05:13:10 | 52.14909 | 14.79827 | 87° | 161km/h | 9401m | 4.7m/s | -43.1°C | 9.2% | 295.2hPa | 2.7V | 00:00:00 | 00:00:00 | 00:00:00 | |
| SP6BVK | 2026-09-05 05:13:09 | 52.14906 | 14.79761 | 87° | 159km/h | 9396m | 4.7m/s | -43.1°C | 9.4% | 295.3hPa | 2.7V | 00:00:00 | 00:00:00 | 00:00:00 | |
| DL2RXE-15 | 2026-09-05 05:13:08 | 52.14903 | 14.79696 | 87° | 157km/h | 9392m | 4.4m/s | 0°C | 0% | 0hPa | 2.7V | 00:00:00 | 00:00:00 | 00:00:00 | |
| KRY50SP-1 | 2026-09-05 05:13:04 | 52.14892 | 14.79442 | 87° | 151km/h | 9376m | 3.9m/s | -43.0°C | 9.8% | 296.3hPa | 2.7V | 00:00:00 | 00:00:00 | 00:00:00 | |
| SP3WXH-11 | 2026-09-05 05:12:58 | 52.14879 | 14.78937 | 87° | 153km/h | 9343m | 5.7m/s | -42.9°C | 10.6% | 297.8hPa | 2.7V | 00:00:00 | 00:00:00 | 00:00:00 | |
| EDDB2-11 | 2026-09-05 05:12:57 | 52.14879 | 14.78937 | 87° | 153km/h | 9343m | 5.7m/s | -42.9°C | 10.6% | 297.8hPa | 2.7V | 00:00:00 | 00:00:00 | 00:00:00 | |
| EDDB2-12 | 2026-09-05 05:12:50 | 52.14867 | 14.78482 | 86° | 155km/h | 9316m | 3.8m/s | -42.6°C | 10.9% | 299.3hPa | 2.7V | 00:00:00 | 00:00:00 | 00:00:00 | |
| SONCRA | 2026-09-05 05:12:49 | 52.14866 | 14.78418 | 87° | 155km/h | 9310m | 11.1m/s | -42.6°C | 10.8% | 299.6hPa | 2.7V | 00:00:00 | 00:00:00 | 00:00:00 | |
| DL2RXE-15 | 2026-09-05 05:12:48 | 52.14866 | 14.78418 | 89° | 157km/h | 9310m | 11.1m/s | -42.6°C | 0% | 299.6hPa | 2.7V | 00:00:00 | 00:00:00 | 00:00:00 | |
| KRY50SP-1 | 2026-09-05 05:12:47 | 52.14863 | 14.78355 | 82° | 151km/h | 9302m | 14.4m/s | -42.5°C | 10.8% | 299.7hPa | 2.7V | 00:00:00 | 00:00:00 | 00:00:00 | |
| S3001 | 2026-09-05 05:12:44 | 52.14849 | 14.78042 | 85° | 153km/h | 9271m | 6.3m/s | -42.4°C | 10.5% | 300.8hPa | 2.7V | 00:00:00 | 00:00:00 | 00:00:00 | |
| SONDE2-11 | 2026-09-05 05:12:43 | 52.14849 | 14.78042 | 85° | 153km/h | 9271m | 6.3m/s | -42.4°C | 10.5% | 300.8hPa | 2.7V | 00:00:00 | 00:00:00 | 00:00:00 | |
| KRY50SP-1 | 2026-09-05 05:12:41 | 52.14846 | 14.77979 | 88° | 155km/h | 9267m | 3.1m/s | -42.3°C | 10.5% | 300.9hPa | 2.7V | 00:00:00 | 00:00:00 | 00:00:00 | |
| KRY50SP-1 | 2026-09-05 05:12:36 | 52.14837 | 14.77663 | 89° | 151km/h | 9242m | 7.4m/s | -42.2°C | 10.4% | 302.0hPa | 2.7V | 00:00:00 | 00:00:00 | 00:00:00 | |
| DB0NH | 2026-09-05 05:12:32 | 52.14828 | 14.77357 | 87° | 148km/h | 9217m | 3.5m/s | 0°C | 0% | 0hPa | 2.7V | 00:00:00 | 01:03:37 | 00:00:00 | |
| KRY50SP-1 | 2026-09-05 05:12:31 | 52.14828 | 14.77357 | 88° | 150km/h | 9217m | 3.5m/s | -42.1°C | 10.4% | 303.1hPa | 2.7V | 00:00:00 | 00:00:00 | 00:00:00 | |
| 13BRC | 2026-09-05 05:12:29 | 52.14823 | 14.77234 | 88° | 151km/h | 9209m | 3.0m/s | -42.1°C | 10.4% | 303.6hPa | 2.7V | 00:00:00 | 00:00:00 | 00:00:00 | |
| SP6BVK | 2026-09-05 05:12:27 | 52.14820 | 14.77110 | 89° | 151km/h | 9200m | 4.4m/s | -42.1°C | 10.2% | 303.9hPa | 2.7V | 00:00:00 | 00:00:00 | 00:00:00 | |
| EDDB2-11 | 2026-09-05 05:12:26 | 52.14817 | 14.76986 | 88° | 148km/h | 9191m | 2.8m/s | -42.0°C | 10.2% | 304.3hPa | 2.7V | 00:00:00 | 00:00:00 | 00:00:00 | |
| DAC517 | 2026-09-05 05:12:20 | 52.14809 | 14.76680 | 89° | 148km/h | 9169m | 4.1m/s | -41.9°C | 9.9% | 305.3hPa | 2.7V | 00:00:00 | 00:00:00 | 00:00:00 | |
| EDDB2-12 | 2026-09-05 05:12:19 | 52.14806 | 14.76559 | 87° | 146km/h | 9160m | 4.5m/s | -41.9°C | 10.0% | 305.8hPa | 2.7V | 00:00:00 | 00:00:00 | 00:00:00 | |
| DL2RXE-15 | 2026-09-05 05:12:18 | 52.14805 | 14.76498 | 89° | 146km/h | 9155m | 5.8m/s | 0°C | 0% | 0hPa | 2.7V | 00:00:00 | 00:00:00 | 00:00:00 | |
| KRY50SP-1 | 2026-09-05 05:12:15 | 52.14802 | 14.76379 | 89° | 146km/h | 9146m | 5.5m/s | -41.8°C | 9.9% | 306.4hPa | 2.7V | 00:00:00 | 00:00:00 | 00:00:00 | |
| SP3BTT-10 | 2026-09-05 05:12:12 | 52.14796 | 14.76138 | 88° | 146km/h | 9129m | 5.9m/s | -41.5°C | 11.6% | 307.0hPa | 2.7V | 00:00:00 | 00:00:00 | 00:00:00 | |
| KRY50SP-1 | 2026-09-05 05:12:09 | 52.14794 | 14.76017 | 89° | 150km/h | 9119m | 3.9m/s | -41.5°C | 9.2% | 307.6hPa | 2.8V | 00:00:00 | 00:00:00 | 00:00:00 | |
| SP6BVK | 2026-09-05 05:12:06 | 52.14791 | 14.75831 | 89° | 150km/h | 9105m | 5.1m/s | -41.4°C | 8.7% | 308.3hPa | 2.8V | 00:00:00 | 00:00:00 | 00:00:00 | |
| KRY50SP-1 | 2026-09-05 05:12:04 | 52.14788 | 14.75708 | 89° | 150km/h | 9093m | 5.9m/s | -41.4°C | 8.6% | 308.8hPa | 2.8V | 00:00:00 | 00:00:00 | 00:00:00 | |
| DB0NH | 2026-09-05 05:12:02 | 52.14785 | 14.75527 | 89° | 146km/h | 9077m | 5.2m/s | 0°C | 0% | 0hPa | 2.8V | 00:00:00 | 01:03:07 | 00:00:00 | |
| DAC517 | 2026-09-05 05:11:59 | 52.14783 | 14.75406 | 89° | 146km/h | 9067m | 3.5m/s | -41.2°C | 8.9% | 310.0hPa | 2.8V | 00:00:00 | 00:00:00 | 00:00:00 | |
| KRY50SP-1 | 2026-09-05 05:11:58 | 52.14781 | 14.75347 | 88° | 148km/h | 9063m | 5.2m/s | -41.2°C | 8.8% | 310.2hPa | 2.8V | 00:00:00 | 00:00:00 | 00:00:00 | |
| DL2RXE-15 | 2026-09-05 05:11:57 | 52.14779 | 14.75286 | 88° | 148km/h | 9059m | 3.1m/s | -41.2°C | 0% | 310.4hPa | 2.8V | 00:00:00 | 00:00:00 | 00:00:00 | |
| DB0DAN | 2026-09-05 05:11:55 | 52.14773 | 14.75103 | 88° | 141km/h | 9041m | 5.6m/s | -41.1°C | 8.4% | 311.12hPa | 2.8V | 00:00:00 | 00:00:00 | 00:00:00 | |
| EDDB2-11 | 2026-09-05 05:11:55 | 52.14773 | 14.75103 | 87° | 148km/h | 9041m | 5.6m/s | -41.1°C | 8.4% | 311.1hPa | 2.8V | 00:00:00 | 00:00:00 | 00:00:00 | |
| EDDB2-12 | 2026-09-05 05:11:48 | 52.14764 | 14.74625 | 88° | 144km/h | 9002m | 5.4m/s | -40.8°C | 8.2% | 313.0hPa | 2.8V | 00:00:00 | 00:00:00 | 00:00:00 | |
| SONCRA | 2026-09-05 05:11:47 | 52.14764 | 14.74625 | 88° | 144km/h | 9002m | 5.4m/s | -40.8°C | -1.0% | -1.0hPa | 2.8V | 00:00:00 | 00:00:00 | 00:00:00 | |
| SP6BVK | 2026-09-05 05:11:45 | 52.14762 | 14.74565 | 89° | 148km/h | 8998m | 4.0m/s | -40.7°C | 8.2% | 313.2hPa | 2.8V | 00:00:00 | 00:00:00 | 00:00:00 | |
| KRY50SP-1 | 2026-09-05 05:11:42 | 52.14758 | 14.74381 | 89° | 150km/h | 8982m | 6.0m/s | -40.6°C | 8.5% | 313.9hPa | 2.8V | 00:00:00 | 00:00:00 | 00:00:00 | |
| DB0DAN | 2026-09-05 05:11:40 | 52.14756 | 14.74199 | 89° | 139km/h | 8971m | 5.2m/s | -40.5°C | 8.5% | 314.36hPa | 2.8V | 00:00:00 | 00:00:00 | 00:00:00 | |
| DAC517 | 2026-09-05 05:11:38 | 52.14754 | 14.74080 | 90° | 144km/h | 8963m | 4.5m/s | -40.4°C | 8.6% | 314.9hPa | 2.8V | 00:00:00 | 00:00:00 | 00:00:00 | |
| KRY50SP-1 | 2026-09-05 05:11:37 | 52.14754 | 14.74080 | 90° | 144km/h | 8963m | 4.5m/s | -40.4°C | 8.6% | 314.9hPa | 2.8V | 00:00:00 | 00:00:00 | 00:00:00 | |
| KRY50SP-1 | 2026-09-05 05:11:32 | 52.14749 | 14.73777 | 89° | 151km/h | 8936m | 4.5m/s | -40.2°C | 8.9% | 316.0hPa | 2.8V | 00:00:00 | 00:00:00 | 00:00:00 | |
| 13BRC | 2026-09-05 05:11:27 | 52.14745 | 14.73469 | 90° | 148km/h | 8914m | 5.8m/s | -40.1°C | 9.2% | 317.0hPa | 2.8V | 00:00:00 | 00:00:00 | 00:00:00 | |
| DB0DAN | 2026-09-05 05:11:25 | 52.14741 | 14.73286 | 88° | 141km/h | 8899m | 3.4m/s | -40°C | 9.5% | 317.74hPa | 2.8V | 00:00:00 | 00:00:00 | 00:00:00 | |
| AA1-15 | 2026-09-05 05:11:21 | 52.14733 | 14.73043 | 88° | 148km/h | 8881m | 2.7m/s | -39.9°C | 11.7% | 0hPa | 2.8V | 18:12:15 | 01:02:26 | 00:00:00 | |
| MECKS9 | 2026-09-05 05:11:20 | 52.14733 | 14.73043 | 89° | 148km/h | 8881m | 2.7m/s | 0°C | 0% | 0hPa | 2.7V | 00:00:00 | 00:00:00 | 00:00:00 | |
| DAC517 | 2026-09-05 05:11:19 | 52.14728 | 14.72860 | 89° | 148km/h | 8866m | 4.9m/s | -39.7°C | 9.7% | 319.2hPa | 2.7V | 00:00:00 | 00:00:00 | 00:00:00 | |
| EDDB2-12 | 2026-09-05 05:11:17 | 52.14726 | 14.72739 | 89° | 148km/h | 8857m | 5.0m/s | -39.7°C | 9.8% | 319.7hPa | 2.7V | 00:00:00 | 00:00:00 | 00:00:00 | |
| SONCRA | 2026-09-05 05:11:16 | 52.14726 | 14.72739 | 89° | 148km/h | 8857m | 5.0m/s | -39.7°C | -1.0% | -1.0hPa | 2.7V | 00:00:00 | 00:00:00 | 00:00:00 | |
| KRY50SP-1 | 2026-09-05 05:11:15 | 52.14726 | 14.72739 | 90° | 148km/h | 8857m | 5.0m/s | -39.7°C | 9.8% | 319.7hPa | 2.7V | 00:00:00 | 00:00:00 | 00:00:00 | |
| DB0DAN | 2026-09-05 05:11:10 | 52.14719 | 14.72378 | 88° | 139km/h | 8831m | 3.9m/s | -39.5°C | 9.8% | 320.92hPa | 2.7V | 00:00:00 | 00:00:00 | 00:00:00 | |
| AA1-15 | 2026-09-05 05:11:09 | 52.14717 | 14.72318 | 88° | 146km/h | 8827m | 3.2m/s | -39.5°C | 12.1% | 0hPa | 2.7V | 18:12:15 | 01:02:14 | 00:00:00 | |
| AA1-15 | 2026-09-05 05:10:59 | 52.14705 | 14.71732 | 87° | 146km/h | 8779m | 4.7m/s | -39.1°C | 12.4% | 0hPa | 2.8V | 18:12:15 | 01:02:04 | 00:00:00 | |
| EDDB2-11 | 2026-09-05 05:10:53 | 52.14698 | 14.71378 | 89° | 137km/h | 8750m | 5.8m/s | -38.9°C | 10.9% | 324.8hPa | 2.8V | 00:00:00 | 00:00:00 | 00:00:00 | |
| EDDB2-12 | 2026-09-05 05:10:46 | 52.14686 | 14.70924 | 86° | 141km/h | 8711m | 6.7m/s | -38.6°C | 10.2% | 326.6hPa | 2.8V | 00:00:00 | 00:00:00 | 00:00:00 | |
| SONCRA | 2026-09-05 05:10:45 | 52.14686 | 14.70924 | 86° | 141km/h | 8711m | 6.7m/s | 0°C | -1.0% | -1.0hPa | 2.8V | 00:00:00 | 00:00:00 | 00:00:00 | |
| SP6BVK | 2026-09-05 05:10:44 | 52.14685 | 14.70924 | 87° | 141km/h | 8711m | 6.7m/s | -38.6°C | 10.2% | 326.6hPa | 2.8V | 00:00:00 | 00:00:00 | 00:00:00 | |
| DB0DAN | 2026-09-05 05:10:40 | 52.14678 | 14.70632 | 88° | 133km/h | 8686m | 5.9m/s | -38.4°C | 10.1% | 327.87hPa | 2.8V | 00:00:00 | 00:00:00 | 00:00:00 | |
| SONDE2-11 | 2026-09-05 05:10:39 | 52.14677 | 14.70575 | 87° | 139km/h | 8681m | 3.5m/s | -38.3°C | 10.3% | 328.2hPa | 2.9V | 00:00:00 | 00:00:00 | 00:00:00 | |
| DL2RXE-15 | 2026-09-05 05:10:37 | 52.14675 | 14.70518 | 88° | 137km/h | 8678m | 4.6m/s | 0°C | 0% | 0hPa | 2.9V | 00:00:00 | 00:00:00 | 00:00:00 | |
| KRY50SP-1 | 2026-09-05 05:10:30 | 52.14664 | 14.70117 | 89° | 144km/h | 8644m | 4.8m/s | -38.2°C | 11.0% | 329.9hPa | 2.9V | 00:00:00 | 00:00:00 | 00:00:00 | |
| DB0DAN | 2026-09-05 05:10:25 | 52.14654 | 14.69772 | 87° | 130km/h | 8615m | 4.5m/s | -38°C | 12% | 331.24hPa | 2.9V | 00:00:00 | 00:00:00 | 00:00:00 | |
| AA1-15 | 2026-09-05 05:10:14 | 52.14633 | 14.69140 | 88° | 139km/h | 8561m | 6.6m/s | -37.6°C | 15.3% | 0hPa | 2.7V | 18:12:15 | 01:01:19 | 00:00:00 | |
| KRY50SP-1 | 2026-09-05 05:10:13 | 52.14633 | 14.69140 | 89° | 139km/h | 8562m | 6.6m/s | -37.6°C | 12.5% | 333.8hPa | 2.8V | 00:00:00 | 00:00:00 | 00:00:00 | |
| DB0DAN | 2026-09-05 05:10:10 | 52.14628 | 14.68913 | 88° | 131km/h | 8540m | 6.2m/s | -37.4°C | 12.5% | 335.03hPa | 2.8V | 00:00:00 | 00:00:00 | 00:00:00 | |
| AA1-15 | 2026-09-05 05:10:04 | 52.14616 | 14.68567 | 87° | 141km/h | 8508m | 6.9m/s | 0°C | 0% | 0hPa | 2.8V | 18:12:15 | 01:01:09 | 00:00:00 | |
| KRY50SP-1 | 2026-09-05 05:10:02 | 52.14614 | 14.68509 | 88° | 142km/h | 8502m | 5.4m/s | -37.2°C | 12.7% | 336.8hPa | 2.8V | 00:00:00 | 00:00:00 | 00:00:00 | |
| DB0DAN | 2026-09-05 05:09:55 | 52.14607 | 14.68052 | 89° | 135km/h | 8462m | 5.3m/s | -36.9°C | 13.3% | 338.71hPa | 2.8V | 00:00:00 | 00:00:00 | 00:00:00 | |
| EDDB2-11 | 2026-09-05 05:09:51 | 52.14602 | 14.67764 | 87° | 135km/h | 8437m | 5.7m/s | -36.7°C | 12.7% | 339.9hPa | 2.8V | 00:00:00 | 00:00:00 | 00:00:00 | |
| DL2RXE-15 | 2026-09-05 05:09:47 | 52.14599 | 14.67652 | 88° | 137km/h | 8427m | 5.4m/s | 0°C | 0% | 0hPa | 2.8V | 00:00:00 | 00:00:00 | 00:00:00 | |
| KRY50SP-1 | 2026-09-05 05:09:45 | 52.14596 | 14.67539 | 89° | 137km/h | 8418m | 4.9m/s | -36.5°C | 12.5% | 340.9hPa | 2.8V | 00:00:00 | 00:00:00 | 00:00:00 | |
| 13BRC | 2026-09-05 05:09:43 | 52.14593 | 14.67426 | 88° | 139km/h | 8408m | 4.8m/s | -36.5°C | 12.5% | 341.4hPa | 2.8V | 00:00:00 | 00:00:00 | 00:00:00 | |
| SP6BVK | 2026-09-05 05:09:42 | 52.14591 | 14.67369 | 89° | 139km/h | 8403m | 4.5m/s | -36.4°C | 12.5% | 341.5hPa | 2.8V | 00:00:00 | 00:00:00 | 00:00:00 | |
| DB0DAN | 2026-09-05 05:09:40 | 52.14589 | 14.67199 | 89° | 131km/h | 8388m | 6.1m/s | -36.3°C | 13.1% | 342.23hPa | 2.8V | 00:00:00 | 00:00:00 | 00:00:00 | |
| SONDE2-11 | 2026-09-05 05:09:37 | 52.14587 | 14.67031 | 88° | 131km/h | 8374m | 3.7m/s | -36.2°C | 14.0% | 343.1hPa | 2.8V | 00:00:00 | 00:00:00 | 00:00:00 | |
| DAC517 | 2026-09-05 05:09:35 | 52.14585 | 14.66921 | 89° | 133km/h | 8363m | 4.6m/s | -36.1°C | 14.6% | 343.5hPa | 2.8V | 00:00:00 | 00:00:00 | 00:00:00 | |
| KRY50SP-1 | 2026-09-05 05:09:29 | 52.14580 | 14.66643 | 90° | 137km/h | 8339m | 7.7m/s | -36.0°C | 15.9% | 344.6hPa | 2.8V | 00:00:00 | 00:00:00 | 00:00:00 | |
| DB0DAN | 2026-09-05 05:09:25 | 52.14580 | 14.66369 | 91° | 126km/h | 8310m | 5.6m/s | -35.7°C | 18.3% | 346.05hPa | 2.8V | 00:00:00 | 00:00:00 | 00:00:00 | |
| AA1-15 | 2026-09-05 05:09:21 | 52.14579 | 14.66146 | 88° | 137km/h | 8290m | 3.9m/s | 0°C | 0% | 0hPa | 2.7V | 18:12:15 | 01:00:26 | 00:00:00 | |
| EDDB2-11 | 2026-09-05 05:09:20 | 52.14577 | 14.66090 | 86° | 135km/h | 8284m | 7.3m/s | -35.6°C | 20.5% | 347.3hPa | 2.9V | 00:00:00 | 00:00:00 | 00:00:00 | |
| KRY50SP-1 | 2026-09-05 05:09:18 | 52.14576 | 14.66034 | 89° | 137km/h | 8277m | 6.8m/s | -35.6°C | 21.0% | 347.7hPa | 2.9V | 00:00:00 | 00:00:00 | 00:00:00 | |
| DAC517 | 2026-09-05 05:09:13 | 52.14573 | 14.65756 | 91° | 133km/h | 8252m | 4.7m/s | -35.4°C | 19.8% | 348.9hPa | 2.9V | 00:00:00 | 00:00:00 | 00:00:00 | |
| KRY50SP-1 | 2026-09-05 05:09:12 | 52.14573 | 14.65701 | 91° | 131km/h | 8246m | 5.3m/s | -35.4°C | 19.5% | 349.2hPa | 2.9V | 00:00:00 | 00:00:00 | 00:00:00 | |
| DB0DAN | 2026-09-05 05:09:10 | 52.14573 | 14.65540 | 90° | 124km/h | 8230m | 4.9m/s | -35.2°C | 19.1% | 350.07hPa | 2.9V | 00:00:00 | 00:00:00 | 00:00:00 | |
| KRY50SP-1 | 2026-09-05 05:09:07 | 52.14573 | 14.65431 | 91° | 133km/h | 8220m | 5.3m/s | -35.1°C | 19.2% | 350.6hPa | 2.9V | 00:00:00 | 00:00:00 | 00:00:00 | |
| SONDE2-11 | 2026-09-05 05:09:06 | 52.14574 | 14.65263 | 89° | 137km/h | 8207m | 3.5m/s | -35.0°C | 19.4% | 351.3hPa | 2.9V | 00:00:00 | 00:00:00 | 00:00:00 | |
| 13BRC | 2026-09-05 05:09:02 | 52.14574 | 14.65151 | 91° | 135km/h | 8199m | 4.4m/s | -34.9°C | 19.2% | 351.7hPa | 2.9V | 00:00:00 | 00:00:00 | 00:00:00 | |
| KRY50SP-1 | 2026-09-05 05:09:01 | 52.14574 | 14.65096 | 91° | 135km/h | 8195m | 4.1m/s | -34.9°C | 19.0% | 351.9hPa | 2.9V | 00:00:00 | 00:00:00 | 00:00:00 | |
| SP6BVK | 2026-09-05 05:09:00 | 52.14573 | 14.65041 | 91° | 133km/h | 8190m | 5.4m/s | -34.9°C | 18.9% | 352.2hPa | 2.9V | 00:00:00 | 00:00:00 | 00:00:00 | |
| DB0DAN | 2026-09-05 05:08:55 | 52.14570 | 14.64720 | 90° | 130km/h | 8162m | 3.1m/s | -34.6°C | 18.7% | 353.69hPa | 2.9V | 00:00:00 | 00:00:00 | 00:00:00 | |
| EDDB2-11 | 2026-09-05 05:08:49 | 52.14570 | 14.64320 | 88° | 135km/h | 8127m | 4.6m/s | -34.3°C | 18.6% | 355.5hPa | 2.8V | 00:00:00 | 00:00:00 | 00:00:00 | |
| KRY50SP-1 | 2026-09-05 05:08:43 | 52.14567 | 14.64102 | 89° | 131km/h | 8109m | 4.3m/s | -34.1°C | 18.6% | 356.4hPa | 2.8V | 00:00:00 | 00:00:00 | 00:00:00 | |
| DB0DAN | 2026-09-05 05:08:40 | 52.14567 | 14.63887 | 92° | 128km/h | 8085m | 5.9m/s | -33.9°C | 19% | 357.49hPa | 2.8V | 00:00:00 | 00:00:00 | 00:00:00 | |
| AA1-15 | 2026-09-05 05:08:37 | 52.14570 | 14.63716 | 91° | 144km/h | 8069m | 7.4m/s | 0°C | 0% | 0hPa | 2.8V | 18:12:15 | 00:59:42 | 00:00:00 | |
| DL2RXE-15 | 2026-09-05 05:08:36 | 52.14570 | 14.63716 | 92° | 142km/h | 8069m | 7.4m/s | -33.8°C | 0% | 358.4hPa | 2.9V | 00:00:00 | 00:00:00 | 00:00:00 | |
| SONDE2-11 | 2026-09-05 05:08:35 | 52.14570 | 14.63531 | 88° | 150km/h | 8053m | 5.4m/s | -33.7°C | 18.9% | 359.1hPa | 2.9V | 00:00:00 | 00:00:00 | 00:00:00 | |
| DAC517 | 2026-09-05 05:08:32 | 52.14567 | 14.63408 | 89° | 146km/h | 8042m | 4.3m/s | -33.6°C | 18.6% | 359.7hPa | 2.9V | 00:00:00 | 00:00:00 | 00:00:00 | |
| KRY50SP-1 | 2026-09-05 05:08:31 | 52.14567 | 14.63408 | 89° | 146km/h | 8042m | 4.3m/s | -33.6°C | 18.6% | 359.7hPa | 2.9V | 00:00:00 | 00:00:00 | 00:00:00 | |
| DB0DAN | 2026-09-05 05:08:25 | 52.14578 | 14.63014 | 100° | 120km/h | 7988m | 5.2m/s | -33.1°C | 18.9% | 362.6hPa | 2.9V | 00:00:00 | 00:00:00 | 00:00:00 | |
| 13BRC | 2026-09-05 05:08:21 | 52.14592 | 14.62861 | 97° | 126km/h | 7975m | 5.7m/s | -33.0°C | 18.5% | 363.3hPa | 2.7V | 00:00:00 | 00:00:00 | 00:00:00 | |
| KRY50SP-1 | 2026-09-05 05:08:20 | 52.14595 | 14.62809 | 96° | 126km/h | 7967m | 10.1m/s | -32.9°C | 18.1% | 363.7hPa | 2.7V | 00:00:00 | 00:00:00 | 00:00:00 | |
| SP6BVK | 2026-09-05 05:08:19 | 52.14598 | 14.62757 | 95° | 128km/h | 7957m | 9.3m/s | -32.9°C | 17.8% | 364.1hPa | 2.7V | 00:00:00 | 00:00:00 | 00:00:00 | |
| EDDB2-11 | 2026-09-05 05:08:18 | 52.14603 | 14.62597 | 92° | 128km/h | 7935m | 7.9m/s | -32.6°C | 16.9% | 365.4hPa | 2.7V | 00:00:00 | 00:00:00 | 00:00:00 | |
| KRY50SP-1 | 2026-09-05 05:08:14 | 52.14606 | 14.62492 | 95° | 130km/h | 7925m | 4.7m/s | -32.5°C | 17.0% | 365.9hPa | 2.7V | 00:00:00 | 00:00:00 | 00:00:00 | |
| DB0DAN | 2026-09-05 05:08:10 | 52.14620 | 14.62224 | 95° | 126km/h | 7901m | 4.2m/s | -32.3°C | 16% | 367.2hPa | 2.7V | 00:00:00 | 00:00:00 | 00:00:00 | |
| KRY50SP-1 | 2026-09-05 05:08:08 | 52.14623 | 14.62170 | 95° | 131km/h | 7896m | 5.9m/s | -32.2°C | 15.7% | 367.5hPa | 2.9V | 00:00:00 | 00:00:00 | 00:00:00 | |
| DL2RXE-15 | 2026-09-05 05:08:06 | 52.14627 | 14.62062 | 95° | 131km/h | 7888m | 4.8m/s | 0°C | 0% | 0hPa | 2.9V | 00:00:00 | 00:00:00 | 00:00:00 | |
| SONDE2-11 | 2026-09-05 05:08:04 | 52.14636 | 14.61846 | 93° | 128km/h | 7862m | 5.6m/s | -31.9°C | 14.2% | 369.1hPa | 2.9V | 00:00:00 | 00:00:00 | 00:00:00 | |
| KRY50SP-1 | 2026-09-05 05:08:02 | 52.14635 | 14.61846 | 95° | 130km/h | 7863m | 5.6m/s | -31.9°C | 14.2% | 369.1hPa | 2.9V | 00:00:00 | 00:00:00 | 00:00:00 | |
| EDDB2-11 | 2026-09-05 05:07:47 | 52.14664 | 14.60936 | 93° | 133km/h | 7770m | 6.6m/s | -31.3°C | 10.8% | 374.0hPa | 2.9V | 00:00:00 | 00:00:00 | 00:00:00 | |
| DL2RXE-15 | 2026-09-05 05:07:46 | 52.14661 | 14.60990 | 95° | 133km/h | 7778m | 8.0m/s | -31.3°C | 0% | 373.6hPa | 2.9V | 00:00:00 | 00:00:00 | 00:00:00 | |
| 13BRC | 2026-09-05 05:07:40 | 52.14677 | 14.60664 | 96° | 133km/h | 7745m | 6.1m/s | -31.2°C | 9.4% | 375.3hPa | 2.9V | 00:00:00 | 00:00:00 | 00:00:00 | |
| EDDB2-12 | 2026-09-05 05:07:39 | 52.14683 | 14.60555 | 95° | 133km/h | 7736m | 5.7m/s | -31.2°C | 8.8% | 375.9hPa | 2.9V | 00:00:00 | 00:00:00 | 00:00:00 | |
| SP6BVK | 2026-09-05 05:07:38 | 52.14683 | 14.60555 | 96° | 133km/h | 7736m | 5.7m/s | -31.2°C | 8.8% | 375.9hPa | 2.9V | 00:00:00 | 00:00:00 | 00:00:00 | |
| KRY50SP-1 | 2026-09-05 05:07:34 | 52.14694 | 14.60340 | 97° | 130km/h | 7718m | 4.1m/s | -31.1°C | 7.8% | 376.9hPa | 2.9V | 00:00:00 | 00:00:00 | 00:00:00 | |
| SONDE2-11 | 2026-09-05 05:07:33 | 52.14703 | 14.60178 | 95° | 133km/h | 7705m | 4.5m/s | -31.1°C | 7.2% | 377.6hPa | 2.9V | 00:00:00 | 00:00:00 | 00:00:00 | |
| DAC517 | 2026-09-05 05:07:31 | 52.14707 | 14.60123 | 97° | 135km/h | 7699m | 7.9m/s | -31.0°C | 7.0% | 377.8hPa | 2.9V | 00:00:00 | 00:00:00 | 00:00:00 | |
| KRY50SP-1 | 2026-09-05 05:07:28 | 52.14716 | 14.60012 | 99° | 137km/h | 7686m | 7.3m/s | -30.9°C | 6.6% | 378.5hPa | 2.9V | 00:00:00 | 00:00:00 | 00:00:00 | |
| SP3BTT-10 | 2026-09-05 05:07:26 | 52.14728 | 14.59844 | 95° | 124km/h | 7664m | 8.3m/s | -30.7°C | 7.6% | 379.6hPa | 2.9V | 00:00:00 | 00:00:00 | 00:00:00 | |
| KRY50SP-1 | 2026-09-05 05:07:23 | 52.14734 | 14.59737 | 96° | 130km/h | 7650m | 7.6m/s | -30.7°C | 6.3% | 380.2hPa | 2.9V | 00:00:00 | 00:00:00 | 00:00:00 | |
| 13BRC | 2026-09-05 05:07:19 | 52.14746 | 14.59532 | 97° | 124km/h | 7630m | 5.8m/s | -30.5°C | 6.2% | 381.3hPa | 2.9V | 00:00:00 | 00:00:00 | 00:00:00 | |
| SP6BVK | 2026-09-05 05:07:18 | 52.14750 | 14.59480 | 97° | 128km/h | 7625m | 4.1m/s | -30.4°C | 6.2% | 381.7hPa | 2.9V | 00:00:00 | 00:00:00 | 00:00:00 | |
| KRY50SP-1 | 2026-09-05 05:07:17 | 52.14754 | 14.59428 | 97° | 130km/h | 7621m | 3.9m/s | -30.4°C | 6.1% | 381.8hPa | 2.9V | 00:00:00 | 00:00:00 | 00:00:00 | |
| DL2RXE-15 | 2026-09-05 05:07:15 | 52.14762 | 14.59321 | 97° | 133km/h | 7612m | 4.8m/s | 0°C | 0% | 0hPa | 2.9V | 00:00:00 | 00:00:00 | 00:00:00 | |
| DAC517 | 2026-09-05 05:07:08 | 52.14790 | 14.58941 | 97° | 124km/h | 7576m | 10.0m/s | -30.1°C | 5.2% | 384.3hPa | 2.9V | 00:00:00 | 00:00:00 | 00:00:00 | |
| KRY50SP-1 | 2026-09-05 05:07:03 | 52.14804 | 14.58685 | 95° | 126km/h | 7544m | 5.9m/s | -29.9°C | 5.1% | 386.1hPa | 2.9V | 00:00:00 | 00:00:00 | 00:00:00 | |
| SONDE2-11 | 2026-09-05 05:07:02 | 52.14810 | 14.58532 | 92° | 122km/h | 7530m | 3.6m/s | -29.8°C | 5.1% | 386.9hPa | 2.9V | 00:00:00 | 00:00:00 | 00:00:00 | |
| 13BRC | 2026-09-05 05:06:59 | 52.14811 | 14.58481 | 94° | 122km/h | 7526m | 5.8m/s | -29.8°C | 5.1% | 387.1hPa | 2.9V | 00:00:00 | 00:00:00 | 00:00:00 | |
| KRY50SP-1 | 2026-09-05 05:06:57 | 52.14815 | 14.58382 | 95° | 120km/h | 7518m | 4.4m/s | -29.8°C | 5.2% | 387.5hPa | 2.9V | 00:00:00 | 00:00:00 | 00:00:00 | |
| DB0DAN | 2026-09-05 05:06:55 | 52.14823 | 14.58234 | 95° | 117km/h | 7501m | 5.2m/s | -29.9°C | 5.4% | 388.38hPa | 2.9V | 00:00:00 | 00:00:00 | 00:00:00 | |
| AA1-15 | 2026-09-05 05:06:42 | 52.14852 | 14.57566 | 95° | 130km/h | 7445m | 5m/s | 0°C | 0% | 0hPa | 2.9V | 18:12:15 | 00:57:47 | 00:00:00 | |
| DB0DAN | 2026-09-05 05:06:40 | 52.14857 | 14.57461 | 94° | 120km/h | 7434m | 5.2m/s | -29.4°C | 5.4% | 392.16hPa | 2.9V | 00:00:00 | 00:00:00 | 00:00:00 | |
| SP3BTT-10 | 2026-09-05 05:06:40 | 52.14857 | 14.57461 | 94° | 126km/h | 7434m | 5.2m/s | -29.4°C | 6.4% | 392.1hPa | 2.9V | 00:00:00 | 00:00:00 | 00:00:00 | |
| 13BRC | 2026-09-05 05:06:39 | 52.14857 | 14.57461 | 95° | 126km/h | 7434m | 5.2m/s | -29.4°C | 5.4% | 392.2hPa | 2.9V | 00:00:00 | 00:00:00 | 00:00:00 | |
| EDDB2-12 | 2026-09-05 05:06:37 | 52.14863 | 14.57306 | 92° | 126km/h | 7416m | 4.6m/s | -29.4°C | 5.5% | 393.1hPa | 2.9V | 00:00:00 | 00:00:00 | 00:00:00 | |
| SONDE2-11 | 2026-09-05 05:06:31 | 52.14872 | 14.56935 | 92° | 126km/h | 7382m | 4.5m/s | -29.2°C | 5.7% | 395.0hPa | 2.9V | 00:00:00 | 00:00:00 | 00:00:00 | |
| DAC517 | 2026-09-05 05:06:28 | 52.14875 | 14.56833 | 93° | 122km/h | 7372m | 4.4m/s | -29.1°C | 5.7% | 395.6hPa | 2.9V | 00:00:00 | 00:00:00 | 00:00:00 | |
| DB0DAN | 2026-09-05 05:06:25 | 52.14877 | 14.56688 | 91° | 111km/h | 7358m | 3.1m/s | -29.1°C | 5.7% | 396.39hPa | 2.9V | 00:00:00 | 00:00:00 | 00:00:00 | |
| AA1-15 | 2026-09-05 05:06:25 | 52.14877 | 14.56688 | 91° | 117km/h | 7358m | 3.1m/s | 0°C | 0% | 0hPa | 2.9V | 18:12:15 | 00:57:30 | 00:00:00 | |
| DL2RXE-15 | 2026-09-05 05:06:24 | 52.14877 | 14.56688 | 92° | 117km/h | 7358m | 3.1m/s | 0°C | 0% | 0hPa | 2.9V | 00:00:00 | 00:00:00 | 00:00:00 | |
| 13BRC | 2026-09-05 05:06:18 | 52.14882 | 14.56390 | 96° | 120km/h | 7321m | 9.3m/s | -28.9°C | 5.7% | 398.4hPa | 2.9V | 00:00:00 | 00:00:00 | 00:00:00 | |
| SP6BVK | 2026-09-05 05:06:17 | 52.14884 | 14.56340 | 95° | 120km/h | 7313m | 6.6m/s | -28.9°C | 5.7% | 398.6hPa | 2.9V | 00:00:00 | 00:00:00 | 00:00:00 | |
| KRY50SP-1 | 2026-09-05 05:06:16 | 52.14886 | 14.56290 | 95° | 122km/h | 7307m | 4.8m/s | -28.8°C | 5.8% | 399.1hPa | 2.9V | 00:00:00 | 00:00:00 | 00:00:00 | |
| EDDB2-11 | 2026-09-05 05:06:14 | 52.14893 | 14.56082 | 93° | 128km/h | 7288m | 6.5m/s | -28.7°C | 5.7% | 400.1hPa | 2.9V | 00:00:00 | 00:00:00 | 00:00:00 | |
| DB0DAN | 2026-09-05 05:06:10 | 52.14895 | 14.55922 | 91° | 124km/h | 7275m | 2.4m/s | -28.6°C | 5.7% | 400.88hPa | 2.9V | 00:00:00 | 00:00:00 | 00:00:00 | |
| KRY50SP-1 | 2026-09-05 05:06:09 | 52.14895 | 14.55922 | 92° | 131km/h | 7275m | 2.4m/s | -28.6°C | 5.7% | 400.9hPa | 2.9V | 00:00:00 | 00:00:00 | 00:00:00 | |
| DAC517 | 2026-09-05 05:06:07 | 52.14896 | 14.55817 | 93° | 126km/h | 7266m | 3.2m/s | -28.5°C | 5.7% | 401.4hPa | 2.9V | 00:00:00 | 00:00:00 | 00:00:00 | |
| EDDB2-12 | 2026-09-05 05:06:06 | 52.14898 | 14.55714 | 92° | 124km/h | 7255m | 6.4m/s | -28.5°C | 5.7% | 401.9hPa | 2.9V | 00:00:00 | 00:00:00 | 00:00:00 | |
| DL2RXE-15 | 2026-09-05 05:06:04 | 52.14900 | 14.55663 | 94° | 124km/h | 7250m | 3.7m/s | -28.4°C | 0% | 402.3hPa | 2.9V | 00:00:00 | 00:00:00 | 00:00:00 | |
| SONDE2-11 | 2026-09-05 05:05:59 | 52.14912 | 14.55352 | 94° | 133km/h | 7222m | 4.3m/s | -28.3°C | 5.7% | 403.9hPa | 2.9V | 00:00:00 | 00:00:00 | 00:00:00 | |
| 13BRC | 2026-09-05 05:05:58 | 52.14912 | 14.55352 | 96° | 135km/h | 7222m | 4.3m/s | -28.3°C | 5.7% | 403.9hPa | 2.9V | 00:00:00 | 00:00:00 | 00:00:00 | |
| SP6BVK | 2026-09-05 05:05:57 | 52.14914 | 14.55296 | 96° | 139km/h | 7218m | 4.5m/s | -28.3°C | 5.7% | 404.1hPa | 2.9V | 00:00:00 | 00:00:00 | 00:00:00 | |
| DB0DAN | 2026-09-05 05:05:55 | 52.14918 | 14.55131 | 91° | 120km/h | 7206m | 4.2m/s | -28.2°C | 5.5% | 404.77hPa | 2.9V | 00:00:00 | 00:00:00 | 00:00:00 | |
| SP3BTT-10 | 2026-09-05 05:05:55 | 52.14918 | 14.55131 | 91° | 130km/h | 7206m | 4.2m/s | -28.1°C | 6.5% | 404.7hPa | 2.9V | 00:00:00 | 00:00:00 | 00:00:00 | |
| KRY50SP-1 | 2026-09-05 05:05:52 | 52.14919 | 14.55029 | 92° | 122km/h | 7189m | 9.6m/s | -28.1°C | 5.4% | 405.7hPa | 2.7V | 00:00:00 | 00:00:00 | 00:00:00 | |
| DAC517 | 2026-09-05 05:05:46 | 52.14929 | 14.54723 | 98° | 126km/h | 7157m | 5.6m/s | -28.0°C | 5.8% | 407.5hPa | 2.7V | 00:00:00 | 00:00:00 | 00:00:00 | |
| DB0DAN | 2026-09-05 05:05:40 | 52.14938 | 14.54356 | 89° | 120km/h | 7119m | 2.9m/s | -28°C | 7.1% | 409.78hPa | 2.7V | 00:00:00 | 00:00:00 | 00:00:00 | |
| SP6BVK | 2026-09-05 05:05:37 | 52.14936 | 14.54253 | 89° | 126km/h | 7111m | 2.3m/s | -28.0°C | 8.0% | 410.2hPa | 2.9V | 00:00:00 | 00:00:00 | 00:00:00 | |
| KRY50SP-1 | 2026-09-05 05:05:36 | 52.14932 | 14.54148 | 86° | 130km/h | 7104m | 3.7m/s | -28.1°C | 9.2% | 410.7hPa | 2.9V | 00:00:00 | 00:00:00 | 00:00:00 | |
| EDDB2-12 | 2026-09-05 05:05:35 | 52.14929 | 14.54095 | 85° | 128km/h | 7100m | 4.2m/s | -28.1°C | 10.3% | 410.9hPa | 2.9V | 00:00:00 | 00:00:00 | 00:00:00 | |
| DL2RXE-15 | 2026-09-05 05:05:34 | 52.14929 | 14.54095 | 86° | 130km/h | 7100m | 4.2m/s | 0°C | 0% | 0hPa | 2.9V | 00:00:00 | 00:00:00 | 00:00:00 | |
| SONDE2-11 | 2026-09-05 05:05:29 | 52.14927 | 14.53724 | 92° | 126km/h | 7064m | 5.9m/s | -28.4°C | 21.4% | 412.9hPa | 2.9V | 00:00:00 | 00:00:00 | 00:00:00 | |
| DB0DAN | 2026-09-05 05:05:25 | 52.14928 | 14.53569 | 88° | 122km/h | 7052m | 0.9m/s | -28.3°C | 22.6% | 413.73hPa | 2.9V | 00:00:00 | 00:00:00 | 00:00:00 | |
| AA1-15 | 2026-09-05 05:05:15 | 52.14933 | 14.53042 | 90° | 139km/h | 7005m | 5.3m/s | 0°C | 0% | 0hPa | 2.9V | 18:12:15 | 00:56:20 | 00:00:00 | |
| DL2RXE-15 | 2026-09-05 05:05:13 | 52.14931 | 14.52985 | 87° | 139km/h | 7001m | 2.9m/s | -27.9°C | 0% | 416.6hPa | 2.9V | 00:00:00 | 00:00:00 | 00:00:00 | |
| KRY50SP-1 | 2026-09-05 05:05:11 | 52.14925 | 14.52874 | 84° | 131km/h | 6990m | 7.0m/s | -27.8°C | 17.8% | 417.1hPa | 2.9V | 00:00:00 | 00:00:00 | 00:00:00 | |
| KRY50SP-1 | 2026-09-05 05:05:06 | 52.14921 | 14.52574 | 92° | 119km/h | 6946m | 5.1m/s | 0°C | 0% | 419.7hPa | 2.9V | 00:00:00 | 00:00:00 | 00:00:00 | |
| DAC517 | 2026-09-05 05:05:05 | 52.14921 | 14.52525 | 93° | 119km/h | 6942m | 3.7m/s | -27.4°C | 19.2% | 420.0hPa | 2.9V | 00:00:00 | 00:00:00 | 00:00:00 | |
| EDDB2-12 | 2026-09-05 05:05:04 | 52.14922 | 14.52476 | 91° | 119km/h | 6937m | 6.3m/s | -27.4°C | 19.7% | 420.3hPa | 2.9V | 00:00:00 | 00:00:00 | 00:00:00 | |
| SONDE2-11 | 2026-09-05 05:04:58 | 52.14917 | 14.52101 | 90° | 131km/h | 6909m | 4.0m/s | -27.2°C | 20.5% | 421.9hPa | 2.9V | 00:00:00 | 00:00:00 | 00:00:00 | |
| 13BRC | 2026-09-05 05:04:56 | 52.14917 | 14.52101 | 91° | 131km/h | 6909m | 4.0m/s | -27.2°C | 20.5% | 421.9hPa | 2.9V | 00:00:00 | 00:00:00 | 00:00:00 | |
| SP6BVK | 2026-09-05 05:04:55 | 52.14917 | 14.52048 | 92° | 126km/h | 6905m | 5.0m/s | -27.1°C | 20.1% | 422.2hPa | 2.9V | 00:00:00 | 00:00:00 | 00:00:00 | |
| DB0DAN | 2026-09-05 05:04:55 | 52.14918 | 14.51997 | 92° | 117km/h | 6899m | 5.7m/s | -27.1°C | 19.2% | 422.56hPa | 2.9V | 00:00:00 | 00:00:00 | 00:00:00 | |
| KRY50SP-1 | 2026-09-05 05:04:54 | 52.14918 | 14.51997 | 93° | 122km/h | 6899m | 5.7m/s | 0°C | 0% | 422.6hPa | 2.9V | 00:00:00 | 00:00:00 | 00:00:00 | |
| KRY50SP-1 | 2026-09-05 05:04:49 | 52.14920 | 14.51748 | 92° | 120km/h | 6857m | 7.2m/s | 0°C | 0% | 0hPa | 2.9V | 00:00:00 | 00:00:00 | 00:00:00 | |
| DL2RXE-15 | 2026-09-05 05:04:44 | 52.14927 | 14.51474 | 94° | 113km/h | 6831m | 4.4m/s | 0°C | 0% | 0hPa | 2.9V | 00:00:00 | 00:00:00 | 00:00:00 | |
| EDDB2-11 | 2026-09-05 05:04:41 | 52.14930 | 14.51274 | 90° | 124km/h | 6801m | 7.7m/s | -26.4°C | 11.1% | 428.2hPa | 2.9V | 00:00:00 | 00:00:00 | 00:00:00 | |
| DB0DAN | 2026-09-05 05:04:40 | 52.14930 | 14.51274 | 91° | 119km/h | 6801m | 7.7m/s | -26.4°C | 11.1% | 428.21hPa | 2.9V | 00:00:00 | 00:00:00 | 00:00:00 | |
| KRY50SP-1 | 2026-09-05 05:04:38 | 52.14931 | 14.51223 | 92° | 124km/h | 6794m | 6.3m/s | 0°C | 0% | 0hPa | 2.9V | 00:00:00 | 00:00:00 | 00:00:00 | |
| 13BRC | 2026-09-05 05:04:35 | 52.14931 | 14.51078 | 91° | 115km/h | 6779m | 2.0m/s | -26.3°C | 11.8% | 429.5hPa | 2.9V | 00:00:00 | 00:00:00 | 00:00:00 | |
| SP6BVK | 2026-09-05 05:04:34 | 52.14932 | 14.51031 | 92° | 115km/h | 6776m | 4.6m/s | -26.3°C | 11.7% | 429.7hPa | 2.9V | 00:00:00 | 00:00:00 | 00:00:00 | |
| EDDB2-12 | 2026-09-05 05:04:33 | 52.14934 | 14.50936 | 92° | 115km/h | 6768m | 4.7m/s | -26.2°C | 11.5% | 430.2hPa | 2.9V | 00:00:00 | 00:00:00 | 00:00:00 | |
| KRY50SP-1 | 2026-09-05 05:04:27 | 52.14938 | 14.50709 | 91° | 110km/h | 6738m | 4.7m/s | 0°C | 0% | 0hPa | 2.9V | 00:00:00 | 00:00:00 | 00:00:00 | |
| DB0DAN | 2026-09-05 05:04:25 | 52.14938 | 14.50562 | 91° | 119km/h | 6722m | 7.7m/s | -25.9°C | 11.7% | 432.9hPa | 2.9V | 00:00:00 | 00:00:00 | 00:00:00 | |
| SP3BTT-10 | 2026-09-05 05:04:25 | 52.14938 | 14.50562 | 92° | 113km/h | 6722m | 7.6m/s | -25.9°C | 13.1% | 432.9hPa | 2.9V | 00:00:00 | 00:00:00 | 00:00:00 | |
| DL2RXE-15 | 2026-09-05 05:04:23 | 52.14939 | 14.50510 | 92° | 126km/h | 6716m | 4.9m/s | -25.9°C | 0% | 433.3hPa | 2.9V | 00:00:00 | 00:00:00 | 00:00:00 | |
| KRY50SP-1 | 2026-09-05 05:04:21 | 52.14940 | 14.50407 | 91° | 122km/h | 6705m | 2.7m/s | 0°C | 0% | 0hPa | 2.9V | 00:00:00 | 00:00:00 | 00:00:00 | |
| KRY50SP-1 | 2026-09-05 05:04:15 | 52.14939 | 14.50131 | 92° | 100km/h | 6678m | 2.9m/s | 0°C | 0% | 0hPa | 2.9V | 00:00:00 | 00:00:00 | 00:00:00 | |
| SP6BVK | 2026-09-05 05:04:14 | 52.14939 | 14.50090 | 92° | 100km/h | 6674m | 5.3m/s | -25.7°C | 12.2% | 435.8hPa | 2.9V | 00:00:00 | 00:00:00 | 00:00:00 | |
| DB0DAN | 2026-09-05 05:04:10 | 52.14939 | 14.49858 | 89° | 115km/h | 6645m | 5.4m/s | -25.5°C | 12.8% | 437.61hPa | 2.9V | 00:00:00 | 00:00:00 | 00:00:00 | |
| EDDB2-11 | 2026-09-05 05:04:09 | 52.14938 | 14.49809 | 87° | 120km/h | 6640m | 4.2m/s | -25.5°C | 12.9% | 437.9hPa | 2.9V | 00:00:00 | 00:00:00 | 00:00:00 | |
| KRY50SP-1 | 2026-09-05 05:04:05 | 52.14934 | 14.49661 | 90° | 117km/h | 6630m | 4.8m/s | 0°C | 0% | 0hPa | 2.9V | 00:00:00 | 00:00:00 | 00:00:00 | |
| EDDB2-12 | 2026-09-05 05:04:02 | 52.14941 | 14.49479 | 97° | 104km/h | 6609m | 6.1m/s | -25.4°C | 14.3% | 439.8hPa | 2.9V | 00:00:00 | 00:00:00 | 00:00:00 | |
| S3001 | 2026-09-05 05:03:56 | 52.14949 | 14.49206 | 89° | 115km/h | 6575m | 6.7m/s | -25.4°C | 16.1% | 441.9hPa | 2.9V | 00:00:00 | 00:00:00 | 00:00:00 | |
| DB0DAN | 2026-09-05 05:03:55 | 52.14950 | 14.49158 | 91° | 110km/h | 6570m | 3m/s | -25.3°C | 16.2% | 442.25hPa | 2.9V | 00:00:00 | 00:00:00 | 00:00:00 | |
| SONDE2-11 | 2026-09-05 05:03:55 | 52.14950 | 14.49158 | 90° | 115km/h | 6570m | 3.0m/s | -25.3°C | 16.2% | 442.2hPa | 2.9V | 00:00:00 | 00:00:00 | 00:00:00 | |
| SP6BVK | 2026-09-05 05:03:54 | 52.14949 | 14.49158 | 92° | 115km/h | 6570m | 3.0m/s | -25.3°C | 0% | 0hPa | 2.9V | 00:00:00 | 00:00:00 | 00:00:00 | |
| KRY50SP-1 | 2026-09-05 05:03:46 | 52.14963 | 14.48770 | 98° | 111km/h | 6536m | 5.5m/s | 0°C | 0% | 0hPa | 2.9V | 00:00:00 | 00:00:00 | 00:00:00 | |
| DAC517 | 2026-09-05 05:03:43 | 52.14973 | 14.48602 | 94° | 102km/h | 6515m | 6.7m/s | -25.0°C | 15.4% | 445.5hPa | 2.9V | 00:00:00 | 00:00:00 | 00:00:00 | |
| DL2RXE-15 | 2026-09-05 05:03:42 | 52.14973 | 14.48602 | 94° | 102km/h | 6515m | 6.7m/s | 0°C | 0% | 0hPa | 2.9V | 00:00:00 | 00:00:00 | 00:00:00 | |
| KRY50SP-1 | 2026-09-05 05:03:41 | 52.14975 | 14.48559 | 95° | 110km/h | 6508m | 6.9m/s | 0°C | 0% | 0hPa | 2.9V | 00:00:00 | 00:00:00 | 00:00:00 | |
| SP3BTT-10 | 2026-09-05 05:03:40 | 52.14980 | 14.48468 | 97° | 106km/h | 6493m | 7.1m/s | -24.8°C | 16.8% | 446.8hPa | 2.9V | 00:00:00 | 00:00:00 | 08:30:00 | |
| EDDB2-11 | 2026-09-05 05:03:38 | 52.14987 | 14.48376 | 99° | 110km/h | 6482m | 2.0m/s | -24.7°C | 15.5% | 447.6hPa | 2.9V | 00:00:00 | 00:00:00 | 00:00:00 | |
| KRY50SP-1 | 2026-09-05 05:03:35 | 52.14999 | 14.48288 | 104° | 110km/h | 6476m | 1.9m/s | 0°C | 0% | 0hPa | 2.9V | 00:00:00 | 00:00:00 | 00:00:00 | |
| SP6BVK | 2026-09-05 05:03:34 | 52.15004 | 14.48243 | 102° | 110km/h | 6473m | 4.0m/s | -24.7°C | 0% | 0hPa | 2.9V | 00:00:00 | 00:00:00 | 00:00:00 | |
| 13BRC | 2026-09-05 05:03:33 | 52.15009 | 14.48199 | 99° | 110km/h | 6469m | 4.8m/s | -24.6°C | 15.5% | 448.5hPa | 2.9V | 00:00:00 | 00:00:00 | 00:00:00 | |
| EDDB2-12 | 2026-09-05 05:03:31 | 52.15017 | 14.48063 | 94° | 110km/h | 6449m | 7.3m/s | -24.5°C | 15.4% | 449.6hPa | 2.9V | 00:00:00 | 00:00:00 | 00:00:00 | |
| KRY50SP-1 | 2026-09-05 05:03:29 | 52.15019 | 14.48018 | 95° | 110km/h | 6444m | 3.0m/s | 0°C | 0% | 0hPa | 2.9V | 00:00:00 | 00:00:00 | 00:00:00 | |
| DB0DAN | 2026-09-05 05:03:25 | 52.15029 | 14.47797 | 97° | 100km/h | 6424m | 6.4m/s | -24.3°C | 15.3% | 451.33hPa | 2.9V | 00:00:00 | 00:00:00 | 00:00:00 | |
| S3001 | 2026-09-05 05:03:25 | 52.15033 | 14.47755 | 98° | 102km/h | 6419m | 5.0m/s | -24.2°C | 15.3% | 451.7hPa | 2.9V | 00:00:00 | 00:00:00 | 00:00:00 | |
| SONDE2-11 | 2026-09-05 05:03:24 | 52.15033 | 14.47755 | 98° | 102km/h | 6419m | 5.0m/s | -24.2°C | 15.3% | 451.7hPa | 2.9V | 00:00:00 | 00:00:00 | 00:00:00 | |
| DL2RXE-15 | 2026-09-05 05:03:22 | 52.15037 | 14.47713 | 100° | 102km/h | 6415m | 4.5m/s | -24.2°C | 0% | 452.0hPa | 2.9V | 00:00:00 | 00:00:00 | 00:00:00 | |
| DAC517 | 2026-09-05 05:03:21 | 52.15040 | 14.47673 | 100° | 99km/h | 6412m | 1.6m/s | -24.1°C | 15.5% | 452.3hPa | 2.9V | 00:00:00 | 00:00:00 | 00:00:00 | |
| KRY50SP-1 | 2026-09-05 05:03:18 | 52.15052 | 14.47553 | 98° | 102km/h | 6400m | 5.6m/s | 0°C | 0% | 0hPa | 2.9V | 00:00:00 | 00:00:00 | 00:00:00 | |
| KRY50SP-1 | 2026-09-05 05:03:13 | 52.15060 | 14.47323 | 93° | 115km/h | 6369m | 6.0m/s | 0°C | 0% | 0hPa | 2.9V | 00:00:00 | 00:00:00 | 00:00:00 | |
| DB0DAN | 2026-09-05 05:03:10 | 52.15065 | 14.47143 | 94° | 108km/h | 6343m | 9.7m/s | -23.6°C | 15.9% | 456.39hPa | 2.9V | 00:00:00 | 00:00:00 | 00:00:00 | |
| KRY50SP-1 | 2026-09-05 05:03:07 | 52.15071 | 14.47047 | 99° | 122km/h | 6328m | 7.1m/s | 0°C | 0% | 0hPa | 2.7V | 00:00:00 | 00:00:00 | 00:00:00 | |
| EDDB2-12 | 2026-09-05 05:03:00 | 52.15110 | 14.46711 | 96° | 104km/h | 6284m | 6.1m/s | -23.1°C | 16.6% | 459.9hPa | 2.7V | 00:00:00 | 00:00:00 | 00:00:00 | |
| DB0DAN | 2026-09-05 05:02:55 | 52.15122 | 14.46495 | 95° | 99km/h | 6248m | 3.7m/s | -22.8°C | 17.1% | 462.2hPa | 2.7V | 00:00:00 | 00:00:00 | 00:00:00 | |
| SONDE2-11 | 2026-09-05 05:02:53 | 52.15127 | 14.46411 | 95° | 99km/h | 6239m | 2.8m/s | -22.7°C | 17.4% | 462.8hPa | 2.8V | 00:00:00 | 00:00:00 | 00:00:00 | |
| KRY50SP-1 | 2026-09-05 05:02:48 | 52.15144 | 14.46257 | 104° | 93km/h | 6224m | 4.2m/s | 0°C | 0% | 0hPa | 2.8V | 00:00:00 | 00:00:00 | 00:00:00 | |
| DB0DAN | 2026-09-05 05:02:40 | 52.15177 | 14.45860 | 94° | 99km/h | 6177m | 7.2m/s | -22.2°C | 17.1% | 466.88hPa | 2.8V | 00:00:00 | 00:00:00 | 00:00:00 | |
| EDDB2-11 | 2026-09-05 05:02:36 | 52.15192 | 14.45695 | 102° | 97km/h | 6150m | 4.9m/s | -21.9°C | 17.0% | 468.5hPa | 2.9V | 00:00:00 | 00:00:00 | 00:00:00 | |
| DL2RXE-15 | 2026-09-05 05:02:32 | 52.15212 | 14.45574 | 106° | 106km/h | 6138m | 4.0m/s | -21.8°C | 0% | 469.2hPa | 2.9V | 00:00:00 | 00:00:00 | 00:00:00 | |
| EDDB2-12 | 2026-09-05 05:02:29 | 52.15232 | 14.45404 | 95° | 99km/h | 6114m | 7.4m/s | -21.6°C | 16.7% | 470.8hPa | 2.9V | 00:00:00 | 00:00:00 | 00:00:00 | |
| DB0DAN | 2026-09-05 05:02:25 | 52.15236 | 14.45251 | 89° | 89km/h | 6092m | 4m/s | -21.5°C | 16.8% | 472.16hPa | 2.9V | 00:00:00 | 00:00:00 | 00:00:00 | |
| SONDE2-11 | 2026-09-05 05:02:22 | 52.15241 | 14.45128 | 97° | 104km/h | 6078m | 6.9m/s | -21.4°C | 16.8% | 473.0hPa | 2.9V | 00:00:00 | 00:00:00 | 00:00:00 | |
| DAC517 | 2026-09-05 05:02:20 | 52.15245 | 14.45086 | 100° | 106km/h | 6071m | 8.1m/s | -21.3°C | 16.8% | 473.5hPa | 2.9V | 00:00:00 | 00:00:00 | 00:00:00 | |
| DB0DAN | 2026-09-05 05:02:10 | 52.15264 | 14.44601 | 92° | 108km/h | 6007m | 9.6m/s | -20.7°C | 16.2% | 477.39hPa | 2.9V | 00:00:00 | 00:00:00 | 00:00:00 | |
| SP3BTT-10 | 2026-09-05 05:02:10 | 52.15264 | 14.44601 | 92° | 106km/h | 6008m | 9.6m/s | -20.7°C | 17.5% | 477.3hPa | 2.9V | 00:00:00 | 00:00:00 | 00:00:00 | |
| EDDB2-11 | 2026-09-05 05:02:05 | 52.15279 | 14.44380 | 100° | 106km/h | 5977m | 7.6m/s | -20.4°C | 16.2% | 479.5hPa | 2.9V | 00:00:00 | 00:00:00 | 00:00:00 | |
| EDDB2-12 | 2026-09-05 05:01:58 | 52.15313 | 14.44082 | 98° | 100km/h | 5944m | 8.6m/s | -20.1°C | 15.9% | 481.8hPa | 2.9V | 00:00:00 | 00:00:00 | 00:00:00 | |
| DB0DAN | 2026-09-05 05:01:55 | 52.15326 | 14.43952 | 101° | 106km/h | 5922m | 6.7m/s | -19.9°C | 15.9% | 483.14hPa | 2.9V | 00:00:00 | 00:00:00 | 00:00:00 | |
| S3001 | 2026-09-05 05:01:52 | 52.15348 | 14.43772 | 98° | 106km/h | 5906m | 4.8m/s | -19.8°C | 15.8% | 484.2hPa | 2.9V | 00:00:00 | 00:00:00 | 00:00:00 | |
| SONDE2-11 | 2026-09-05 05:01:51 | 52.15348 | 14.43772 | 98° | 106km/h | 5906m | 4.8m/s | -19.8°C | 15.8% | 484.2hPa | 2.9V | 00:00:00 | 00:00:00 | 00:00:00 | |
| 13BRC | 2026-09-05 05:01:50 | 52.15348 | 14.43771 | 99° | 108km/h | 5906m | 4.8m/s | -19.8°C | 15.8% | 484.2hPa | 2.9V | 00:00:00 | 00:00:00 | 00:00:00 | |
| KRY50SP-1 | 2026-09-05 05:01:43 | 52.15368 | 14.43467 | 98° | 113km/h | 5861m | 5.6m/s | 0°C | 0% | 0hPa | 2.9V | 00:00:00 | 00:00:00 | 00:00:00 | |
| DB0DAN | 2026-09-05 05:01:40 | 52.15385 | 14.43294 | 103° | 99km/h | 5840m | 5.4m/s | -19.3°C | 15.3% | 488.31hPa | 2.9V | 00:00:00 | 00:00:00 | 00:00:00 | |
| DAC517 | 2026-09-05 05:01:39 | 52.15385 | 14.43294 | 104° | 104km/h | 5841m | 5.4m/s | -19.3°C | 15.3% | 488.3hPa | 2.9V | 00:00:00 | 00:00:00 | 00:00:00 | |
| EDDB2-11 | 2026-09-05 05:01:34 | 52.15424 | 14.43047 | 98° | 100km/h | 5814m | 6.6m/s | -19.1°C | 15.5% | 490.2hPa | 2.9V | 00:00:00 | 00:00:00 | 00:00:00 | |
| 13BRC | 2026-09-05 05:01:30 | 52.15433 | 14.42920 | 96° | 104km/h | 5793m | 8.5m/s | -18.9°C | 14.7% | 491.6hPa | 2.9V | 00:00:00 | 00:00:00 | 00:00:00 | |
| DB0DAN | 2026-09-05 05:01:25 | 52.15462 | 14.42661 | 100° | 100km/h | 5762m | 5.3m/s | -18.7°C | 15% | 493.52hPa | 2.9V | 00:00:00 | 00:00:00 | 00:00:00 | |
| SP3BTT-10 | 2026-09-05 05:01:25 | 52.15462 | 14.42661 | 101° | 104km/h | 5762m | 5.2m/s | -18.6°C | 16.1% | 493.5hPa | 2.9V | 00:00:00 | 00:00:00 | 00:00:00 | |
| SONDE2-11 | 2026-09-05 05:01:20 | 52.15476 | 14.42462 | 93° | 89km/h | 5733m | 3.2m/s | -18.5°C | 14.7% | 495.6hPa | 2.9V | 00:00:00 | 00:00:00 | 00:00:00 | |
| DAC517 | 2026-09-05 05:01:18 | 52.15478 | 14.42425 | 95° | 89km/h | 5730m | 4.0m/s | -18.4°C | 14.8% | 495.7hPa | 2.9V | 00:00:00 | 00:00:00 | 00:00:00 | |
| DB0DAN | 2026-09-05 05:01:10 | 52.15498 | 14.42047 | 100° | 102km/h | 5675m | 8.4m/s | -18.2°C | 17% | 499.56hPa | 2.9V | 00:00:00 | 00:00:00 | 00:00:00 | |
| 13BRC | 2026-09-05 05:01:09 | 52.15498 | 14.42047 | 101° | 108km/h | 5675m | 8.4m/s | -18.2°C | 17.0% | 499.6hPa | 2.8V | 00:00:00 | 00:00:00 | 00:00:00 | |
| DL2RXE-15 | 2026-09-05 05:01:07 | 52.15509 | 14.41960 | 104° | 110km/h | 5664m | 5.6m/s | 0°C | 0% | 0hPa | 2.8V | 00:00:00 | 00:00:00 | 00:00:00 | |
| EDDB2-11 | 2026-09-05 05:01:03 | 52.15535 | 14.41735 | 95° | 110km/h | 5642m | 8.2m/s | -18.1°C | 17.4% | 501.8hPa | 2.8V | 00:00:00 | 00:00:00 | 00:00:00 | |
| EDDB2-12 | 2026-09-05 05:00:56 | 52.15546 | 14.41450 | 92° | 95km/h | 5603m | 3.4m/s | -17.7°C | 17.3% | 504.3hPa | 2.8V | 00:00:00 | 00:00:00 | 00:00:00 | |
| DB0DAN | 2026-09-05 05:00:55 | 52.15548 | 14.41410 | 96° | 93km/h | 5599m | 4.9m/s | -17.7°C | 17.2% | 504.63hPa | 2.8V | 00:00:00 | 00:00:00 | 00:00:00 | |
| S3001 | 2026-09-05 05:00:50 | 52.15578 | 14.41161 | 99° | 110km/h | 5557m | 7.5m/s | -17.3°C | 16.8% | 507.3hPa | 2.9V | 00:00:00 | 00:00:00 | 00:00:00 | |
| SONDE2-11 | 2026-09-05 05:00:49 | 52.15578 | 14.41161 | 99° | 110km/h | 5557m | 7.5m/s | -17.3°C | 16.8% | 507.3hPa | 2.9V | 00:00:00 | 00:00:00 | 00:00:00 | |
| 13BRC | 2026-09-05 05:00:48 | 52.15578 | 14.41161 | 101° | 110km/h | 5557m | 7.5m/s | -17.3°C | 16.8% | 507.3hPa | 2.9V | 00:00:00 | 00:00:00 | 00:00:00 | |
| DL2RXE-15 | 2026-09-05 05:00:44 | 52.15588 | 14.40998 | 93° | 95km/h | 5532m | 4.6m/s | -17.1°C | 0% | 509.1hPa | 2.9V | 00:00:00 | 00:00:00 | 00:00:00 | |
| DB0DAN | 2026-09-05 05:00:40 | 52.15597 | 14.40785 | 99° | 104km/h | 5507m | 6.4m/s | -17°C | 16.8% | 510.74hPa | 2.9V | 00:00:00 | 00:00:00 | 00:00:00 | |
| SP3BTT-10 | 2026-09-05 05:00:40 | 52.15597 | 14.40785 | 100° | 102km/h | 5507m | 6.4m/s | -17.0°C | 17.9% | 510.7hPa | 2.9V | 00:00:00 | 00:00:00 | 00:00:00 | |
| DAC517 | 2026-09-05 05:00:33 | 52.15636 | 14.40495 | 103° | 102km/h | 5472m | 2.6m/s | -16.7°C | 16.7% | 513.1hPa | 2.9V | 00:00:00 | 00:00:00 | 00:00:00 | |
| EDDB2-11 | 2026-09-05 05:00:32 | 52.15641 | 14.40453 | 100° | 102km/h | 5468m | 5.4m/s | -16.6°C | 16.7% | 513.5hPa | 2.9V | 00:00:00 | 00:00:00 | 00:00:00 | |
| 13BRC | 2026-09-05 05:00:27 | 52.15654 | 14.40292 | 95° | 93km/h | 5451m | 4.7m/s | -16.5°C | 16.3% | 514.6hPa | 2.9V | 00:00:00 | 00:00:00 | 00:00:00 | |
| EDDB2-12 | 2026-09-05 05:00:25 | 52.15660 | 14.40176 | 97° | 95km/h | 5438m | 4.1m/s | -16.4°C | 16.4% | 515.5hPa | 2.9V | 00:00:00 | 00:00:00 | 00:00:00 | |
| SONDE2-11 | 2026-09-05 05:00:18 | 52.15680 | 14.39882 | 93° | 100km/h | 5396m | 5.2m/s | -16.1°C | 17.3% | 518.4hPa | 2.9V | 00:00:00 | 00:00:00 | 00:00:00 | |
| DL2RXE-15 | 2026-09-05 05:00:14 | 52.15689 | 14.39759 | 100° | 99km/h | 5384m | 5.5m/s | 0°C | 0% | 0hPa | 2.9V | 00:00:00 | 00:00:00 | 00:00:00 | |
| DB0DAN | 2026-09-05 05:00:10 | 52.15708 | 14.39553 | 96° | 100km/h | 5356m | 3.1m/s | -15.8°C | 18% | 521.28hPa | 2.9V | 00:00:00 | 00:00:00 | 00:00:00 | |
| SP3BTT-10 | 2026-09-05 05:00:10 | 52.15708 | 14.39553 | 97° | 99km/h | 5356m | 3.1m/s | -15.8°C | 19.1% | 521.2hPa | 2.9V | 00:00:00 | 00:00:00 | 00:00:00 | |
| 13BRC | 2026-09-05 05:00:06 | 52.15717 | 14.39414 | 98° | 120km/h | 5346m | 3.3m/s | -15.7°C | 17.8% | 521.9hPa | 2.9V | 00:00:00 | 00:00:00 | 00:00:00 | |
| EDDB2-11 | 2026-09-05 05:00:01 | 52.15740 | 14.39153 | 98° | 86km/h | 5313m | 7.5m/s | -15.4°C | 18.1% | 524.2hPa | 2.9V | 00:00:00 | 00:00:00 | 00:00:00 | |
| DB0DAN | 2026-09-05 04:59:55 | 52.15755 | 14.38922 | 102° | 95km/h | 5279m | 5.7m/s | -15.1°C | 18.3% | 526.52hPa | 2.9V | 00:00:00 | 00:00:00 | 00:00:00 | |
| EDDB2-12 | 2026-09-05 04:59:54 | 52.15761 | 14.38882 | 102° | 100km/h | 5272m | 7.4m/s | -15.1°C | 18.1% | 527.0hPa | 2.9V | 00:00:00 | 00:00:00 | 00:00:00 | |
| SONDE2-11 | 2026-09-05 04:59:47 | 52.15781 | 14.38611 | 95° | 100km/h | 5223m | 2.6m/s | -14.7°C | 18.1% | 530.4hPa | 2.9V | 00:00:00 | 00:00:00 | 00:00:00 | |
| 13BRC | 2026-09-05 04:59:46 | 52.15781 | 14.38610 | 96° | 100km/h | 5223m | 2.6m/s | -14.6°C | 18.1% | 530.4hPa | 2.9V | 00:00:00 | 00:00:00 | 00:00:00 | |
| DB0DAN | 2026-09-05 04:59:40 | 52.15808 | 14.38328 | 96° | 89km/h | 5183m | 5.1m/s | -14.4°C | 18.6% | 533.15hPa | 2.9V | 00:00:00 | 00:00:00 | 00:00:00 | |
| SP3BTT-10 | 2026-09-05 04:59:40 | 52.15808 | 14.38328 | 96° | 99km/h | 5183m | 5.0m/s | -14.4°C | 19.7% | 533.1hPa | 2.9V | 00:00:00 | 00:00:00 | 00:00:00 | |
| EDDB2-11 | 2026-09-05 04:59:30 | 52.15845 | 14.37920 | 97° | 102km/h | 5127m | 4.3m/s | -14.0°C | 19.0% | 537.3hPa | 2.9V | 00:00:00 | 00:00:00 | 00:00:00 | |
| DB0DAN | 2026-09-05 04:59:25 | 52.15875 | 14.37717 | 105° | 86km/h | 5102m | 4.5m/s | -13.7°C | 18.7% | 539.12hPa | 2.9V | 00:00:00 | 00:00:00 | 00:00:00 | |
| EDDB2-12 | 2026-09-05 04:59:23 | 52.15886 | 14.37645 | 102° | 91km/h | 5090m | 5.6m/s | -13.7°C | 18.7% | 539.9hPa | 2.9V | 00:00:00 | 00:00:00 | 00:00:00 | |
| DL2RXE-15 | 2026-09-05 04:59:22 | 52.15886 | 14.37645 | 104° | 91km/h | 5090m | 5.6m/s | 0°C | 0% | 0hPa | 2.9V | 00:00:00 | 00:00:00 | 00:00:00 | |
| SONDE2-11 | 2026-09-05 04:59:16 | 52.15912 | 14.37385 | 91° | 93km/h | 5055m | 3.0m/s | -13.4°C | 19.1% | 542.3hPa | 2.9V | 00:00:00 | 00:00:00 | 00:00:00 | |
| DB0DAN | 2026-09-05 04:59:10 | 52.15925 | 14.37150 | 99° | 95km/h | 5019m | 8.9m/s | -13.2°C | 20.3% | 544.81hPa | 2.9V | 00:00:00 | 00:00:00 | 00:00:00 | |
| DAC517 | 2026-09-05 04:59:09 | 52.15924 | 14.37150 | 100° | 100km/h | 5019m | 8.9m/s | -13.2°C | 20.3% | 544.8hPa | 2.9V | 00:00:00 | 00:00:00 | 00:00:00 | |
| 13BRC | 2026-09-05 04:59:04 | 52.15954 | 14.36937 | 108° | 108km/h | 4997m | 4.2m/s | -13.1°C | 21.2% | 546.6hPa | 2.9V | 00:00:00 | 00:00:00 | 00:00:00 | |
| EDDB2-11 | 2026-09-05 04:58:59 | 52.15991 | 14.36686 | 97° | 104km/h | 4965m | 8.1m/s | -12.9°C | 21.9% | 548.8hPa | 2.9V | 00:00:00 | 00:00:00 | 00:00:00 | |
| DB0DAN | 2026-09-05 04:58:55 | 52.16002 | 14.36535 | 102° | 88km/h | 4935m | 2.6m/s | -12.7°C | 22.2% | 550.98hPa | 2.9V | 00:00:00 | 00:00:00 | 00:00:00 | |
| EDDB2-12 | 2026-09-05 04:58:52 | 52.16020 | 14.36417 | 104° | 106km/h | 4923m | 3.9m/s | -12.6°C | 22.5% | 552.0hPa | 2.9V | 00:00:00 | 00:00:00 | 00:00:00 | |
| SONDE2-11 | 2026-09-05 04:58:45 | 52.16046 | 14.36140 | 101° | 89km/h | 4882m | 6.2m/s | -12.3°C | 23.2% | 554.8hPa | 2.9V | 00:00:00 | 00:00:00 | 00:00:00 | |
| 13BRC | 2026-09-05 04:58:43 | 52.16051 | 14.36102 | 102° | 99km/h | 4876m | 4.5m/s | -12.3°C | 23.2% | 555.2hPa | 2.9V | 00:00:00 | 00:00:00 | 00:00:00 | |
| DB0DAN | 2026-09-05 04:58:40 | 52.16068 | 14.35942 | 100° | 91km/h | 4846m | 4.9m/s | -12°C | 24.1% | 557.34hPa | 2.9V | 00:00:00 | 00:00:00 | 00:00:00 | |
| DL2RXE-15 | 2026-09-05 04:58:33 | 52.16090 | 14.35697 | 102° | 100km/h | 4822m | 5.0m/s | 0°C | 0% | 0hPa | 2.9V | 00:00:00 | 00:00:00 | 00:00:00 | |
| EDDB2-11 | 2026-09-05 04:58:28 | 52.16128 | 14.35463 | 100° | 104km/h | 4787m | 5.6m/s | -11.6°C | 25.6% | 561.5hPa | 2.9V | 00:00:00 | 00:00:00 | 00:00:00 | |
| DB0DAN | 2026-09-05 04:58:25 | 52.16143 | 14.35336 | 101° | 95km/h | 4768m | 5.2m/s | -11.4°C | 25.6% | 563hPa | 2.9V | 00:00:00 | 00:00:00 | 00:00:00 | |
| 13BRC | 2026-09-05 04:58:22 | 52.16153 | 14.35256 | 104° | 99km/h | 4753m | 7.6m/s | -11.3°C | 25.4% | 564.0hPa | 2.9V | 00:00:00 | 00:00:00 | 00:00:00 | |
| SONDE2-11 | 2026-09-05 04:58:14 | 52.16208 | 14.34910 | 101° | 97km/h | 4706m | 7.6m/s | -11.0°C | 25.2% | 567.3hPa | 2.9V | 00:00:00 | 00:00:00 | 00:00:00 | |
| DL2RXE-15 | 2026-09-05 04:58:12 | 52.16214 | 14.34871 | 104° | 99km/h | 4701m | 3.4m/s | -10.9°C | 0% | 567.9hPa | 2.9V | 00:00:00 | 00:00:00 | 00:00:00 | |
| DB0DAN | 2026-09-05 04:58:10 | 52.16231 | 14.34753 | 104° | 95km/h | 4689m | 3.6m/s | -10.8°C | 25.6% | 568.9hPa | 2.9V | 00:00:00 | 00:00:00 | 00:00:00 | |
| DAC517 | 2026-09-05 04:58:10 | 52.16242 | 14.34674 | 101° | 99km/h | 4683m | 4.1m/s | -10.8°C | 26.0% | 569.4hPa | 2.9V | 00:00:00 | 00:00:00 | 00:00:00 | |
| EDDB2-11 | 2026-09-05 04:57:57 | 52.16287 | 14.34268 | 102° | 95km/h | 4634m | 5.8m/s | -10.6°C | 27.3% | 573.1hPa | 2.9V | 00:00:00 | 00:00:00 | 00:00:00 | |
| DB0DAN | 2026-09-05 04:57:55 | 52.16295 | 14.34192 | 99° | 88km/h | 4618m | 8.1m/s | -10.5°C | 27.5% | 574.3hPa | 2.9V | 00:00:00 | 00:00:00 | 00:00:00 | |
| EDDB2-12 | 2026-09-05 04:57:50 | 52.16317 | 14.33950 | 102° | 97km/h | 4570m | 6.8m/s | -10.3°C | 28.0% | 577.8hPa | 2.8V | 00:00:00 | 00:00:00 | 00:00:00 | |
| DAC517 | 2026-09-05 04:57:46 | 52.16330 | 14.33871 | 108° | 102km/h | 4555m | 9.4m/s | -10.2°C | 28.9% | 578.8hPa | 2.8V | 00:00:00 | 00:00:00 | 00:00:00 | |
| DL2RXE-15 | 2026-09-05 04:57:43 | 52.16352 | 14.33754 | 105° | 93km/h | 4534m | 5.1m/s | 0°C | 0% | 0hPa | 2.8V | 00:00:00 | 00:00:00 | 00:00:00 | |
| DB0DAN | 2026-09-05 04:57:40 | 52.16366 | 14.33610 | 98° | 89km/h | 4516m | 4.7m/s | -10°C | 32% | 581.88hPa | 2.8V | 00:00:00 | 00:00:00 | 00:00:00 | |
| DB0DAN | 2026-09-05 04:57:25 | 52.16436 | 14.33061 | 100° | 95km/h | 4434m | 7.1m/s | -9.4°C | 29.9% | 588.16hPa | 2.9V | 00:00:00 | 00:00:00 | 00:00:00 | |
| SP3BTT-10 | 2026-09-05 04:57:25 | 52.16436 | 14.33061 | 100° | 89km/h | 4434m | 7.1m/s | -9.3°C | 31.1% | 588.1hPa | 2.9V | 00:00:00 | 00:00:00 | 08:30:00 | |
| DL2RXE-15 | 2026-09-05 04:57:22 | 52.16446 | 14.32984 | 105° | 91km/h | 4422m | 3.8m/s | -9.3°C | 0% | 589.0hPa | 2.9V | 00:00:00 | 00:00:00 | 00:00:00 | |
| EDDB2-12 | 2026-09-05 04:57:19 | 52.16471 | 14.32809 | 104° | 93km/h | 4390m | 4.4m/s | -9.0°C | 29.7% | 591.6hPa | 2.9V | 00:00:00 | 00:00:00 | 00:00:00 | |
| DB0DAN | 2026-09-05 04:57:10 | 52.16510 | 14.32516 | 103° | 78km/h | 4351m | 3.6m/s | -8.7°C | 27.9% | 594.7hPa | 2.9V | 00:00:00 | 00:00:00 | 00:00:00 | |
| DAC517 | 2026-09-05 04:57:00 | 52.16564 | 14.32182 | 101° | 91km/h | 4305m | 6.9m/s | -8.4°C | 27.6% | 597.9hPa | 2.9V | 00:00:00 | 00:00:00 | 00:00:00 | |
| 13BRC | 2026-09-05 04:56:59 | 52.16567 | 14.32145 | 96° | 89km/h | 4296m | 10.0m/s | -8.3°C | 27.4% | 598.5hPa | 2.9V | 00:00:00 | 00:00:00 | 00:00:00 | |
| DB0DAN | 2026-09-05 04:56:55 | 52.16579 | 14.31970 | 101° | 82km/h | 4259m | 7.2m/s | -8°C | 27.5% | 601.33hPa | 2.9V | 00:00:00 | 00:00:00 | 00:00:00 | |
| EDDB2-11 | 2026-09-05 04:56:55 | 52.16579 | 14.31970 | 101° | 86km/h | 4259m | 7.2m/s | -8.0°C | 27.5% | 601.3hPa | 2.9V | 00:00:00 | 00:00:00 | 00:00:00 | |
| EDDB2-12 | 2026-09-05 04:56:48 | 52.16626 | 14.31683 | 110° | 82km/h | 4212m | 4.6m/s | -7.7°C | 28.0% | 605.2hPa | 2.9V | 00:00:00 | 00:00:00 | 00:00:00 | |
| DB0DAN | 2026-09-05 04:56:40 | 52.16663 | 14.31447 | 107° | 89km/h | 4175m | 7.4m/s | -7.4°C | 27.7% | 608.13hPa | 2.9V | 00:00:00 | 00:00:00 | 00:00:00 | |
| SP3BTT-10 | 2026-09-05 04:56:40 | 52.16663 | 14.31447 | 107° | 97km/h | 4175m | 7.3m/s | -7.3°C | 28.8% | 608.1hPa | 2.9V | 00:00:00 | 00:00:00 | 00:00:00 | |
| 13BRC | 2026-09-05 04:56:39 | 52.16663 | 14.31447 | 108° | 95km/h | 4175m | 7.4m/s | -7.4°C | 27.7% | 608.1hPa | 2.9V | 00:00:00 | 00:00:00 | 00:00:00 | |
| DL2RXE-15 | 2026-09-05 04:56:32 | 52.16723 | 14.31207 | 111° | 88km/h | 4139m | 5.8m/s | -7.1°C | 0% | 611.0hPa | 2.9V | 00:00:00 | 00:00:00 | 00:00:00 | |
| DB0DAN | 2026-09-05 04:56:25 | 52.16773 | 14.30943 | 108° | 84km/h | 4087m | 6m/s | -6.6°C | 27.2% | 615.15hPa | 2.9V | 00:00:00 | 00:00:00 | 00:00:00 | |
| EDDB2-11 | 2026-09-05 04:56:24 | 52.16780 | 14.30908 | 106° | 89km/h | 4082m | 4.7m/s | -6.6°C | 27.3% | 615.5hPa | 2.9V | 00:00:00 | 00:00:00 | 00:00:00 | |
| EDDB2-12 | 2026-09-05 04:56:17 | 52.16818 | 14.30599 | 107° | 102km/h | 4038m | 7.8m/s | -6.2°C | 26.5% | 618.9hPa | 2.9V | 00:00:00 | 00:00:00 | 00:00:00 | |
| DB0DAN | 2026-09-05 04:56:10 | 52.16861 | 14.30354 | 106° | 106km/h | 3998m | 5.4m/s | -5.9°C | 26.2% | 621.94hPa | 2.9V | 00:00:00 | 00:00:00 | 00:00:00 | |
| SONDE2-11 | 2026-09-05 04:56:10 | 52.16870 | 14.30310 | 108° | 108km/h | 3993m | 4.5m/s | -5.8°C | 26.2% | 622.4hPa | 2.9V | 00:00:00 | 00:00:00 | 00:00:00 | |
| DL2RXE-15 | 2026-09-05 04:55:59 | 52.16938 | 14.29974 | 108° | 89km/h | 3936m | 5.5m/s | 0°C | 0% | 0hPa | 2.9V | 00:00:00 | 00:00:00 | 00:00:00 | |
| 13BRC | 2026-09-05 04:55:57 | 52.16951 | 14.29902 | 104° | 91km/h | 3927m | 5.4m/s | -5.3°C | 24.7% | 627.8hPa | 2.9V | 00:00:00 | 00:00:00 | 00:00:00 | |
| DB0DAN | 2026-09-05 04:55:55 | 52.16966 | 14.29790 | 103° | 89km/h | 3915m | 4.5m/s | -5.2°C | 24.4% | 628.84hPa | 2.9V | 00:00:00 | 00:00:00 | 00:00:00 | |
| EDDB2-11 | 2026-09-05 04:55:53 | 52.16976 | 14.29713 | 99° | 97km/h | 3903m | 8.6m/s | -5.1°C | 23.8% | 629.7hPa | 2.9V | 00:00:00 | 00:00:00 | 00:00:00 | |
| EDDB2-12 | 2026-09-05 04:55:46 | 52.17023 | 14.29408 | 106° | 91km/h | 3859m | 6.2m/s | -4.9°C | 22.4% | 633.3hPa | 2.9V | 00:00:00 | 00:00:00 | 00:00:00 | |
| DB0DAN | 2026-09-05 04:55:40 | 52.17043 | 14.29228 | 98° | 78km/h | 3837m | 5.1m/s | -4.7°C | 21.9% | 635.03hPa | 2.9V | 00:00:00 | 00:00:00 | 00:00:00 | |
| DAC517 | 2026-09-05 04:55:38 | 52.17047 | 14.29194 | 103° | 82km/h | 3833m | 3.8m/s | -4.6°C | 0% | 635.3hPa | 2.9V | 00:00:00 | 00:00:00 | 00:00:00 | |
| 13BRC | 2026-09-05 04:55:37 | 52.17052 | 14.29161 | 107° | 84km/h | 3828m | 6.3m/s | -4.6°C | 21.7% | 635.8hPa | 2.9V | 00:00:00 | 00:00:00 | 00:00:00 | |
| EDDB2-11 | 2026-09-05 04:55:22 | 52.17176 | 14.28592 | 106° | 88km/h | 3737m | 9.0m/s | -4.0°C | 13.7% | 642.9hPa | 2.9V | 00:00:00 | 00:00:00 | 00:00:00 | |
| DAC517 | 2026-09-05 04:55:17 | 52.17199 | 14.28458 | 106° | 89km/h | 3711m | 2.3m/s | -3.8°C | 0% | 645.2hPa | 2.9V | 00:00:00 | 00:00:00 | 00:00:00 | |
| 13BRC | 2026-09-05 04:55:16 | 52.17205 | 14.28421 | 107° | 93km/h | 3708m | 5.0m/s | -3.8°C | 10.2% | 645.4hPa | 2.9V | 00:00:00 | 00:00:00 | 00:00:00 | |
| EDDB2-12 | 2026-09-05 04:55:15 | 52.17226 | 14.28308 | 107° | 97km/h | 3688m | 7.9m/s | -3.8°C | 10.1% | 647.0hPa | 2.9V | 00:00:00 | 00:00:00 | 00:00:00 | |
| SP3BTT-10 | 2026-09-05 04:55:10 | 52.17258 | 14.28158 | 114° | 93km/h | 3669m | 2.9m/s | -3.6°C | 10.9% | 648.5hPa | 2.9V | 00:00:00 | 00:00:00 | 00:00:00 | |
| SONDE2-11 | 2026-09-05 04:55:08 | 52.17289 | 14.28049 | 116° | 97km/h | 3657m | 4.2m/s | -3.7°C | 11.7% | 649.6hPa | 2.9V | 00:00:00 | 00:00:00 | 00:00:00 | |
| EDDB2-11 | 2026-09-05 04:54:51 | 52.17395 | 14.27481 | 106° | 102km/h | 3561m | 2.5m/s | -3.3°C | 11.8% | 657.5hPa | 2.9V | 00:00:00 | 00:00:00 | 00:00:00 | |
| DL2RXE-15 | 2026-09-05 04:54:50 | 52.17395 | 14.27481 | 108° | 102km/h | 3562m | 2.5m/s | 0°C | 0% | 657.5hPa | 2.9V | 00:00:00 | 00:00:00 | 00:00:00 | |
| EDDB2-12 | 2026-09-05 04:54:44 | 52.17446 | 14.27176 | 112° | 91km/h | 3521m | 6.5m/s | -3.2°C | 12.9% | 660.8hPa | 2.9V | 00:00:00 | 00:00:00 | 00:00:00 | |
| DB0DAN | 2026-09-05 04:54:40 | 52.17474 | 14.27070 | 113° | 88km/h | 3501m | 4.3m/s | -3°C | 13% | 662.79hPa | 2.9V | 00:00:00 | 00:00:00 | 00:00:00 | |
| DAC517 | 2026-09-05 04:54:35 | 52.17509 | 14.26938 | 111° | 86km/h | 3485m | 5.4m/s | -2.9°C | 0% | 664.0hPa | 2.9V | 00:00:00 | 00:00:00 | 00:00:00 | |
| SP3BTT-10 | 2026-09-05 04:54:28 | 52.17566 | 14.26661 | 109° | 95km/h | 3433m | 4.8m/s | 0°C | 0% | 0hPa | 2.9V | 00:00:00 | 00:00:00 | 00:00:00 | |
| DB0DAN | 2026-09-05 04:54:25 | 52.17592 | 14.26551 | 114° | 93km/h | 3414m | 5.2m/s | -2.5°C | 13.5% | 669.99hPa | 2.9V | 00:00:00 | 00:00:00 | 00:00:00 | |
| EDDB2-11 | 2026-09-05 04:54:20 | 52.17645 | 14.26374 | 113° | 91km/h | 3394m | 3.1m/s | -2.3°C | 13.1% | 672.1hPa | 2.9V | 00:00:00 | 00:00:00 | 00:00:00 | |
| DL2RXE-15 | 2026-09-05 04:54:16 | 52.17669 | 14.26273 | 112° | 80km/h | 3379m | 8.0m/s | 0°C | 0% | 0hPa | 2.9V | 00:00:00 | 00:00:00 | 00:00:00 | |
| DAC517 | 2026-09-05 04:54:15 | 52.17684 | 14.26212 | 116° | 84km/h | 3365m | 6.3m/s | -2.0°C | 0% | 674.4hPa | 2.9V | 00:00:00 | 00:00:00 | 00:00:00 | |
| DB0DAN | 2026-09-05 04:54:10 | 52.17735 | 14.26030 | 115° | 99km/h | 3333m | 5.7m/s | -2°C | 13.4% | 677.22hPa | 2.9V | 00:00:00 | 00:00:00 | 00:00:00 | |
| SONDE2-11 | 2026-09-05 04:54:05 | 52.17785 | 14.25844 | 113° | 91km/h | 3308m | 7.1m/s | -1.8°C | 13.3% | 679.2hPa | 2.9V | 00:00:00 | 00:00:00 | 00:00:00 | |
| EDDB2-11 | 2026-09-05 04:53:49 | 52.17901 | 14.25285 | 109° | 88km/h | 3204m | 5.4m/s | -1.8°C | 20.3% | 688.1hPa | 2.9V | 00:00:00 | 00:00:00 | 00:00:00 | |
| EDDB2-12 | 2026-09-05 04:53:41 | 52.17969 | 14.25030 | 112° | 89km/h | 3153m | 9.0m/s | -1.8°C | 23.8% | 692.2hPa | 2.9V | 00:00:00 | 00:00:00 | 00:00:00 | |
| SONDE2-11 | 2026-09-05 04:53:34 | 52.18020 | 14.24799 | 110° | 82km/h | 3117m | 5.2m/s | -1.7°C | 21.6% | 695.4hPa | 2.9V | 00:00:00 | 00:00:00 | 00:00:00 | |
| DAC517 | 2026-09-05 04:53:33 | 52.18021 | 14.24799 | 111° | 84km/h | 3117m | 5.2m/s | 0°C | 0% | 0hPa | 2.9V | 00:00:00 | 00:00:00 | 00:00:00 | |
| DL2RXE-15 | 2026-09-05 04:53:31 | 52.18036 | 14.24733 | 113° | 88km/h | 3105m | 5.6m/s | 0°C | 0% | 696.3hPa | 2.9V | 00:00:00 | 00:00:00 | 00:00:00 | |
| EDDB2-11 | 2026-09-05 04:53:18 | 52.18172 | 14.24248 | 115° | 78km/h | 3026m | 5.9m/s | -1.4°C | 22.1% | 703.3hPa | 2.9V | 00:00:00 | 00:00:00 | 00:00:00 | |
| 13BRC | 2026-09-05 04:53:13 | 52.18201 | 14.24128 | 112° | 80km/h | 3003m | 9.8m/s | -1.2°C | 20.9% | 705.5hPa | 2.9V | 00:00:00 | 00:00:00 | 00:00:00 | |
| DB0DAN | 2026-09-05 04:53:10 | 52.18235 | 14.24012 | 116° | 71km/h | 2974m | 5.4m/s | -1.1°C | 20.9% | 708.05hPa | 2.9V | 00:00:00 | 00:00:00 | 00:00:00 | |
| DAC517 | 2026-09-05 04:53:09 | 52.18235 | 14.24012 | 117° | 75km/h | 2974m | 5.4m/s | 0°C | 0% | 0hPa | 2.9V | 00:00:00 | 00:00:00 | 00:00:00 | |
| DL2RXE-15 | 2026-09-05 04:53:05 | 52.18257 | 14.23889 | 103° | 84km/h | 2954m | 6.1m/s | 0°C | 0% | 0hPa | 2.9V | 00:00:00 | 00:00:00 | 00:00:00 | |
| SONDE2-11 | 2026-09-05 04:53:03 | 52.18277 | 14.23785 | 109° | 91km/h | 2936m | 8.2m/s | -0.9°C | 19.6% | 711.6hPa | 2.9V | 00:00:00 | 00:00:00 | 00:00:00 | |
| DB0DAN | 2026-09-05 04:52:55 | 52.18349 | 14.23496 | 110° | 91km/h | 2870m | 8m/s | -0.5°C | 20% | 717.42hPa | 2.9V | 00:00:00 | 00:00:00 | 00:00:00 | |
| EDDB2-11 | 2026-09-05 04:52:47 | 52.18409 | 14.23204 | 100° | 84km/h | 2808m | 7.7m/s | 0.0°C | 21.2% | 723.2hPa | 2.9V | 00:00:00 | 00:00:00 | 00:00:00 | |
| DL2RXE-15 | 2026-09-05 04:52:43 | 52.18418 | 14.23138 | 108° | 80km/h | 2793m | 7.9m/s | 0°C | 0% | 0hPa | 2.9V | 00:00:00 | 00:00:00 | 00:00:00 | |
| DB0DAN | 2026-09-05 04:52:40 | 52.18447 | 14.23021 | 110° | 68km/h | 2765m | 6.9m/s | 0.1°C | 27.9% | 727.09hPa | 2.9V | 00:00:00 | 00:00:00 | 00:00:00 | |
| EDDB2-12 | 2026-09-05 04:52:39 | 52.18452 | 14.22993 | 105° | 68km/h | 2760m | 3.3m/s | 0.1°C | 27.9% | 727.5hPa | 2.9V | 00:00:00 | 00:00:00 | 00:00:00 | |
| SONDE2-11 | 2026-09-05 04:52:32 | 52.18483 | 14.22797 | 111° | 66km/h | 2715m | 6.0m/s | 0.3°C | 29.2% | 731.5hPa | 2.9V | 00:00:00 | 00:00:00 | 00:00:00 | |
| 13BRC | 2026-09-05 04:52:29 | 52.18497 | 14.22746 | 117° | 71km/h | 2699m | 5.4m/s | 0.4°C | 29.6% | 732.9hPa | 2.9V | 00:00:00 | 00:00:00 | 00:00:00 | |
| DB0DAN | 2026-09-05 04:52:25 | 52.18543 | 14.22603 | 108° | 75km/h | 2663m | 5.6m/s | 0.6°C | 0% | 736.33hPa | 2.9V | 00:00:00 | 00:00:00 | 00:00:00 | |
| DB0DAN | 2026-09-05 04:52:10 | 52.18647 | 14.22136 | 107° | 66km/h | 2563m | 7m/s | 0°C | 0% | 745.31hPa | 2.9V | 00:00:00 | 00:00:00 | 00:00:00 | |
| SP3BTT-10 | 2026-09-05 04:52:10 | 52.18647 | 14.22136 | 107° | 77km/h | 2564m | 6.9m/s | 0°C | 0% | 0hPa | 2.9V | 00:00:00 | 00:00:00 | 00:00:00 | |
| 13BRC | 2026-09-05 04:52:09 | 52.18647 | 14.22136 | 108° | 69km/h | 2564m | 7.0m/s | 1.3°C | 0% | 745.3hPa | 2.9V | 00:00:00 | 00:00:00 | 00:00:00 | |
| EDDB2-12 | 2026-09-05 04:52:08 | 52.18657 | 14.22082 | 110° | 68km/h | 2551m | 4.6m/s | 1.4°C | 26.7% | 746.5hPa | 2.9V | 00:00:00 | 00:00:00 | 00:00:00 | |
| DL2RXE-15 | 2026-09-05 04:52:05 | 52.18669 | 14.22032 | 111° | 66km/h | 2539m | 7.0m/s | 0°C | 0% | 0hPa | 2.9V | 00:00:00 | 00:00:00 | 00:00:00 | |
| SONDE2-11 | 2026-09-05 04:52:01 | 52.18702 | 14.21890 | 115° | 77km/h | 2509m | 7.8m/s | 1.3°C | 34.1% | 750.3hPa | 2.9V | 00:00:00 | 00:00:00 | 00:00:00 | |
| DB0DAN | 2026-09-05 04:51:55 | 52.18742 | 14.21719 | 105° | 77km/h | 2480m | 5.2m/s | 0°C | 0% | 0hPa | 2.9V | 00:00:00 | 00:00:00 | 00:00:00 | |
| 13BRC | 2026-09-05 04:51:48 | 52.18773 | 14.21538 | 108° | 78km/h | 2444m | 4.3m/s | 1.8°C | 0% | 0hPa | 2.9V | 00:00:00 | 00:00:00 | 00:00:00 | |
| EDDB2-11 | 2026-09-05 04:51:45 | 52.18814 | 14.21378 | 114° | 82km/h | 2419m | 8.0m/s | 2.0°C | 26.8% | 759.2hPa | 2.9V | 00:00:00 | 00:00:00 | 00:00:00 | |
| EDDB2-12 | 2026-09-05 04:51:37 | 52.18857 | 14.21159 | 106° | 84km/h | 2375m | 4.9m/s | 2.1°C | 22.5% | 763.2hPa | 2.9V | 00:00:00 | 00:00:00 | 00:00:00 | |
| SONDE2-11 | 2026-09-05 04:51:30 | 52.18895 | 14.20936 | 110° | 68km/h | 2339m | 8.1m/s | 1.3°C | 50.5% | 766.5hPa | 2.9V | 00:00:00 | 00:00:00 | 00:00:00 | |
| 13BRC | 2026-09-05 04:51:28 | 52.18901 | 14.20910 | 109° | 64km/h | 2331m | 8.8m/s | 0°C | 0% | 0hPa | 2.9V | 00:00:00 | 00:00:00 | 00:00:00 | |
| SP3BTT-10 | 2026-09-05 04:51:25 | 52.18917 | 14.20808 | 106° | 68km/h | 2309m | 2.3m/s | 0°C | 0% | 0hPa | 2.9V | 00:00:00 | 00:00:00 | 00:00:00 | |
| EDDB2-11 | 2026-09-05 04:51:14 | 52.18990 | 14.20516 | 110° | 57km/h | 2241m | 4.4m/s | 1.0°C | 59.3% | 775.9hPa | 2.9V | 00:00:00 | 00:00:00 | 00:00:00 | |
| DB0DAN | 2026-09-05 04:51:10 | 52.19001 | 14.20448 | 100° | 60km/h | 2224m | 6.5m/s | 0°C | 0% | 0hPa | 2.9V | 00:00:00 | 00:00:00 | 00:00:00 | |
| 13BRC | 2026-09-05 04:51:07 | 52.19007 | 14.20395 | 105° | 69km/h | 2209m | 8.6m/s | 0°C | 0% | 0hPa | 0V | 00:00:00 | 00:00:00 | 00:00:00 | |
| EDDB2-12 | 2026-09-05 04:51:06 | 52.19018 | 14.20340 | 109° | 69km/h | 2196m | 8.3m/s | 1.1°C | 79.5% | 780.2hPa | 0V | 00:00:00 | 00:00:00 | 00:00:00 | |
| DL2RXE-15 | 2026-09-05 04:51:05 | 52.19018 | 14.20340 | 111° | 69km/h | 2196m | 8.3m/s | 0°C | 0% | 0hPa | 0V | 00:00:00 | 00:00:00 | 00:00:00 | |
| SONDE2-11 | 2026-09-05 04:50:59 | 52.19059 | 14.20143 | 110° | 80km/h | 2151m | 3.5m/s | 1.3°C | 85.8% | 784.5hPa | 0V | 00:00:00 | 00:00:00 | 00:00:00 | |
| SP3BTT-10 | 2026-09-05 04:50:44 | 52.19143 | 14.19766 | 119° | 66km/h | 2068m | 5.9m/s | 0°C | 0% | 0hPa | 0V | 00:00:00 | 00:00:00 | 00:00:00 | |
| EDDB2-11 | 2026-09-05 04:50:43 | 52.19160 | 14.19721 | 122° | 64km/h | 2058m | 5.1m/s | 1.6°C | 93.4% | 793.7hPa | 0V | 00:00:00 | 00:00:00 | 00:00:00 | |
| EDDB2-12 | 2026-09-05 04:50:35 | 52.19216 | 14.19528 | 115° | 71km/h | 2023m | 5.0m/s | 1.9°C | 91.5% | 797.1hPa | 0V | 00:00:00 | 00:00:00 | 00:00:00 | |
| SONDE2-11 | 2026-09-05 04:50:28 | 52.19267 | 14.19367 | 114° | 55km/h | 1983m | 10.0m/s | 2.3°C | 85.4% | 800.8hPa | 0V | 00:00:00 | 00:00:00 | 00:00:00 | |
| EDDB2-11 | 2026-09-05 04:50:12 | 52.19390 | 14.18954 | 111° | 62km/h | 1882m | 2.4m/s | 2.9°C | 89.1% | 811.3hPa | 0V | 00:00:00 | 00:00:00 | 00:00:00 | |
| EDDB2-12 | 2026-09-05 04:50:04 | 52.19437 | 14.18796 | 118° | 73km/h | 1841m | 6.1m/s | 3.2°C | 87.0% | 815.2hPa | 0V | 00:00:00 | 00:00:00 | 00:00:00 | |
| SONDE2-11 | 2026-09-05 04:49:57 | 52.19492 | 14.18622 | 115° | 53km/h | 1799m | 5.6m/s | 3.6°C | 78.9% | 819.3hPa | 0V | 00:00:00 | 00:00:00 | 00:00:00 | |
| EDDB2-11 | 2026-09-05 04:49:41 | 52.19610 | 14.18204 | 124° | 60km/h | 1709m | 5.7m/s | 4.4°C | 74.6% | 828.5hPa | 0V | 00:00:00 | 00:00:00 | 00:00:00 | |
| EDDB2-12 | 2026-09-05 04:49:33 | 52.19644 | 14.18034 | 101° | 68km/h | 1676m | 4.5m/s | 4.7°C | 74.0% | 831.8hPa | 0V | 00:00:00 | 00:00:00 | 00:00:00 | |
| SONDE2-11 | 2026-09-05 04:49:26 | 52.19690 | 14.17850 | 115° | 68km/h | 1634m | 6.6m/s | 5.0°C | 76.3% | 836.1hPa | 0V | 00:00:00 | 00:00:00 | 00:00:00 | |
| EDDB2-11 | 2026-09-05 04:49:09 | 52.19817 | 14.17417 | 116° | 75km/h | 1543m | 6.0m/s | 5.7°C | 73.4% | 845.2hPa | 0V | 00:00:00 | 00:00:00 | 00:00:00 | |
| EDDB2-12 | 2026-09-05 04:49:02 | 52.19872 | 14.17245 | 110° | 68km/h | 1510m | 3.8m/s | 6.0°C | 73.4% | 848.9hPa | 0V | 00:00:00 | 00:00:00 | 00:00:00 | |
| SONDE2-11 | 2026-09-05 04:48:55 | 52.19910 | 14.17058 | 109° | 68km/h | 1463m | 4.0m/s | 6.3°C | 79.3% | 853.8hPa | 0V | 00:00:00 | 00:00:00 | 00:00:00 | |
| EDDB2-11 | 2026-09-05 04:48:38 | 52.20043 | 14.16650 | 124° | 60km/h | 1373m | 8.7m/s | 6.9°C | 81.2% | 863.3hPa | 0V | 00:00:00 | 00:00:00 | 00:00:00 | |
| EDDB2-12 | 2026-09-05 04:48:31 | 52.20099 | 14.16484 | 110° | 75km/h | 1336m | 6.0m/s | 7.1°C | 74.8% | 867.2hPa | 0V | 00:00:00 | 00:00:00 | 00:00:00 | |
| SONDE2-11 | 2026-09-05 04:48:24 | 52.20145 | 14.16320 | 115° | 46km/h | 1298m | 6.4m/s | 7.4°C | 75.2% | 871.3hPa | 0V | 00:00:00 | 00:00:00 | 00:00:00 | |
| EDDB2-11 | 2026-09-05 04:48:07 | 52.20243 | 14.15936 | 119° | 66km/h | 1207m | 4.0m/s | 8.2°C | 72.9% | 880.8hPa | 0V | 00:00:00 | 00:00:00 | 00:00:00 | |
| EDDB2-12 | 2026-09-05 04:48:00 | 52.20290 | 14.15781 | 124° | 62km/h | 1169m | 6.8m/s | 8.5°C | 70.5% | 885.0hPa | 0V | 00:00:00 | 00:00:00 | 00:00:00 | |
| SONDE2-11 | 2026-09-05 04:47:53 | 52.20347 | 14.15623 | 110° | 66km/h | 1129m | 4.7m/s | 8.8°C | 70.9% | 889.2hPa | 0V | 00:00:00 | 00:00:00 | 00:00:00 | |
| EDDB2-11 | 2026-09-05 04:47:36 | 52.20468 | 14.15243 | 113° | 68km/h | 1037m | 3.9m/s | 9.6°C | 64.7% | 898.7hPa | 0V | 00:00:00 | 00:00:00 | 00:00:00 | |
| EDDB2-12 | 2026-09-05 04:47:29 | 52.20520 | 14.15091 | 122° | 55km/h | 1001m | 5.5m/s | 9.7°C | 66.5% | 902.8hPa | 0V | 00:00:00 | 00:00:00 | 00:00:00 | |
| SONDE2-11 | 2026-09-05 04:47:22 | 52.20553 | 14.14928 | 99° | 62km/h | 959m | 7.3m/s | 9.9°C | 71.6% | 907.6hPa | 0V | 00:00:00 | 00:00:00 | 00:00:00 | |
| EDDB2-11 | 2026-09-05 04:47:05 | 52.20678 | 14.14531 | 122° | 57km/h | 860m | 4.7m/s | 10.0°C | 85.7% | 918.6hPa | 0V | 00:00:00 | 00:00:00 | 00:00:00 | |
| EDDB2-12 | 2026-09-05 04:46:58 | 52.20721 | 14.14373 | 121° | 62km/h | 818m | 5.3m/s | 10.4°C | 85.3% | 923.1hPa | 0V | 00:00:00 | 00:00:00 | 00:00:00 | |
| SONDE2-11 | 2026-09-05 04:46:51 | 52.20780 | 14.14176 | 108° | 58km/h | 764m | 5.1m/s | 10.4°C | 93.1% | 929.3hPa | 0V | 00:00:00 | 00:00:00 | 00:00:00 | |
| EDDB2-11 | 2026-09-05 04:46:34 | 52.20875 | 14.13772 | 97° | 71km/h | 665m | 5.4m/s | 10.4°C | 99.4% | 940.5hPa | 0V | 00:00:00 | 00:00:00 | 00:00:00 | |
| EDDB2-12 | 2026-09-05 04:46:27 | 52.20893 | 14.13583 | 102° | 68km/h | 621m | 3.8m/s | 10.8°C | 97.5% | 945.4hPa | 0V | 00:00:00 | 00:00:00 | 00:00:00 | |
| SONDE2-11 | 2026-09-05 04:46:20 | 52.20911 | 14.13391 | 106° | 62km/h | 579m | 5.2m/s | 11.2°C | 95.9% | 950.0hPa | 0V | 00:00:00 | 00:00:00 | 00:00:00 | |
| EDDB2-11 | 2026-09-05 04:46:03 | 52.20962 | 14.12994 | 87° | 60km/h | 497m | 3.7m/s | 11.7°C | -1.0% | -1.0hPa | 0V | 00:00:00 | 00:00:00 | 00:00:00 | |
| EDDB2-12 | 2026-09-05 04:45:56 | 52.20958 | 14.12840 | 90° | 51km/h | 459m | 4.5m/s | 11.9°C | 94.9% | 964.1hPa | 0V | 00:00:00 | 00:00:00 | 00:00:00 | |
| SONDE2-11 | 2026-09-05 04:45:49 | 52.20957 | 14.12672 | 94° | 58km/h | 419m | 5.5m/s | 12.3°C | 92.8% | 968.9hPa | 0V | 00:00:00 | 00:00:00 | 00:00:00 | |
| EDDB2-11 | 2026-09-05 04:45:35 | 52.20951 | 14.12397 | 89° | 37km/h | 315m | 7.9m/s | 0°C | -1.0% | -1.0hPa | 0V | 00:00:00 | 00:00:00 | 00:00:00 | |
| EDDB2-12 | 2026-09-05 04:45:25 | 52.20958 | 14.12278 | 90° | 44km/h | 273m | 9.2m/s | 0°C | -1.0% | 985.8hPa | 0V | 00:00:00 | 00:00:00 | 00:00:00 | |
| SONDE2-11 | 2026-09-05 04:45:18 | 52.20974 | 14.12158 | 78° | 20km/h | 229m | 6.8m/s | 0°C | -1.0% | -1.0hPa | 0V | 00:00:00 | 00:00:00 | 00:00:00 |